<?xml version='1.0' encoding='UTF-8'?><gpx version="1.1" creator="JPX - https://github.com/jenetics/jpx" xmlns="http://www.topografix.com/GPX/1/1"><trk><trkseg><trkpt lat="45.52602049257671" lon="10.51510382596988"><ele>179.00000000000003</ele><time>2026-05-02T14:05:40.001Z</time></trkpt><trkpt lat="45.52601551905012" lon="10.5149993921646"><ele>179.0</ele><time>2026-05-02T14:08:10.001Z</time></trkpt><trkpt lat="45.52597470392279" lon="10.514918757025097"><ele>179.0</ele><time>2026-05-02T14:08:29Z</time></trkpt><trkpt lat="45.525922831385486" lon="10.514799006675727"><ele>179.0</ele><time>2026-05-02T14:08:31Z</time></trkpt><trkpt lat="45.52589805411826" lon="10.514714708451537"><ele>179.0</ele><time>2026-05-02T14:08:33Z</time></trkpt><trkpt lat="45.52584706969166" lon="10.514650497056156"><ele>179.00000000000003</ele><time>2026-05-02T14:08:37Z</time></trkpt><trkpt lat="45.52578531041369" lon="10.51459558194589"><ele>179.0</ele><time>2026-05-02T14:08:41Z</time></trkpt><trkpt lat="45.52571128234665" lon="10.51459766282664"><ele>179.0</ele><time>2026-05-02T14:08:45Z</time></trkpt><trkpt lat="45.52564576352068" lon="10.51458639860091"><ele>179.0</ele><time>2026-05-02T14:08:51Z</time></trkpt><trkpt lat="45.525579008884236" lon="10.514611492847552"><ele>179.0</ele><time>2026-05-02T14:08:55Z</time></trkpt><trkpt lat="45.525531046193144" lon="10.514678884985852"><ele>179.0</ele><time>2026-05-02T14:08:59Z</time></trkpt><trkpt lat="45.52548581508838" lon="10.514764980360075"><ele>179.0</ele><time>2026-05-02T14:09:06Z</time></trkpt><trkpt lat="45.52542982817285" lon="10.514873760352758"><ele>179.0</ele><time>2026-05-02T14:09:08Z</time></trkpt><trkpt lat="45.525378486496955" lon="10.51502212624873"><ele>178.5</ele><time>2026-05-02T14:09:10Z</time></trkpt><trkpt lat="45.52532704480245" lon="10.515082731048373"><ele>178.0</ele><time>2026-05-02T14:09:11Z</time></trkpt><trkpt lat="45.52526833370435" lon="10.515236784947822"><ele>177.5</ele><time>2026-05-02T14:09:13Z</time></trkpt><trkpt lat="45.5252378365022" lon="10.51531936874883"><ele>177.0</ele><time>2026-05-02T14:09:14Z</time></trkpt><trkpt lat="45.52520958150339" lon="10.515400408715855"><ele>176.5</ele><time>2026-05-02T14:09:15Z</time></trkpt><trkpt lat="45.52515722376842" lon="10.515550579272093"><ele>176.0</ele><time>2026-05-02T14:09:17Z</time></trkpt><trkpt lat="45.52512785049323" lon="10.515688298192087"><ele>174.8</ele><time>2026-05-02T14:09:19Z</time></trkpt><trkpt lat="45.52508106416843" lon="10.515774433313773"><ele>173.60000000000002</ele><time>2026-05-02T14:09:21Z</time></trkpt><trkpt lat="45.52505353368347" lon="10.515855700368684"><ele>172.4</ele><time>2026-05-02T14:09:25Z</time></trkpt><trkpt lat="45.52519973781927" lon="10.515983759301585"><ele>171.2</ele><time>2026-05-02T14:09:28Z</time></trkpt><trkpt lat="45.52527092781576" lon="10.51600572392708"><ele>170.0</ele><time>2026-05-02T14:09:29Z</time></trkpt><trkpt lat="45.52533960101704" lon="10.516026569949021"><ele>170.33333333333331</ele><time>2026-05-02T14:09:30Z</time></trkpt><trkpt lat="45.52541281191825" lon="10.516054742793553"><ele>170.66666666666666</ele><time>2026-05-02T14:09:31Z</time></trkpt><trkpt lat="45.52549296952761" lon="10.516086191341664"><ele>171.0</ele><time>2026-05-02T14:09:32Z</time></trkpt><trkpt lat="45.52557334504621" lon="10.516111049212881"><ele>171.33333333333334</ele><time>2026-05-02T14:09:33Z</time></trkpt><trkpt lat="45.525654706421115" lon="10.516134936092998"><ele>171.66666666666669</ele><time>2026-05-02T14:09:34Z</time></trkpt><trkpt lat="45.52573382858832" lon="10.516155418407676"><ele>172.0</ele><time>2026-05-02T14:09:35Z</time></trkpt><trkpt lat="45.52581438880545" lon="10.516172499556145"><ele>172.0</ele><time>2026-05-02T14:09:36Z</time></trkpt><trkpt lat="45.525902817858274" lon="10.51618482138591"><ele>172.0</ele><time>2026-05-02T14:09:37Z</time></trkpt><trkpt lat="45.525991760479265" lon="10.516185021352698"><ele>172.0</ele><time>2026-05-02T14:09:38Z</time></trkpt><trkpt lat="45.52608827779616" lon="10.516191066050865"><ele>172.0</ele><time>2026-05-02T14:09:39Z</time></trkpt><trkpt lat="45.526184566558925" lon="10.516200212364607"><ele>172.0</ele><time>2026-05-02T14:09:40Z</time></trkpt><trkpt lat="45.5262823473108" lon="10.516220532272246"><ele>172.2</ele><time>2026-05-02T14:09:41Z</time></trkpt><trkpt lat="45.526381017081505" lon="10.516229208488454"><ele>172.39999999999998</ele><time>2026-05-02T14:09:42Z</time></trkpt><trkpt lat="45.526470411279796" lon="10.516237714304005"><ele>172.60000000000002</ele><time>2026-05-02T14:09:43Z</time></trkpt><trkpt lat="45.526558773048286" lon="10.516220485559653"><ele>172.8</ele><time>2026-05-02T14:09:44Z</time></trkpt><trkpt lat="45.52664680667335" lon="10.516185604685546"><ele>173.0</ele><time>2026-05-02T14:09:45Z</time></trkpt><trkpt lat="45.52672927389716" lon="10.516132804410747"><ele>173.0</ele><time>2026-05-02T14:09:46Z</time></trkpt><trkpt lat="45.52681256511005" lon="10.51607403289534"><ele>173.0</ele><time>2026-05-02T14:09:47Z</time></trkpt><trkpt lat="45.526888621877" lon="10.516022239595982"><ele>173.0</ele><time>2026-05-02T14:09:48Z</time></trkpt><trkpt lat="45.526964243791284" lon="10.515982276362637"><ele>173.0</ele><time>2026-05-02T14:09:49Z</time></trkpt><trkpt lat="45.52704562399252" lon="10.515983277686695"><ele>173.0</ele><time>2026-05-02T14:09:50Z</time></trkpt><trkpt lat="45.52712558438916" lon="10.515960958908911"><ele>173.0</ele><time>2026-05-02T14:09:51Z</time></trkpt><trkpt lat="45.52720452385412" lon="10.51600150541142"><ele>173.5</ele><time>2026-05-02T14:09:52Z</time></trkpt><trkpt lat="45.527285268656165" lon="10.516035050123863"><ele>174.0</ele><time>2026-05-02T14:09:53Z</time></trkpt><trkpt lat="45.52736721653559" lon="10.516076265219263"><ele>174.5</ele><time>2026-05-02T14:09:54Z</time></trkpt><trkpt lat="45.527454973735615" lon="10.516107885299018"><ele>175.0</ele><time>2026-05-02T14:09:55Z</time></trkpt><trkpt lat="45.52753761043316" lon="10.516148660258184"><ele>175.5</ele><time>2026-05-02T14:09:56Z</time></trkpt><trkpt lat="45.5276146827196" lon="10.516171444750748"><ele>176.0</ele><time>2026-05-02T14:09:57Z</time></trkpt><trkpt lat="45.52768680253838" lon="10.516186518146323"><ele>176.0</ele><time>2026-05-02T14:09:58Z</time></trkpt><trkpt lat="45.527805971649656" lon="10.51620336720913"><ele>176.0</ele><time>2026-05-02T14:10:00Z</time></trkpt><trkpt lat="45.527879073431244" lon="10.51622411994924"><ele>176.0</ele><time>2026-05-02T14:10:02Z</time></trkpt><trkpt lat="45.52795902113017" lon="10.51623965929114"><ele>176.0</ele><time>2026-05-02T14:10:06Z</time></trkpt><trkpt lat="45.52798380545761" lon="10.516103676884853"><ele>176.0</ele><time>2026-05-02T14:10:07Z</time></trkpt><trkpt lat="45.527988769832966" lon="10.516002698054523"><ele>176.0</ele><time>2026-05-02T14:10:08Z</time></trkpt><trkpt lat="45.5280017178939" lon="10.515904970829409"><ele>176.20000000000002</ele><time>2026-05-02T14:10:09Z</time></trkpt><trkpt lat="45.52802634774283" lon="10.515790787991751"><ele>176.4</ele><time>2026-05-02T14:10:10Z</time></trkpt><trkpt lat="45.52805627911227" lon="10.515663391556542"><ele>176.6</ele><time>2026-05-02T14:10:11Z</time></trkpt><trkpt lat="45.52808999021103" lon="10.515550513581388"><ele>176.8</ele><time>2026-05-02T14:10:12Z</time></trkpt><trkpt lat="45.528130923376764" lon="10.515432640166749"><ele>177.0</ele><time>2026-05-02T14:10:13Z</time></trkpt><trkpt lat="45.52817760345742" lon="10.515305626330917"><ele>179.75</ele><time>2026-05-02T14:10:14Z</time></trkpt><trkpt lat="45.528235697114155" lon="10.515173404749325"><ele>182.5</ele><time>2026-05-02T14:10:15Z</time></trkpt><trkpt lat="45.52830371726647" lon="10.51503680798882"><ele>185.25</ele><time>2026-05-02T14:10:16Z</time></trkpt><trkpt lat="45.52838102944894" lon="10.514892512274082"><ele>188.0</ele><time>2026-05-02T14:10:17Z</time></trkpt><trkpt lat="45.5284527151295" lon="10.514753011781004"><ele>188.0</ele><time>2026-05-02T14:10:18Z</time></trkpt><trkpt lat="45.52850889841758" lon="10.51462192041876"><ele>188.0</ele><time>2026-05-02T14:10:19Z</time></trkpt><trkpt lat="45.528560909639246" lon="10.514496715821206"><ele>188.0</ele><time>2026-05-02T14:10:20.001Z</time></trkpt><trkpt lat="45.52859887141888" lon="10.514359665138663"><ele>188.0</ele><time>2026-05-02T14:10:21.001Z</time></trkpt><trkpt lat="45.528621718368406" lon="10.514215241823207"><ele>188.0</ele><time>2026-05-02T14:10:22.001Z</time></trkpt><trkpt lat="45.52863457908294" lon="10.514068998634437"><ele>189.2</ele><time>2026-05-02T14:10:23.001Z</time></trkpt><trkpt lat="45.52864001164853" lon="10.513925869580422"><ele>190.4</ele><time>2026-05-02T14:10:24.001Z</time></trkpt><trkpt lat="45.52864896422977" lon="10.51379450882102"><ele>191.6</ele><time>2026-05-02T14:10:25.001Z</time></trkpt><trkpt lat="45.52865864402126" lon="10.513670128389801"><ele>192.79999999999998</ele><time>2026-05-02T14:10:26.001Z</time></trkpt><trkpt lat="45.528666631150706" lon="10.513546792479435"><ele>194.0</ele><time>2026-05-02T14:10:27.001Z</time></trkpt><trkpt lat="45.528674233340595" lon="10.51341589574358"><ele>194.0</ele><time>2026-05-02T14:10:28.001Z</time></trkpt><trkpt lat="45.528680918833196" lon="10.513272297914224"><ele>194.0</ele><time>2026-05-02T14:10:29.001Z</time></trkpt><trkpt lat="45.52868767228114" lon="10.513125787440185"><ele>194.0</ele><time>2026-05-02T14:10:30.001Z</time></trkpt><trkpt lat="45.528691990203384" lon="10.512975063321084"><ele>194.0</ele><time>2026-05-02T14:10:31.001Z</time></trkpt><trkpt lat="45.52869534462591" lon="10.512818290123898"><ele>194.0</ele><time>2026-05-02T14:10:32.001Z</time></trkpt><trkpt lat="45.52869899489541" lon="10.512649560993983"><ele>194.0</ele><time>2026-05-02T14:10:32.998Z</time></trkpt><trkpt lat="45.528706613950625" lon="10.512472352492308"><ele>194.0</ele><time>2026-05-02T14:10:33.998Z</time></trkpt><trkpt lat="45.5287172809449" lon="10.512295327380853"><ele>194.0</ele><time>2026-05-02T14:10:34.998Z</time></trkpt><trkpt lat="45.52872519585494" lon="10.51212919748132"><ele>194.0</ele><time>2026-05-02T14:10:35.998Z</time></trkpt><trkpt lat="45.528733299265085" lon="10.51195977495027"><ele>195.75</ele><time>2026-05-02T14:10:36.998Z</time></trkpt><trkpt lat="45.528740395845325" lon="10.511785783588602"><ele>197.5</ele><time>2026-05-02T14:10:37.998Z</time></trkpt><trkpt lat="45.52876100079543" lon="10.511610773329867"><ele>199.25</ele><time>2026-05-02T14:10:38.998Z</time></trkpt><trkpt lat="45.52876529976279" lon="10.51143420094225"><ele>201.0</ele><time>2026-05-02T14:10:39.998Z</time></trkpt><trkpt lat="45.52876436107981" lon="10.511249386383867"><ele>201.25</ele><time>2026-05-02T14:10:40.998Z</time></trkpt><trkpt lat="45.52874735452352" lon="10.511072753789747"><ele>201.5</ele><time>2026-05-02T14:10:41.998Z</time></trkpt><trkpt lat="45.528745641984116" lon="10.510887318856653"><ele>201.75</ele><time>2026-05-02T14:10:42.998Z</time></trkpt><trkpt lat="45.528737785786255" lon="10.510708480157977"><ele>202.0</ele><time>2026-05-02T14:10:43.999Z</time></trkpt><trkpt lat="45.52872303428392" lon="10.510544442436284"><ele>202.16666666666666</ele><time>2026-05-02T14:10:44.999Z</time></trkpt><trkpt lat="45.528707878034965" lon="10.510394296023144"><ele>202.33333333333331</ele><time>2026-05-02T14:10:45.999Z</time></trkpt><trkpt lat="45.52869901976169" lon="10.510263154348436"><ele>202.5</ele><time>2026-05-02T14:10:46.999Z</time></trkpt><trkpt lat="45.52869740446008" lon="10.510140480027728"><ele>202.66666666666669</ele><time>2026-05-02T14:10:47.999Z</time></trkpt><trkpt lat="45.528700275195554" lon="10.5100344232332"><ele>202.83333333333334</ele><time>2026-05-02T14:10:48.999Z</time></trkpt><trkpt lat="45.52873399746872" lon="10.509932462553614"><ele>203.0</ele><time>2026-05-02T14:10:49.999Z</time></trkpt><trkpt lat="45.52879537455735" lon="10.509847184770441"><ele>203.0</ele><time>2026-05-02T14:10:50.999Z</time></trkpt><trkpt lat="45.52885659395962" lon="10.509755888490252"><ele>203.0</ele><time>2026-05-02T14:10:51.999Z</time></trkpt><trkpt lat="45.52887202607068" lon="10.509644109771497"><ele>203.0</ele><time>2026-05-02T14:10:52.999Z</time></trkpt><trkpt lat="45.52883697214771" lon="10.509525759682205"><ele>203.0</ele><time>2026-05-02T14:10:53.999Z</time></trkpt><trkpt lat="45.52875934351216" lon="10.50943429665722"><ele>203.0</ele><time>2026-05-02T14:10:54.999Z</time></trkpt><trkpt lat="45.52866828903268" lon="10.509362167468675"><ele>202.0</ele><time>2026-05-02T14:10:55.999Z</time></trkpt><trkpt lat="45.528569715932825" lon="10.509343277263984"><ele>201.0</ele><time>2026-05-02T14:10:56.999Z</time></trkpt><trkpt lat="45.5286245585659" lon="10.509088690466749"><ele>200.0</ele><time>2026-05-02T14:10:57.999Z</time></trkpt><trkpt lat="45.52848661345382" lon="10.508964519928217"><ele>199.0</ele><time>2026-05-02T14:10:58.999Z</time></trkpt><trkpt lat="45.52845271754273" lon="10.50878408330242"><ele>198.75</ele><time>2026-05-02T14:10:59.999Z</time></trkpt><trkpt lat="45.528421878719726" lon="10.50859919419688"><ele>198.5</ele><time>2026-05-02T14:11:00.999Z</time></trkpt><trkpt lat="45.528377976029525" lon="10.50841145964175"><ele>198.25</ele><time>2026-05-02T14:11:01.999Z</time></trkpt><trkpt lat="45.528337005828114" lon="10.508218935772229"><ele>198.0</ele><time>2026-05-02T14:11:02.999Z</time></trkpt><trkpt lat="45.52830014124856" lon="10.50801700546141"><ele>198.5</ele><time>2026-05-02T14:11:03.999Z</time></trkpt><trkpt lat="45.52826846206305" lon="10.50782055163817"><ele>199.0</ele><time>2026-05-02T14:11:04.999Z</time></trkpt><trkpt lat="45.528253713433074" lon="10.507631394216293"><ele>199.5</ele><time>2026-05-02T14:11:05.999Z</time></trkpt><trkpt lat="45.52824458603456" lon="10.507450887781587"><ele>200.0</ele><time>2026-05-02T14:11:06.999Z</time></trkpt><trkpt lat="45.52823524625801" lon="10.507277697099829"><ele>200.0</ele><time>2026-05-02T14:11:07.999Z</time></trkpt><trkpt lat="45.528218154150515" lon="10.507101250557213"><ele>200.0</ele><time>2026-05-02T14:11:08.999Z</time></trkpt><trkpt lat="45.52819831209826" lon="10.506921276190544"><ele>200.0</ele><time>2026-05-02T14:11:09.999Z</time></trkpt><trkpt lat="45.52818827356735" lon="10.506739610744114"><ele>200.0</ele><time>2026-05-02T14:11:10.999Z</time></trkpt><trkpt lat="45.52817600378073" lon="10.50655753828167"><ele>201.25</ele><time>2026-05-02T14:11:11.999Z</time></trkpt><trkpt lat="45.528156842673276" lon="10.50637093416956"><ele>202.5</ele><time>2026-05-02T14:11:12.999Z</time></trkpt><trkpt lat="45.52813336741064" lon="10.506182762452795"><ele>203.75</ele><time>2026-05-02T14:11:13.999Z</time></trkpt><trkpt lat="45.52809612070076" lon="10.505996493317667"><ele>205.0</ele><time>2026-05-02T14:11:14.999Z</time></trkpt><trkpt lat="45.52805278018152" lon="10.505806755868377"><ele>205.5</ele><time>2026-05-02T14:11:15.999Z</time></trkpt><trkpt lat="45.52799994215257" lon="10.505622235689474"><ele>206.0</ele><time>2026-05-02T14:11:16.999Z</time></trkpt><trkpt lat="45.52796022715892" lon="10.505428350681969"><ele>206.5</ele><time>2026-05-02T14:11:18Z</time></trkpt><trkpt lat="45.52794841704477" lon="10.505225288131383"><ele>207.0</ele><time>2026-05-02T14:11:19Z</time></trkpt><trkpt lat="45.5279666727026" lon="10.50500906016505"><ele>207.0</ele><time>2026-05-02T14:11:20Z</time></trkpt><trkpt lat="45.52799746698131" lon="10.504791400705406"><ele>207.0</ele><time>2026-05-02T14:11:21Z</time></trkpt><trkpt lat="45.52801744169131" lon="10.504561096814388"><ele>207.0</ele><time>2026-05-02T14:11:22Z</time></trkpt><trkpt lat="45.52802171293849" lon="10.50436101103794"><ele>207.5</ele><time>2026-05-02T14:11:23Z</time></trkpt><trkpt lat="45.528024886719066" lon="10.504174531959679"><ele>208.0</ele><time>2026-05-02T14:11:24Z</time></trkpt><trkpt lat="45.528030397716186" lon="10.504006107710362"><ele>208.5</ele><time>2026-05-02T14:11:25Z</time></trkpt><trkpt lat="45.52802577264425" lon="10.503852444225783"><ele>209.0</ele><time>2026-05-02T14:11:26Z</time></trkpt><trkpt lat="45.528001979090185" lon="10.503698536946025"><ele>207.0</ele><time>2026-05-02T14:11:27Z</time></trkpt><trkpt lat="45.527954571113554" lon="10.50354866836186"><ele>205.0</ele><time>2026-05-02T14:11:28Z</time></trkpt><trkpt lat="45.52789224884604" lon="10.503412490846426"><ele>203.0</ele><time>2026-05-02T14:11:29Z</time></trkpt><trkpt lat="45.527824387076265" lon="10.503279571277695"><ele>201.0</ele><time>2026-05-02T14:11:30Z</time></trkpt><trkpt lat="45.527760868099875" lon="10.503142500452407"><ele>201.0</ele><time>2026-05-02T14:11:31Z</time></trkpt><trkpt lat="45.52769156586004" lon="10.5030009937699"><ele>201.0</ele><time>2026-05-02T14:11:32Z</time></trkpt><trkpt lat="45.52761285562508" lon="10.502849290590714"><ele>201.0</ele><time>2026-05-02T14:11:33Z</time></trkpt><trkpt lat="45.5275297011096" lon="10.502696660292646"><ele>201.0</ele><time>2026-05-02T14:11:34Z</time></trkpt><trkpt lat="45.52742630975763" lon="10.5025593095746"><ele>202.0</ele><time>2026-05-02T14:11:35Z</time></trkpt><trkpt lat="45.52731283798069" lon="10.5024366090997"><ele>203.0</ele><time>2026-05-02T14:11:36Z</time></trkpt><trkpt lat="45.52720079924511" lon="10.502312715620631"><ele>204.0</ele><time>2026-05-02T14:11:37Z</time></trkpt><trkpt lat="45.527086373202536" lon="10.502183431151995"><ele>205.0</ele><time>2026-05-02T14:11:38Z</time></trkpt><trkpt lat="45.52696787030333" lon="10.502056240001316"><ele>205.0</ele><time>2026-05-02T14:11:39Z</time></trkpt><trkpt lat="45.5268461767375" lon="10.501921318538656"><ele>205.0</ele><time>2026-05-02T14:11:40Z</time></trkpt><trkpt lat="45.52672456721868" lon="10.501788777933942"><ele>205.0</ele><time>2026-05-02T14:11:41Z</time></trkpt><trkpt lat="45.52660332532361" lon="10.50165830661805"><ele>205.0</ele><time>2026-05-02T14:11:42Z</time></trkpt><trkpt lat="45.5264968672892" lon="10.501536085756115"><ele>205.0</ele><time>2026-05-02T14:11:43Z</time></trkpt><trkpt lat="45.5263977065927" lon="10.501410118385321"><ele>205.0</ele><time>2026-05-02T14:11:44Z</time></trkpt><trkpt lat="45.526319013810664" lon="10.501264910581188"><ele>205.0</ele><time>2026-05-02T14:11:45Z</time></trkpt><trkpt lat="45.52625768116644" lon="10.501092766590016"><ele>203.25</ele><time>2026-05-02T14:11:46Z</time></trkpt><trkpt lat="45.526223392850206" lon="10.500893315896125"><ele>201.5</ele><time>2026-05-02T14:11:47Z</time></trkpt><trkpt lat="45.526197338214736" lon="10.500693376379742"><ele>199.75</ele><time>2026-05-02T14:11:48Z</time></trkpt><trkpt lat="45.526158052160824" lon="10.500488614288908"><ele>198.0</ele><time>2026-05-02T14:11:49Z</time></trkpt><trkpt lat="45.52610738907029" lon="10.500285645835788"><ele>198.0</ele><time>2026-05-02T14:11:50Z</time></trkpt><trkpt lat="45.526058467278396" lon="10.50007725539232"><ele>198.0</ele><time>2026-05-02T14:11:51Z</time></trkpt><trkpt lat="45.526007685122174" lon="10.49986477544747"><ele>198.0</ele><time>2026-05-02T14:11:52Z</time></trkpt><trkpt lat="45.525952905896865" lon="10.499656269677471"><ele>198.75</ele><time>2026-05-02T14:11:53Z</time></trkpt><trkpt lat="45.525903562027494" lon="10.499463338624453"><ele>199.5</ele><time>2026-05-02T14:11:54Z</time></trkpt><trkpt lat="45.52584902882614" lon="10.499277001690444"><ele>200.25</ele><time>2026-05-02T14:11:55Z</time></trkpt><trkpt lat="45.525776094491576" lon="10.499093465191708"><ele>201.0</ele><time>2026-05-02T14:11:56Z</time></trkpt><trkpt lat="45.525687381888126" lon="10.498925933337558"><ele>201.0</ele><time>2026-05-02T14:11:57Z</time></trkpt><trkpt lat="45.52557275210115" lon="10.498775891831063"><ele>201.0</ele><time>2026-05-02T14:11:58Z</time></trkpt><trkpt lat="45.52544054142593" lon="10.498658477111114"><ele>201.0</ele><time>2026-05-02T14:11:59Z</time></trkpt><trkpt lat="45.52530118858653" lon="10.498552779292256"><ele>199.0</ele><time>2026-05-02T14:12:00Z</time></trkpt><trkpt lat="45.525155587470174" lon="10.498451569164901"><ele>197.0</ele><time>2026-05-02T14:12:01Z</time></trkpt><trkpt lat="45.5250066264463" lon="10.498348041950196"><ele>195.0</ele><time>2026-05-02T14:12:02Z</time></trkpt><trkpt lat="45.52486110368299" lon="10.498250935392377"><ele>195.0</ele><time>2026-05-02T14:12:03Z</time></trkpt><trkpt lat="45.524719156352624" lon="10.498150610404718"><ele>195.0</ele><time>2026-05-02T14:12:04Z</time></trkpt><trkpt lat="45.52456996065891" lon="10.498056125745068"><ele>195.0</ele><time>2026-05-02T14:12:05Z</time></trkpt><trkpt lat="45.52442648693707" lon="10.497966990107262"><ele>196.66666666666669</ele><time>2026-05-02T14:12:06Z</time></trkpt><trkpt lat="45.52428544475108" lon="10.497875510480732"><ele>198.33333333333334</ele><time>2026-05-02T14:12:07Z</time></trkpt><trkpt lat="45.52414926344687" lon="10.497771923923093"><ele>200.0</ele><time>2026-05-02T14:12:08Z</time></trkpt><trkpt lat="45.52402627286482" lon="10.497649130469537"><ele>200.0</ele><time>2026-05-02T14:12:09Z</time></trkpt><trkpt lat="45.5239236970259" lon="10.497486648571925"><ele>200.0</ele><time>2026-05-02T14:12:10Z</time></trkpt><trkpt lat="45.52384392934001" lon="10.497293457357785"><ele>200.0</ele><time>2026-05-02T14:12:11Z</time></trkpt><trkpt lat="45.523767541977996" lon="10.497093331021727"><ele>199.66666666666669</ele><time>2026-05-02T14:12:12Z</time></trkpt><trkpt lat="45.5236952745757" lon="10.49689181805324"><ele>199.33333333333331</ele><time>2026-05-02T14:12:13Z</time></trkpt><trkpt lat="45.523630486032296" lon="10.496679433519578"><ele>199.0</ele><time>2026-05-02T14:12:14Z</time></trkpt><trkpt lat="45.52356824565014" lon="10.496465920146768"><ele>199.0</ele><time>2026-05-02T14:12:15Z</time></trkpt><trkpt lat="45.52349305693318" lon="10.496256984758018"><ele>199.0</ele><time>2026-05-02T14:12:16Z</time></trkpt><trkpt lat="45.523395746829685" lon="10.49607091201495"><ele>199.0</ele><time>2026-05-02T14:12:17Z</time></trkpt><trkpt lat="45.523280188039664" lon="10.495899329512827"><ele>203.0</ele><time>2026-05-02T14:12:18Z</time></trkpt><trkpt lat="45.52315653825743" lon="10.495735490040259"><ele>207.0</ele><time>2026-05-02T14:12:19Z</time></trkpt><trkpt lat="45.523032951082556" lon="10.49558171132308"><ele>211.0</ele><time>2026-05-02T14:12:20Z</time></trkpt><trkpt lat="45.52291205083651" lon="10.495414476514553"><ele>211.33333333333331</ele><time>2026-05-02T14:12:21Z</time></trkpt><trkpt lat="45.52280033585115" lon="10.495256601864664"><ele>211.66666666666669</ele><time>2026-05-02T14:12:22Z</time></trkpt><trkpt lat="45.5226838932511" lon="10.495091009547233"><ele>212.0</ele><time>2026-05-02T14:12:23Z</time></trkpt><trkpt lat="45.52257756684927" lon="10.494933305872532"><ele>212.0</ele><time>2026-05-02T14:12:24Z</time></trkpt><trkpt lat="45.52249542586437" lon="10.494744968608053"><ele>212.0</ele><time>2026-05-02T14:12:25Z</time></trkpt><trkpt lat="45.522445178676435" lon="10.494530304455735"><ele>212.0</ele><time>2026-05-02T14:12:26Z</time></trkpt><trkpt lat="45.52241529009943" lon="10.49430322249199"><ele>214.66666666666669</ele><time>2026-05-02T14:12:27Z</time></trkpt><trkpt lat="45.52237656587761" lon="10.494070537057874"><ele>217.33333333333331</ele><time>2026-05-02T14:12:28Z</time></trkpt><trkpt lat="45.522326314849984" lon="10.493844643607146"><ele>220.0</ele><time>2026-05-02T14:12:29Z</time></trkpt><trkpt lat="45.522271739064976" lon="10.49361191245588"><ele>221.0</ele><time>2026-05-02T14:12:30Z</time></trkpt><trkpt lat="45.52222257111907" lon="10.493373934392993"><ele>222.0</ele><time>2026-05-02T14:12:31Z</time></trkpt><trkpt lat="45.5221724541334" lon="10.493129216373347"><ele>223.0</ele><time>2026-05-02T14:12:32Z</time></trkpt><trkpt lat="45.52212178770949" lon="10.492867642585706"><ele>220.66666666666666</ele><time>2026-05-02T14:12:33Z</time></trkpt><trkpt lat="45.522072129524254" lon="10.492606586980807"><ele>218.33333333333331</ele><time>2026-05-02T14:12:34Z</time></trkpt><trkpt lat="45.52201553281186" lon="10.49234375011623"><ele>216.0</ele><time>2026-05-02T14:12:35Z</time></trkpt><trkpt lat="45.52195148418004" lon="10.49207797232713"><ele>214.0</ele><time>2026-05-02T14:12:36Z</time></trkpt><trkpt lat="45.52187867583212" lon="10.49181014676787"><ele>212.0</ele><time>2026-05-02T14:12:37Z</time></trkpt><trkpt lat="45.52179297414017" lon="10.491545693699068"><ele>210.0</ele><time>2026-05-02T14:12:38Z</time></trkpt><trkpt lat="45.521695099310676" lon="10.491290702110556"><ele>211.66666666666669</ele><time>2026-05-02T14:12:38.998Z</time></trkpt><trkpt lat="45.52159138040365" lon="10.491040985165277"><ele>213.33333333333334</ele><time>2026-05-02T14:12:39.998Z</time></trkpt><trkpt lat="45.521491052820586" lon="10.490788902727223"><ele>215.0</ele><time>2026-05-02T14:12:40.999Z</time></trkpt><trkpt lat="45.52139280867152" lon="10.490540302324277"><ele>215.66666666666669</ele><time>2026-05-02T14:12:41.999Z</time></trkpt><trkpt lat="45.52129543539509" lon="10.490293050115152"><ele>216.33333333333331</ele><time>2026-05-02T14:12:42.999Z</time></trkpt><trkpt lat="45.52120001803838" lon="10.490043835967096"><ele>217.0</ele><time>2026-05-02T14:12:43.999Z</time></trkpt><trkpt lat="45.52110025065704" lon="10.489800074060557"><ele>218.0</ele><time>2026-05-02T14:12:44.999Z</time></trkpt><trkpt lat="45.52100665629811" lon="10.489562170560912"><ele>219.0</ele><time>2026-05-02T14:12:45.999Z</time></trkpt><trkpt lat="45.52092750735956" lon="10.48934282246534"><ele>220.0</ele><time>2026-05-02T14:12:46.999Z</time></trkpt><trkpt lat="45.5208760023735" lon="10.489120368156858"><ele>220.0</ele><time>2026-05-02T14:12:47.999Z</time></trkpt><trkpt lat="45.52087647531424" lon="10.488899513825157"><ele>220.0</ele><time>2026-05-02T14:12:48.999Z</time></trkpt><trkpt lat="45.520931177768894" lon="10.488684491403392"><ele>220.0</ele><time>2026-05-02T14:12:49.999Z</time></trkpt><trkpt lat="45.52100135394466" lon="10.48846916280881"><ele>220.33333333333331</ele><time>2026-05-02T14:12:50.999Z</time></trkpt><trkpt lat="45.5210753277484" lon="10.488233737675584"><ele>220.66666666666669</ele><time>2026-05-02T14:12:51.999Z</time></trkpt><trkpt lat="45.52114257998296" lon="10.487989886306504"><ele>221.0</ele><time>2026-05-02T14:12:52.999Z</time></trkpt><trkpt lat="45.52120809437834" lon="10.487734727975443"><ele>222.0</ele><time>2026-05-02T14:12:53.999Z</time></trkpt><trkpt lat="45.521274998201065" lon="10.487482775388242"><ele>223.0</ele><time>2026-05-02T14:12:54.999Z</time></trkpt><trkpt lat="45.52134043423342" lon="10.487233062855125"><ele>224.0</ele><time>2026-05-02T14:12:55.999Z</time></trkpt><trkpt lat="45.521407138746724" lon="10.486983397640016"><ele>225.33333333333334</ele><time>2026-05-02T14:12:56.999Z</time></trkpt><trkpt lat="45.52146786259876" lon="10.486740596599452"><ele>226.66666666666669</ele><time>2026-05-02T14:12:57.999Z</time></trkpt><trkpt lat="45.52151721578154" lon="10.486499849905282"><ele>228.0</ele><time>2026-05-02T14:12:58.999Z</time></trkpt><trkpt lat="45.52153062128449" lon="10.486252611478724"><ele>229.66666666666669</ele><time>2026-05-02T14:12:59.999Z</time></trkpt><trkpt lat="45.52151946897412" lon="10.485995342638295"><ele>231.33333333333334</ele><time>2026-05-02T14:13:00.999Z</time></trkpt><trkpt lat="45.52148300252315" lon="10.485742090453664"><ele>233.0</ele><time>2026-05-02T14:13:01.999Z</time></trkpt><trkpt lat="45.52145417108249" lon="10.485492718538428"><ele>236.0</ele><time>2026-05-02T14:13:02.999Z</time></trkpt><trkpt lat="45.52142631656226" lon="10.485246681150722"><ele>239.0</ele><time>2026-05-02T14:13:03.999Z</time></trkpt><trkpt lat="45.521356960009" lon="10.485025332834336"><ele>242.0</ele><time>2026-05-02T14:13:04.999Z</time></trkpt><trkpt lat="45.521242409239825" lon="10.484822288917789"><ele>242.0</ele><time>2026-05-02T14:13:05.999Z</time></trkpt><trkpt lat="45.521095234155474" lon="10.484644177157584"><ele>242.0</ele><time>2026-05-02T14:13:06.999Z</time></trkpt><trkpt lat="45.52094346724374" lon="10.484462786867205"><ele>242.0</ele><time>2026-05-02T14:13:07.999Z</time></trkpt><trkpt lat="45.52079237629541" lon="10.484278941318252"><ele>242.0</ele><time>2026-05-02T14:13:08.999Z</time></trkpt><trkpt lat="45.5206430641937" lon="10.484099485979131"><ele>242.0</ele><time>2026-05-02T14:13:10Z</time></trkpt><trkpt lat="45.52049527452824" lon="10.483923498461772"><ele>242.0</ele><time>2026-05-02T14:13:11Z</time></trkpt><trkpt lat="45.520353665797415" lon="10.483741968279963"><ele>241.33333333333334</ele><time>2026-05-02T14:13:12Z</time></trkpt><trkpt lat="45.520219241858626" lon="10.483572236620256"><ele>240.66666666666669</ele><time>2026-05-02T14:13:13Z</time></trkpt><trkpt lat="45.52009188829296" lon="10.483412357054723"><ele>240.0</ele><time>2026-05-02T14:13:14Z</time></trkpt><trkpt lat="45.5199740984597" lon="10.48323566237985"><ele>240.0</ele><time>2026-05-02T14:13:15Z</time></trkpt><trkpt lat="45.51986810853275" lon="10.483028833575924"><ele>240.0</ele><time>2026-05-02T14:13:16Z</time></trkpt><trkpt lat="45.519760227523655" lon="10.482811331659137"><ele>240.0</ele><time>2026-05-02T14:13:17Z</time></trkpt><trkpt lat="45.51965102429439" lon="10.48258775359733"><ele>240.33333333333331</ele><time>2026-05-02T14:13:18Z</time></trkpt><trkpt lat="45.51953825914622" lon="10.482363139573934"><ele>240.66666666666666</ele><time>2026-05-02T14:13:19Z</time></trkpt><trkpt lat="45.51942902333993" lon="10.482141298401146"><ele>241.0</ele><time>2026-05-02T14:13:20Z</time></trkpt><trkpt lat="45.51932574560957" lon="10.481931711879435"><ele>241.0</ele><time>2026-05-02T14:13:21Z</time></trkpt><trkpt lat="45.51923366667784" lon="10.481743296749208"><ele>241.0</ele><time>2026-05-02T14:13:22Z</time></trkpt><trkpt lat="45.51915994567475" lon="10.481569724599288"><ele>241.0</ele><time>2026-05-02T14:13:23Z</time></trkpt><trkpt lat="45.519111676401856" lon="10.48139923107347"><ele>241.0</ele><time>2026-05-02T14:13:24Z</time></trkpt><trkpt lat="45.51910111932144" lon="10.48122656251294"><ele>242.75</ele><time>2026-05-02T14:13:25Z</time></trkpt><trkpt lat="45.51912108213251" lon="10.481056046397883"><ele>244.5</ele><time>2026-05-02T14:13:26Z</time></trkpt><trkpt lat="45.51914532276302" lon="10.480870437256893"><ele>246.25</ele><time>2026-05-02T14:13:27Z</time></trkpt><trkpt lat="45.51916865783228" lon="10.480671983547012"><ele>248.0</ele><time>2026-05-02T14:13:28Z</time></trkpt><trkpt lat="45.51919264232446" lon="10.4804671393051"><ele>248.75</ele><time>2026-05-02T14:13:29Z</time></trkpt><trkpt lat="45.519217348012255" lon="10.480268409034712"><ele>249.5</ele><time>2026-05-02T14:13:30Z</time></trkpt><trkpt lat="45.51927039159592" lon="10.480087986339651"><ele>250.25</ele><time>2026-05-02T14:13:31Z</time></trkpt><trkpt lat="45.51934781177553" lon="10.479932497123741"><ele>251.0</ele><time>2026-05-02T14:13:32Z</time></trkpt><trkpt lat="45.51944745353094" lon="10.47977715098494"><ele>251.0</ele><time>2026-05-02T14:13:33Z</time></trkpt><trkpt lat="45.51954935067777" lon="10.479608278128898"><ele>251.0</ele><time>2026-05-02T14:13:34Z</time></trkpt><trkpt lat="45.519642755330516" lon="10.479449362901"><ele>251.0</ele><time>2026-05-02T14:13:35Z</time></trkpt><trkpt lat="45.51972855054301" lon="10.479298645569758"><ele>251.0</ele><time>2026-05-02T14:13:36Z</time></trkpt><trkpt lat="45.51979252283568" lon="10.479156447673889"><ele>250.75</ele><time>2026-05-02T14:13:37Z</time></trkpt><trkpt lat="45.51983332170394" lon="10.47900879959322"><ele>250.5</ele><time>2026-05-02T14:13:38Z</time></trkpt><trkpt lat="45.519838890768234" lon="10.478851753335546"><ele>250.25</ele><time>2026-05-02T14:13:39Z</time></trkpt><trkpt lat="45.5198115221704" lon="10.478683610724241"><ele>250.0</ele><time>2026-05-02T14:13:40Z</time></trkpt><trkpt lat="45.51976423668897" lon="10.478512395898187"><ele>250.0</ele><time>2026-05-02T14:13:41Z</time></trkpt><trkpt lat="45.51971484886023" lon="10.478340146664408"><ele>250.0</ele><time>2026-05-02T14:13:42Z</time></trkpt><trkpt lat="45.51968602516608" lon="10.478150304343266"><ele>250.0</ele><time>2026-05-02T14:13:43Z</time></trkpt><trkpt lat="45.5196731141119" lon="10.477940592451986"><ele>250.0</ele><time>2026-05-02T14:13:44Z</time></trkpt><trkpt lat="45.51966995771559" lon="10.477731779288522"><ele>248.33333333333331</ele><time>2026-05-02T14:13:45Z</time></trkpt><trkpt lat="45.51967465934204" lon="10.477519835270442"><ele>246.66666666666669</ele><time>2026-05-02T14:13:46Z</time></trkpt><trkpt lat="45.51969610054263" lon="10.477302401701422"><ele>245.0</ele><time>2026-05-02T14:13:47Z</time></trkpt><trkpt lat="45.51973796260292" lon="10.477077650939831"><ele>242.66666666666669</ele><time>2026-05-02T14:13:48Z</time></trkpt><trkpt lat="45.51977972256456" lon="10.476850171391106"><ele>240.33333333333331</ele><time>2026-05-02T14:13:49Z</time></trkpt><trkpt lat="45.5198224408348" lon="10.476612238508515"><ele>238.0</ele><time>2026-05-02T14:13:50Z</time></trkpt><trkpt lat="45.51986462935785" lon="10.47637315685336"><ele>238.33333333333331</ele><time>2026-05-02T14:13:51Z</time></trkpt><trkpt lat="45.51990223968996" lon="10.476126748634039"><ele>238.66666666666669</ele><time>2026-05-02T14:13:52Z</time></trkpt><trkpt lat="45.51994035403596" lon="10.475879459747427"><ele>239.0</ele><time>2026-05-02T14:13:53Z</time></trkpt><trkpt lat="45.51998081404562" lon="10.475624086083295"><ele>239.0</ele><time>2026-05-02T14:13:54Z</time></trkpt><trkpt lat="45.520022091162026" lon="10.4753630777483"><ele>239.0</ele><time>2026-05-02T14:13:55Z</time></trkpt><trkpt lat="45.52006407856263" lon="10.475103883445094"><ele>239.0</ele><time>2026-05-02T14:13:56Z</time></trkpt><trkpt lat="45.52010683662473" lon="10.474839844584958"><ele>239.33333333333334</ele><time>2026-05-02T14:13:57Z</time></trkpt><trkpt lat="45.52014746327411" lon="10.474573243874701"><ele>239.66666666666669</ele><time>2026-05-02T14:13:58Z</time></trkpt><trkpt lat="45.52019025554013" lon="10.474301165969353"><ele>240.0</ele><time>2026-05-02T14:13:59Z</time></trkpt><trkpt lat="45.52024475977435" lon="10.47404137071809"><ele>240.0</ele><time>2026-05-02T14:14:00Z</time></trkpt><trkpt lat="45.52030545069215" lon="10.473780512852063"><ele>240.0</ele><time>2026-05-02T14:14:01Z</time></trkpt><trkpt lat="45.52037108260806" lon="10.473517893135538"><ele>240.0</ele><time>2026-05-02T14:14:02Z</time></trkpt><trkpt lat="45.52044358165913" lon="10.47325977808788"><ele>238.66666666666669</ele><time>2026-05-02T14:14:03Z</time></trkpt><trkpt lat="45.52052134033503" lon="10.473023820806725"><ele>237.33333333333334</ele><time>2026-05-02T14:14:04Z</time></trkpt><trkpt lat="45.52060097768364" lon="10.472800272563195"><ele>236.0</ele><time>2026-05-02T14:14:05Z</time></trkpt><trkpt lat="45.520669713191076" lon="10.472581602011301"><ele>232.66666666666669</ele><time>2026-05-02T14:14:06.001Z</time></trkpt><trkpt lat="45.520705935497865" lon="10.47234950331253"><ele>229.33333333333331</ele><time>2026-05-02T14:14:07.001Z</time></trkpt><trkpt lat="45.520703722116444" lon="10.472103311422764"><ele>226.0</ele><time>2026-05-02T14:14:08.001Z</time></trkpt><trkpt lat="45.52068602228841" lon="10.47184874451336"><ele>224.0</ele><time>2026-05-02T14:14:09.001Z</time></trkpt><trkpt lat="45.52066789631305" lon="10.471588051027215"><ele>222.0</ele><time>2026-05-02T14:14:10.001Z</time></trkpt><trkpt lat="45.52066474557763" lon="10.471327926382845"><ele>220.0</ele><time>2026-05-02T14:14:11.001Z</time></trkpt><trkpt lat="45.52068964958829" lon="10.471066337519703"><ele>219.0</ele><time>2026-05-02T14:14:12.001Z</time></trkpt><trkpt lat="45.52074736108249" lon="10.470822007296139"><ele>218.0</ele><time>2026-05-02T14:14:13.001Z</time></trkpt><trkpt lat="45.52082550337648" lon="10.470605478209086"><ele>217.0</ele><time>2026-05-02T14:14:14.001Z</time></trkpt><trkpt lat="45.52089478620685" lon="10.470407257403956"><ele>216.39999999999998</ele><time>2026-05-02T14:14:15.001Z</time></trkpt><trkpt lat="45.520955234096725" lon="10.470242904067327"><ele>215.79999999999998</ele><time>2026-05-02T14:14:16.001Z</time></trkpt><trkpt lat="45.52102145549853" lon="10.470099087471732"><ele>215.2</ele><time>2026-05-02T14:14:17.001Z</time></trkpt><trkpt lat="45.52103575174735" lon="10.469958203714414"><ele>214.6</ele><time>2026-05-02T14:14:18.001Z</time></trkpt><trkpt lat="45.52105415269479" lon="10.46983470067965"><ele>214.0</ele><time>2026-05-02T14:14:19.001Z</time></trkpt><trkpt lat="45.52107477002766" lon="10.469698013772371"><ele>213.75</ele><time>2026-05-02T14:14:20.001Z</time></trkpt><trkpt lat="45.52109206918424" lon="10.469576078748263"><ele>213.5</ele><time>2026-05-02T14:14:21.001Z</time></trkpt><trkpt lat="45.52109030266474" lon="10.469440155463397"><ele>213.25</ele><time>2026-05-02T14:14:22.001Z</time></trkpt><trkpt lat="45.52109115772833" lon="10.469256202695654"><ele>213.0</ele><time>2026-05-02T14:14:23.001Z</time></trkpt><trkpt lat="45.52111731079307" lon="10.469060710486659"><ele>213.0</ele><time>2026-05-02T14:14:24.001Z</time></trkpt><trkpt lat="45.52114615148385" lon="10.468849338973282"><ele>213.0</ele><time>2026-05-02T14:14:25.001Z</time></trkpt><trkpt lat="45.52117610442906" lon="10.4686266284617"><ele>213.0</ele><time>2026-05-02T14:14:26.001Z</time></trkpt><trkpt lat="45.521211411709125" lon="10.468393880221331"><ele>212.0</ele><time>2026-05-02T14:14:27.001Z</time></trkpt><trkpt lat="45.52124293642022" lon="10.46815389720028"><ele>211.0</ele><time>2026-05-02T14:14:28.001Z</time></trkpt><trkpt lat="45.52127772251325" lon="10.467907430602933"><ele>210.0</ele><time>2026-05-02T14:14:29.001Z</time></trkpt><trkpt lat="45.521318675043695" lon="10.467661627483185"><ele>209.66666666666669</ele><time>2026-05-02T14:14:30.001Z</time></trkpt><trkpt lat="45.52136534888321" lon="10.467414180488772"><ele>209.33333333333334</ele><time>2026-05-02T14:14:31.001Z</time></trkpt><trkpt lat="45.521418006107176" lon="10.467177830883482"><ele>209.0</ele><time>2026-05-02T14:14:32.001Z</time></trkpt><trkpt lat="45.521474765626664" lon="10.466940637625306"><ele>208.33333333333334</ele><time>2026-05-02T14:14:33.001Z</time></trkpt><trkpt lat="45.52152881777023" lon="10.466700668994376"><ele>207.66666666666669</ele><time>2026-05-02T14:14:34.001Z</time></trkpt><trkpt lat="45.52158626732189" lon="10.466468902902005"><ele>207.0</ele><time>2026-05-02T14:14:35.001Z</time></trkpt><trkpt lat="45.52163986519852" lon="10.46624040083496"><ele>207.0</ele><time>2026-05-02T14:14:36.001Z</time></trkpt><trkpt lat="45.521686535017686" lon="10.466010925986264"><ele>207.0</ele><time>2026-05-02T14:14:37.001Z</time></trkpt><trkpt lat="45.521736965170795" lon="10.465779526094778"><ele>207.0</ele><time>2026-05-02T14:14:38.001Z</time></trkpt><trkpt lat="45.5217880120005" lon="10.465544586502121"><ele>206.33333333333331</ele><time>2026-05-02T14:14:39.001Z</time></trkpt><trkpt lat="45.52183030465515" lon="10.465326162712762"><ele>205.66666666666666</ele><time>2026-05-02T14:14:40.001Z</time></trkpt><trkpt lat="45.52187496901778" lon="10.465098568788159"><ele>205.0</ele><time>2026-05-02T14:14:41.001Z</time></trkpt><trkpt lat="45.52190839290031" lon="10.464869994963552"><ele>205.0</ele><time>2026-05-02T14:14:42.001Z</time></trkpt><trkpt lat="45.52194035536458" lon="10.464642129918735"><ele>205.0</ele><time>2026-05-02T14:14:43.001Z</time></trkpt><trkpt lat="45.52197409010497" lon="10.46443049962822"><ele>205.0</ele><time>2026-05-02T14:14:44.001Z</time></trkpt><trkpt lat="45.52201312011914" lon="10.464232574345914"><ele>204.75</ele><time>2026-05-02T14:14:45Z</time></trkpt><trkpt lat="45.52205144009782" lon="10.464040892265784"><ele>204.5</ele><time>2026-05-02T14:14:46Z</time></trkpt><trkpt lat="45.522096489561804" lon="10.46386028470578"><ele>204.25</ele><time>2026-05-02T14:14:47Z</time></trkpt><trkpt lat="45.52213838145586" lon="10.463699901720535"><ele>204.0</ele><time>2026-05-02T14:14:48Z</time></trkpt><trkpt lat="45.5221725824866" lon="10.463562713480844"><ele>204.39999999999998</ele><time>2026-05-02T14:14:49Z</time></trkpt><trkpt lat="45.52220134070046" lon="10.463453186927364"><ele>204.8</ele><time>2026-05-02T14:14:50Z</time></trkpt><trkpt lat="45.52223407919198" lon="10.4633288599511"><ele>205.2</ele><time>2026-05-02T14:14:52Z</time></trkpt><trkpt lat="45.522290668884374" lon="10.463252916979718"><ele>205.60000000000002</ele><time>2026-05-02T14:14:56Z</time></trkpt><trkpt lat="45.52236241024602" lon="10.4631174167944"><ele>206.0</ele><time>2026-05-02T14:14:58Z</time></trkpt><trkpt lat="45.522351287396575" lon="10.463002783246903"><ele>205.75</ele><time>2026-05-02T14:14:59Z</time></trkpt><trkpt lat="45.52234097399855" lon="10.462861260873803"><ele>205.5</ele><time>2026-05-02T14:15:00Z</time></trkpt><trkpt lat="45.522354932054355" lon="10.46269830741091"><ele>205.25</ele><time>2026-05-02T14:15:01Z</time></trkpt><trkpt lat="45.52239030691551" lon="10.46250577891036"><ele>205.0</ele><time>2026-05-02T14:15:02Z</time></trkpt><trkpt lat="45.522428205198636" lon="10.462329618965205"><ele>205.0</ele><time>2026-05-02T14:15:03Z</time></trkpt><trkpt lat="45.52245976322373" lon="10.462175327387563"><ele>205.0</ele><time>2026-05-02T14:15:04Z</time></trkpt><trkpt lat="45.52248527180646" lon="10.462037679090075"><ele>205.0</ele><time>2026-05-02T14:15:05Z</time></trkpt><trkpt lat="45.52251360301613" lon="10.461908302836806"><ele>205.0</ele><time>2026-05-02T14:15:06Z</time></trkpt><trkpt lat="45.522544756225784" lon="10.46177990228895"><ele>205.0</ele><time>2026-05-02T14:15:07Z</time></trkpt><trkpt lat="45.522574070393844" lon="10.461630096342457"><ele>204.75</ele><time>2026-05-02T14:15:08Z</time></trkpt><trkpt lat="45.52261215523735" lon="10.461453393018719"><ele>204.5</ele><time>2026-05-02T14:15:09Z</time></trkpt><trkpt lat="45.522654685705575" lon="10.46126470031367"><ele>204.25</ele><time>2026-05-02T14:15:10Z</time></trkpt><trkpt lat="45.522695146086015" lon="10.461082010155442"><ele>204.0</ele><time>2026-05-02T14:15:11Z</time></trkpt><trkpt lat="45.52273416469536" lon="10.460893719210713"><ele>203.5</ele><time>2026-05-02T14:15:12Z</time></trkpt><trkpt lat="45.52277393797453" lon="10.460718909853211"><ele>203.0</ele><time>2026-05-02T14:15:13Z</time></trkpt><trkpt lat="45.52280741762903" lon="10.46055394399865"><ele>202.5</ele><time>2026-05-02T14:15:14Z</time></trkpt><trkpt lat="45.52284298709985" lon="10.460400597660168"><ele>202.0</ele><time>2026-05-02T14:15:15Z</time></trkpt><trkpt lat="45.52287764226188" lon="10.460264776807053"><ele>201.6</ele><time>2026-05-02T14:15:16Z</time></trkpt><trkpt lat="45.52290960849533" lon="10.46016166621432"><ele>201.2</ele><time>2026-05-02T14:15:17Z</time></trkpt><trkpt lat="45.52296417423132" lon="10.460052840732432"><ele>200.8</ele><time>2026-05-02T14:15:19Z</time></trkpt><trkpt lat="45.52307792876039" lon="10.459981466446646"><ele>200.4</ele><time>2026-05-02T14:15:26Z</time></trkpt><trkpt lat="45.523180638582105" lon="10.459959856601929"><ele>200.0</ele><time>2026-05-02T14:15:27Z</time></trkpt><trkpt lat="45.52327366906941" lon="10.4599349946431"><ele>200.0</ele><time>2026-05-02T14:15:28Z</time></trkpt><trkpt lat="45.5233650858576" lon="10.459905944030174"><ele>200.0</ele><time>2026-05-02T14:15:29Z</time></trkpt><trkpt lat="45.523467516205656" lon="10.459874497433553"><ele>200.0</ele><time>2026-05-02T14:15:30Z</time></trkpt><trkpt lat="45.52358412902402" lon="10.45984130140587"><ele>200.0</ele><time>2026-05-02T14:15:31Z</time></trkpt><trkpt lat="45.52372294537369" lon="10.459801056610175"><ele>200.0</ele><time>2026-05-02T14:15:32Z</time></trkpt><trkpt lat="45.523874294075895" lon="10.459754745807142"><ele>200.0</ele><time>2026-05-02T14:15:33Z</time></trkpt><trkpt lat="45.524023941495884" lon="10.459674422453167"><ele>200.0</ele><time>2026-05-02T14:15:34Z</time></trkpt><trkpt lat="45.52416736330415" lon="10.459538190147544"><ele>200.0</ele><time>2026-05-02T14:15:35Z</time></trkpt><trkpt lat="45.52428730423418" lon="10.459355691638509"><ele>200.0</ele><time>2026-05-02T14:15:36Z</time></trkpt><trkpt lat="45.52438607892493" lon="10.459138479237794"><ele>200.0</ele><time>2026-05-02T14:15:37Z</time></trkpt><trkpt lat="45.52446987802249" lon="10.458907994996697"><ele>200.33333333333334</ele><time>2026-05-02T14:15:38Z</time></trkpt><trkpt lat="45.52455038872738" lon="10.458677854594717"><ele>200.66666666666669</ele><time>2026-05-02T14:15:39Z</time></trkpt><trkpt lat="45.524634904741106" lon="10.458462975308748"><ele>201.0</ele><time>2026-05-02T14:15:40Z</time></trkpt><trkpt lat="45.52471531840361" lon="10.458275767807365"><ele>201.5</ele><time>2026-05-02T14:15:41Z</time></trkpt><trkpt lat="45.5247967809182" lon="10.458103299066435"><ele>202.0</ele><time>2026-05-02T14:15:42.001Z</time></trkpt><trkpt lat="45.52487034877611" lon="10.457935454371176"><ele>202.5</ele><time>2026-05-02T14:15:43.001Z</time></trkpt><trkpt lat="45.5249401287029" lon="10.457776072336388"><ele>203.0</ele><time>2026-05-02T14:15:44.001Z</time></trkpt><trkpt lat="45.52501860512665" lon="10.457638095397153"><ele>203.0</ele><time>2026-05-02T14:15:45.001Z</time></trkpt><trkpt lat="45.525097334371324" lon="10.457487328725293"><ele>203.0</ele><time>2026-05-02T14:15:46.001Z</time></trkpt><trkpt lat="45.5251679387259" lon="10.457342959247734"><ele>203.0</ele><time>2026-05-02T14:15:47.001Z</time></trkpt><trkpt lat="45.52523467086273" lon="10.457229085250459"><ele>203.0</ele><time>2026-05-02T14:15:48.001Z</time></trkpt><trkpt lat="45.525304631845856" lon="10.45709534279609"><ele>203.0</ele><time>2026-05-02T14:15:49.001Z</time></trkpt><trkpt lat="45.52538663276107" lon="10.456959524912179"><ele>203.0</ele><time>2026-05-02T14:15:50.001Z</time></trkpt><trkpt lat="45.525456856579716" lon="10.456796787822979"><ele>203.0</ele><time>2026-05-02T14:15:51.001Z</time></trkpt><trkpt lat="45.52553775124658" lon="10.456648442087936"><ele>203.0</ele><time>2026-05-02T14:15:52.001Z</time></trkpt><trkpt lat="45.52560570776335" lon="10.456502610571889"><ele>203.5</ele><time>2026-05-02T14:15:53.001Z</time></trkpt><trkpt lat="45.525668117594186" lon="10.456342520177387"><ele>204.0</ele><time>2026-05-02T14:15:54.001Z</time></trkpt><trkpt lat="45.52572846155121" lon="10.456176724438077"><ele>204.5</ele><time>2026-05-02T14:15:55.001Z</time></trkpt><trkpt lat="45.525790310281856" lon="10.456005041943126"><ele>205.0</ele><time>2026-05-02T14:15:56.001Z</time></trkpt><trkpt lat="45.52585365882149" lon="10.45583324175885"><ele>205.0</ele><time>2026-05-02T14:15:57.001Z</time></trkpt><trkpt lat="45.52591891897067" lon="10.45564774753275"><ele>205.0</ele><time>2026-05-02T14:15:58.001Z</time></trkpt><trkpt lat="45.525985720949116" lon="10.455455763540005"><ele>205.0</ele><time>2026-05-02T14:15:59.001Z</time></trkpt><trkpt lat="45.52605637317869" lon="10.455257654889795"><ele>205.0</ele><time>2026-05-02T14:16:00.001Z</time></trkpt><trkpt lat="45.52612328314442" lon="10.455054571218964"><ele>205.0</ele><time>2026-05-02T14:16:01.001Z</time></trkpt><trkpt lat="45.526194050241436" lon="10.454867068654535"><ele>205.0</ele><time>2026-05-02T14:16:02.001Z</time></trkpt><trkpt lat="45.52626155161507" lon="10.454679015517847"><ele>205.75</ele><time>2026-05-02T14:16:03.001Z</time></trkpt><trkpt lat="45.526325931721864" lon="10.454499267205694"><ele>206.5</ele><time>2026-05-02T14:16:04.001Z</time></trkpt><trkpt lat="45.526386502736145" lon="10.454330234363182"><ele>207.25</ele><time>2026-05-02T14:16:05.001Z</time></trkpt><trkpt lat="45.5264410919114" lon="10.45417244525478"><ele>208.0</ele><time>2026-05-02T14:16:06.001Z</time></trkpt><trkpt lat="45.52649933420321" lon="10.454037111299478"><ele>208.0</ele><time>2026-05-02T14:16:07.001Z</time></trkpt><trkpt lat="45.526559832234085" lon="10.453919048073685"><ele>208.0</ele><time>2026-05-02T14:16:08.001Z</time></trkpt><trkpt lat="45.52661138396441" lon="10.453821719257423"><ele>208.0</ele><time>2026-05-02T14:16:09.001Z</time></trkpt><trkpt lat="45.52667109801505" lon="10.453735314197669"><ele>208.0</ele><time>2026-05-02T14:16:11.001Z</time></trkpt><trkpt lat="45.526722679348474" lon="10.45365653739017"><ele>208.0</ele><time>2026-05-02T14:16:15.001Z</time></trkpt><trkpt lat="45.52681234196249" lon="10.453527118132165"><ele>208.2</ele><time>2026-05-02T14:16:17.001Z</time></trkpt><trkpt lat="45.52687921653994" lon="10.45342347215373"><ele>208.4</ele><time>2026-05-02T14:16:18.001Z</time></trkpt><trkpt lat="45.52693782811218" lon="10.453331230463123"><ele>208.6</ele><time>2026-05-02T14:16:19.001Z</time></trkpt><trkpt lat="45.52699664104901" lon="10.453217198046358"><ele>208.79999999999998</ele><time>2026-05-02T14:16:20.001Z</time></trkpt><trkpt lat="45.52705338908398" lon="10.453095825666736"><ele>209.0</ele><time>2026-05-02T14:16:21.001Z</time></trkpt><trkpt lat="45.52711185347722" lon="10.452967309846716"><ele>208.25</ele><time>2026-05-02T14:16:22.001Z</time></trkpt><trkpt lat="45.52717714578227" lon="10.45282210921601"><ele>207.5</ele><time>2026-05-02T14:16:23.001Z</time></trkpt><trkpt lat="45.527250924504315" lon="10.452661701574053"><ele>206.75</ele><time>2026-05-02T14:16:24.001Z</time></trkpt><trkpt lat="45.527327819941405" lon="10.452486946615755"><ele>206.0</ele><time>2026-05-02T14:16:25.001Z</time></trkpt><trkpt lat="45.527414766336044" lon="10.452304185683623"><ele>206.66666666666669</ele><time>2026-05-02T14:16:26.001Z</time></trkpt><trkpt lat="45.527509708564686" lon="10.452117482323128"><ele>207.33333333333331</ele><time>2026-05-02T14:16:27.001Z</time></trkpt><trkpt lat="45.52761782640354" lon="10.451926445199383"><ele>208.0</ele><time>2026-05-02T14:16:28.001Z</time></trkpt><trkpt lat="45.52773295354774" lon="10.451744153081608"><ele>208.0</ele><time>2026-05-02T14:16:29.001Z</time></trkpt><trkpt lat="45.52786746407637" lon="10.451569657492406"><ele>208.0</ele><time>2026-05-02T14:16:30.001Z</time></trkpt><trkpt lat="45.5280142576107" lon="10.45139862292709"><ele>208.0</ele><time>2026-05-02T14:16:31.001Z</time></trkpt><trkpt lat="45.52816083171736" lon="10.451224184027216"><ele>208.0</ele><time>2026-05-02T14:16:32.001Z</time></trkpt><trkpt lat="45.52829744580184" lon="10.451034059207556"><ele>208.0</ele><time>2026-05-02T14:16:33.001Z</time></trkpt><trkpt lat="45.528408187275154" lon="10.450821277583294"><ele>208.0</ele><time>2026-05-02T14:16:34.001Z</time></trkpt><trkpt lat="45.528493994176635" lon="10.45059158514631"><ele>208.33333333333331</ele><time>2026-05-02T14:16:35.001Z</time></trkpt><trkpt lat="45.52855796153183" lon="10.45034961805532"><ele>208.66666666666669</ele><time>2026-05-02T14:16:36.001Z</time></trkpt><trkpt lat="45.528598129274044" lon="10.450096981307048"><ele>209.0</ele><time>2026-05-02T14:16:37.001Z</time></trkpt><trkpt lat="45.528615594462345" lon="10.449829338366941"><ele>208.66666666666669</ele><time>2026-05-02T14:16:38.001Z</time></trkpt><trkpt lat="45.528613997566616" lon="10.449567592611269"><ele>208.33333333333331</ele><time>2026-05-02T14:16:39.001Z</time></trkpt><trkpt lat="45.52859538230684" lon="10.449299730186159"><ele>208.0</ele><time>2026-05-02T14:16:40.001Z</time></trkpt><trkpt lat="45.528572358292266" lon="10.44905439043681"><ele>208.0</ele><time>2026-05-02T14:16:41.001Z</time></trkpt><trkpt lat="45.528568991572264" lon="10.448826057678682"><ele>208.0</ele><time>2026-05-02T14:16:42.001Z</time></trkpt><trkpt lat="45.52860421563619" lon="10.448603638132486"><ele>208.0</ele><time>2026-05-02T14:16:43.001Z</time></trkpt><trkpt lat="45.52867257996747" lon="10.448380921034106"><ele>207.66666666666666</ele><time>2026-05-02T14:16:44.001Z</time></trkpt><trkpt lat="45.528770220302846" lon="10.448169693016759"><ele>207.33333333333331</ele><time>2026-05-02T14:16:45.001Z</time></trkpt><trkpt lat="45.52889498699793" lon="10.447981051748856"><ele>207.0</ele><time>2026-05-02T14:16:46.001Z</time></trkpt><trkpt lat="45.5290559017287" lon="10.447844481273927"><ele>209.33333333333331</ele><time>2026-05-02T14:16:47.002Z</time></trkpt><trkpt lat="45.52920894768493" lon="10.44768942581197"><ele>211.66666666666666</ele><time>2026-05-02T14:16:48.002Z</time></trkpt><trkpt lat="45.52936779939953" lon="10.447562073702569"><ele>214.0</ele><time>2026-05-02T14:16:49.002Z</time></trkpt><trkpt lat="45.5295175565928" lon="10.447438137835764"><ele>213.33333333333331</ele><time>2026-05-02T14:16:50.002Z</time></trkpt><trkpt lat="45.52966332169798" lon="10.447315801928196"><ele>212.66666666666669</ele><time>2026-05-02T14:16:51Z</time></trkpt><trkpt lat="45.52979828178049" lon="10.447181335786658"><ele>212.0</ele><time>2026-05-02T14:16:52Z</time></trkpt><trkpt lat="45.52990470452699" lon="10.447036920969134"><ele>212.0</ele><time>2026-05-02T14:16:53Z</time></trkpt><trkpt lat="45.52999248760706" lon="10.44689051023138"><ele>212.0</ele><time>2026-05-02T14:16:54Z</time></trkpt><trkpt lat="45.530053759702675" lon="10.446724014061104"><ele>212.0</ele><time>2026-05-02T14:16:55Z</time></trkpt><trkpt lat="45.53009273020563" lon="10.446528652457806"><ele>212.0</ele><time>2026-05-02T14:16:56Z</time></trkpt><trkpt lat="45.530132108879066" lon="10.446339295160586"><ele>212.25</ele><time>2026-05-02T14:16:57Z</time></trkpt><trkpt lat="45.53016815664498" lon="10.446158781483547"><ele>212.5</ele><time>2026-05-02T14:16:58Z</time></trkpt><trkpt lat="45.53020460193793" lon="10.445971086973087"><ele>212.75</ele><time>2026-05-02T14:16:59Z</time></trkpt><trkpt lat="45.530244470687514" lon="10.44577028686873"><ele>213.0</ele><time>2026-05-02T14:17:00Z</time></trkpt><trkpt lat="45.530284193288594" lon="10.445564131782957"><ele>213.33333333333331</ele><time>2026-05-02T14:17:01Z</time></trkpt><trkpt lat="45.530321918303216" lon="10.445359957371384"><ele>213.66666666666666</ele><time>2026-05-02T14:17:02Z</time></trkpt><trkpt lat="45.53036624482465" lon="10.445153436254957"><ele>214.0</ele><time>2026-05-02T14:17:03Z</time></trkpt><trkpt lat="45.53039949451634" lon="10.444940761114204"><ele>213.0</ele><time>2026-05-02T14:17:04Z</time></trkpt><trkpt lat="45.53043552086782" lon="10.444741961185887"><ele>212.0</ele><time>2026-05-02T14:17:05Z</time></trkpt><trkpt lat="45.53046840114345" lon="10.444556020945393"><ele>211.0</ele><time>2026-05-02T14:17:06Z</time></trkpt><trkpt lat="45.53049970693233" lon="10.444384133175646"><ele>210.0</ele><time>2026-05-02T14:17:07Z</time></trkpt><trkpt lat="45.53052737469628" lon="10.444235472650707"><ele>210.0</ele><time>2026-05-02T14:17:08Z</time></trkpt><trkpt lat="45.53055118613152" lon="10.444104266200638"><ele>210.0</ele><time>2026-05-02T14:17:09Z</time></trkpt><trkpt lat="45.530565726330366" lon="10.443977151702311"><ele>210.0</ele><time>2026-05-02T14:17:10Z</time></trkpt><trkpt lat="45.530575411488336" lon="10.443859011132481"><ele>210.0</ele><time>2026-05-02T14:17:11Z</time></trkpt><trkpt lat="45.53058192870525" lon="10.443760332456245"><ele>210.0</ele><time>2026-05-02T14:17:12Z</time></trkpt><trkpt lat="45.5306140715308" lon="10.443607443216896"><ele>209.75</ele><time>2026-05-02T14:17:14Z</time></trkpt><trkpt lat="45.53070154123137" lon="10.443453651872689"><ele>209.5</ele><time>2026-05-02T14:17:16Z</time></trkpt><trkpt lat="45.53076318548797" lon="10.44338033604465"><ele>209.25</ele><time>2026-05-02T14:17:17Z</time></trkpt><trkpt lat="45.530913782570934" lon="10.443474350719033"><ele>209.0</ele><time>2026-05-02T14:17:18Z</time></trkpt><trkpt lat="45.53103185688071" lon="10.443485828673388"><ele>209.0</ele><time>2026-05-02T14:17:19Z</time></trkpt><trkpt lat="45.53116115216052" lon="10.443573865120634"><ele>209.0</ele><time>2026-05-02T14:17:20Z</time></trkpt><trkpt lat="45.53129591203025" lon="10.443615094917273"><ele>209.0</ele><time>2026-05-02T14:17:21Z</time></trkpt><trkpt lat="45.5314280927736" lon="10.443648552225985"><ele>209.0</ele><time>2026-05-02T14:17:22Z</time></trkpt><trkpt lat="45.53156856507848" lon="10.443678206003334"><ele>209.0</ele><time>2026-05-02T14:17:23Z</time></trkpt><trkpt lat="45.53171318448212" lon="10.443709856026796"><ele>209.0</ele><time>2026-05-02T14:17:24Z</time></trkpt><trkpt lat="45.531866125257004" lon="10.443741008699083"><ele>209.0</ele><time>2026-05-02T14:17:25Z</time></trkpt><trkpt lat="45.53202262477935" lon="10.443769388554864"><ele>209.66666666666669</ele><time>2026-05-02T14:17:26Z</time></trkpt><trkpt lat="45.53218561807273" lon="10.44381044293537"><ele>210.33333333333331</ele><time>2026-05-02T14:17:27Z</time></trkpt><trkpt lat="45.53235522458913" lon="10.443836338221336"><ele>211.0</ele><time>2026-05-02T14:17:28Z</time></trkpt><trkpt lat="45.53252675795058" lon="10.443862641619823"><ele>211.0</ele><time>2026-05-02T14:17:29Z</time></trkpt><trkpt lat="45.53269748679687" lon="10.443883105946604"><ele>211.0</ele><time>2026-05-02T14:17:30Z</time></trkpt><trkpt lat="45.5328666525123" lon="10.443898541727346"><ele>211.0</ele><time>2026-05-02T14:17:31Z</time></trkpt><trkpt lat="45.53303630179434" lon="10.443905558504294"><ele>210.66666666666666</ele><time>2026-05-02T14:17:32Z</time></trkpt><trkpt lat="45.533201093473615" lon="10.443911717341773"><ele>210.33333333333331</ele><time>2026-05-02T14:17:33Z</time></trkpt><trkpt lat="45.53336118928823" lon="10.443905768361011"><ele>210.0</ele><time>2026-05-02T14:17:34Z</time></trkpt><trkpt lat="45.53351282446397" lon="10.443916043070924"><ele>210.0</ele><time>2026-05-02T14:17:35Z</time></trkpt><trkpt lat="45.53365458482992" lon="10.443924122780007"><ele>210.0</ele><time>2026-05-02T14:17:36Z</time></trkpt><trkpt lat="45.53378467623887" lon="10.44392712062241"><ele>210.0</ele><time>2026-05-02T14:17:37Z</time></trkpt><trkpt lat="45.53389854083418" lon="10.44392988125871"><ele>210.0</ele><time>2026-05-02T14:17:38.001Z</time></trkpt><trkpt lat="45.53400491700454" lon="10.443940447680378"><ele>210.2</ele><time>2026-05-02T14:17:39.001Z</time></trkpt><trkpt lat="45.534108455169516" lon="10.443942419035762"><ele>210.4</ele><time>2026-05-02T14:17:40.001Z</time></trkpt><trkpt lat="45.53420007085692" lon="10.443958090362386"><ele>210.60000000000002</ele><time>2026-05-02T14:17:41.001Z</time></trkpt><trkpt lat="45.53427084515542" lon="10.443972767818734"><ele>210.8</ele><time>2026-05-02T14:17:42.001Z</time></trkpt><trkpt lat="45.53439924088468" lon="10.444009966460085"><ele>211.0</ele><time>2026-05-02T14:17:44.001Z</time></trkpt><trkpt lat="45.534489589337376" lon="10.444045443585008"><ele>211.0</ele><time>2026-05-02T14:17:45.001Z</time></trkpt><trkpt lat="45.53458971318193" lon="10.444122157273654"><ele>211.0</ele><time>2026-05-02T14:17:46.001Z</time></trkpt><trkpt lat="45.53470856252436" lon="10.444195361232644"><ele>211.0</ele><time>2026-05-02T14:17:47.001Z</time></trkpt><trkpt lat="45.534831980292424" lon="10.444270267229369"><ele>211.0</ele><time>2026-05-02T14:17:48.001Z</time></trkpt><trkpt lat="45.534973728832995" lon="10.444322899958605"><ele>211.0</ele><time>2026-05-02T14:17:49.001Z</time></trkpt><trkpt lat="45.53511508301844" lon="10.444398015815146"><ele>211.0</ele><time>2026-05-02T14:17:50.001Z</time></trkpt><trkpt lat="45.53527564012063" lon="10.44444880556272"><ele>211.0</ele><time>2026-05-02T14:17:51.001Z</time></trkpt><trkpt lat="45.535453124383075" lon="10.44446540040459"><ele>211.33333333333331</ele><time>2026-05-02T14:17:52.001Z</time></trkpt><trkpt lat="45.535638862368344" lon="10.444457448236134"><ele>211.66666666666669</ele><time>2026-05-02T14:17:53.001Z</time></trkpt><trkpt lat="45.535823743435074" lon="10.444437159839747"><ele>212.0</ele><time>2026-05-02T14:17:54.001Z</time></trkpt><trkpt lat="45.53600869596728" lon="10.444411012455513"><ele>212.0</ele><time>2026-05-02T14:17:55.001Z</time></trkpt><trkpt lat="45.53618633154409" lon="10.44439060586526"><ele>212.0</ele><time>2026-05-02T14:17:56.001Z</time></trkpt><trkpt lat="45.53636020588973" lon="10.444378801508622"><ele>212.0</ele><time>2026-05-02T14:17:57.001Z</time></trkpt><trkpt lat="45.536534292137176" lon="10.444369942142396"><ele>213.33333333333334</ele><time>2026-05-02T14:17:58.001Z</time></trkpt><trkpt lat="45.536697533584565" lon="10.444366494263049"><ele>214.66666666666669</ele><time>2026-05-02T14:17:59.001Z</time></trkpt><trkpt lat="45.536855947573514" lon="10.444380375957028"><ele>216.0</ele><time>2026-05-02T14:18:00.001Z</time></trkpt><trkpt lat="45.53701750345979" lon="10.444409930005069"><ele>216.66666666666669</ele><time>2026-05-02T14:18:01.001Z</time></trkpt><trkpt lat="45.53718405505881" lon="10.444455192018895"><ele>217.33333333333334</ele><time>2026-05-02T14:18:02.001Z</time></trkpt><trkpt lat="45.53735104918635" lon="10.444515032747113"><ele>218.0</ele><time>2026-05-02T14:18:03.001Z</time></trkpt><trkpt lat="45.53752000897802" lon="10.444577288791287"><ele>219.0</ele><time>2026-05-02T14:18:04.001Z</time></trkpt><trkpt lat="45.53768499250505" lon="10.444641635277"><ele>220.0</ele><time>2026-05-02T14:18:05.001Z</time></trkpt><trkpt lat="45.53783429762447" lon="10.444691503552395"><ele>221.0</ele><time>2026-05-02T14:18:06.001Z</time></trkpt><trkpt lat="45.53796710228971" lon="10.444735788711641"><ele>221.0</ele><time>2026-05-02T14:18:07.001Z</time></trkpt><trkpt lat="45.53807891910091" lon="10.444775254634207"><ele>221.00000000000003</ele><time>2026-05-02T14:18:08.001Z</time></trkpt><trkpt lat="45.538178748453205" lon="10.444809261306135"><ele>221.00000000000003</ele><time>2026-05-02T14:18:09.001Z</time></trkpt><trkpt lat="45.538280431316814" lon="10.444845077807049"><ele>221.0</ele><time>2026-05-02T14:18:10.001Z</time></trkpt><trkpt lat="45.538387275343844" lon="10.444889311574274"><ele>221.0</ele><time>2026-05-02T14:18:11.001Z</time></trkpt><trkpt lat="45.538493253988364" lon="10.444927734693987"><ele>221.0</ele><time>2026-05-02T14:18:12.001Z</time></trkpt><trkpt lat="45.53859364240287" lon="10.444968862106576"><ele>221.00000000000003</ele><time>2026-05-02T14:18:13.001Z</time></trkpt><trkpt lat="45.53868370346701" lon="10.445018025991425"><ele>221.00000000000003</ele><time>2026-05-02T14:18:14.001Z</time></trkpt><trkpt lat="45.53876159882963" lon="10.445074871068652"><ele>221.0</ele><time>2026-05-02T14:18:15.001Z</time></trkpt><trkpt lat="45.538826023097656" lon="10.44515003624089"><ele>221.0</ele><time>2026-05-02T14:18:16.001Z</time></trkpt><trkpt lat="45.53889181028018" lon="10.445213984335533"><ele>220.60000000000002</ele><time>2026-05-02T14:18:17.001Z</time></trkpt><trkpt lat="45.53896454746026" lon="10.445225424350692"><ele>220.20000000000002</ele><time>2026-05-02T14:18:18.001Z</time></trkpt><trkpt lat="45.53904059624812" lon="10.445194790653735"><ele>219.79999999999998</ele><time>2026-05-02T14:18:19.001Z</time></trkpt><trkpt lat="45.539129037197355" lon="10.445173278545333"><ele>219.39999999999998</ele><time>2026-05-02T14:18:20.001Z</time></trkpt><trkpt lat="45.53922959616111" lon="10.445184051971324"><ele>219.0</ele><time>2026-05-02T14:18:21.001Z</time></trkpt><trkpt lat="45.53933400205625" lon="10.44521914799718"><ele>219.0</ele><time>2026-05-02T14:18:22.001Z</time></trkpt><trkpt lat="45.53944388030049" lon="10.445266173360192"><ele>219.0</ele><time>2026-05-02T14:18:23.001Z</time></trkpt><trkpt lat="45.53956323605853" lon="10.445309757499412"><ele>219.0</ele><time>2026-05-02T14:18:24.001Z</time></trkpt><trkpt lat="45.53968679788597" lon="10.445354520176675"><ele>219.0</ele><time>2026-05-02T14:18:25.001Z</time></trkpt><trkpt lat="45.53981839962337" lon="10.445398375704215"><ele>219.5</ele><time>2026-05-02T14:18:26.001Z</time></trkpt><trkpt lat="45.539953462921346" lon="10.445447679748055"><ele>220.0</ele><time>2026-05-02T14:18:27.001Z</time></trkpt><trkpt lat="45.54008813850335" lon="10.445493160431079"><ele>220.5</ele><time>2026-05-02T14:18:28.001Z</time></trkpt><trkpt lat="45.5402242252747" lon="10.445545016737357"><ele>221.0</ele><time>2026-05-02T14:18:29.001Z</time></trkpt><trkpt lat="45.540359421134745" lon="10.445599069851157"><ele>221.75</ele><time>2026-05-02T14:18:30.001Z</time></trkpt><trkpt lat="45.54049420358704" lon="10.44564912341867"><ele>222.5</ele><time>2026-05-02T14:18:31.001Z</time></trkpt><trkpt lat="45.540621156972016" lon="10.445693773247129"><ele>223.25</ele><time>2026-05-02T14:18:32.001Z</time></trkpt><trkpt lat="45.540735521387894" lon="10.445736274177188"><ele>224.0</ele><time>2026-05-02T14:18:33.001Z</time></trkpt><trkpt lat="45.54083572309377" lon="10.44577275872948"><ele>224.00000000000003</ele><time>2026-05-02T14:18:34.001Z</time></trkpt><trkpt lat="45.540915499988635" lon="10.445795448130848"><ele>224.0</ele><time>2026-05-02T14:18:35.001Z</time></trkpt><trkpt lat="45.540981091100114" lon="10.445823614629749"><ele>224.0</ele><time>2026-05-02T14:18:36.001Z</time></trkpt><trkpt lat="45.54105215839693" lon="10.445851302141433"><ele>224.0</ele><time>2026-05-02T14:18:39.002Z</time></trkpt><trkpt lat="45.54114826990445" lon="10.445861262387245"><ele>224.00000000000003</ele><time>2026-05-02T14:18:49.002Z</time></trkpt><trkpt lat="45.54123171772936" lon="10.445734210309881"><ele>224.0</ele><time>2026-05-02T14:18:51.002Z</time></trkpt><trkpt lat="45.54126648939303" lon="10.445605626657915"><ele>224.2</ele><time>2026-05-02T14:18:52.002Z</time></trkpt><trkpt lat="45.54129867447482" lon="10.445480295348567"><ele>224.39999999999998</ele><time>2026-05-02T14:18:53.002Z</time></trkpt><trkpt lat="45.54133934694807" lon="10.445336884844581"><ele>224.6</ele><time>2026-05-02T14:18:54.002Z</time></trkpt><trkpt lat="45.54137855501154" lon="10.445178086055117"><ele>224.8</ele><time>2026-05-02T14:18:55.002Z</time></trkpt><trkpt lat="45.54142211595903" lon="10.445019113639303"><ele>225.0</ele><time>2026-05-02T14:18:56.002Z</time></trkpt><trkpt lat="45.54147626034579" lon="10.444837103444284"><ele>225.0</ele><time>2026-05-02T14:18:57Z</time></trkpt><trkpt lat="45.541528483682406" lon="10.444653233861754"><ele>225.0</ele><time>2026-05-02T14:18:58Z</time></trkpt><trkpt lat="45.54157794037745" lon="10.444478709666159"><ele>225.0</ele><time>2026-05-02T14:18:59Z</time></trkpt><trkpt lat="45.54162418510934" lon="10.44431521050207"><ele>225.0</ele><time>2026-05-02T14:19:00Z</time></trkpt><trkpt lat="45.54166546474896" lon="10.444160863446257"><ele>224.66666666666666</ele><time>2026-05-02T14:19:01Z</time></trkpt><trkpt lat="45.54170280961262" lon="10.444015051520608"><ele>224.33333333333331</ele><time>2026-05-02T14:19:02Z</time></trkpt><trkpt lat="45.54173766785123" lon="10.443898241115553"><ele>224.0</ele><time>2026-05-02T14:19:03Z</time></trkpt><trkpt lat="45.54176571705533" lon="10.443803913735099"><ele>223.66666666666666</ele><time>2026-05-02T14:19:04Z</time></trkpt><trkpt lat="45.541794618365174" lon="10.443696163846331"><ele>223.33333333333331</ele><time>2026-05-02T14:19:06Z</time></trkpt><trkpt lat="45.54181141446621" lon="10.443596141216227"><ele>223.0</ele><time>2026-05-02T14:19:12Z</time></trkpt><trkpt lat="45.541834167721845" lon="10.443499760649434"><ele>221.60000000000002</ele><time>2026-05-02T14:19:16Z</time></trkpt><trkpt lat="45.541715474433296" lon="10.443409203816907"><ele>220.20000000000002</ele><time>2026-05-02T14:19:17Z</time></trkpt><trkpt lat="45.54165474356913" lon="10.443331768848745"><ele>218.8</ele><time>2026-05-02T14:19:18Z</time></trkpt><trkpt lat="45.54162304268783" lon="10.443230002703183"><ele>217.4</ele><time>2026-05-02T14:19:19Z</time></trkpt><trkpt lat="45.541637585702944" lon="10.443110582112547"><ele>216.0</ele><time>2026-05-02T14:19:20Z</time></trkpt><trkpt lat="45.541695347025254" lon="10.443004188341432"><ele>216.0</ele><time>2026-05-02T14:19:21Z</time></trkpt><trkpt lat="45.54179388743241" lon="10.442960202202027"><ele>216.0</ele><time>2026-05-02T14:19:22Z</time></trkpt><trkpt lat="45.54191004643917" lon="10.4430026042643"><ele>216.0</ele><time>2026-05-02T14:19:23Z</time></trkpt><trkpt lat="45.54205417720445" lon="10.443101186017103"><ele>216.0</ele><time>2026-05-02T14:19:24Z</time></trkpt><trkpt lat="45.54219105973821" lon="10.44319612522307"><ele>215.5</ele><time>2026-05-02T14:19:25Z</time></trkpt><trkpt lat="45.54231957793008" lon="10.443295193012231"><ele>215.0</ele><time>2026-05-02T14:19:26Z</time></trkpt><trkpt lat="45.542442699091445" lon="10.443357338601961"><ele>214.5</ele><time>2026-05-02T14:19:27Z</time></trkpt><trkpt lat="45.5425629859461" lon="10.443380523126033"><ele>214.0</ele><time>2026-05-02T14:19:28Z</time></trkpt><trkpt lat="45.542674476219524" lon="10.44342362897214"><ele>214.0</ele><time>2026-05-02T14:19:29Z</time></trkpt><trkpt lat="45.54279709818996" lon="10.443439404754859"><ele>214.0</ele><time>2026-05-02T14:19:30Z</time></trkpt><trkpt lat="45.54291354934249" lon="10.44345611915531"><ele>214.0</ele><time>2026-05-02T14:19:31Z</time></trkpt><trkpt lat="45.543022935430635" lon="10.443495662073605"><ele>214.0</ele><time>2026-05-02T14:19:32Z</time></trkpt><trkpt lat="45.543130785123985" lon="10.443549457607833"><ele>211.25</ele><time>2026-05-02T14:19:33Z</time></trkpt><trkpt lat="45.54324008868384" lon="10.443613453159994"><ele>208.5</ele><time>2026-05-02T14:19:34Z</time></trkpt><trkpt lat="45.54334302541778" lon="10.443675348760909"><ele>205.75</ele><time>2026-05-02T14:19:35Z</time></trkpt><trkpt lat="45.543448833221106" lon="10.443738970729063"><ele>203.0</ele><time>2026-05-02T14:19:36Z</time></trkpt><trkpt lat="45.54355500330711" lon="10.443802931205292"><ele>204.66666666666669</ele><time>2026-05-02T14:19:37Z</time></trkpt><trkpt lat="45.54365069177687" lon="10.44386070462124"><ele>206.33333333333334</ele><time>2026-05-02T14:19:38Z</time></trkpt><trkpt lat="45.54373521506546" lon="10.4439117369062"><ele>208.0</ele><time>2026-05-02T14:19:39Z</time></trkpt><trkpt lat="45.54380701911662" lon="10.443947996332467"><ele>209.66666666666669</ele><time>2026-05-02T14:19:40Z</time></trkpt><trkpt lat="45.543874115900266" lon="10.443953291014633"><ele>211.33333333333334</ele><time>2026-05-02T14:19:41Z</time></trkpt><trkpt lat="45.54393998429426" lon="10.443940982634741"><ele>213.0</ele><time>2026-05-02T14:19:42Z</time></trkpt><trkpt lat="45.54398601693064" lon="10.443849539868854"><ele>210.5</ele><time>2026-05-02T14:19:43Z</time></trkpt><trkpt lat="45.54395857089865" lon="10.443620429402484"><ele>208.0</ele><time>2026-05-02T14:19:45Z</time></trkpt><trkpt lat="45.543865526248794" lon="10.443559561806854"><ele>205.5</ele><time>2026-05-02T14:19:46.001Z</time></trkpt><trkpt lat="45.54375969583197" lon="10.443516417514445"><ele>203.0</ele><time>2026-05-02T14:19:47.001Z</time></trkpt><trkpt lat="45.543646877434036" lon="10.443482573091098"><ele>203.0</ele><time>2026-05-02T14:19:48.001Z</time></trkpt><trkpt lat="45.54352596821316" lon="10.443438123237051"><ele>203.0</ele><time>2026-05-02T14:19:49.001Z</time></trkpt><trkpt lat="45.543404342116084" lon="10.443384904331682"><ele>203.0</ele><time>2026-05-02T14:19:50.001Z</time></trkpt><trkpt lat="45.54328788790248" lon="10.443307618508978"><ele>203.0</ele><time>2026-05-02T14:19:51.001Z</time></trkpt><trkpt lat="45.54316901103078" lon="10.443220161886835"><ele>203.0</ele><time>2026-05-02T14:19:52.001Z</time></trkpt><trkpt lat="45.54304677300966" lon="10.443125522660896"><ele>203.0</ele><time>2026-05-02T14:19:53.001Z</time></trkpt><trkpt lat="45.542927815796695" lon="10.443032234126392"><ele>203.0</ele><time>2026-05-02T14:19:54.001Z</time></trkpt><trkpt lat="45.5428172760282" lon="10.442937480371144"><ele>203.0</ele><time>2026-05-02T14:19:55.001Z</time></trkpt><trkpt lat="45.542708424578855" lon="10.44284555121487"><ele>200.75</ele><time>2026-05-02T14:19:56.001Z</time></trkpt><trkpt lat="45.54260637565838" lon="10.442744729888252"><ele>198.5</ele><time>2026-05-02T14:19:57.001Z</time></trkpt><trkpt lat="45.54251114008294" lon="10.442619351204014"><ele>196.25</ele><time>2026-05-02T14:19:58.001Z</time></trkpt><trkpt lat="45.542429732165814" lon="10.442465531965016"><ele>194.0</ele><time>2026-05-02T14:19:59.001Z</time></trkpt><trkpt lat="45.542361496783336" lon="10.442285133804704"><ele>190.66666666666669</ele><time>2026-05-02T14:20:00.001Z</time></trkpt><trkpt lat="45.54230096184187" lon="10.442085776211195"><ele>187.33333333333334</ele><time>2026-05-02T14:20:01.001Z</time></trkpt><trkpt lat="45.54228887828488" lon="10.44185970936281"><ele>184.0</ele><time>2026-05-02T14:20:02.001Z</time></trkpt><trkpt lat="45.54229357572798" lon="10.441634041046354"><ele>184.0</ele><time>2026-05-02T14:20:03.001Z</time></trkpt><trkpt lat="45.542326691136125" lon="10.441413151890945"><ele>184.0</ele><time>2026-05-02T14:20:04.001Z</time></trkpt><trkpt lat="45.54238400297058" lon="10.441216247917502"><ele>184.0</ele><time>2026-05-02T14:20:05.001Z</time></trkpt><trkpt lat="45.54244812092549" lon="10.441027397884612"><ele>183.0</ele><time>2026-05-02T14:20:06.001Z</time></trkpt><trkpt lat="45.54250806140562" lon="10.440836256635972"><ele>182.0</ele><time>2026-05-02T14:20:07.001Z</time></trkpt><trkpt lat="45.542586283625795" lon="10.440639838524064"><ele>181.0</ele><time>2026-05-02T14:20:08.001Z</time></trkpt><trkpt lat="45.54266255574021" lon="10.440434893977386"><ele>180.33333333333334</ele><time>2026-05-02T14:20:09.001Z</time></trkpt><trkpt lat="45.542742982201155" lon="10.440223554875482"><ele>179.66666666666666</ele><time>2026-05-02T14:20:10.001Z</time></trkpt><trkpt lat="45.542821765742325" lon="10.440009166219212"><ele>179.0</ele><time>2026-05-02T14:20:11.001Z</time></trkpt><trkpt lat="45.54290392610651" lon="10.439789898518516"><ele>178.66666666666666</ele><time>2026-05-02T14:20:12.001Z</time></trkpt><trkpt lat="45.54298314722597" lon="10.439576011626114"><ele>178.33333333333334</ele><time>2026-05-02T14:20:13.001Z</time></trkpt><trkpt lat="45.543062157713166" lon="10.439364684899187"><ele>178.0</ele><time>2026-05-02T14:20:14.001Z</time></trkpt><trkpt lat="45.543136308703055" lon="10.439168499470957"><ele>178.0</ele><time>2026-05-02T14:20:15.001Z</time></trkpt><trkpt lat="45.543206967871654" lon="10.4389837902294"><ele>178.0</ele><time>2026-05-02T14:20:16.001Z</time></trkpt><trkpt lat="45.543274401787194" lon="10.438800438700843"><ele>178.0</ele><time>2026-05-02T14:20:17.001Z</time></trkpt><trkpt lat="45.543339626619684" lon="10.438627190902208"><ele>178.0</ele><time>2026-05-02T14:20:18.001Z</time></trkpt><trkpt lat="45.54340348568756" lon="10.438454328257729"><ele>178.25</ele><time>2026-05-02T14:20:19.001Z</time></trkpt><trkpt lat="45.54346026367029" lon="10.438305965129864"><ele>178.5</ele><time>2026-05-02T14:20:20.001Z</time></trkpt><trkpt lat="45.54351924010422" lon="10.43816762627213"><ele>178.75</ele><time>2026-05-02T14:20:21.001Z</time></trkpt><trkpt lat="45.543598749879564" lon="10.43806668132211"><ele>179.0</ele><time>2026-05-02T14:20:22.001Z</time></trkpt><trkpt lat="45.543718789835474" lon="10.438046814689216"><ele>178.5</ele><time>2026-05-02T14:20:23.001Z</time></trkpt><trkpt lat="45.5438510372604" lon="10.438026585867894"><ele>178.0</ele><time>2026-05-02T14:20:24.001Z</time></trkpt><trkpt lat="45.54399535157623" lon="10.438027354440212"><ele>177.5</ele><time>2026-05-02T14:20:25.001Z</time></trkpt><trkpt lat="45.544143981270466" lon="10.438000453844525"><ele>177.0</ele><time>2026-05-02T14:20:26.001Z</time></trkpt><trkpt lat="45.544281713574094" lon="10.437998719712748"><ele>177.0</ele><time>2026-05-02T14:20:27.001Z</time></trkpt><trkpt lat="45.54439901751999" lon="10.437988930297447"><ele>177.0</ele><time>2026-05-02T14:20:28.001Z</time></trkpt><trkpt lat="45.544496689302356" lon="10.437981039180018"><ele>177.0</ele><time>2026-05-02T14:20:29.001Z</time></trkpt><trkpt lat="45.544579838692414" lon="10.437979981656074"><ele>177.0</ele><time>2026-05-02T14:20:30.001Z</time></trkpt><trkpt lat="45.544650539289144" lon="10.437972332379358"><ele>177.0</ele><time>2026-05-02T14:20:31.001Z</time></trkpt><trkpt lat="45.5447602100497" lon="10.43796191425364"><ele>176.83333333333334</ele><time>2026-05-02T14:20:33.001Z</time></trkpt><trkpt lat="45.54483937809473" lon="10.437897944582367"><ele>176.66666666666666</ele><time>2026-05-02T14:20:35.001Z</time></trkpt><trkpt lat="45.544847142074794" lon="10.437760708641134"><ele>176.5</ele><time>2026-05-02T14:20:37.001Z</time></trkpt><trkpt lat="45.54483561804432" lon="10.437665366213515"><ele>176.33333333333331</ele><time>2026-05-02T14:20:38.001Z</time></trkpt><trkpt lat="45.54482205184123" lon="10.43755449734432"><ele>176.16666666666666</ele><time>2026-05-02T14:20:39.001Z</time></trkpt><trkpt lat="45.54481526943498" lon="10.437434452307878"><ele>176.0</ele><time>2026-05-02T14:20:40.001Z</time></trkpt><trkpt lat="45.54481600410528" lon="10.437303198523578"><ele>176.0</ele><time>2026-05-02T14:20:41.001Z</time></trkpt><trkpt lat="45.54480740989276" lon="10.437168900079662"><ele>176.0</ele><time>2026-05-02T14:20:42.001Z</time></trkpt><trkpt lat="45.544798637422964" lon="10.437043429582134"><ele>176.0</ele><time>2026-05-02T14:20:43.001Z</time></trkpt><trkpt lat="45.54478810067343" lon="10.43692658410689"><ele>176.0</ele><time>2026-05-02T14:20:44.001Z</time></trkpt><trkpt lat="45.544778079795556" lon="10.436809545643596"><ele>176.0</ele><time>2026-05-02T14:20:45.001Z</time></trkpt><trkpt lat="45.54476342194103" lon="10.436676513544754"><ele>176.0</ele><time>2026-05-02T14:20:46.001Z</time></trkpt><trkpt lat="45.5447426261904" lon="10.436524030092652"><ele>176.0</ele><time>2026-05-02T14:20:47.002Z</time></trkpt><trkpt lat="45.544727429872324" lon="10.43635878436305"><ele>176.0</ele><time>2026-05-02T14:20:48.002Z</time></trkpt><trkpt lat="45.54473484115081" lon="10.43619233175453"><ele>176.0</ele><time>2026-05-02T14:20:49.002Z</time></trkpt><trkpt lat="45.544770301930015" lon="10.436032739597994"><ele>176.0</ele><time>2026-05-02T14:20:50.002Z</time></trkpt><trkpt lat="45.544829863339146" lon="10.435883827257355"><ele>176.0</ele><time>2026-05-02T14:20:51.002Z</time></trkpt><trkpt lat="45.544906816711034" lon="10.435746801330197"><ele>176.0</ele><time>2026-05-02T14:20:52.002Z</time></trkpt><trkpt lat="45.545001108787865" lon="10.435634954719625"><ele>176.0</ele><time>2026-05-02T14:20:53.002Z</time></trkpt><trkpt lat="45.54511148622473" lon="10.435558516701875"><ele>176.0</ele><time>2026-05-02T14:20:54.002Z</time></trkpt><trkpt lat="45.54522529658357" lon="10.435504984519183"><ele>177.5</ele><time>2026-05-02T14:20:55.002Z</time></trkpt><trkpt lat="45.54533512199819" lon="10.435454857657142"><ele>179.0</ele><time>2026-05-02T14:20:56.002Z</time></trkpt><trkpt lat="45.54544612492284" lon="10.435401386667602"><ele>180.5</ele><time>2026-05-02T14:20:57.002Z</time></trkpt><trkpt lat="45.545558174761666" lon="10.435338398484847"><ele>182.0</ele><time>2026-05-02T14:20:58.002Z</time></trkpt><trkpt lat="45.545665505666626" lon="10.435268016592838"><ele>182.33333333333331</ele><time>2026-05-02T14:20:59.002Z</time></trkpt><trkpt lat="45.54575381636631" lon="10.435208641593578"><ele>182.66666666666666</ele><time>2026-05-02T14:21:00.002Z</time></trkpt><trkpt lat="45.54583142072179" lon="10.435158054716426"><ele>183.0</ele><time>2026-05-02T14:21:01.002Z</time></trkpt><trkpt lat="45.54589517961936" lon="10.435099543966494"><ele>183.33333333333334</ele><time>2026-05-02T14:21:02.002Z</time></trkpt><trkpt lat="45.54595987617459" lon="10.435025575414569"><ele>183.66666666666669</ele><time>2026-05-02T14:21:03Z</time></trkpt><trkpt lat="45.54601624419654" lon="10.434951305385155"><ele>184.0</ele><time>2026-05-02T14:21:04Z</time></trkpt><trkpt lat="45.54607546840218" lon="10.434890871010495"><ele>184.0</ele><time>2026-05-02T14:21:05Z</time></trkpt><trkpt lat="45.54614606554478" lon="10.434847395209196"><ele>184.0</ele><time>2026-05-02T14:21:06Z</time></trkpt><trkpt lat="45.546221474718244" lon="10.434866185677977"><ele>184.0</ele><time>2026-05-02T14:21:07Z</time></trkpt><trkpt lat="45.54628410014445" lon="10.434841865396463"><ele>184.0</ele><time>2026-05-02T14:21:08Z</time></trkpt><trkpt lat="45.5463468031787" lon="10.434806048705017"><ele>184.0</ele><time>2026-05-02T14:21:09Z</time></trkpt><trkpt lat="45.54644667239816" lon="10.434739360119963"><ele>184.0</ele><time>2026-05-02T14:21:11Z</time></trkpt><trkpt lat="45.54652180324003" lon="10.43472236316226"><ele>184.25</ele><time>2026-05-02T14:21:12Z</time></trkpt><trkpt lat="45.546616803274" lon="10.434704972315007"><ele>184.5</ele><time>2026-05-02T14:21:13Z</time></trkpt><trkpt lat="45.546727909789126" lon="10.434699936977962"><ele>184.75</ele><time>2026-05-02T14:21:14Z</time></trkpt><trkpt lat="45.54684440748165" lon="10.43463188574296"><ele>185.0</ele><time>2026-05-02T14:21:15Z</time></trkpt><trkpt lat="45.5469868787566" lon="10.43464860130178"><ele>185.66666666666666</ele><time>2026-05-02T14:21:16Z</time></trkpt><trkpt lat="45.54712941454988" lon="10.434595876841978"><ele>186.33333333333334</ele><time>2026-05-02T14:21:17Z</time></trkpt><trkpt lat="45.54728181567801" lon="10.434571693129698"><ele>187.0</ele><time>2026-05-02T14:21:18Z</time></trkpt><trkpt lat="45.54744330270149" lon="10.434543986509226"><ele>187.0</ele><time>2026-05-02T14:21:19Z</time></trkpt><trkpt lat="45.54760850170891" lon="10.434528296947114"><ele>187.0</ele><time>2026-05-02T14:21:20Z</time></trkpt><trkpt lat="45.54777161751619" lon="10.434501513548282"><ele>187.0</ele><time>2026-05-02T14:21:21Z</time></trkpt><trkpt lat="45.54794784018284" lon="10.43447512994464"><ele>186.66666666666669</ele><time>2026-05-02T14:21:22Z</time></trkpt><trkpt lat="45.54812643600765" lon="10.434452694224579"><ele>186.33333333333334</ele><time>2026-05-02T14:21:23Z</time></trkpt><trkpt lat="45.54831217114723" lon="10.434423573692268"><ele>186.0</ele><time>2026-05-02T14:21:24Z</time></trkpt><trkpt lat="45.54850414571348" lon="10.434395103346748"><ele>186.0</ele><time>2026-05-02T14:21:25Z</time></trkpt><trkpt lat="45.54870165257758" lon="10.434364762801728"><ele>186.0</ele><time>2026-05-02T14:21:26Z</time></trkpt><trkpt lat="45.54889666694082" lon="10.43433574922997"><ele>186.0</ele><time>2026-05-02T14:21:27Z</time></trkpt><trkpt lat="45.54909171777784" lon="10.434305845829677"><ele>186.0</ele><time>2026-05-02T14:21:28Z</time></trkpt><trkpt lat="45.54928427613898" lon="10.434281961232674"><ele>186.0</ele><time>2026-05-02T14:21:29Z</time></trkpt><trkpt lat="45.54947647576862" lon="10.434255605762061"><ele>186.0</ele><time>2026-05-02T14:21:30Z</time></trkpt><trkpt lat="45.54966492819823" lon="10.434227229470634"><ele>186.0</ele><time>2026-05-02T14:21:31Z</time></trkpt><trkpt lat="45.54985077565832" lon="10.434188638517147"><ele>186.0</ele><time>2026-05-02T14:21:32Z</time></trkpt><trkpt lat="45.55002714944848" lon="10.434153357615342"><ele>186.0</ele><time>2026-05-02T14:21:33Z</time></trkpt><trkpt lat="45.55018319593429" lon="10.43411018591687"><ele>186.0</ele><time>2026-05-02T14:21:34Z</time></trkpt><trkpt lat="45.55032646032606" lon="10.434040247541223"><ele>186.0</ele><time>2026-05-02T14:21:35Z</time></trkpt><trkpt lat="45.55046244922158" lon="10.433944852501966"><ele>186.0</ele><time>2026-05-02T14:21:36Z</time></trkpt><trkpt lat="45.5505869200412" lon="10.433824247561112"><ele>187.0</ele><time>2026-05-02T14:21:37Z</time></trkpt><trkpt lat="45.55070141999643" lon="10.433682323211801"><ele>188.0</ele><time>2026-05-02T14:21:38Z</time></trkpt><trkpt lat="45.55080255069344" lon="10.433517865183592"><ele>189.0</ele><time>2026-05-02T14:21:39Z</time></trkpt><trkpt lat="45.550879475297386" lon="10.433334726324782"><ele>189.0</ele><time>2026-05-02T14:21:40Z</time></trkpt><trkpt lat="45.55092966255722" lon="10.433141999502253"><ele>189.0</ele><time>2026-05-02T14:21:41Z</time></trkpt><trkpt lat="45.55097402381164" lon="10.432957184651226"><ele>189.0</ele><time>2026-05-02T14:21:42Z</time></trkpt><trkpt lat="45.5510165664963" lon="10.432786965539856"><ele>189.0</ele><time>2026-05-02T14:21:43Z</time></trkpt><trkpt lat="45.55106283187055" lon="10.432634435096418"><ele>189.5</ele><time>2026-05-02T14:21:44Z</time></trkpt><trkpt lat="45.551109057748725" lon="10.432504840674763"><ele>190.0</ele><time>2026-05-02T14:21:45Z</time></trkpt><trkpt lat="45.55116452142037" lon="10.432399324221796"><ele>190.5</ele><time>2026-05-02T14:21:46Z</time></trkpt><trkpt lat="45.55123599328442" lon="10.43233720526163"><ele>191.0</ele><time>2026-05-02T14:21:47Z</time></trkpt><trkpt lat="45.55131901325642" lon="10.432327969435296"><ele>191.5</ele><time>2026-05-02T14:21:48Z</time></trkpt><trkpt lat="45.55140564842556" lon="10.432344685438201"><ele>192.0</ele><time>2026-05-02T14:21:49Z</time></trkpt><trkpt lat="45.551507193077065" lon="10.432353599915295"><ele>192.0</ele><time>2026-05-02T14:21:50.001Z</time></trkpt><trkpt lat="45.551621160194465" lon="10.432355934867857"><ele>192.0</ele><time>2026-05-02T14:21:51.001Z</time></trkpt><trkpt lat="45.551748044742524" lon="10.432360324825288"><ele>192.0</ele><time>2026-05-02T14:21:52.001Z</time></trkpt><trkpt lat="45.551883807574086" lon="10.432369038007982"><ele>192.0</ele><time>2026-05-02T14:21:53.001Z</time></trkpt><trkpt lat="45.552027305710695" lon="10.432383016637912"><ele>191.5</ele><time>2026-05-02T14:21:54.001Z</time></trkpt><trkpt lat="45.552166202684525" lon="10.432403914798792"><ele>191.0</ele><time>2026-05-02T14:21:55.001Z</time></trkpt><trkpt lat="45.55231025588841" lon="10.432440529489227"><ele>190.5</ele><time>2026-05-02T14:21:56.001Z</time></trkpt><trkpt lat="45.55245591935502" lon="10.43244916773128"><ele>190.0</ele><time>2026-05-02T14:21:57.001Z</time></trkpt><trkpt lat="45.552621854973125" lon="10.432577847532452"><ele>190.0</ele><time>2026-05-02T14:21:58.001Z</time></trkpt><trkpt lat="45.55279571300152" lon="10.43265307480596"><ele>190.0</ele><time>2026-05-02T14:21:59.001Z</time></trkpt><trkpt lat="45.55297445888312" lon="10.432727499963626"><ele>190.0</ele><time>2026-05-02T14:22:00.001Z</time></trkpt><trkpt lat="45.55315585978027" lon="10.432802582558475"><ele>190.0</ele><time>2026-05-02T14:22:01.001Z</time></trkpt><trkpt lat="45.55334113197608" lon="10.432874645901467"><ele>190.0</ele><time>2026-05-02T14:22:02.001Z</time></trkpt><trkpt lat="45.553525113862236" lon="10.43294560200694"><ele>190.0</ele><time>2026-05-02T14:22:03.001Z</time></trkpt><trkpt lat="45.55370906157748" lon="10.433022757755731"><ele>189.66666666666669</ele><time>2026-05-02T14:22:04.001Z</time></trkpt><trkpt lat="45.5538940344989" lon="10.433118817440725"><ele>189.33333333333334</ele><time>2026-05-02T14:22:05.001Z</time></trkpt><trkpt lat="45.554077549571666" lon="10.43322164938859"><ele>189.0</ele><time>2026-05-02T14:22:06.001Z</time></trkpt><trkpt lat="45.55426283469689" lon="10.43333376282251"><ele>189.0</ele><time>2026-05-02T14:22:07.001Z</time></trkpt><trkpt lat="45.554450203212376" lon="10.433455303604138"><ele>189.0</ele><time>2026-05-02T14:22:08.001Z</time></trkpt><trkpt lat="45.55463478037772" lon="10.433576867429498"><ele>189.0</ele><time>2026-05-02T14:22:09.001Z</time></trkpt><trkpt lat="45.55482642931583" lon="10.433697379995095"><ele>188.66666666666666</ele><time>2026-05-02T14:22:10.001Z</time></trkpt><trkpt lat="45.55501639214662" lon="10.433815682032352"><ele>188.33333333333331</ele><time>2026-05-02T14:22:11.001Z</time></trkpt><trkpt lat="45.55520596632158" lon="10.433936910312742"><ele>188.0</ele><time>2026-05-02T14:22:12.001Z</time></trkpt><trkpt lat="45.55539749705289" lon="10.434060803511711"><ele>189.66666666666666</ele><time>2026-05-02T14:22:13.001Z</time></trkpt><trkpt lat="45.5555902189747" lon="10.4341853725164"><ele>191.33333333333331</ele><time>2026-05-02T14:22:14.001Z</time></trkpt><trkpt lat="45.555782815448026" lon="10.434308415528461"><ele>193.0</ele><time>2026-05-02T14:22:15.001Z</time></trkpt><trkpt lat="45.555976853861914" lon="10.434432748136507"><ele>193.0</ele><time>2026-05-02T14:22:16.001Z</time></trkpt><trkpt lat="45.556173497881474" lon="10.434558922984603"><ele>193.0</ele><time>2026-05-02T14:22:17.001Z</time></trkpt><trkpt lat="45.55636736623893" lon="10.434683518987528"><ele>193.0</ele><time>2026-05-02T14:22:18.001Z</time></trkpt><trkpt lat="45.55656285057582" lon="10.434809144811837"><ele>192.0</ele><time>2026-05-02T14:22:19.001Z</time></trkpt><trkpt lat="45.55675709519902" lon="10.43493026298256"><ele>191.0</ele><time>2026-05-02T14:22:20.001Z</time></trkpt><trkpt lat="45.55695225529841" lon="10.435057422057435"><ele>190.0</ele><time>2026-05-02T14:22:21.001Z</time></trkpt><trkpt lat="45.55714334545718" lon="10.435185023662322"><ele>190.0</ele><time>2026-05-02T14:22:22.001Z</time></trkpt><trkpt lat="45.55734142550354" lon="10.435308932649185"><ele>190.0</ele><time>2026-05-02T14:22:23.001Z</time></trkpt><trkpt lat="45.5575412758585" lon="10.435433252363001"><ele>190.0</ele><time>2026-05-02T14:22:24.001Z</time></trkpt><trkpt lat="45.557736307070556" lon="10.435559684371496"><ele>190.0</ele><time>2026-05-02T14:22:25.001Z</time></trkpt><trkpt lat="45.55793244465027" lon="10.435686075806554"><ele>190.0</ele><time>2026-05-02T14:22:26.001Z</time></trkpt><trkpt lat="45.55812914188572" lon="10.435816756000044"><ele>190.0</ele><time>2026-05-02T14:22:27.001Z</time></trkpt><trkpt lat="45.55832892575601" lon="10.43595325774015"><ele>190.0</ele><time>2026-05-02T14:22:28.001Z</time></trkpt><trkpt lat="45.55852947664088" lon="10.436093980731986"><ele>190.0</ele><time>2026-05-02T14:22:29.001Z</time></trkpt><trkpt lat="45.558731699879" lon="10.436243923359859"><ele>190.0</ele><time>2026-05-02T14:22:30.001Z</time></trkpt><trkpt lat="45.558929722557345" lon="10.43639712696936"><ele>190.0</ele><time>2026-05-02T14:22:31.001Z</time></trkpt><trkpt lat="45.55912972652512" lon="10.436555687644569"><ele>190.0</ele><time>2026-05-02T14:22:32.001Z</time></trkpt><trkpt lat="45.559332651858824" lon="10.436715402922099"><ele>190.0</ele><time>2026-05-02T14:22:33.001Z</time></trkpt><trkpt lat="45.559538052335384" lon="10.436881709695307"><ele>190.0</ele><time>2026-05-02T14:22:34.001Z</time></trkpt><trkpt lat="45.55973327939715" lon="10.437047178241514"><ele>190.0</ele><time>2026-05-02T14:22:35.001Z</time></trkpt><trkpt lat="45.55992333706991" lon="10.437236901117357"><ele>190.0</ele><time>2026-05-02T14:22:36.001Z</time></trkpt><trkpt lat="45.560117915969855" lon="10.437409665492611"><ele>190.0</ele><time>2026-05-02T14:22:37.001Z</time></trkpt><trkpt lat="45.56031355549309" lon="10.437593989990377"><ele>190.5</ele><time>2026-05-02T14:22:38.001Z</time></trkpt><trkpt lat="45.560505338744505" lon="10.437780093970463"><ele>191.0</ele><time>2026-05-02T14:22:39.001Z</time></trkpt><trkpt lat="45.56069935293077" lon="10.437978147691497"><ele>191.0</ele><time>2026-05-02T14:22:40.001Z</time></trkpt><trkpt lat="45.560892757569476" lon="10.438177600619474"><ele>191.0</ele><time>2026-05-02T14:22:41.001Z</time></trkpt><trkpt lat="45.561084909305926" lon="10.438380123057957"><ele>190.0</ele><time>2026-05-02T14:22:42.001Z</time></trkpt><trkpt lat="45.561276598528956" lon="10.438582158224332"><ele>189.0</ele><time>2026-05-02T14:22:43.001Z</time></trkpt><trkpt lat="45.561467924670374" lon="10.438783810537782"><ele>190.0</ele><time>2026-05-02T14:22:44.001Z</time></trkpt><trkpt lat="45.561658028550326" lon="10.438985575393259"><ele>191.0</ele><time>2026-05-02T14:22:45.001Z</time></trkpt><trkpt lat="45.56184691868489" lon="10.439186671095491"><ele>191.0</ele><time>2026-05-02T14:22:46.001Z</time></trkpt><trkpt lat="45.56203165888272" lon="10.439382138949247"><ele>191.0</ele><time>2026-05-02T14:22:47.001Z</time></trkpt><trkpt lat="45.56221676913987" lon="10.439577279901592"><ele>190.5</ele><time>2026-05-02T14:22:48.002Z</time></trkpt><trkpt lat="45.56239537815845" lon="10.439768752595391"><ele>190.0</ele><time>2026-05-02T14:22:49.002Z</time></trkpt><trkpt lat="45.562577790697915" lon="10.43996193788632"><ele>190.0</ele><time>2026-05-02T14:22:50.002Z</time></trkpt><trkpt lat="45.56275792591952" lon="10.440151855577588"><ele>190.0</ele><time>2026-05-02T14:22:51.002Z</time></trkpt><trkpt lat="45.56293782148088" lon="10.440343753282978"><ele>190.0</ele><time>2026-05-02T14:22:52.002Z</time></trkpt><trkpt lat="45.56311615451293" lon="10.440533984320552"><ele>190.0</ele><time>2026-05-02T14:22:53.002Z</time></trkpt><trkpt lat="45.56329764950173" lon="10.440727321035341"><ele>190.0</ele><time>2026-05-02T14:22:54.002Z</time></trkpt><trkpt lat="45.56348303768608" lon="10.440912749572982"><ele>190.0</ele><time>2026-05-02T14:22:55.002Z</time></trkpt><trkpt lat="45.56367272261314" lon="10.441091102894212"><ele>190.0</ele><time>2026-05-02T14:22:56.002Z</time></trkpt><trkpt lat="45.563871096654125" lon="10.441230168073856"><ele>190.0</ele><time>2026-05-02T14:22:57.002Z</time></trkpt><trkpt lat="45.56406776317518" lon="10.44137439292483"><ele>190.33333333333334</ele><time>2026-05-02T14:22:58.002Z</time></trkpt><trkpt lat="45.56427053704441" lon="10.44150710156424"><ele>190.66666666666666</ele><time>2026-05-02T14:22:59.002Z</time></trkpt><trkpt lat="45.56447950628947" lon="10.441623146510606"><ele>191.0</ele><time>2026-05-02T14:23:00.002Z</time></trkpt><trkpt lat="45.564690247032146" lon="10.441723258269542"><ele>191.0</ele><time>2026-05-02T14:23:01.002Z</time></trkpt><trkpt lat="45.56490650405992" lon="10.441812247299687"><ele>191.0</ele><time>2026-05-02T14:23:02.002Z</time></trkpt><trkpt lat="45.56512184974107" lon="10.441890544694646"><ele>191.0</ele><time>2026-05-02T14:23:03.002Z</time></trkpt><trkpt lat="45.56534405931352" lon="10.441953116009559"><ele>191.5</ele><time>2026-05-02T14:23:04.002Z</time></trkpt><trkpt lat="45.56556691172652" lon="10.441994340178434"><ele>192.0</ele><time>2026-05-02T14:23:05.002Z</time></trkpt><trkpt lat="45.56579230099143" lon="10.442019795583075"><ele>192.0</ele><time>2026-05-02T14:23:06.002Z</time></trkpt><trkpt lat="45.56600856556413" lon="10.442031415832485"><ele>192.0</ele><time>2026-05-02T14:23:07.002Z</time></trkpt><trkpt lat="45.566214752164214" lon="10.442040269575868"><ele>192.0</ele><time>2026-05-02T14:23:08.002Z</time></trkpt><trkpt lat="45.566413232869536" lon="10.442049964198183"><ele>192.0</ele><time>2026-05-02T14:23:09Z</time></trkpt><trkpt lat="45.566605870005745" lon="10.442067675503452"><ele>192.0</ele><time>2026-05-02T14:23:10Z</time></trkpt><trkpt lat="45.56680110019418" lon="10.442087977273026"><ele>192.0</ele><time>2026-05-02T14:23:11Z</time></trkpt><trkpt lat="45.5669991847703" lon="10.442104639684441"><ele>191.66666666666666</ele><time>2026-05-02T14:23:12Z</time></trkpt><trkpt lat="45.56720058743965" lon="10.442117272047655"><ele>191.33333333333331</ele><time>2026-05-02T14:23:13Z</time></trkpt><trkpt lat="45.567406993218746" lon="10.442132776373287"><ele>191.0</ele><time>2026-05-02T14:23:14Z</time></trkpt><trkpt lat="45.567621221636514" lon="10.442151381620281"><ele>191.0</ele><time>2026-05-02T14:23:15Z</time></trkpt><trkpt lat="45.56783716647934" lon="10.44217274202209"><ele>191.0</ele><time>2026-05-02T14:23:16Z</time></trkpt><trkpt lat="45.56806214406015" lon="10.44218599038655"><ele>191.0</ele><time>2026-05-02T14:23:17Z</time></trkpt><trkpt lat="45.56828609414701" lon="10.44218629510177"><ele>191.0</ele><time>2026-05-02T14:23:18Z</time></trkpt><trkpt lat="45.56851285905121" lon="10.442221340687684"><ele>191.0</ele><time>2026-05-02T14:23:19Z</time></trkpt><trkpt lat="45.56873929096611" lon="10.442229126763092"><ele>192.5</ele><time>2026-05-02T14:23:20Z</time></trkpt><trkpt lat="45.5689670828248" lon="10.44212142997438"><ele>194.0</ele><time>2026-05-02T14:23:21Z</time></trkpt><trkpt lat="45.56919253748979" lon="10.442079529802148"><ele>194.0</ele><time>2026-05-02T14:23:22Z</time></trkpt><trkpt lat="45.56941702644472" lon="10.442026454868387"><ele>194.0</ele><time>2026-05-02T14:23:23Z</time></trkpt><trkpt lat="45.56964042956466" lon="10.44196979046406"><ele>194.0</ele><time>2026-05-02T14:23:24Z</time></trkpt><trkpt lat="45.56985344129121" lon="10.441921046234748"><ele>194.0</ele><time>2026-05-02T14:23:25Z</time></trkpt><trkpt lat="45.570073016199544" lon="10.44186439728337"><ele>194.0</ele><time>2026-05-02T14:23:26Z</time></trkpt><trkpt lat="45.57028466007544" lon="10.441796286459633"><ele>194.33333333333334</ele><time>2026-05-02T14:23:27Z</time></trkpt><trkpt lat="45.570497225574165" lon="10.441737830607348"><ele>194.66666666666669</ele><time>2026-05-02T14:23:28Z</time></trkpt><trkpt lat="45.57071132274942" lon="10.44168065543075"><ele>195.0</ele><time>2026-05-02T14:23:29Z</time></trkpt><trkpt lat="45.570923031548375" lon="10.441634688956402"><ele>195.0</ele><time>2026-05-02T14:23:30Z</time></trkpt><trkpt lat="45.57113497659376" lon="10.441596764631214"><ele>195.0</ele><time>2026-05-02T14:23:31Z</time></trkpt><trkpt lat="45.571350040599384" lon="10.44157855042139"><ele>195.0</ele><time>2026-05-02T14:23:32Z</time></trkpt><trkpt lat="45.57156724550875" lon="10.441575480444088"><ele>194.66666666666669</ele><time>2026-05-02T14:23:33Z</time></trkpt><trkpt lat="45.57178441706348" lon="10.44158154817672"><ele>194.33333333333334</ele><time>2026-05-02T14:23:34Z</time></trkpt><trkpt lat="45.5720003451449" lon="10.44160434975472"><ele>194.0</ele><time>2026-05-02T14:23:35Z</time></trkpt><trkpt lat="45.57221162882024" lon="10.441642112070625"><ele>193.33333333333334</ele><time>2026-05-02T14:23:36Z</time></trkpt><trkpt lat="45.57241767845862" lon="10.441697803886083"><ele>192.66666666666669</ele><time>2026-05-02T14:23:37Z</time></trkpt><trkpt lat="45.572622504436985" lon="10.441765952647184"><ele>192.0</ele><time>2026-05-02T14:23:38Z</time></trkpt><trkpt lat="45.57281536503392" lon="10.441847396085148"><ele>192.0</ele><time>2026-05-02T14:23:39Z</time></trkpt><trkpt lat="45.572997096462224" lon="10.441932649273722"><ele>192.0</ele><time>2026-05-02T14:23:40Z</time></trkpt><trkpt lat="45.573170245340236" lon="10.442024580403709"><ele>192.0</ele><time>2026-05-02T14:23:41Z</time></trkpt><trkpt lat="45.573329114418506" lon="10.442121051064333"><ele>192.0</ele><time>2026-05-02T14:23:42Z</time></trkpt><trkpt lat="45.573475165316566" lon="10.442218246306487"><ele>192.0</ele><time>2026-05-02T14:23:43Z</time></trkpt><trkpt lat="45.57361771610471" lon="10.442326386573892"><ele>192.0</ele><time>2026-05-02T14:23:44Z</time></trkpt><trkpt lat="45.57375026588064" lon="10.442429812276186"><ele>192.0</ele><time>2026-05-02T14:23:45Z</time></trkpt><trkpt lat="45.573880838318345" lon="10.442537963646801"><ele>192.0</ele><time>2026-05-02T14:23:46Z</time></trkpt><trkpt lat="45.574010311137485" lon="10.442645083428198"><ele>192.0</ele><time>2026-05-02T14:23:47Z</time></trkpt><trkpt lat="45.574143138432284" lon="10.442759481717323"><ele>192.0</ele><time>2026-05-02T14:23:48Z</time></trkpt><trkpt lat="45.57427841936084" lon="10.442875551997629"><ele>192.0</ele><time>2026-05-02T14:23:49Z</time></trkpt><trkpt lat="45.57442422784751" lon="10.442988464568193"><ele>192.0</ele><time>2026-05-02T14:23:50Z</time></trkpt><trkpt lat="45.57457390919971" lon="10.443107684152828"><ele>194.33333333333331</ele><time>2026-05-02T14:23:51Z</time></trkpt><trkpt lat="45.57473208102073" lon="10.443232207347291"><ele>196.66666666666666</ele><time>2026-05-02T14:23:52Z</time></trkpt><trkpt lat="45.57488770022376" lon="10.443366237314446"><ele>199.0</ele><time>2026-05-02T14:23:53Z</time></trkpt><trkpt lat="45.57504783603404" lon="10.443499860573862"><ele>199.0</ele><time>2026-05-02T14:23:54Z</time></trkpt><trkpt lat="45.575211556709164" lon="10.443635706070815"><ele>199.0</ele><time>2026-05-02T14:23:55Z</time></trkpt><trkpt lat="45.57537599742627" lon="10.44376834341913"><ele>199.0</ele><time>2026-05-02T14:23:56Z</time></trkpt><trkpt lat="45.575540863321955" lon="10.443902322998493"><ele>200.0</ele><time>2026-05-02T14:23:57Z</time></trkpt><trkpt lat="45.57569550007839" lon="10.444033623281774"><ele>201.0</ele><time>2026-05-02T14:23:58Z</time></trkpt><trkpt lat="45.57584453041273" lon="10.444166393581398"><ele>202.0</ele><time>2026-05-02T14:23:59Z</time></trkpt><trkpt lat="45.575998950986964" lon="10.444286332152577"><ele>202.0</ele><time>2026-05-02T14:24:00Z</time></trkpt><trkpt lat="45.57615986533115" lon="10.444408128332428"><ele>202.0</ele><time>2026-05-02T14:24:01Z</time></trkpt><trkpt lat="45.576312932295686" lon="10.444539135897838"><ele>202.0</ele><time>2026-05-02T14:24:02Z</time></trkpt><trkpt lat="45.576461579556266" lon="10.444667785823368"><ele>202.33333333333331</ele><time>2026-05-02T14:24:03Z</time></trkpt><trkpt lat="45.57661682309893" lon="10.444795237943415"><ele>202.66666666666669</ele><time>2026-05-02T14:24:04.001Z</time></trkpt><trkpt lat="45.57676831951414" lon="10.444918298211105"><ele>203.0</ele><time>2026-05-02T14:24:05.001Z</time></trkpt><trkpt lat="45.57692218077273" lon="10.44504525094986"><ele>202.66666666666669</ele><time>2026-05-02T14:24:06.001Z</time></trkpt><trkpt lat="45.57707427854034" lon="10.445175500331342"><ele>202.33333333333331</ele><time>2026-05-02T14:24:07.001Z</time></trkpt><trkpt lat="45.577227754819816" lon="10.445302859206512"><ele>202.0</ele><time>2026-05-02T14:24:08.001Z</time></trkpt><trkpt lat="45.57738341642964" lon="10.445428924882247"><ele>202.33333333333331</ele><time>2026-05-02T14:24:09.001Z</time></trkpt><trkpt lat="45.57754183439992" lon="10.445558122666046"><ele>202.66666666666669</ele><time>2026-05-02T14:24:10.001Z</time></trkpt><trkpt lat="45.57770036379361" lon="10.445685261992354"><ele>203.0</ele><time>2026-05-02T14:24:11.001Z</time></trkpt><trkpt lat="45.57786015224946" lon="10.445812596371228"><ele>203.66666666666669</ele><time>2026-05-02T14:24:12.001Z</time></trkpt><trkpt lat="45.578014587436144" lon="10.445940427824569"><ele>204.33333333333331</ele><time>2026-05-02T14:24:13.001Z</time></trkpt><trkpt lat="45.57817248850823" lon="10.44607519544628"><ele>205.0</ele><time>2026-05-02T14:24:14.001Z</time></trkpt><trkpt lat="45.578330711063764" lon="10.44620929017457"><ele>205.0</ele><time>2026-05-02T14:24:15.001Z</time></trkpt><trkpt lat="45.578493839067185" lon="10.44633758505922"><ele>205.0</ele><time>2026-05-02T14:24:16.001Z</time></trkpt><trkpt lat="45.57865670902665" lon="10.446470012824046"><ele>205.0</ele><time>2026-05-02T14:24:17.001Z</time></trkpt><trkpt lat="45.57881768314822" lon="10.446606431352576"><ele>205.0</ele><time>2026-05-02T14:24:18.001Z</time></trkpt><trkpt lat="45.578978684702165" lon="10.44674015220621"><ele>205.0</ele><time>2026-05-02T14:24:19.001Z</time></trkpt><trkpt lat="45.57913775540957" lon="10.446870137430091"><ele>205.0</ele><time>2026-05-02T14:24:20.001Z</time></trkpt><trkpt lat="45.5793000993585" lon="10.447002156828217"><ele>205.33333333333331</ele><time>2026-05-02T14:24:21.001Z</time></trkpt><trkpt lat="45.579460280685254" lon="10.447130590521436"><ele>205.66666666666669</ele><time>2026-05-02T14:24:22.001Z</time></trkpt><trkpt lat="45.5796198897272" lon="10.447264121736524"><ele>206.0</ele><time>2026-05-02T14:24:23.001Z</time></trkpt><trkpt lat="45.57978257779809" lon="10.447400355303852"><ele>206.0</ele><time>2026-05-02T14:24:24.001Z</time></trkpt><trkpt lat="45.57994911820883" lon="10.447541786181327"><ele>206.0</ele><time>2026-05-02T14:24:25.001Z</time></trkpt><trkpt lat="45.580114944640606" lon="10.44767919934901"><ele>206.0</ele><time>2026-05-02T14:24:26.001Z</time></trkpt><trkpt lat="45.58028334546208" lon="10.447819431959033"><ele>206.33333333333334</ele><time>2026-05-02T14:24:27.001Z</time></trkpt><trkpt lat="45.58045564864241" lon="10.447959005394335"><ele>206.66666666666669</ele><time>2026-05-02T14:24:28.001Z</time></trkpt><trkpt lat="45.58062818743295" lon="10.448098822721505"><ele>207.0</ele><time>2026-05-02T14:24:29.001Z</time></trkpt><trkpt lat="45.580803673896455" lon="10.448241903996271"><ele>208.0</ele><time>2026-05-02T14:24:30.001Z</time></trkpt><trkpt lat="45.58097696157608" lon="10.44838267874732"><ele>209.0</ele><time>2026-05-02T14:24:31.001Z</time></trkpt><trkpt lat="45.58113536815452" lon="10.448536349392457"><ele>210.0</ele><time>2026-05-02T14:24:32.001Z</time></trkpt><trkpt lat="45.581293104165006" lon="10.448666610085604"><ele>210.0</ele><time>2026-05-02T14:24:33.001Z</time></trkpt><trkpt lat="45.58145172738261" lon="10.448776932617346"><ele>210.0</ele><time>2026-05-02T14:24:34.001Z</time></trkpt><trkpt lat="45.58160598586574" lon="10.448910002856797"><ele>210.0</ele><time>2026-05-02T14:24:35.001Z</time></trkpt><trkpt lat="45.58176643731081" lon="10.449041725830597"><ele>211.33333333333331</ele><time>2026-05-02T14:24:36.001Z</time></trkpt><trkpt lat="45.581920230226466" lon="10.449179985023923"><ele>212.66666666666666</ele><time>2026-05-02T14:24:37.001Z</time></trkpt><trkpt lat="45.582070325969994" lon="10.449325189516015"><ele>214.0</ele><time>2026-05-02T14:24:38.001Z</time></trkpt><trkpt lat="45.58222222583088" lon="10.449488535001214"><ele>215.33333333333331</ele><time>2026-05-02T14:24:39.001Z</time></trkpt><trkpt lat="45.58235772949017" lon="10.449665963184703"><ele>216.66666666666669</ele><time>2026-05-02T14:24:40.001Z</time></trkpt><trkpt lat="45.58248153253802" lon="10.44982472999764"><ele>218.0</ele><time>2026-05-02T14:24:41.001Z</time></trkpt><trkpt lat="45.58260296631597" lon="10.449991721097277"><ele>218.0</ele><time>2026-05-02T14:24:42.001Z</time></trkpt><trkpt lat="45.582721960758846" lon="10.450164370128826"><ele>218.0</ele><time>2026-05-02T14:24:43.001Z</time></trkpt><trkpt lat="45.582835201371424" lon="10.450333076064059"><ele>218.0</ele><time>2026-05-02T14:24:44.001Z</time></trkpt><trkpt lat="45.58295026271919" lon="10.45051188010361"><ele>217.0</ele><time>2026-05-02T14:24:45.001Z</time></trkpt><trkpt lat="45.583068372474756" lon="10.450695070065533"><ele>216.0</ele><time>2026-05-02T14:24:46.001Z</time></trkpt><trkpt lat="45.58318390313857" lon="10.450872238301566"><ele>215.0</ele><time>2026-05-02T14:24:47.001Z</time></trkpt><trkpt lat="45.58330148774485" lon="10.451052882590906"><ele>215.0</ele><time>2026-05-02T14:24:48.001Z</time></trkpt><trkpt lat="45.58342353398066" lon="10.451241708292407"><ele>215.0</ele><time>2026-05-02T14:24:49.001Z</time></trkpt><trkpt lat="45.58354365538661" lon="10.451427555931675"><ele>215.0</ele><time>2026-05-02T14:24:50.001Z</time></trkpt><trkpt lat="45.58366385294511" lon="10.451613521434023"><ele>216.66666666666669</ele><time>2026-05-02T14:24:51.001Z</time></trkpt><trkpt lat="45.583784397418846" lon="10.451799525094172"><ele>218.33333333333331</ele><time>2026-05-02T14:24:52.001Z</time></trkpt><trkpt lat="45.5839149070693" lon="10.451966295331175"><ele>220.0</ele><time>2026-05-02T14:24:53.001Z</time></trkpt><trkpt lat="45.58402117386038" lon="10.452163849433433"><ele>221.33333333333331</ele><time>2026-05-02T14:24:54.001Z</time></trkpt><trkpt lat="45.584155257000205" lon="10.452334355236115"><ele>222.66666666666669</ele><time>2026-05-02T14:24:55.001Z</time></trkpt><trkpt lat="45.58428294189886" lon="10.452521294261404"><ele>224.0</ele><time>2026-05-02T14:24:56.001Z</time></trkpt><trkpt lat="45.584418442756395" lon="10.452707276163094"><ele>224.0</ele><time>2026-05-02T14:24:57.001Z</time></trkpt><trkpt lat="45.584559057198604" lon="10.452886376650344"><ele>224.0</ele><time>2026-05-02T14:24:58.002Z</time></trkpt><trkpt lat="45.58470844323983" lon="10.45305513467578"><ele>224.0</ele><time>2026-05-02T14:24:59.002Z</time></trkpt><trkpt lat="45.58485954678752" lon="10.453214919521644"><ele>224.0</ele><time>2026-05-02T14:25:00.002Z</time></trkpt><trkpt lat="45.585010869979136" lon="10.453365778444873"><ele>224.0</ele><time>2026-05-02T14:25:01.002Z</time></trkpt><trkpt lat="45.58517151284545" lon="10.4535044090232"><ele>224.0</ele><time>2026-05-02T14:25:02.002Z</time></trkpt><trkpt lat="45.58533168733386" lon="10.453638962632374"><ele>225.0</ele><time>2026-05-02T14:25:03.002Z</time></trkpt><trkpt lat="45.58548951501289" lon="10.453761338208563"><ele>226.0</ele><time>2026-05-02T14:25:04.002Z</time></trkpt><trkpt lat="45.58564252445807" lon="10.453876035819741"><ele>227.0</ele><time>2026-05-02T14:25:05.002Z</time></trkpt><trkpt lat="45.585792243946216" lon="10.453994520278151"><ele>227.0</ele><time>2026-05-02T14:25:06.002Z</time></trkpt><trkpt lat="45.58593424824931" lon="10.454103250248574"><ele>227.0</ele><time>2026-05-02T14:25:07.002Z</time></trkpt><trkpt lat="45.58607239641238" lon="10.454203288950403"><ele>227.0</ele><time>2026-05-02T14:25:08.002Z</time></trkpt><trkpt lat="45.58619927537231" lon="10.454324987771392"><ele>234.33333333333334</ele><time>2026-05-02T14:25:09.002Z</time></trkpt><trkpt lat="45.58633846149219" lon="10.454434897533455"><ele>241.66666666666669</ele><time>2026-05-02T14:25:10.019Z</time></trkpt><trkpt lat="45.58647437167827" lon="10.45454222039623"><ele>249.0</ele><time>2026-05-02T14:25:11.013Z</time></trkpt><trkpt lat="45.58660989912043" lon="10.454649241037234"><ele>249.0</ele><time>2026-05-02T14:25:12.014Z</time></trkpt><trkpt lat="45.58675038352975" lon="10.454760176008943"><ele>249.0</ele><time>2026-05-02T14:25:13.014Z</time></trkpt><trkpt lat="45.58689295180617" lon="10.454872756505198"><ele>249.0</ele><time>2026-05-02T14:25:14.021Z</time></trkpt><trkpt lat="45.58702997574474" lon="10.454980958872321"><ele>257.6666666666667</ele><time>2026-05-02T14:25:15.014Z</time></trkpt><trkpt lat="45.587164815621975" lon="10.455087436554493"><ele>266.33333333333337</ele><time>2026-05-02T14:25:16.024Z</time></trkpt><trkpt lat="45.587300636633536" lon="10.455194674677115"><ele>275.0</ele><time>2026-05-02T14:25:17.018Z</time></trkpt><trkpt lat="45.587831001821804" lon="10.455586231724546"><ele>277.33333333333337</ele><time>2026-05-02T14:25:20.803Z</time></trkpt><trkpt lat="45.58796948458184" lon="10.455695547196019"><ele>279.6666666666667</ele><time>2026-05-02T14:25:21.807Z</time></trkpt><trkpt lat="45.5880993410014" lon="10.455825155779195"><ele>282.0</ele><time>2026-05-02T14:25:22.807Z</time></trkpt><trkpt lat="45.5882372533735" lon="10.455934020864984"><ele>282.0</ele><time>2026-05-02T14:25:23.807Z</time></trkpt><trkpt lat="45.58838275704953" lon="10.456021776068415"><ele>282.0</ele><time>2026-05-02T14:25:24.803Z</time></trkpt><trkpt lat="45.58852099597008" lon="10.456130899057962"><ele>282.0</ele><time>2026-05-02T14:25:25.806Z</time></trkpt><trkpt lat="45.588650728277436" lon="10.45626040966131"><ele>278.3333333333333</ele><time>2026-05-02T14:25:26.805Z</time></trkpt><trkpt lat="45.58879701758422" lon="10.456348784900786"><ele>274.66666666666663</ele><time>2026-05-02T14:25:27.807Z</time></trkpt><trkpt lat="45.58892634937241" lon="10.456477979325703"><ele>271.0</ele><time>2026-05-02T14:25:28.803Z</time></trkpt><trkpt lat="45.589064634410036" lon="10.45658738471548"><ele>271.0</ele><time>2026-05-02T14:25:29.807Z</time></trkpt><trkpt lat="45.58920963026239" lon="10.4566761285619"><ele>271.0</ele><time>2026-05-02T14:25:30.802Z</time></trkpt><trkpt lat="45.5893397461265" lon="10.456805970980481"><ele>271.0</ele><time>2026-05-02T14:25:31.804Z</time></trkpt><trkpt lat="45.58948571300314" lon="10.45689329233206"><ele>262.0</ele><time>2026-05-02T14:25:32.802Z</time></trkpt><trkpt lat="45.58961586952369" lon="10.457022348773057"><ele>253.0</ele><time>2026-05-02T14:25:33.803Z</time></trkpt><trkpt lat="45.58976266610454" lon="10.457110358021962"><ele>244.0</ele><time>2026-05-02T14:25:34.807Z</time></trkpt><trkpt lat="45.59030505328912" lon="10.457567887945528"><ele>241.66666666666666</ele><time>2026-05-02T14:25:38.804Z</time></trkpt><trkpt lat="45.59044260350817" lon="10.45767832174574"><ele>239.33333333333331</ele><time>2026-05-02T14:25:39.805Z</time></trkpt><trkpt lat="45.590588348528705" lon="10.457768257473337"><ele>237.0</ele><time>2026-05-02T14:25:40.807Z</time></trkpt><trkpt lat="45.590717480197505" lon="10.457899323195093"><ele>244.0</ele><time>2026-05-02T14:25:41.807Z</time></trkpt><trkpt lat="45.590313202227414" lon="10.457574222309182"><ele>241.66666666666666</ele><time>2026-05-02T14:25:43.002Z</time></trkpt><trkpt lat="45.590468591122274" lon="10.457699186212366"><ele>239.33333333333331</ele><time>2026-05-02T14:25:44.002Z</time></trkpt><trkpt lat="45.5905876140315" lon="10.4577948910686"><ele>237.0</ele><time>2026-05-02T14:25:45.002Z</time></trkpt><trkpt lat="45.59070629542528" lon="10.457890328945997"><ele>241.0</ele><time>2026-05-02T14:25:46.014Z</time></trkpt><trkpt lat="45.59118960717395" lon="10.4582442323864"><ele>241.0</ele><time>2026-05-02T14:25:49.806Z</time></trkpt><trkpt lat="45.59130829293545" lon="10.45836403677275"><ele>241.0</ele><time>2026-05-02T14:25:50.807Z</time></trkpt><trkpt lat="45.59170800681399" lon="10.458679704918604"><ele>241.0</ele><time>2026-05-02T14:25:54.003Z</time></trkpt><trkpt lat="45.59183794294924" lon="10.458782626697554"><ele>241.0</ele><time>2026-05-02T14:25:55.003Z</time></trkpt><trkpt lat="45.591970318754306" lon="10.458887788917925"><ele>241.0</ele><time>2026-05-02T14:25:55.999Z</time></trkpt><trkpt lat="45.592102780607824" lon="10.458993019499488"><ele>241.33333333333331</ele><time>2026-05-02T14:25:56.999Z</time></trkpt><trkpt lat="45.59224654681763" lon="10.45908137669886"><ele>241.66666666666669</ele><time>2026-05-02T14:25:57.999Z</time></trkpt><trkpt lat="45.59236982465225" lon="10.459198464629253"><ele>242.0</ele><time>2026-05-02T14:25:58.999Z</time></trkpt><trkpt lat="45.592520336285496" lon="10.459292163423486"><ele>242.0</ele><time>2026-05-02T14:25:59.999Z</time></trkpt><trkpt lat="45.59264508015958" lon="10.45938849833275"><ele>242.0</ele><time>2026-05-02T14:26:00.999Z</time></trkpt><trkpt lat="45.592790690443806" lon="10.459480446791483"><ele>242.0</ele><time>2026-05-02T14:26:01.999Z</time></trkpt><trkpt lat="45.59293791099912" lon="10.459569825366033"><ele>243.0</ele><time>2026-05-02T14:26:02.999Z</time></trkpt><trkpt lat="45.593088802824894" lon="10.459651023815988"><ele>244.0</ele><time>2026-05-02T14:26:03.999Z</time></trkpt><trkpt lat="45.593244206053065" lon="10.459723243720928"><ele>245.0</ele><time>2026-05-02T14:26:04.999Z</time></trkpt><trkpt lat="45.59339957651228" lon="10.459783032475709"><ele>245.0</ele><time>2026-05-02T14:26:05.999Z</time></trkpt><trkpt lat="45.59356467755167" lon="10.459837889914933"><ele>245.0</ele><time>2026-05-02T14:26:06.999Z</time></trkpt><trkpt lat="45.5937224761067" lon="10.459880380947387"><ele>245.0</ele><time>2026-05-02T14:26:07.999Z</time></trkpt><trkpt lat="45.593882844769105" lon="10.45991616981593"><ele>245.66666666666669</ele><time>2026-05-02T14:26:08.999Z</time></trkpt><trkpt lat="45.594046646535034" lon="10.459948523497857"><ele>246.33333333333331</ele><time>2026-05-02T14:26:09.999Z</time></trkpt><trkpt lat="45.594208653927275" lon="10.459976432202378"><ele>247.0</ele><time>2026-05-02T14:26:10.999Z</time></trkpt><trkpt lat="45.59437121568035" lon="10.460000625450183"><ele>245.0</ele><time>2026-05-02T14:26:11.999Z</time></trkpt><trkpt lat="45.59453501837121" lon="10.460020984514212"><ele>243.0</ele><time>2026-05-02T14:26:12.999Z</time></trkpt><trkpt lat="45.594711885549685" lon="10.46004331485059"><ele>241.0</ele><time>2026-05-02T14:26:13.999Z</time></trkpt><trkpt lat="45.59489283528408" lon="10.460065427709347"><ele>241.0</ele><time>2026-05-02T14:26:14.999Z</time></trkpt><trkpt lat="45.595076279521784" lon="10.46008402781935"><ele>241.0</ele><time>2026-05-02T14:26:16.018Z</time></trkpt><trkpt lat="45.59525749240872" lon="10.46010589049778"><ele>241.0</ele><time>2026-05-02T14:26:17.016Z</time></trkpt><trkpt lat="45.59543635694798" lon="10.460155241496198"><ele>240.33333333333331</ele><time>2026-05-02T14:26:18.024Z</time></trkpt><trkpt lat="45.59561355997171" lon="10.460181448342501"><ele>239.66666666666669</ele><time>2026-05-02T14:26:19.024Z</time></trkpt><trkpt lat="45.59579106321495" lon="10.460209023409483"><ele>239.0</ele><time>2026-05-02T14:26:20.018Z</time></trkpt><trkpt lat="45.596475551291334" lon="10.460315357443223"><ele>236.0</ele><time>2026-05-02T14:26:23.808Z</time></trkpt><trkpt lat="45.596656625422945" lon="10.460342090942802"><ele>233.0</ele><time>2026-05-02T14:26:24.809Z</time></trkpt><trkpt lat="45.597031856929505" lon="10.460372585813012"><ele>232.0</ele><time>2026-05-02T14:26:27Z</time></trkpt><trkpt lat="45.59722099934201" lon="10.460420711887798"><ele>231.0</ele><time>2026-05-02T14:26:28Z</time></trkpt><trkpt lat="45.59740411773982" lon="10.4604462215382"><ele>230.0</ele><time>2026-05-02T14:26:29Z</time></trkpt><trkpt lat="45.59757867942697" lon="10.460470539160696"><ele>233.33333333333334</ele><time>2026-05-02T14:26:30Z</time></trkpt><trkpt lat="45.59777073894572" lon="10.460476380827373"><ele>236.66666666666669</ele><time>2026-05-02T14:26:31Z</time></trkpt><trkpt lat="45.59796705763638" lon="10.46051431345356"><ele>240.0</ele><time>2026-05-02T14:26:32Z</time></trkpt><trkpt lat="45.59816011257147" lon="10.460543755066764"><ele>240.0</ele><time>2026-05-02T14:26:33Z</time></trkpt><trkpt lat="45.59833927909387" lon="10.460574128521996"><ele>240.0</ele><time>2026-05-02T14:26:34Z</time></trkpt><trkpt lat="45.59851562821044" lon="10.460604466351606"><ele>240.0</ele><time>2026-05-02T14:26:35Z</time></trkpt><trkpt lat="45.59868742368166" lon="10.46064019807075"><ele>239.66666666666669</ele><time>2026-05-02T14:26:36Z</time></trkpt><trkpt lat="45.59884624419123" lon="10.460671146201163"><ele>239.33333333333334</ele><time>2026-05-02T14:26:37Z</time></trkpt><trkpt lat="45.59901155919628" lon="10.460684546700003"><ele>239.0</ele><time>2026-05-02T14:26:38Z</time></trkpt><trkpt lat="45.59918136386395" lon="10.460706162713553"><ele>239.0</ele><time>2026-05-02T14:26:39Z</time></trkpt><trkpt lat="45.59935933592103" lon="10.460744688232795"><ele>239.0</ele><time>2026-05-02T14:26:40Z</time></trkpt><trkpt lat="45.59954541354252" lon="10.460804867067464"><ele>239.0</ele><time>2026-05-02T14:26:41Z</time></trkpt><trkpt lat="45.59972540880139" lon="10.46086981602102"><ele>236.0</ele><time>2026-05-02T14:26:42Z</time></trkpt><trkpt lat="45.599906702260704" lon="10.460939068565603"><ele>233.0</ele><time>2026-05-02T14:26:43Z</time></trkpt><trkpt lat="45.60007453993882" lon="10.46101638057104"><ele>230.0</ele><time>2026-05-02T14:26:44Z</time></trkpt><trkpt lat="45.60023194487232" lon="10.461092505292756"><ele>233.33333333333334</ele><time>2026-05-02T14:26:45Z</time></trkpt><trkpt lat="45.6003851800758" lon="10.461171460330524"><ele>236.66666666666669</ele><time>2026-05-02T14:26:46Z</time></trkpt><trkpt lat="45.60053268591383" lon="10.461259340982883"><ele>240.0</ele><time>2026-05-02T14:26:47Z</time></trkpt><trkpt lat="45.60068961478247" lon="10.461361948379858"><ele>240.0</ele><time>2026-05-02T14:26:48Z</time></trkpt><trkpt lat="45.60084640336475" lon="10.461470115718349"><ele>240.0</ele><time>2026-05-02T14:26:49Z</time></trkpt><trkpt lat="45.60100929277493" lon="10.46159120099646"><ele>240.0</ele><time>2026-05-02T14:26:50.001Z</time></trkpt><trkpt lat="45.60115679770355" lon="10.461744888258266"><ele>239.66666666666669</ele><time>2026-05-02T14:26:51.001Z</time></trkpt><trkpt lat="45.60130206480317" lon="10.46188372557198"><ele>239.33333333333334</ele><time>2026-05-02T14:26:52.001Z</time></trkpt><trkpt lat="45.60144256360543" lon="10.462022282160548"><ele>239.0</ele><time>2026-05-02T14:26:53.001Z</time></trkpt><trkpt lat="45.601575958846816" lon="10.462159494461439"><ele>239.0</ele><time>2026-05-02T14:26:54.001Z</time></trkpt><trkpt lat="45.601709683580665" lon="10.462308177257839"><ele>239.0</ele><time>2026-05-02T14:26:55.001Z</time></trkpt><trkpt lat="45.60183894954995" lon="10.462464432136404"><ele>239.0</ele><time>2026-05-02T14:26:56.001Z</time></trkpt><trkpt lat="45.60197158119608" lon="10.462629283900545"><ele>239.33333333333334</ele><time>2026-05-02T14:26:57.001Z</time></trkpt><trkpt lat="45.60210054248133" lon="10.462795608356927"><ele>239.66666666666669</ele><time>2026-05-02T14:26:58.001Z</time></trkpt><trkpt lat="45.602236627008374" lon="10.462954132168777"><ele>240.0</ele><time>2026-05-02T14:26:59.001Z</time></trkpt><trkpt lat="45.60236667594962" lon="10.463131850627377"><ele>240.0</ele><time>2026-05-02T14:27:00.001Z</time></trkpt><trkpt lat="45.60248767372213" lon="10.463299313193607"><ele>240.0</ele><time>2026-05-02T14:27:01.001Z</time></trkpt><trkpt lat="45.60260955972857" lon="10.463462001749795"><ele>240.0</ele><time>2026-05-02T14:27:02.001Z</time></trkpt><trkpt lat="45.602722037066364" lon="10.463639576628438"><ele>236.0</ele><time>2026-05-02T14:27:03.001Z</time></trkpt><trkpt lat="45.60284905943282" lon="10.463808909458875"><ele>232.0</ele><time>2026-05-02T14:27:04.001Z</time></trkpt><trkpt lat="45.60298707496907" lon="10.463963731994342"><ele>228.0</ele><time>2026-05-02T14:27:05.001Z</time></trkpt><trkpt lat="45.603103205668376" lon="10.464148007670236"><ele>228.0</ele><time>2026-05-02T14:27:06.001Z</time></trkpt><trkpt lat="45.60317222550488" lon="10.464300206937024"><ele>228.0</ele><time>2026-05-02T14:27:07.001Z</time></trkpt><trkpt lat="45.603281128407396" lon="10.464458392940399"><ele>228.0</ele><time>2026-05-02T14:27:08.001Z</time></trkpt><trkpt lat="45.60339645681816" lon="10.464618668065652"><ele>228.0</ele><time>2026-05-02T14:27:09.001Z</time></trkpt><trkpt lat="45.603506291669554" lon="10.46478456064203"><ele>225.0</ele><time>2026-05-02T14:27:10.001Z</time></trkpt><trkpt lat="45.603615545252" lon="10.46495596499689"><ele>222.0</ele><time>2026-05-02T14:27:11.001Z</time></trkpt><trkpt lat="45.60371601083561" lon="10.465136750523303"><ele>219.0</ele><time>2026-05-02T14:27:12.001Z</time></trkpt><trkpt lat="45.60381534132173" lon="10.465305830295717"><ele>222.0</ele><time>2026-05-02T14:27:13.001Z</time></trkpt><trkpt lat="45.603905408071235" lon="10.465465421184856"><ele>225.0</ele><time>2026-05-02T14:27:14.001Z</time></trkpt><trkpt lat="45.60398334183706" lon="10.465613491177397"><ele>228.0</ele><time>2026-05-02T14:27:15.001Z</time></trkpt><trkpt lat="45.60405755436601" lon="10.465759218919485"><ele>231.0</ele><time>2026-05-02T14:27:16.001Z</time></trkpt><trkpt lat="45.604130774836506" lon="10.465907227765683"><ele>231.0</ele><time>2026-05-02T14:27:17.001Z</time></trkpt><trkpt lat="45.60418453185256" lon="10.466051346392657"><ele>231.0</ele><time>2026-05-02T14:27:18.001Z</time></trkpt><trkpt lat="45.60424702310846" lon="10.466193674906267"><ele>231.0</ele><time>2026-05-02T14:27:19.001Z</time></trkpt><trkpt lat="45.60430451202854" lon="10.466329812550791"><ele>231.0</ele><time>2026-05-02T14:27:20.001Z</time></trkpt><trkpt lat="45.60436008984131" lon="10.466462493750615"><ele>230.5</ele><time>2026-05-02T14:27:21.001Z</time></trkpt><trkpt lat="45.60442281896302" lon="10.466610906930294"><ele>230.0</ele><time>2026-05-02T14:27:22.001Z</time></trkpt><trkpt lat="45.604491439071275" lon="10.466776847803603"><ele>229.5</ele><time>2026-05-02T14:27:23.001Z</time></trkpt><trkpt lat="45.6045684405898" lon="10.466959994003629"><ele>229.0</ele><time>2026-05-02T14:27:24.001Z</time></trkpt><trkpt lat="45.604651311704906" lon="10.467138356329512"><ele>229.0</ele><time>2026-05-02T14:27:25.001Z</time></trkpt><trkpt lat="45.604739544687206" lon="10.467312932500203"><ele>229.0</ele><time>2026-05-02T14:27:26.001Z</time></trkpt><trkpt lat="45.60482658272481" lon="10.46748284568066"><ele>229.0</ele><time>2026-05-02T14:27:27.024Z</time></trkpt><trkpt lat="45.60489069444241" lon="10.467677087927418"><ele>229.0</ele><time>2026-05-02T14:27:28.024Z</time></trkpt><trkpt lat="45.60499851260344" lon="10.467823929552655"><ele>226.33333333333331</ele><time>2026-05-02T14:27:29.027Z</time></trkpt><trkpt lat="45.60511669178104" lon="10.467972791404307"><ele>223.66666666666669</ele><time>2026-05-02T14:27:30.001Z</time></trkpt><trkpt lat="45.6052877067288" lon="10.468129342792457"><ele>221.0</ele><time>2026-05-02T14:27:31.001Z</time></trkpt><trkpt lat="45.60548595985455" lon="10.468268574739941"><ele>221.0</ele><time>2026-05-02T14:27:32.001Z</time></trkpt><trkpt lat="45.60565473115289" lon="10.46835157354053"><ele>221.0</ele><time>2026-05-02T14:27:33.001Z</time></trkpt><trkpt lat="45.605817676553194" lon="10.468385695178817"><ele>221.0</ele><time>2026-05-02T14:27:34.001Z</time></trkpt><trkpt lat="45.605958140427944" lon="10.468407844737465"><ele>221.0</ele><time>2026-05-02T14:27:35.002Z</time></trkpt><trkpt lat="45.606080185841336" lon="10.468446116422635"><ele>221.0</ele><time>2026-05-02T14:27:36.002Z</time></trkpt><trkpt lat="45.6061848526299" lon="10.468515745810144"><ele>221.0</ele><time>2026-05-02T14:27:37.002Z</time></trkpt><trkpt lat="45.60628549381095" lon="10.468586084666892"><ele>221.0</ele><time>2026-05-02T14:27:38.002Z</time></trkpt><trkpt lat="45.60634643565741" lon="10.468770993549441"><ele>221.0</ele><time>2026-05-02T14:27:39.002Z</time></trkpt><trkpt lat="45.60641857987487" lon="10.46892762058926"><ele>221.0</ele><time>2026-05-02T14:27:40.002Z</time></trkpt><trkpt lat="45.60650469341466" lon="10.469071934083898"><ele>221.0</ele><time>2026-05-02T14:27:41.018Z</time></trkpt><trkpt lat="45.60659018998557" lon="10.469206369250719"><ele>221.0</ele><time>2026-05-02T14:27:42.018Z</time></trkpt><trkpt lat="45.60667508850233" lon="10.469347475353416"><ele>221.0</ele><time>2026-05-02T14:27:43.016Z</time></trkpt><trkpt lat="45.606770910375076" lon="10.469475677105406"><ele>221.0</ele><time>2026-05-02T14:27:44.013Z</time></trkpt><trkpt lat="45.606872222534534" lon="10.469594747643585"><ele>221.0</ele><time>2026-05-02T14:27:45.025Z</time></trkpt><trkpt lat="45.60696791021247" lon="10.469715543684085"><ele>221.0</ele><time>2026-05-02T14:27:46.025Z</time></trkpt><trkpt lat="45.60747034386323" lon="10.469944383958792"><ele>219.66666666666669</ele><time>2026-05-02T14:27:48.002Z</time></trkpt><trkpt lat="45.60762303795421" lon="10.470057257390065"><ele>218.33333333333331</ele><time>2026-05-02T14:27:49.002Z</time></trkpt><trkpt lat="45.607832393865095" lon="10.470109895815302"><ele>217.0</ele><time>2026-05-02T14:27:50.002Z</time></trkpt><trkpt lat="45.60803040605991" lon="10.470102989188096"><ele>216.0</ele><time>2026-05-02T14:27:51.002Z</time></trkpt><trkpt lat="45.60820791338862" lon="10.470128990943644"><ele>215.0</ele><time>2026-05-02T14:27:52.002Z</time></trkpt><trkpt lat="45.60839505121342" lon="10.470116571240968"><ele>214.0</ele><time>2026-05-02T14:27:53.002Z</time></trkpt><trkpt lat="45.60858391908933" lon="10.4701090864041"><ele>218.0</ele><time>2026-05-02T14:27:54.002Z</time></trkpt><trkpt lat="45.60876163533226" lon="10.4700839105128"><ele>222.0</ele><time>2026-05-02T14:27:55.002Z</time></trkpt><trkpt lat="45.608942700522746" lon="10.47006162729504"><ele>226.0</ele><time>2026-05-02T14:27:56.002Z</time></trkpt><trkpt lat="45.609114892313414" lon="10.47004400284203"><ele>226.0</ele><time>2026-05-02T14:27:57.002Z</time></trkpt><trkpt lat="45.60929239054947" lon="10.4700320109193"><ele>226.0</ele><time>2026-05-02T14:27:58.002Z</time></trkpt><trkpt lat="45.60947001959034" lon="10.470021064346167"><ele>226.0</ele><time>2026-05-02T14:27:59.002Z</time></trkpt><trkpt lat="45.60963296749097" lon="10.470017206932711"><ele>247.0</ele><time>2026-05-02T14:28:00.002Z</time></trkpt><trkpt lat="45.60980405346634" lon="10.47001766115757"><ele>268.0</ele><time>2026-05-02T14:28:01.002Z</time></trkpt><trkpt lat="45.60997557218764" lon="10.470018012461287"><ele>289.0</ele><time>2026-05-02T14:28:02.024Z</time></trkpt><trkpt lat="45.61013694236544" lon="10.470064476344298"><ele>289.0</ele><time>2026-05-02T14:28:03.031Z</time></trkpt><trkpt lat="45.61029216214369" lon="10.470099303322955"><ele>289.0</ele><time>2026-05-02T14:28:04.013Z</time></trkpt><trkpt lat="45.610449752995066" lon="10.470141516922089"><ele>289.0</ele><time>2026-05-02T14:28:05.021Z</time></trkpt><trkpt lat="45.610603820381954" lon="10.470195323396723"><ele>387.0</ele><time>2026-05-02T14:28:06.012Z</time></trkpt><trkpt lat="45.61229099379746" lon="10.471615467360209"><ele>384.0</ele><time>2026-05-02T14:28:09.811Z</time></trkpt><trkpt lat="45.61254287066319" lon="10.470211589633774"><ele>244.0</ele><time>2026-05-02T14:28:20.967Z</time></trkpt><trkpt lat="45.6184409978293" lon="10.481120813647733"><ele>244.0</ele><time>2026-05-02T14:29:02.001Z</time></trkpt><trkpt lat="45.61861192167439" lon="10.48123969415526"><ele>244.0</ele><time>2026-05-02T14:29:03.001Z</time></trkpt><trkpt lat="45.618741114075036" lon="10.481394946465686"><ele>244.0</ele><time>2026-05-02T14:29:04.001Z</time></trkpt><trkpt lat="45.618900234857776" lon="10.481491337523384"><ele>244.33333333333331</ele><time>2026-05-02T14:29:05.001Z</time></trkpt><trkpt lat="45.619065688198795" lon="10.481598021717385"><ele>244.66666666666669</ele><time>2026-05-02T14:29:06.001Z</time></trkpt><trkpt lat="45.61923594277655" lon="10.481713854970137"><ele>245.0</ele><time>2026-05-02T14:29:07.001Z</time></trkpt><trkpt lat="45.619401812445055" lon="10.481837105563486"><ele>249.0</ele><time>2026-05-02T14:29:08.001Z</time></trkpt><trkpt lat="45.61954296064544" lon="10.482045141638107"><ele>253.0</ele><time>2026-05-02T14:29:09.001Z</time></trkpt><trkpt lat="45.61969835691637" lon="10.482206285221418"><ele>257.0</ele><time>2026-05-02T14:29:10.001Z</time></trkpt><trkpt lat="45.61985448017818" lon="10.4823702133382"><ele>257.0</ele><time>2026-05-02T14:29:11.001Z</time></trkpt><trkpt lat="45.62000946983944" lon="10.48253377353957"><ele>257.0</ele><time>2026-05-02T14:29:12.001Z</time></trkpt><trkpt lat="45.620149948728894" lon="10.48268470430142"><ele>257.0</ele><time>2026-05-02T14:29:13.001Z</time></trkpt><trkpt lat="45.62029698624936" lon="10.48282551346516"><ele>266.0</ele><time>2026-05-02T14:29:14.001Z</time></trkpt><trkpt lat="45.62042633088793" lon="10.483009479638719"><ele>275.0</ele><time>2026-05-02T14:29:15.022Z</time></trkpt><trkpt lat="45.62055585666753" lon="10.483187025895841"><ele>284.0</ele><time>2026-05-02T14:29:16.015Z</time></trkpt><trkpt lat="45.620690702900745" lon="10.483364538045258"><ele>284.0</ele><time>2026-05-02T14:29:17.02Z</time></trkpt><trkpt lat="45.62082480988984" lon="10.483540430783833"><ele>284.0</ele><time>2026-05-02T14:29:18.024Z</time></trkpt><trkpt lat="45.62248857165484" lon="10.48519103535598"><ele>254.0</ele><time>2026-05-02T14:29:21.813Z</time></trkpt><trkpt lat="45.63223290206126" lon="10.495614545058986"><ele>254.0</ele><time>2026-05-02T14:30:26.003Z</time></trkpt><trkpt lat="45.63240081839134" lon="10.495717031612857"><ele>254.0</ele><time>2026-05-02T14:30:27.003Z</time></trkpt><trkpt lat="45.63257482105869" lon="10.495802726031775"><ele>254.0</ele><time>2026-05-02T14:30:28.003Z</time></trkpt><trkpt lat="45.63273645537166" lon="10.495886589067513"><ele>254.66666666666669</ele><time>2026-05-02T14:30:29.003Z</time></trkpt><trkpt lat="45.632890363152114" lon="10.49597104884219"><ele>255.33333333333331</ele><time>2026-05-02T14:30:30.002Z</time></trkpt><trkpt lat="45.63302818357537" lon="10.496054511264154"><ele>256.0</ele><time>2026-05-02T14:30:31.002Z</time></trkpt><trkpt lat="45.63320948802075" lon="10.496124092597729"><ele>256.0</ele><time>2026-05-02T14:30:32.002Z</time></trkpt><trkpt lat="45.63339126351911" lon="10.496174907999748"><ele>256.0</ele><time>2026-05-02T14:30:33.002Z</time></trkpt><trkpt lat="45.63356231868509" lon="10.49620736033793"><ele>256.0</ele><time>2026-05-02T14:30:34.002Z</time></trkpt><trkpt lat="45.63373337845931" lon="10.496234656708932"><ele>255.66666666666666</ele><time>2026-05-02T14:30:35.002Z</time></trkpt><trkpt lat="45.63390765670476" lon="10.49626140992317"><ele>255.33333333333331</ele><time>2026-05-02T14:30:36.002Z</time></trkpt><trkpt lat="45.63409572344981" lon="10.496283937690785"><ele>255.0</ele><time>2026-05-02T14:30:37.002Z</time></trkpt><trkpt lat="45.634277442473035" lon="10.49630632538099"><ele>255.0</ele><time>2026-05-02T14:30:38.002Z</time></trkpt><trkpt lat="45.63446666818125" lon="10.496313874302551"><ele>255.0</ele><time>2026-05-02T14:30:39.002Z</time></trkpt><trkpt lat="45.63465938672162" lon="10.496304999728208"><ele>255.0</ele><time>2026-05-02T14:30:40.002Z</time></trkpt><trkpt lat="45.634876018573884" lon="10.496308222734905"><ele>256.3333333333333</ele><time>2026-05-02T14:30:41.002Z</time></trkpt><trkpt lat="45.63508719639217" lon="10.49624621321889"><ele>257.66666666666663</ele><time>2026-05-02T14:30:42.002Z</time></trkpt><trkpt lat="45.63531256159166" lon="10.496197119824235"><ele>259.0</ele><time>2026-05-02T14:30:43.002Z</time></trkpt><trkpt lat="45.63554170826088" lon="10.496147670866886"><ele>260.0</ele><time>2026-05-02T14:30:44.002Z</time></trkpt><trkpt lat="45.63577333148526" lon="10.496097576738576"><ele>261.0</ele><time>2026-05-02T14:30:45.002Z</time></trkpt><trkpt lat="45.6360058949217" lon="10.49605570899689"><ele>262.5</ele><time>2026-05-02T14:30:46.001Z</time></trkpt><trkpt lat="45.636235938115455" lon="10.496011798588114"><ele>264.0</ele><time>2026-05-02T14:30:47.001Z</time></trkpt><trkpt lat="45.63646767136736" lon="10.495969581034052"><ele>264.0</ele><time>2026-05-02T14:30:48.001Z</time></trkpt><trkpt lat="45.63668412357607" lon="10.495921928116505"><ele>264.0</ele><time>2026-05-02T14:30:49.001Z</time></trkpt><trkpt lat="45.63691435841487" lon="10.49585951999223"><ele>261.5</ele><time>2026-05-02T14:30:50.001Z</time></trkpt><trkpt lat="45.6371377734805" lon="10.495789829597353"><ele>259.0</ele><time>2026-05-02T14:30:51.001Z</time></trkpt><trkpt lat="45.6373598761745" lon="10.495707867692698"><ele>259.0</ele><time>2026-05-02T14:30:52.001Z</time></trkpt><trkpt lat="45.6375864428779" lon="10.495618882890096"><ele>259.0</ele><time>2026-05-02T14:30:53.001Z</time></trkpt><trkpt lat="45.6378089934669" lon="10.495513226367803"><ele>260.5</ele><time>2026-05-02T14:30:54.001Z</time></trkpt><trkpt lat="45.63802313753921" lon="10.495411871299282"><ele>262.0</ele><time>2026-05-02T14:30:55.001Z</time></trkpt><trkpt lat="45.638237577139876" lon="10.495302292557174"><ele>262.0</ele><time>2026-05-02T14:30:56.001Z</time></trkpt><trkpt lat="45.63845911864195" lon="10.495188927282934"><ele>262.0</ele><time>2026-05-02T14:30:57.001Z</time></trkpt><trkpt lat="45.63867998815101" lon="10.495075365581316"><ele>261.0</ele><time>2026-05-02T14:30:58.001Z</time></trkpt><trkpt lat="45.638894842682625" lon="10.49495132925296"><ele>260.0</ele><time>2026-05-02T14:30:59.001Z</time></trkpt><trkpt lat="45.63910136238963" lon="10.494827401456112"><ele>260.0</ele><time>2026-05-02T14:31:00.001Z</time></trkpt><trkpt lat="45.63930994748712" lon="10.494690070262624"><ele>260.0</ele><time>2026-05-02T14:31:01.001Z</time></trkpt><trkpt lat="45.63951695320106" lon="10.494545732172663"><ele>263.5</ele><time>2026-05-02T14:31:02.001Z</time></trkpt><trkpt lat="45.639726856427856" lon="10.494386258014577"><ele>267.0</ele><time>2026-05-02T14:31:03.001Z</time></trkpt><trkpt lat="45.63992917701312" lon="10.494206348773206"><ele>267.0</ele><time>2026-05-02T14:31:04.001Z</time></trkpt><trkpt lat="45.64011725527191" lon="10.49404240666236"><ele>267.0</ele><time>2026-05-02T14:31:05.001Z</time></trkpt><trkpt lat="45.640301082142074" lon="10.493844247978798"><ele>266.0</ele><time>2026-05-02T14:31:06.001Z</time></trkpt><trkpt lat="45.64046783236866" lon="10.493626110909254"><ele>265.0</ele><time>2026-05-02T14:31:07.001Z</time></trkpt><trkpt lat="45.640616366217415" lon="10.4934053508507"><ele>264.0</ele><time>2026-05-02T14:31:08.001Z</time></trkpt><trkpt lat="45.64075355406187" lon="10.493176607078308"><ele>264.0</ele><time>2026-05-02T14:31:09.001Z</time></trkpt><trkpt lat="45.6408808535043" lon="10.492953095760312"><ele>264.0</ele><time>2026-05-02T14:31:10.001Z</time></trkpt><trkpt lat="45.64099444127291" lon="10.492733554149776"><ele>264.0</ele><time>2026-05-02T14:31:11.001Z</time></trkpt><trkpt lat="45.64110132103844" lon="10.492503823978337"><ele>264.3333333333333</ele><time>2026-05-02T14:31:12.001Z</time></trkpt><trkpt lat="45.64119683104749" lon="10.492279783561875"><ele>264.66666666666663</ele><time>2026-05-02T14:31:13.001Z</time></trkpt><trkpt lat="45.641286614379844" lon="10.49205121087964"><ele>265.0</ele><time>2026-05-02T14:31:14.001Z</time></trkpt><trkpt lat="45.641368012401365" lon="10.491816184854251"><ele>268.66666666666663</ele><time>2026-05-02T14:31:15.001Z</time></trkpt><trkpt lat="45.64144103089669" lon="10.49157725236527"><ele>272.3333333333333</ele><time>2026-05-02T14:31:16.001Z</time></trkpt><trkpt lat="45.64149854318999" lon="10.4913423446285"><ele>276.0</ele><time>2026-05-02T14:31:17.001Z</time></trkpt><trkpt lat="45.641548095865836" lon="10.491107636631435"><ele>284.6666666666667</ele><time>2026-05-02T14:31:18.001Z</time></trkpt><trkpt lat="45.641592647363844" lon="10.49087085787231"><ele>293.33333333333337</ele><time>2026-05-02T14:31:19.001Z</time></trkpt><trkpt lat="45.64163807510332" lon="10.490633708889886"><ele>302.0</ele><time>2026-05-02T14:31:20.001Z</time></trkpt><trkpt lat="45.64168383167197" lon="10.490390919589416"><ele>314.0</ele><time>2026-05-02T14:31:21.016Z</time></trkpt><trkpt lat="45.64173135041136" lon="10.490154509509003"><ele>326.0</ele><time>2026-05-02T14:31:22.017Z</time></trkpt><trkpt lat="45.64177567332758" lon="10.489913408945426"><ele>338.0</ele><time>2026-05-02T14:31:23.019Z</time></trkpt><trkpt lat="45.64180234108429" lon="10.489673418280248"><ele>518.0</ele><time>2026-05-02T14:31:24.017Z</time></trkpt><trkpt lat="45.641691517247835" lon="10.486807350990764"><ele>254.0</ele><time>2026-05-02T14:31:27.813Z</time></trkpt><trkpt lat="45.64308070859264" lon="10.465550203612755"><ele>253.33333333333334</ele><time>2026-05-02T14:32:45.003Z</time></trkpt><trkpt lat="45.64312907671993" lon="10.465401880526743"><ele>252.66666666666669</ele><time>2026-05-02T14:32:46.003Z</time></trkpt><trkpt lat="45.643198882140304" lon="10.465140988325855"><ele>252.0</ele><time>2026-05-02T14:32:47.003Z</time></trkpt><trkpt lat="45.64326134673311" lon="10.464897096053308"><ele>252.0</ele><time>2026-05-02T14:32:48.003Z</time></trkpt><trkpt lat="45.64333606252395" lon="10.464669217988144"><ele>252.0</ele><time>2026-05-02T14:32:49.003Z</time></trkpt><trkpt lat="45.64340187544447" lon="10.46444296527993"><ele>252.0</ele><time>2026-05-02T14:32:50.002Z</time></trkpt><trkpt lat="45.64347609426507" lon="10.464194578257201"><ele>253.0</ele><time>2026-05-02T14:32:51.002Z</time></trkpt><trkpt lat="45.64355218271749" lon="10.463948289874569"><ele>254.0</ele><time>2026-05-02T14:32:52.002Z</time></trkpt><trkpt lat="45.6436325393309" lon="10.463698563209869"><ele>255.0</ele><time>2026-05-02T14:32:53.002Z</time></trkpt><trkpt lat="45.64371484746849" lon="10.463453571705474"><ele>258.3333333333333</ele><time>2026-05-02T14:32:54.002Z</time></trkpt><trkpt lat="45.64379814146587" lon="10.463210338186114"><ele>261.66666666666663</ele><time>2026-05-02T14:32:55.002Z</time></trkpt><trkpt lat="45.64388270416486" lon="10.462971543049994"><ele>265.0</ele><time>2026-05-02T14:32:56.002Z</time></trkpt><trkpt lat="45.64397028528309" lon="10.462728683421739"><ele>265.3333333333333</ele><time>2026-05-02T14:32:57.002Z</time></trkpt><trkpt lat="45.6440479982247" lon="10.462494429002454"><ele>265.6666666666667</ele><time>2026-05-02T14:32:58.002Z</time></trkpt><trkpt lat="45.644116589163545" lon="10.462272929786957"><ele>266.0</ele><time>2026-05-02T14:32:59.002Z</time></trkpt><trkpt lat="45.64417927069846" lon="10.462070051320865"><ele>266.0</ele><time>2026-05-02T14:33:00.002Z</time></trkpt><trkpt lat="45.64423644196884" lon="10.461895688018668"><ele>266.0</ele><time>2026-05-02T14:33:01.002Z</time></trkpt><trkpt lat="45.644282855085535" lon="10.46175284891177"><ele>266.0</ele><time>2026-05-02T14:33:02.002Z</time></trkpt><trkpt lat="45.64431824426977" lon="10.46164655763589"><ele>266.0</ele><time>2026-05-02T14:33:03.002Z</time></trkpt><trkpt lat="45.64435966036362" lon="10.461532238340979"><ele>266.0</ele><time>2026-05-02T14:33:05.002Z</time></trkpt><trkpt lat="45.64437498044659" lon="10.461434865399548"><ele>266.0</ele><time>2026-05-02T14:33:08.002Z</time></trkpt><trkpt lat="45.644302181679286" lon="10.461306331829682"><ele>266.0</ele><time>2026-05-02T14:33:10.002Z</time></trkpt><trkpt lat="45.64422542272305" lon="10.461254991926308"><ele>266.0</ele><time>2026-05-02T14:33:11.002Z</time></trkpt><trkpt lat="45.64413939608182" lon="10.461208339319816"><ele>266.0</ele><time>2026-05-02T14:33:12.002Z</time></trkpt><trkpt lat="45.64405535433687" lon="10.461154131671114"><ele>266.0</ele><time>2026-05-02T14:33:13.002Z</time></trkpt><trkpt lat="45.64394467019665" lon="10.461098736655652"><ele>265.6</ele><time>2026-05-02T14:33:14.001Z</time></trkpt><trkpt lat="45.64382001972111" lon="10.461045686739034"><ele>265.20000000000005</ele><time>2026-05-02T14:33:15.001Z</time></trkpt><trkpt lat="45.643715710029284" lon="10.460992171184873"><ele>264.79999999999995</ele><time>2026-05-02T14:33:16.001Z</time></trkpt><trkpt lat="45.64363099169469" lon="10.460931166212847"><ele>264.4</ele><time>2026-05-02T14:33:17.001Z</time></trkpt><trkpt lat="45.643562677610255" lon="10.460851709739487"><ele>264.0</ele><time>2026-05-02T14:33:18.001Z</time></trkpt><trkpt lat="45.643509648951486" lon="10.460745427030913"><ele>263.5</ele><time>2026-05-02T14:33:19.001Z</time></trkpt><trkpt lat="45.64347174550579" lon="10.460612385432071"><ele>263.0</ele><time>2026-05-02T14:33:20.001Z</time></trkpt><trkpt lat="45.64341354341989" lon="10.460504090220228"><ele>262.5</ele><time>2026-05-02T14:33:21.001Z</time></trkpt><trkpt lat="45.64354805012152" lon="10.460207034966727"><ele>262.0</ele><time>2026-05-02T14:33:23.001Z</time></trkpt><trkpt lat="45.643640388263606" lon="10.460071507204983"><ele>262.0</ele><time>2026-05-02T14:33:24.001Z</time></trkpt><trkpt lat="45.64377033517227" lon="10.459959653693485"><ele>262.0</ele><time>2026-05-02T14:33:25.001Z</time></trkpt><trkpt lat="45.643892549202135" lon="10.45979894326739"><ele>262.0</ele><time>2026-05-02T14:33:26.001Z</time></trkpt><trkpt lat="45.6440038474419" lon="10.459597182254477"><ele>261.66666666666663</ele><time>2026-05-02T14:33:27.001Z</time></trkpt><trkpt lat="45.64410799383564" lon="10.459374715545964"><ele>261.3333333333333</ele><time>2026-05-02T14:33:28.001Z</time></trkpt><trkpt lat="45.64421747442054" lon="10.459144370301342"><ele>261.0</ele><time>2026-05-02T14:33:29.001Z</time></trkpt><trkpt lat="45.64433541987745" lon="10.458916722639556"><ele>261.0</ele><time>2026-05-02T14:33:30.001Z</time></trkpt><trkpt lat="45.644451013916" lon="10.458697418951987"><ele>261.0</ele><time>2026-05-02T14:33:31.001Z</time></trkpt><trkpt lat="45.64456163360561" lon="10.458495158133067"><ele>261.0</ele><time>2026-05-02T14:33:32.001Z</time></trkpt><trkpt lat="45.644670217835944" lon="10.458297694672037"><ele>261.6666666666667</ele><time>2026-05-02T14:33:33.001Z</time></trkpt><trkpt lat="45.64477982748854" lon="10.45808748201559"><ele>262.33333333333337</ele><time>2026-05-02T14:33:34.001Z</time></trkpt><trkpt lat="45.644891117748266" lon="10.457878289956016"><ele>263.0</ele><time>2026-05-02T14:33:35.001Z</time></trkpt><trkpt lat="45.64500608423993" lon="10.457662844138584"><ele>263.0</ele><time>2026-05-02T14:33:36.001Z</time></trkpt><trkpt lat="45.64512065646094" lon="10.457442701911292"><ele>263.0</ele><time>2026-05-02T14:33:37.001Z</time></trkpt><trkpt lat="45.645227757738105" lon="10.457222912005658"><ele>263.0</ele><time>2026-05-02T14:33:38.001Z</time></trkpt><trkpt lat="45.645327472513934" lon="10.456990412387777"><ele>264.33333333333337</ele><time>2026-05-02T14:33:39.001Z</time></trkpt><trkpt lat="45.64542418849959" lon="10.456755351202338"><ele>265.6666666666667</ele><time>2026-05-02T14:33:40.001Z</time></trkpt><trkpt lat="45.64552008861011" lon="10.456520073221803"><ele>267.0</ele><time>2026-05-02T14:33:41.001Z</time></trkpt><trkpt lat="45.645613051619314" lon="10.456279071801513"><ele>267.0</ele><time>2026-05-02T14:33:42.001Z</time></trkpt><trkpt lat="45.64570028651073" lon="10.45602677336465"><ele>267.0</ele><time>2026-05-02T14:33:43.001Z</time></trkpt><trkpt lat="45.64578317103061" lon="10.455777626837925"><ele>267.0</ele><time>2026-05-02T14:33:44.001Z</time></trkpt><trkpt lat="45.645865635539025" lon="10.455521150798798"><ele>266.6666666666667</ele><time>2026-05-02T14:33:45.001Z</time></trkpt><trkpt lat="45.645949994179674" lon="10.455258869647187"><ele>266.33333333333337</ele><time>2026-05-02T14:33:46.001Z</time></trkpt><trkpt lat="45.64603423508874" lon="10.455001545687331"><ele>266.0</ele><time>2026-05-02T14:33:47.001Z</time></trkpt><trkpt lat="45.64612139636496" lon="10.454741362427745"><ele>268.6666666666667</ele><time>2026-05-02T14:33:48.001Z</time></trkpt><trkpt lat="45.646207735840335" lon="10.454488728975956"><ele>271.3333333333333</ele><time>2026-05-02T14:33:49.001Z</time></trkpt><trkpt lat="45.64628926547259" lon="10.454240561066621"><ele>274.0</ele><time>2026-05-02T14:33:50.001Z</time></trkpt><trkpt lat="45.646366961028676" lon="10.454006967782837"><ele>271.66666666666663</ele><time>2026-05-02T14:33:51.001Z</time></trkpt><trkpt lat="45.64644226183458" lon="10.453782511161448"><ele>269.3333333333333</ele><time>2026-05-02T14:33:52.001Z</time></trkpt><trkpt lat="45.646520013238884" lon="10.453553540185135"><ele>267.0</ele><time>2026-05-02T14:33:53.001Z</time></trkpt><trkpt lat="45.64659528965871" lon="10.453319355392718"><ele>267.0</ele><time>2026-05-02T14:33:54.001Z</time></trkpt><trkpt lat="45.646675355324064" lon="10.453081055532746"><ele>267.0</ele><time>2026-05-02T14:33:55.001Z</time></trkpt><trkpt lat="45.64675664349253" lon="10.452851603562355"><ele>267.0</ele><time>2026-05-02T14:33:56.001Z</time></trkpt><trkpt lat="45.64682997094058" lon="10.452630723736439"><ele>266.6666666666667</ele><time>2026-05-02T14:33:57.001Z</time></trkpt><trkpt lat="45.64689952754177" lon="10.45241446498709"><ele>266.33333333333337</ele><time>2026-05-02T14:33:58.001Z</time></trkpt><trkpt lat="45.646972648506505" lon="10.452191405937912"><ele>266.0</ele><time>2026-05-02T14:33:59.001Z</time></trkpt><trkpt lat="45.647041256462735" lon="10.45196048450628"><ele>270.0</ele><time>2026-05-02T14:34:00.001Z</time></trkpt><trkpt lat="45.64710924865005" lon="10.451717569839714"><ele>274.0</ele><time>2026-05-02T14:34:01.001Z</time></trkpt><trkpt lat="45.64717111234797" lon="10.451477105184125"><ele>278.0</ele><time>2026-05-02T14:34:02.002Z</time></trkpt><trkpt lat="45.647233489866935" lon="10.451233247720817"><ele>278.0</ele><time>2026-05-02T14:34:03.002Z</time></trkpt><trkpt lat="45.64729463684396" lon="10.450977066846578"><ele>278.0</ele><time>2026-05-02T14:34:04.002Z</time></trkpt><trkpt lat="45.647352836352994" lon="10.45073308218325"><ele>278.0</ele><time>2026-05-02T14:34:05.002Z</time></trkpt><trkpt lat="45.64740936819161" lon="10.450494885317246"><ele>275.6666666666667</ele><time>2026-05-02T14:34:06.002Z</time></trkpt><trkpt lat="45.64747235927883" lon="10.450262351272587"><ele>273.3333333333333</ele><time>2026-05-02T14:34:07.002Z</time></trkpt><trkpt lat="45.6475412313623" lon="10.450044617798882"><ele>271.0</ele><time>2026-05-02T14:34:08.002Z</time></trkpt><trkpt lat="45.64761945711998" lon="10.449815561174507"><ele>269.3333333333333</ele><time>2026-05-02T14:34:09.002Z</time></trkpt><trkpt lat="45.64770535615249" lon="10.449595400074628"><ele>267.6666666666667</ele><time>2026-05-02T14:34:10.002Z</time></trkpt><trkpt lat="45.64780183872799" lon="10.449372910211837"><ele>266.0</ele><time>2026-05-02T14:34:11.002Z</time></trkpt><trkpt lat="45.64791378127343" lon="10.449168155910256"><ele>264.0</ele><time>2026-05-02T14:34:12.002Z</time></trkpt><trkpt lat="45.64805844188717" lon="10.449021530056218"><ele>262.0</ele><time>2026-05-02T14:34:13.002Z</time></trkpt><trkpt lat="45.64820669964305" lon="10.448898169720026"><ele>260.0</ele><time>2026-05-02T14:34:14.002Z</time></trkpt><trkpt lat="45.64836388626212" lon="10.448786682773417"><ele>260.0</ele><time>2026-05-02T14:34:15.002Z</time></trkpt><trkpt lat="45.648512454850604" lon="10.448664417752797"><ele>260.0</ele><time>2026-05-02T14:34:16.002Z</time></trkpt><trkpt lat="45.64866224097874" lon="10.448571561731837"><ele>260.0</ele><time>2026-05-02T14:34:17.002Z</time></trkpt><trkpt lat="45.64880430219252" lon="10.44850336655704"><ele>267.0</ele><time>2026-05-02T14:34:18.002Z</time></trkpt><trkpt lat="45.648947371397384" lon="10.448439176330556"><ele>274.0</ele><time>2026-05-02T14:34:19.002Z</time></trkpt><trkpt lat="45.6490952960801" lon="10.448376629703192"><ele>281.0</ele><time>2026-05-02T14:34:20.002Z</time></trkpt><trkpt lat="45.64924020117939" lon="10.448302764568174"><ele>281.0</ele><time>2026-05-02T14:34:21.002Z</time></trkpt><trkpt lat="45.649385290687206" lon="10.448242159966924"><ele>281.0</ele><time>2026-05-02T14:34:22.002Z</time></trkpt><trkpt lat="45.64951878598545" lon="10.448155917413875"><ele>281.0</ele><time>2026-05-02T14:34:23.002Z</time></trkpt><trkpt lat="45.649658452368584" lon="10.448034522283297"><ele>275.33333333333337</ele><time>2026-05-02T14:34:24.002Z</time></trkpt><trkpt lat="45.64980091724612" lon="10.447896345455357"><ele>269.6666666666667</ele><time>2026-05-02T14:34:25.002Z</time></trkpt><trkpt lat="45.64993153815687" lon="10.447754353483651"><ele>264.0</ele><time>2026-05-02T14:34:26.002Z</time></trkpt><trkpt lat="45.65005854210444" lon="10.447625974276583"><ele>264.0</ele><time>2026-05-02T14:34:27.002Z</time></trkpt><trkpt lat="45.65016875954616" lon="10.447494124017735"><ele>264.0</ele><time>2026-05-02T14:34:28.002Z</time></trkpt><trkpt lat="45.650269515066064" lon="10.44732453454395"><ele>264.0</ele><time>2026-05-02T14:34:29.002Z</time></trkpt><trkpt lat="45.65035003912833" lon="10.447127311635372"><ele>266.6666666666667</ele><time>2026-05-02T14:34:30.002Z</time></trkpt><trkpt lat="45.65041910688019" lon="10.44691328554704"><ele>269.33333333333337</ele><time>2026-05-02T14:34:31.002Z</time></trkpt><trkpt lat="45.650466901097836" lon="10.446681191067631"><ele>272.0</ele><time>2026-05-02T14:34:32.002Z</time></trkpt><trkpt lat="45.650501206245224" lon="10.44644445645988"><ele>271.0</ele><time>2026-05-02T14:34:33.002Z</time></trkpt><trkpt lat="45.650533651476955" lon="10.446204325434977"><ele>270.0</ele><time>2026-05-02T14:34:34.002Z</time></trkpt><trkpt lat="45.65057107840625" lon="10.4459697967735"><ele>269.0</ele><time>2026-05-02T14:34:35.002Z</time></trkpt><trkpt lat="45.650610303738205" lon="10.44573636766605"><ele>269.0</ele><time>2026-05-02T14:34:36.002Z</time></trkpt><trkpt lat="45.650650920088495" lon="10.445485762191966"><ele>269.0</ele><time>2026-05-02T14:34:37.002Z</time></trkpt><trkpt lat="45.65068687010947" lon="10.445235524527972"><ele>269.0</ele><time>2026-05-02T14:34:38.002Z</time></trkpt><trkpt lat="45.65072519699532" lon="10.444989692422055"><ele>267.6666666666667</ele><time>2026-05-02T14:34:39.002Z</time></trkpt><trkpt lat="45.650765419945095" lon="10.444738691494775"><ele>266.3333333333333</ele><time>2026-05-02T14:34:40.002Z</time></trkpt><trkpt lat="45.65080778032755" lon="10.44448536206901"><ele>265.0</ele><time>2026-05-02T14:34:41.002Z</time></trkpt><trkpt lat="45.65084817274517" lon="10.444235288023552"><ele>264.3333333333333</ele><time>2026-05-02T14:34:42.002Z</time></trkpt><trkpt lat="45.65088872754309" lon="10.443974387164625"><ele>263.6666666666667</ele><time>2026-05-02T14:34:43.002Z</time></trkpt><trkpt lat="45.65091404155421" lon="10.443702866792336"><ele>263.0</ele><time>2026-05-02T14:34:44.002Z</time></trkpt><trkpt lat="45.65092827306431" lon="10.443412760216964"><ele>262.6666666666667</ele><time>2026-05-02T14:34:45.002Z</time></trkpt><trkpt lat="45.65093232710067" lon="10.44312115642711"><ele>262.3333333333333</ele><time>2026-05-02T14:34:46.002Z</time></trkpt><trkpt lat="45.650931559843" lon="10.442821549097115"><ele>262.0</ele><time>2026-05-02T14:34:47.002Z</time></trkpt><trkpt lat="45.65092538153277" lon="10.442530441901908"><ele>263.3333333333333</ele><time>2026-05-02T14:34:48.002Z</time></trkpt><trkpt lat="45.65091496745314" lon="10.442243269219519"><ele>264.6666666666667</ele><time>2026-05-02T14:34:49.002Z</time></trkpt><trkpt lat="45.650893567679404" lon="10.441959468772193"><ele>266.0</ele><time>2026-05-02T14:34:50.002Z</time></trkpt><trkpt lat="45.650865476343135" lon="10.44166633453888"><ele>266.6666666666667</ele><time>2026-05-02T14:34:51.002Z</time></trkpt><trkpt lat="45.65082883503727" lon="10.44137629450366"><ele>267.3333333333333</ele><time>2026-05-02T14:34:52.002Z</time></trkpt><trkpt lat="45.650786057116996" lon="10.441092535343314"><ele>268.0</ele><time>2026-05-02T14:34:53.002Z</time></trkpt><trkpt lat="45.6507360418248" lon="10.440803371592091"><ele>269.3333333333333</ele><time>2026-05-02T14:34:54.002Z</time></trkpt><trkpt lat="45.650687946390605" lon="10.440516904469835"><ele>270.6666666666667</ele><time>2026-05-02T14:34:55.002Z</time></trkpt><trkpt lat="45.65064084299873" lon="10.440231812282931"><ele>272.0</ele><time>2026-05-02T14:34:56.001Z</time></trkpt><trkpt lat="45.65058763114931" lon="10.439936047592141"><ele>272.33333333333337</ele><time>2026-05-02T14:34:57.001Z</time></trkpt><trkpt lat="45.650536549286045" lon="10.439646060466075"><ele>272.6666666666667</ele><time>2026-05-02T14:34:58.001Z</time></trkpt><trkpt lat="45.65048815786891" lon="10.439352534180777"><ele>273.0</ele><time>2026-05-02T14:34:59.001Z</time></trkpt><trkpt lat="45.650436585410326" lon="10.439052634990247"><ele>273.3333333333333</ele><time>2026-05-02T14:35:00.001Z</time></trkpt><trkpt lat="45.650388797245654" lon="10.43877442436752"><ele>273.66666666666663</ele><time>2026-05-02T14:35:01.001Z</time></trkpt><trkpt lat="45.65034263453433" lon="10.438509255560115"><ele>274.0</ele><time>2026-05-02T14:35:02.001Z</time></trkpt><trkpt lat="45.65030219418862" lon="10.438268080089568"><ele>270.66666666666663</ele><time>2026-05-02T14:35:03.001Z</time></trkpt><trkpt lat="45.6502669565878" lon="10.438051310491094"><ele>267.3333333333333</ele><time>2026-05-02T14:35:04.001Z</time></trkpt><trkpt lat="45.65023672148764" lon="10.437838844968738"><ele>264.0</ele><time>2026-05-02T14:35:05.001Z</time></trkpt><trkpt lat="45.65021761889306" lon="10.437625882169746"><ele>264.0</ele><time>2026-05-02T14:35:06.001Z</time></trkpt><trkpt lat="45.650205896172736" lon="10.437405964719613"><ele>264.0</ele><time>2026-05-02T14:35:07.001Z</time></trkpt><trkpt lat="45.65019990039936" lon="10.437179130443207"><ele>264.0</ele><time>2026-05-02T14:35:08.001Z</time></trkpt><trkpt lat="45.65020189172051" lon="10.436949199694485"><ele>264.6666666666667</ele><time>2026-05-02T14:35:09.001Z</time></trkpt><trkpt lat="45.65021121699323" lon="10.43671161681873"><ele>265.33333333333337</ele><time>2026-05-02T14:35:10.001Z</time></trkpt><trkpt lat="45.65023069282404" lon="10.436466726786641"><ele>266.0</ele><time>2026-05-02T14:35:11.001Z</time></trkpt><trkpt lat="45.65026560886492" lon="10.436225153463065"><ele>269.33333333333337</ele><time>2026-05-02T14:35:12.001Z</time></trkpt><trkpt lat="45.65031322322769" lon="10.435991492300523"><ele>272.6666666666667</ele><time>2026-05-02T14:35:13.001Z</time></trkpt><trkpt lat="45.65036797327547" lon="10.435782383931041"><ele>276.0</ele><time>2026-05-02T14:35:14.001Z</time></trkpt><trkpt lat="45.65042409228895" lon="10.435564586938755"><ele>274.6666666666667</ele><time>2026-05-02T14:35:15.001Z</time></trkpt><trkpt lat="45.6504882290636" lon="10.435353829168863"><ele>273.33333333333337</ele><time>2026-05-02T14:35:16.001Z</time></trkpt><trkpt lat="45.6505627692344" lon="10.435154448812934"><ele>272.0</ele><time>2026-05-02T14:35:17.001Z</time></trkpt><trkpt lat="45.65064317474826" lon="10.434963434623187"><ele>272.0</ele><time>2026-05-02T14:35:18.001Z</time></trkpt><trkpt lat="45.650730801786615" lon="10.434776734394285"><ele>272.0</ele><time>2026-05-02T14:35:19.001Z</time></trkpt><trkpt lat="45.650825456905956" lon="10.434593438803297"><ele>272.0</ele><time>2026-05-02T14:35:20.001Z</time></trkpt><trkpt lat="45.65092280077524" lon="10.4344105222102"><ele>270.33333333333337</ele><time>2026-05-02T14:35:21.001Z</time></trkpt><trkpt lat="45.651017055185946" lon="10.434236689414469"><ele>268.6666666666667</ele><time>2026-05-02T14:35:22.001Z</time></trkpt><trkpt lat="45.65110406124337" lon="10.434056009558006"><ele>267.0</ele><time>2026-05-02T14:35:23.001Z</time></trkpt><trkpt lat="45.65119096491257" lon="10.433876312951739"><ele>270.0</ele><time>2026-05-02T14:35:24.001Z</time></trkpt><trkpt lat="45.65128506517887" lon="10.433694221165066"><ele>273.0</ele><time>2026-05-02T14:35:25.001Z</time></trkpt><trkpt lat="45.65137479542101" lon="10.43350498817224"><ele>276.0</ele><time>2026-05-02T14:35:26.001Z</time></trkpt><trkpt lat="45.651466929544135" lon="10.433315397215711"><ele>276.0</ele><time>2026-05-02T14:35:27.001Z</time></trkpt><trkpt lat="45.651563390346055" lon="10.433123820650751"><ele>276.0</ele><time>2026-05-02T14:35:28.001Z</time></trkpt><trkpt lat="45.65165967710561" lon="10.432936656900422"><ele>276.0</ele><time>2026-05-02T14:35:29.001Z</time></trkpt><trkpt lat="45.651756486385935" lon="10.432742301582604"><ele>274.6666666666667</ele><time>2026-05-02T14:35:30.001Z</time></trkpt><trkpt lat="45.65185262297464" lon="10.432543433615189"><ele>273.33333333333337</ele><time>2026-05-02T14:35:31.001Z</time></trkpt><trkpt lat="45.65195031792792" lon="10.432342051463142"><ele>272.0</ele><time>2026-05-02T14:35:32.001Z</time></trkpt><trkpt lat="45.65204041156527" lon="10.432155418439004"><ele>272.33333333333337</ele><time>2026-05-02T14:35:33.001Z</time></trkpt><trkpt lat="45.652127466116625" lon="10.431976071126742"><ele>272.6666666666667</ele><time>2026-05-02T14:35:34.001Z</time></trkpt><trkpt lat="45.65221607643181" lon="10.43179912573199"><ele>273.0</ele><time>2026-05-02T14:35:35.001Z</time></trkpt><trkpt lat="45.652310892315874" lon="10.431611459751931"><ele>273.0</ele><time>2026-05-02T14:35:36.001Z</time></trkpt><trkpt lat="45.65241020854177" lon="10.431419278756076"><ele>273.0</ele><time>2026-05-02T14:35:37.001Z</time></trkpt><trkpt lat="45.65250471901741" lon="10.43122266960846"><ele>273.0</ele><time>2026-05-02T14:35:38.001Z</time></trkpt><trkpt lat="45.652594941520185" lon="10.4310330885561"><ele>273.3333333333333</ele><time>2026-05-02T14:35:39.001Z</time></trkpt><trkpt lat="45.65268772136163" lon="10.430835596058497"><ele>273.66666666666663</ele><time>2026-05-02T14:35:40.001Z</time></trkpt><trkpt lat="45.65278420570271" lon="10.430643442168458"><ele>274.0</ele><time>2026-05-02T14:35:41.001Z</time></trkpt><trkpt lat="45.652881459968796" lon="10.430456687689162"><ele>274.0</ele><time>2026-05-02T14:35:42.001Z</time></trkpt><trkpt lat="45.65297722710458" lon="10.430267747759254"><ele>274.0</ele><time>2026-05-02T14:35:43.001Z</time></trkpt><trkpt lat="45.65307246677303" lon="10.430081445894578"><ele>274.0</ele><time>2026-05-02T14:35:44.001Z</time></trkpt><trkpt lat="45.65316253119261" lon="10.429908482606326"><ele>274.0</ele><time>2026-05-02T14:35:45.001Z</time></trkpt><trkpt lat="45.65325119642114" lon="10.429742824096419"><ele>274.0</ele><time>2026-05-02T14:35:46.001Z</time></trkpt><trkpt lat="45.65334367309383" lon="10.429582940179497"><ele>274.0</ele><time>2026-05-02T14:35:47.001Z</time></trkpt><trkpt lat="45.65344273306554" lon="10.429420997423422"><ele>274.0</ele><time>2026-05-02T14:35:48.001Z</time></trkpt><trkpt lat="45.65354387878069" lon="10.42926455591428"><ele>275.0</ele><time>2026-05-02T14:35:49.001Z</time></trkpt><trkpt lat="45.65364812829346" lon="10.429105653611543"><ele>276.0</ele><time>2026-05-02T14:35:50.001Z</time></trkpt><trkpt lat="45.653751032250184" lon="10.428955641645588"><ele>277.0</ele><time>2026-05-02T14:35:51.001Z</time></trkpt><trkpt lat="45.65385147378078" lon="10.428812429235606"><ele>278.0</ele><time>2026-05-02T14:35:52.001Z</time></trkpt><trkpt lat="45.65394821854856" lon="10.428689138134496"><ele>276.2</ele><time>2026-05-02T14:35:53.001Z</time></trkpt><trkpt lat="45.65404556403953" lon="10.428583981439814"><ele>274.4</ele><time>2026-05-02T14:35:54.001Z</time></trkpt><trkpt lat="45.654136865452585" lon="10.428503431240374"><ele>272.59999999999997</ele><time>2026-05-02T14:35:55.001Z</time></trkpt><trkpt lat="45.654230980966766" lon="10.428447565547634"><ele>270.8</ele><time>2026-05-02T14:35:56.001Z</time></trkpt><trkpt lat="45.654325734855426" lon="10.428432250643082"><ele>269.0</ele><time>2026-05-02T14:35:57.001Z</time></trkpt><trkpt lat="45.65441671468061" lon="10.428451804485023"><ele>273.33333333333337</ele><time>2026-05-02T14:35:58.001Z</time></trkpt><trkpt lat="45.65449464499106" lon="10.428484484723056"><ele>277.6666666666667</ele><time>2026-05-02T14:35:59.001Z</time></trkpt><trkpt lat="45.654577247904825" lon="10.428479410026467"><ele>282.0</ele><time>2026-05-02T14:36:00.001Z</time></trkpt><trkpt lat="45.654649506332404" lon="10.42841750337101"><ele>286.3333333333333</ele><time>2026-05-02T14:36:01.001Z</time></trkpt><trkpt lat="45.65469755030987" lon="10.428304154939182"><ele>290.66666666666663</ele><time>2026-05-02T14:36:02.001Z</time></trkpt><trkpt lat="45.65470757744431" lon="10.428165014841651"><ele>295.0</ele><time>2026-05-02T14:36:03.001Z</time></trkpt><trkpt lat="45.65468257260525" lon="10.42802870087991"><ele>290.0</ele><time>2026-05-02T14:36:04.001Z</time></trkpt><trkpt lat="45.65462208593695" lon="10.427930604723398"><ele>285.0</ele><time>2026-05-02T14:36:05.001Z</time></trkpt><trkpt lat="45.65452963890433" lon="10.427867686305303"><ele>280.0</ele><time>2026-05-02T14:36:06.001Z</time></trkpt><trkpt lat="45.654428889817915" lon="10.427858078467564"><ele>275.0</ele><time>2026-05-02T14:36:07.001Z</time></trkpt><trkpt lat="45.65433011841932" lon="10.427842723513027"><ele>270.0</ele><time>2026-05-02T14:36:08.001Z</time></trkpt><trkpt lat="45.65424082068519" lon="10.427767399588197"><ele>269.25</ele><time>2026-05-02T14:36:09.001Z</time></trkpt><trkpt lat="45.65417165231241" lon="10.427630910870787"><ele>268.5</ele><time>2026-05-02T14:36:10.001Z</time></trkpt><trkpt lat="45.65411475423204" lon="10.427474677375617"><ele>267.75</ele><time>2026-05-02T14:36:11.001Z</time></trkpt><trkpt lat="45.65405261945065" lon="10.427317678662376"><ele>267.0</ele><time>2026-05-02T14:36:12.001Z</time></trkpt><trkpt lat="45.65398026605312" lon="10.42714962856609"><ele>268.0</ele><time>2026-05-02T14:36:13.001Z</time></trkpt><trkpt lat="45.653900330502026" lon="10.426971194730354"><ele>269.0</ele><time>2026-05-02T14:36:14.001Z</time></trkpt><trkpt lat="45.65381496842952" lon="10.426781278632147"><ele>270.0</ele><time>2026-05-02T14:36:15.001Z</time></trkpt><trkpt lat="45.65372865078948" lon="10.426584001208228"><ele>270.0</ele><time>2026-05-02T14:36:16.001Z</time></trkpt><trkpt lat="45.65364342372894" lon="10.426389297154955"><ele>270.0</ele><time>2026-05-02T14:36:17.001Z</time></trkpt><trkpt lat="45.6535593027416" lon="10.42619405084406"><ele>270.0</ele><time>2026-05-02T14:36:18.001Z</time></trkpt><trkpt lat="45.65348025387596" lon="10.426000737630186"><ele>273.0</ele><time>2026-05-02T14:36:19.001Z</time></trkpt><trkpt lat="45.65340003083192" lon="10.425801021801988"><ele>276.0</ele><time>2026-05-02T14:36:20.001Z</time></trkpt><trkpt lat="45.653317845625864" lon="10.425597569127643"><ele>279.0</ele><time>2026-05-02T14:36:21.001Z</time></trkpt><trkpt lat="45.653232741190166" lon="10.425389933904317"><ele>280.3333333333333</ele><time>2026-05-02T14:36:22.001Z</time></trkpt><trkpt lat="45.65315417744187" lon="10.42518611928855"><ele>281.66666666666663</ele><time>2026-05-02T14:36:23.001Z</time></trkpt><trkpt lat="45.6530735839038" lon="10.424963128471491"><ele>283.0</ele><time>2026-05-02T14:36:24.001Z</time></trkpt><trkpt lat="45.65299818646827" lon="10.424733958550505"><ele>284.3333333333333</ele><time>2026-05-02T14:36:25.001Z</time></trkpt><trkpt lat="45.6529195039389" lon="10.424520550058462"><ele>285.6666666666667</ele><time>2026-05-02T14:36:26.001Z</time></trkpt><trkpt lat="45.65285477124516" lon="10.424287813344868"><ele>287.0</ele><time>2026-05-02T14:36:27.001Z</time></trkpt><trkpt lat="45.6527661077657" lon="10.424045960158113"><ele>288.6666666666667</ele><time>2026-05-02T14:36:28.001Z</time></trkpt><trkpt lat="45.65267866053734" lon="10.423781171924304"><ele>290.3333333333333</ele><time>2026-05-02T14:36:29.001Z</time></trkpt><trkpt lat="45.65259349836881" lon="10.42352184942653"><ele>292.0</ele><time>2026-05-02T14:36:30.001Z</time></trkpt><trkpt lat="45.65251001582819" lon="10.423267274680333"><ele>292.0</ele><time>2026-05-02T14:36:31.001Z</time></trkpt><trkpt lat="45.652423954803" lon="10.423016075565409"><ele>292.0</ele><time>2026-05-02T14:36:32.001Z</time></trkpt><trkpt lat="45.65233792683936" lon="10.422764608624114"><ele>292.0</ele><time>2026-05-02T14:36:33.001Z</time></trkpt><trkpt lat="45.65225136744139" lon="10.422515205994712"><ele>290.66666666666663</ele><time>2026-05-02T14:36:34.001Z</time></trkpt><trkpt lat="45.65217502759136" lon="10.422280864808279"><ele>289.3333333333333</ele><time>2026-05-02T14:36:35.001Z</time></trkpt><trkpt lat="45.65209761552557" lon="10.422046006788229"><ele>288.0</ele><time>2026-05-02T14:36:36.001Z</time></trkpt><trkpt lat="45.65201888771493" lon="10.421811906162885"><ele>286.3333333333333</ele><time>2026-05-02T14:36:37.001Z</time></trkpt><trkpt lat="45.651939877699434" lon="10.421584710639543"><ele>284.66666666666663</ele><time>2026-05-02T14:36:38.001Z</time></trkpt><trkpt lat="45.65186886754046" lon="10.42137419130092"><ele>283.0</ele><time>2026-05-02T14:36:39.001Z</time></trkpt><trkpt lat="45.651800738289474" lon="10.42117497268226"><ele>283.0</ele><time>2026-05-02T14:36:40.001Z</time></trkpt><trkpt lat="45.65173413587197" lon="10.420988160487253"><ele>283.0</ele><time>2026-05-02T14:36:41.001Z</time></trkpt><trkpt lat="45.651673074542444" lon="10.420802979986258"><ele>283.0</ele><time>2026-05-02T14:36:42.001Z</time></trkpt><trkpt lat="45.65161655640692" lon="10.420613210222662"><ele>283.0</ele><time>2026-05-02T14:36:43.001Z</time></trkpt><trkpt lat="45.65155124300934" lon="10.420421493909778"><ele>287.0</ele><time>2026-05-02T14:36:44.001Z</time></trkpt><trkpt lat="45.65148211052833" lon="10.42022650043916"><ele>291.0</ele><time>2026-05-02T14:36:45.001Z</time></trkpt><trkpt lat="45.651414318247255" lon="10.42002464301676"><ele>295.0</ele><time>2026-05-02T14:36:46.001Z</time></trkpt><trkpt lat="45.65134879407458" lon="10.419824501493325"><ele>299.66666666666663</ele><time>2026-05-02T14:36:47.001Z</time></trkpt><trkpt lat="45.6512793358428" lon="10.419616400894894"><ele>304.3333333333333</ele><time>2026-05-02T14:36:48.001Z</time></trkpt><trkpt lat="45.65120737022046" lon="10.419404361757948"><ele>309.0</ele><time>2026-05-02T14:36:49.024Z</time></trkpt><trkpt lat="45.65113922794976" lon="10.419199827813644"><ele>307.3333333333333</ele><time>2026-05-02T14:36:50.013Z</time></trkpt><trkpt lat="45.65106941695568" lon="10.418991555419337"><ele>305.66666666666663</ele><time>2026-05-02T14:36:51.013Z</time></trkpt><trkpt lat="45.65099779284314" lon="10.418778300101838"><ele>304.0</ele><time>2026-05-02T14:36:52.02Z</time></trkpt><trkpt lat="45.650924302273744" lon="10.418567757973582"><ele>304.0</ele><time>2026-05-02T14:36:53.013Z</time></trkpt><trkpt lat="45.65085050033456" lon="10.418358123409472"><ele>304.0</ele><time>2026-05-02T14:36:54.014Z</time></trkpt><trkpt lat="45.65077531800263" lon="10.418143972319148"><ele>304.0</ele><time>2026-05-02T14:36:55.022Z</time></trkpt><trkpt lat="45.65070575316099" lon="10.417938611641077"><ele>287.0</ele><time>2026-05-02T14:36:56.015Z</time></trkpt><trkpt lat="45.650436356706216" lon="10.417100759232804"><ele>287.0</ele><time>2026-05-02T14:36:59.001Z</time></trkpt><trkpt lat="45.65035613110889" lon="10.416866388954498"><ele>287.0</ele><time>2026-05-02T14:37:00.001Z</time></trkpt><trkpt lat="45.65028187176647" lon="10.416632172181293"><ele>287.0</ele><time>2026-05-02T14:37:01.001Z</time></trkpt><trkpt lat="45.65021419949796" lon="10.41640868794933"><ele>287.0</ele><time>2026-05-02T14:37:02.001Z</time></trkpt><trkpt lat="45.650137373600444" lon="10.416198443578272"><ele>287.0</ele><time>2026-05-02T14:37:03.001Z</time></trkpt><trkpt lat="45.65006308504392" lon="10.415970929007482"><ele>287.0</ele><time>2026-05-02T14:37:04.001Z</time></trkpt><trkpt lat="45.64997846187728" lon="10.415756741248522"><ele>287.0</ele><time>2026-05-02T14:37:05Z</time></trkpt><trkpt lat="45.64990646275709" lon="10.415523953807082"><ele>287.0</ele><time>2026-05-02T14:37:06Z</time></trkpt><trkpt lat="45.64983899562686" lon="10.415286269167504"><ele>287.0</ele><time>2026-05-02T14:37:07Z</time></trkpt><trkpt lat="45.64978335640037" lon="10.415044366670692"><ele>287.0</ele><time>2026-05-02T14:37:08Z</time></trkpt><trkpt lat="45.64973540439321" lon="10.414795827328229"><ele>287.0</ele><time>2026-05-02T14:37:09Z</time></trkpt><trkpt lat="45.64969337832623" lon="10.414546929168955"><ele>287.0</ele><time>2026-05-02T14:37:10Z</time></trkpt><trkpt lat="45.6496557487318" lon="10.414292068828674"><ele>289.6666666666667</ele><time>2026-05-02T14:37:11Z</time></trkpt><trkpt lat="45.64962769620443" lon="10.414033597312658"><ele>292.3333333333333</ele><time>2026-05-02T14:37:12Z</time></trkpt><trkpt lat="45.6496023317563" lon="10.413770739334396"><ele>295.0</ele><time>2026-05-02T14:37:13Z</time></trkpt><trkpt lat="45.64958711129116" lon="10.413497597603142"><ele>296.3333333333333</ele><time>2026-05-02T14:37:14Z</time></trkpt><trkpt lat="45.649574795058584" lon="10.413218192160288"><ele>297.6666666666667</ele><time>2026-05-02T14:37:15Z</time></trkpt><trkpt lat="45.64957422793007" lon="10.41293923263741"><ele>299.0</ele><time>2026-05-02T14:37:16Z</time></trkpt><trkpt lat="45.64958552235505" lon="10.412655791411234"><ele>299.0</ele><time>2026-05-02T14:37:17Z</time></trkpt><trkpt lat="45.649606736892984" lon="10.412374302457014"><ele>299.0</ele><time>2026-05-02T14:37:18Z</time></trkpt><trkpt lat="45.64963711117081" lon="10.41208822216208"><ele>299.0</ele><time>2026-05-02T14:37:19Z</time></trkpt><trkpt lat="45.649673772907526" lon="10.411807249966262"><ele>299.0</ele><time>2026-05-02T14:37:20Z</time></trkpt><trkpt lat="45.64971409334908" lon="10.411530932774077"><ele>299.0</ele><time>2026-05-02T14:37:21Z</time></trkpt><trkpt lat="45.64976282402604" lon="10.411254186086293"><ele>299.0</ele><time>2026-05-02T14:37:22Z</time></trkpt><trkpt lat="45.64982543187778" lon="10.410992012278886"><ele>298.0</ele><time>2026-05-02T14:37:23Z</time></trkpt><trkpt lat="45.64989820067146" lon="10.410726587969782"><ele>297.0</ele><time>2026-05-02T14:37:24Z</time></trkpt><trkpt lat="45.649976239169284" lon="10.410463788666256"><ele>296.0</ele><time>2026-05-02T14:37:25Z</time></trkpt><trkpt lat="45.65006074496783" lon="10.410204115765634"><ele>296.0</ele><time>2026-05-02T14:37:26Z</time></trkpt><trkpt lat="45.6501440700941" lon="10.409958582759597"><ele>296.0</ele><time>2026-05-02T14:37:27Z</time></trkpt><trkpt lat="45.6502238105941" lon="10.409728142411039"><ele>296.0</ele><time>2026-05-02T14:37:28Z</time></trkpt><trkpt lat="45.65029788985345" lon="10.409507887363658"><ele>298.6666666666667</ele><time>2026-05-02T14:37:29Z</time></trkpt><trkpt lat="45.650369349006695" lon="10.40929166261447"><ele>301.3333333333333</ele><time>2026-05-02T14:37:30Z</time></trkpt><trkpt lat="45.65044039859037" lon="10.409073476768784"><ele>304.0</ele><time>2026-05-02T14:37:31Z</time></trkpt><trkpt lat="45.65051282998765" lon="10.40885173479925"><ele>302.66666666666663</ele><time>2026-05-02T14:37:32Z</time></trkpt><trkpt lat="45.650588442445645" lon="10.40862612624389"><ele>301.3333333333333</ele><time>2026-05-02T14:37:33Z</time></trkpt><trkpt lat="45.65066531698285" lon="10.408398552319074"><ele>300.0</ele><time>2026-05-02T14:37:34Z</time></trkpt><trkpt lat="45.65074335504727" lon="10.408169373801364"><ele>299.0</ele><time>2026-05-02T14:37:35Z</time></trkpt><trkpt lat="45.650823684999395" lon="10.407935158981216"><ele>298.0</ele><time>2026-05-02T14:37:36Z</time></trkpt><trkpt lat="45.65090075181039" lon="10.407706746737079"><ele>297.0</ele><time>2026-05-02T14:37:37Z</time></trkpt><trkpt lat="45.650976290770124" lon="10.407476666714262"><ele>297.0</ele><time>2026-05-02T14:37:38Z</time></trkpt><trkpt lat="45.65105063136708" lon="10.407250521183245"><ele>297.0</ele><time>2026-05-02T14:37:39Z</time></trkpt><trkpt lat="45.65112757458665" lon="10.407027741654883"><ele>297.0</ele><time>2026-05-02T14:37:40Z</time></trkpt><trkpt lat="45.651204995356046" lon="10.406801426325849"><ele>298.0</ele><time>2026-05-02T14:37:41Z</time></trkpt><trkpt lat="45.65128121935603" lon="10.406568806963524"><ele>299.0</ele><time>2026-05-02T14:37:42Z</time></trkpt><trkpt lat="45.65135828282714" lon="10.406339154523785"><ele>300.0</ele><time>2026-05-02T14:37:43Z</time></trkpt><trkpt lat="45.651437204587474" lon="10.40610238069753"><ele>300.0</ele><time>2026-05-02T14:37:44Z</time></trkpt><trkpt lat="45.65151402224265" lon="10.405869308216518"><ele>300.0</ele><time>2026-05-02T14:37:45Z</time></trkpt><trkpt lat="45.65159427716248" lon="10.4056339203362"><ele>300.0</ele><time>2026-05-02T14:37:46Z</time></trkpt><trkpt lat="45.65167398203248" lon="10.405397170257634"><ele>300.3333333333333</ele><time>2026-05-02T14:37:47Z</time></trkpt><trkpt lat="45.65174970389574" lon="10.405168010848293"><ele>300.66666666666663</ele><time>2026-05-02T14:37:48Z</time></trkpt><trkpt lat="45.651827009269205" lon="10.404941356294968"><ele>301.0</ele><time>2026-05-02T14:37:49Z</time></trkpt><trkpt lat="45.65190299038376" lon="10.404711897568333"><ele>304.0</ele><time>2026-05-02T14:37:50Z</time></trkpt><trkpt lat="45.65197916459489" lon="10.404483791750419"><ele>307.0</ele><time>2026-05-02T14:37:51Z</time></trkpt><trkpt lat="45.65205618634545" lon="10.404247362451807"><ele>310.0</ele><time>2026-05-02T14:37:52Z</time></trkpt><trkpt lat="45.65212938346713" lon="10.40402230899144"><ele>308.66666666666663</ele><time>2026-05-02T14:37:53Z</time></trkpt><trkpt lat="45.65220437656591" lon="10.403804697282357"><ele>307.3333333333333</ele><time>2026-05-02T14:37:54Z</time></trkpt><trkpt lat="45.65228001652455" lon="10.403581627325936"><ele>306.0</ele><time>2026-05-02T14:37:55Z</time></trkpt><trkpt lat="45.6523542722716" lon="10.403356764696246"><ele>306.0</ele><time>2026-05-02T14:37:56Z</time></trkpt><trkpt lat="45.652428909498994" lon="10.403128568029887"><ele>306.0</ele><time>2026-05-02T14:37:57Z</time></trkpt><trkpt lat="45.65250476531132" lon="10.402901173691893"><ele>306.0</ele><time>2026-05-02T14:37:58Z</time></trkpt><trkpt lat="45.652582561047666" lon="10.402672699192438"><ele>305.3333333333333</ele><time>2026-05-02T14:37:59Z</time></trkpt><trkpt lat="45.65266013868147" lon="10.402438462055247"><ele>304.66666666666663</ele><time>2026-05-02T14:38:00Z</time></trkpt><trkpt lat="45.65273350732607" lon="10.402218020028787"><ele>304.0</ele><time>2026-05-02T14:38:01Z</time></trkpt><trkpt lat="45.652802689695285" lon="10.402008310912127"><ele>305.3333333333333</ele><time>2026-05-02T14:38:02Z</time></trkpt><trkpt lat="45.65287008822766" lon="10.40180434803097"><ele>306.6666666666667</ele><time>2026-05-02T14:38:03Z</time></trkpt><trkpt lat="45.652942513327766" lon="10.40159477931385"><ele>308.0</ele><time>2026-05-02T14:38:04Z</time></trkpt><trkpt lat="45.65301454104573" lon="10.401381698721451"><ele>307.33333333333337</ele><time>2026-05-02T14:38:05Z</time></trkpt><trkpt lat="45.653088137889426" lon="10.401162702149051"><ele>306.6666666666667</ele><time>2026-05-02T14:38:06Z</time></trkpt><trkpt lat="45.653161096551585" lon="10.400937119049052"><ele>306.0</ele><time>2026-05-02T14:38:07Z</time></trkpt><trkpt lat="45.65324117847793" lon="10.400706226792177"><ele>305.3333333333333</ele><time>2026-05-02T14:38:08Z</time></trkpt><trkpt lat="45.653322705716974" lon="10.400466601185189"><ele>304.66666666666663</ele><time>2026-05-02T14:38:09Z</time></trkpt><trkpt lat="45.65340236704956" lon="10.400221833853063"><ele>304.0</ele><time>2026-05-02T14:38:10Z</time></trkpt><trkpt lat="45.65347797902327" lon="10.39998606154972"><ele>304.0</ele><time>2026-05-02T14:38:11Z</time></trkpt><trkpt lat="45.65354930120856" lon="10.399762312255591"><ele>304.0</ele><time>2026-05-02T14:38:12Z</time></trkpt><trkpt lat="45.65361746901978" lon="10.399550466871506"><ele>304.0</ele><time>2026-05-02T14:38:13Z</time></trkpt><trkpt lat="45.65369166581457" lon="10.39933495610629"><ele>305.0</ele><time>2026-05-02T14:38:14Z</time></trkpt><trkpt lat="45.653767496284175" lon="10.399111899006744"><ele>306.0</ele><time>2026-05-02T14:38:15Z</time></trkpt><trkpt lat="45.653837605030226" lon="10.398885664053715"><ele>307.0</ele><time>2026-05-02T14:38:16Z</time></trkpt><trkpt lat="45.653909800924175" lon="10.398655099429853"><ele>307.0</ele><time>2026-05-02T14:38:17Z</time></trkpt><trkpt lat="45.65398869276545" lon="10.398433404398363"><ele>307.0</ele><time>2026-05-02T14:38:18Z</time></trkpt><trkpt lat="45.65407074263778" lon="10.398197318531185"><ele>307.0</ele><time>2026-05-02T14:38:19Z</time></trkpt><trkpt lat="45.6541477453772" lon="10.397962924410503"><ele>306.3333333333333</ele><time>2026-05-02T14:38:20Z</time></trkpt><trkpt lat="45.65422940132865" lon="10.397719236387474"><ele>305.6666666666667</ele><time>2026-05-02T14:38:21Z</time></trkpt><trkpt lat="45.65430902633959" lon="10.3974856418538"><ele>305.0</ele><time>2026-05-02T14:38:22Z</time></trkpt><trkpt lat="45.654383468735915" lon="10.39724980201674"><ele>306.6666666666667</ele><time>2026-05-02T14:38:23Z</time></trkpt><trkpt lat="45.654456376660676" lon="10.397005521341454"><ele>308.3333333333333</ele><time>2026-05-02T14:38:24Z</time></trkpt><trkpt lat="45.65452609779378" lon="10.39675463435471"><ele>310.0</ele><time>2026-05-02T14:38:25Z</time></trkpt><trkpt lat="45.65458861423045" lon="10.39650641235375"><ele>309.66666666666663</ele><time>2026-05-02T14:38:26Z</time></trkpt><trkpt lat="45.654643978152215" lon="10.39625137102214"><ele>309.3333333333333</ele><time>2026-05-02T14:38:27Z</time></trkpt><trkpt lat="45.654696400972554" lon="10.39598911646044"><ele>309.0</ele><time>2026-05-02T14:38:28Z</time></trkpt><trkpt lat="45.65474602398257" lon="10.395725041317139"><ele>308.6666666666667</ele><time>2026-05-02T14:38:29Z</time></trkpt><trkpt lat="45.654791054565685" lon="10.395457145615804"><ele>308.33333333333337</ele><time>2026-05-02T14:38:30Z</time></trkpt><trkpt lat="45.654828103006096" lon="10.395183938522994"><ele>308.0</ele><time>2026-05-02T14:38:31Z</time></trkpt><trkpt lat="45.654861138479525" lon="10.394911984010978"><ele>308.0</ele><time>2026-05-02T14:38:32Z</time></trkpt><trkpt lat="45.65489061471983" lon="10.394636729908829"><ele>308.0</ele><time>2026-05-02T14:38:33Z</time></trkpt><trkpt lat="45.65491532597315" lon="10.394353297768522"><ele>308.0</ele><time>2026-05-02T14:38:34Z</time></trkpt><trkpt lat="45.654935814539755" lon="10.394066770547308"><ele>309.0</ele><time>2026-05-02T14:38:35.001Z</time></trkpt><trkpt lat="45.65495134949448" lon="10.39376158467085"><ele>310.0</ele><time>2026-05-02T14:38:36.001Z</time></trkpt><trkpt lat="45.654953827378456" lon="10.393422209807307"><ele>310.0</ele><time>2026-05-02T14:38:37.001Z</time></trkpt><trkpt lat="45.654943235350935" lon="10.393075540049745"><ele>310.0</ele><time>2026-05-02T14:38:38.001Z</time></trkpt><trkpt lat="45.654952125851764" lon="10.392741237973885"><ele>311.0</ele><time>2026-05-02T14:38:39.001Z</time></trkpt><trkpt lat="45.654949170859936" lon="10.392412144008015"><ele>312.0</ele><time>2026-05-02T14:38:40.001Z</time></trkpt><trkpt lat="45.654946219962326" lon="10.3920835058153"><ele>312.0</ele><time>2026-05-02T14:38:41.001Z</time></trkpt><trkpt lat="45.65494322304726" lon="10.391749742850063"><ele>312.0</ele><time>2026-05-02T14:38:42.001Z</time></trkpt><trkpt lat="45.654924168654446" lon="10.391413431458604"><ele>310.5</ele><time>2026-05-02T14:38:43.001Z</time></trkpt><trkpt lat="45.654927599046246" lon="10.39108468032323"><ele>309.0</ele><time>2026-05-02T14:38:44.001Z</time></trkpt><trkpt lat="45.65493047551099" lon="10.390760702040424"><ele>309.3333333333333</ele><time>2026-05-02T14:38:45.001Z</time></trkpt><trkpt lat="45.65492980023273" lon="10.39044175063742"><ele>309.66666666666663</ele><time>2026-05-02T14:38:46.001Z</time></trkpt><trkpt lat="45.654923605767294" lon="10.390120425489501"><ele>310.0</ele><time>2026-05-02T14:38:47.001Z</time></trkpt><trkpt lat="45.65491974254269" lon="10.389806939482598"><ele>309.3333333333333</ele><time>2026-05-02T14:38:48.001Z</time></trkpt><trkpt lat="45.65491734110577" lon="10.3895173664942"><ele>308.6666666666667</ele><time>2026-05-02T14:38:49.001Z</time></trkpt><trkpt lat="45.654917611099464" lon="10.389234268227483"><ele>308.0</ele><time>2026-05-02T14:38:50.001Z</time></trkpt><trkpt lat="45.654915319208065" lon="10.38895528138471"><ele>307.6666666666667</ele><time>2026-05-02T14:38:51.001Z</time></trkpt><trkpt lat="45.654914034217974" lon="10.38869105421027"><ele>307.3333333333333</ele><time>2026-05-02T14:38:52.001Z</time></trkpt><trkpt lat="45.65491182155877" lon="10.388432312006747"><ele>307.0</ele><time>2026-05-02T14:38:53.001Z</time></trkpt><trkpt lat="45.65490845841735" lon="10.388192613860507"><ele>307.3333333333333</ele><time>2026-05-02T14:38:54.001Z</time></trkpt><trkpt lat="45.65490494997719" lon="10.387963074961053"><ele>307.6666666666667</ele><time>2026-05-02T14:38:55.001Z</time></trkpt><trkpt lat="45.654902002298144" lon="10.387746734184658"><ele>308.0</ele><time>2026-05-02T14:38:56.001Z</time></trkpt><trkpt lat="45.6549002215831" lon="10.38752269624515"><ele>308.0</ele><time>2026-05-02T14:38:57.001Z</time></trkpt><trkpt lat="45.65489982461995" lon="10.387293335268192"><ele>308.0</ele><time>2026-05-02T14:38:58.001Z</time></trkpt><trkpt lat="45.65489561708384" lon="10.387065465422902"><ele>308.0</ele><time>2026-05-02T14:38:59.001Z</time></trkpt><trkpt lat="45.6548905631173" lon="10.386853333471016"><ele>308.25</ele><time>2026-05-02T14:39:00.001Z</time></trkpt><trkpt lat="45.65488958210328" lon="10.386655260576985"><ele>308.5</ele><time>2026-05-02T14:39:01.001Z</time></trkpt><trkpt lat="45.654890090402866" lon="10.38646470283793"><ele>308.75</ele><time>2026-05-02T14:39:02.001Z</time></trkpt><trkpt lat="45.65489199043026" lon="10.386282283501309"><ele>309.0</ele><time>2026-05-02T14:39:03.001Z</time></trkpt><trkpt lat="45.65489347752707" lon="10.386107418732966"><ele>309.0</ele><time>2026-05-02T14:39:04.001Z</time></trkpt><trkpt lat="45.65489684544634" lon="10.385931717030989"><ele>309.0</ele><time>2026-05-02T14:39:05.001Z</time></trkpt><trkpt lat="45.65490169675953" lon="10.385758719264267"><ele>309.0</ele><time>2026-05-02T14:39:06.001Z</time></trkpt><trkpt lat="45.65490748878047" lon="10.385599798526469"><ele>309.0</ele><time>2026-05-02T14:39:07.001Z</time></trkpt><trkpt lat="45.65491202511682" lon="10.38545945709849"><ele>308.8333333333333</ele><time>2026-05-02T14:39:08.001Z</time></trkpt><trkpt lat="45.654917307675454" lon="10.385340471211016"><ele>308.6666666666667</ele><time>2026-05-02T14:39:09.001Z</time></trkpt><trkpt lat="45.65493275089402" lon="10.385230502327826"><ele>308.5</ele><time>2026-05-02T14:39:10.001Z</time></trkpt><trkpt lat="45.65497102676453" lon="10.385132580198277"><ele>308.33333333333337</ele><time>2026-05-02T14:39:11Z</time></trkpt><trkpt lat="45.655023383210654" lon="10.385060404740774"><ele>308.1666666666667</ele><time>2026-05-02T14:39:12Z</time></trkpt><trkpt lat="45.65506850911933" lon="10.384989749767529"><ele>308.0</ele><time>2026-05-02T14:39:13Z</time></trkpt><trkpt lat="45.655085621853125" lon="10.384886279936275"><ele>308.0</ele><time>2026-05-02T14:39:14Z</time></trkpt><trkpt lat="45.65507447808375" lon="10.384775941367698"><ele>308.0</ele><time>2026-05-02T14:39:15Z</time></trkpt><trkpt lat="45.65505002231864" lon="10.384672827641463"><ele>308.0</ele><time>2026-05-02T14:39:16Z</time></trkpt><trkpt lat="45.65502291083054" lon="10.384564702913362"><ele>308.0</ele><time>2026-05-02T14:39:17Z</time></trkpt><trkpt lat="45.65502883505813" lon="10.384412071658362"><ele>308.0</ele><time>2026-05-02T14:39:18Z</time></trkpt><trkpt lat="45.654954209235925" lon="10.384248280635061"><ele>307.75</ele><time>2026-05-02T14:39:19Z</time></trkpt><trkpt lat="45.654922025720325" lon="10.384064465151177"><ele>307.5</ele><time>2026-05-02T14:39:20Z</time></trkpt><trkpt lat="45.654893117134435" lon="10.383863178139551"><ele>307.25</ele><time>2026-05-02T14:39:21Z</time></trkpt><trkpt lat="45.654872931158124" lon="10.383666103218042"><ele>307.0</ele><time>2026-05-02T14:39:22Z</time></trkpt><trkpt lat="45.654864610468344" lon="10.383493196067302"><ele>307.4</ele><time>2026-05-02T14:39:23Z</time></trkpt><trkpt lat="45.65486267833734" lon="10.383350297162009"><ele>307.79999999999995</ele><time>2026-05-02T14:39:24Z</time></trkpt><trkpt lat="45.65486308088568" lon="10.383237738793843"><ele>308.2</ele><time>2026-05-02T14:39:25Z</time></trkpt><trkpt lat="45.65486154455174" lon="10.383127120776967"><ele>308.59999999999997</ele><time>2026-05-02T14:39:26Z</time></trkpt><trkpt lat="45.65486363038388" lon="10.383001025386731"><ele>309.0</ele><time>2026-05-02T14:39:27Z</time></trkpt><trkpt lat="45.65486175472628" lon="10.382837356588649"><ele>309.5</ele><time>2026-05-02T14:39:28Z</time></trkpt><trkpt lat="45.65485878808116" lon="10.382654843046028"><ele>310.0</ele><time>2026-05-02T14:39:29Z</time></trkpt><trkpt lat="45.65485568205781" lon="10.382448104206103"><ele>310.5</ele><time>2026-05-02T14:39:30Z</time></trkpt><trkpt lat="45.65485651558096" lon="10.38222911213953"><ele>311.0</ele><time>2026-05-02T14:39:31Z</time></trkpt><trkpt lat="45.65485764705456" lon="10.38199857730611"><ele>311.0</ele><time>2026-05-02T14:39:32Z</time></trkpt><trkpt lat="45.65486413751746" lon="10.381765244164399"><ele>311.0</ele><time>2026-05-02T14:39:33Z</time></trkpt><trkpt lat="45.65487705462979" lon="10.381533790213668"><ele>311.0</ele><time>2026-05-02T14:39:34Z</time></trkpt><trkpt lat="45.65489837979416" lon="10.381305003625904"><ele>311.0</ele><time>2026-05-02T14:39:35Z</time></trkpt><trkpt lat="45.65492715437515" lon="10.381055623770449"><ele>311.0</ele><time>2026-05-02T14:39:36Z</time></trkpt><trkpt lat="45.654961550360746" lon="10.380798534975053"><ele>311.0</ele><time>2026-05-02T14:39:37Z</time></trkpt><trkpt lat="45.655002579786974" lon="10.380540495131743"><ele>311.6666666666667</ele><time>2026-05-02T14:39:38Z</time></trkpt><trkpt lat="45.655051380848604" lon="10.380289469515844"><ele>312.3333333333333</ele><time>2026-05-02T14:39:39Z</time></trkpt><trkpt lat="45.65511042460501" lon="10.380035301254434"><ele>313.0</ele><time>2026-05-02T14:39:40Z</time></trkpt><trkpt lat="45.655178680526504" lon="10.379782228879753"><ele>313.3333333333333</ele><time>2026-05-02T14:39:41Z</time></trkpt><trkpt lat="45.65525455851713" lon="10.37952691133712"><ele>313.6666666666667</ele><time>2026-05-02T14:39:42Z</time></trkpt><trkpt lat="45.65533180388829" lon="10.379277710037739"><ele>314.0</ele><time>2026-05-02T14:39:43Z</time></trkpt><trkpt lat="45.65540897257174" lon="10.379035752714657"><ele>314.6666666666667</ele><time>2026-05-02T14:39:44Z</time></trkpt><trkpt lat="45.65548673043856" lon="10.378797074844266"><ele>315.3333333333333</ele><time>2026-05-02T14:39:45Z</time></trkpt><trkpt lat="45.65556014253977" lon="10.378558086241057"><ele>316.0</ele><time>2026-05-02T14:39:46Z</time></trkpt><trkpt lat="45.65563666625471" lon="10.378314203875806"><ele>316.0</ele><time>2026-05-02T14:39:47Z</time></trkpt><trkpt lat="45.655712827852334" lon="10.378065871877842"><ele>316.0</ele><time>2026-05-02T14:39:48Z</time></trkpt><trkpt lat="45.655788621835484" lon="10.37781953867603"><ele>316.0</ele><time>2026-05-02T14:39:49Z</time></trkpt><trkpt lat="45.65586103551041" lon="10.377561769974685"><ele>315.66666666666663</ele><time>2026-05-02T14:39:50Z</time></trkpt><trkpt lat="45.655918119318585" lon="10.377292571485466"><ele>315.3333333333333</ele><time>2026-05-02T14:39:51Z</time></trkpt><trkpt lat="45.655960257752646" lon="10.37700896247522"><ele>315.0</ele><time>2026-05-02T14:39:52Z</time></trkpt><trkpt lat="45.65598775967068" lon="10.376722255653428"><ele>315.0</ele><time>2026-05-02T14:39:53Z</time></trkpt><trkpt lat="45.65599838155393" lon="10.376448237120403"><ele>315.0</ele><time>2026-05-02T14:39:54Z</time></trkpt><trkpt lat="45.65599515756891" lon="10.376174920165422"><ele>315.0</ele><time>2026-05-02T14:39:55Z</time></trkpt><trkpt lat="45.65597577890784" lon="10.375897040061794"><ele>314.6666666666667</ele><time>2026-05-02T14:39:56Z</time></trkpt><trkpt lat="45.65593485661652" lon="10.375624004810897"><ele>314.33333333333337</ele><time>2026-05-02T14:39:57Z</time></trkpt><trkpt lat="45.65587863619141" lon="10.375359322226457"><ele>314.0</ele><time>2026-05-02T14:39:58Z</time></trkpt><trkpt lat="45.65580190470672" lon="10.375092672564687"><ele>314.0</ele><time>2026-05-02T14:39:59Z</time></trkpt><trkpt lat="45.65571298316188" lon="10.374832070141094"><ele>314.0</ele><time>2026-05-02T14:40:00Z</time></trkpt><trkpt lat="45.65561444886965" lon="10.374580634883337"><ele>314.0</ele><time>2026-05-02T14:40:01Z</time></trkpt><trkpt lat="45.65550874953406" lon="10.3743260916879"><ele>314.6666666666667</ele><time>2026-05-02T14:40:02Z</time></trkpt><trkpt lat="45.65540165594987" lon="10.374070496655023"><ele>315.3333333333333</ele><time>2026-05-02T14:40:03Z</time></trkpt><trkpt lat="45.655293781001475" lon="10.37380332143363"><ele>316.0</ele><time>2026-05-02T14:40:04Z</time></trkpt><trkpt lat="45.65518918719437" lon="10.373536601331356"><ele>316.3333333333333</ele><time>2026-05-02T14:40:05Z</time></trkpt><trkpt lat="45.6550827243637" lon="10.373261539712308"><ele>316.6666666666667</ele><time>2026-05-02T14:40:06Z</time></trkpt><trkpt lat="45.65497017363591" lon="10.372978803344244"><ele>317.0</ele><time>2026-05-02T14:40:07Z</time></trkpt><trkpt lat="45.654856096720614" lon="10.37269353938652"><ele>317.5</ele><time>2026-05-02T14:40:08Z</time></trkpt><trkpt lat="45.65474731494513" lon="10.37241046407104"><ele>318.0</ele><time>2026-05-02T14:40:09Z</time></trkpt><trkpt lat="45.65463454309957" lon="10.372121527818368"><ele>318.5</ele><time>2026-05-02T14:40:10Z</time></trkpt><trkpt lat="45.65452250384006" lon="10.371841496904398"><ele>319.0</ele><time>2026-05-02T14:40:11Z</time></trkpt><trkpt lat="45.654408566964825" lon="10.371556498358618"><ele>322.0</ele><time>2026-05-02T14:40:12Z</time></trkpt><trkpt lat="45.654295390336735" lon="10.371271434547758"><ele>325.0</ele><time>2026-05-02T14:40:13Z</time></trkpt><trkpt lat="45.654188916786545" lon="10.370998368737043"><ele>328.0</ele><time>2026-05-02T14:40:14Z</time></trkpt><trkpt lat="45.65408902568516" lon="10.370745408481303"><ele>327.3333333333333</ele><time>2026-05-02T14:40:15Z</time></trkpt><trkpt lat="45.653995135145514" lon="10.370503401285337"><ele>326.6666666666667</ele><time>2026-05-02T14:40:16Z</time></trkpt><trkpt lat="45.65390172958572" lon="10.37026153550192"><ele>326.0</ele><time>2026-05-02T14:40:17Z</time></trkpt><trkpt lat="45.65380598339578" lon="10.37002031030302"><ele>326.0</ele><time>2026-05-02T14:40:18Z</time></trkpt><trkpt lat="45.65370855022894" lon="10.369778210094172"><ele>326.0</ele><time>2026-05-02T14:40:19Z</time></trkpt><trkpt lat="45.65361470095941" lon="10.369541132055256"><ele>326.0</ele><time>2026-05-02T14:40:20Z</time></trkpt><trkpt lat="45.6535228124086" lon="10.369302276671732"><ele>327.6666666666667</ele><time>2026-05-02T14:40:21Z</time></trkpt><trkpt lat="45.653426053273044" lon="10.36905848969605"><ele>329.3333333333333</ele><time>2026-05-02T14:40:22Z</time></trkpt><trkpt lat="45.65332639715323" lon="10.368811103881852"><ele>331.0</ele><time>2026-05-02T14:40:23Z</time></trkpt><trkpt lat="45.65322916164683" lon="10.368562940380228"><ele>331.0</ele><time>2026-05-02T14:40:24Z</time></trkpt><trkpt lat="45.653122589522575" lon="10.368314365166336"><ele>331.0</ele><time>2026-05-02T14:40:25Z</time></trkpt><trkpt lat="45.65300199521474" lon="10.36807928482844"><ele>331.0</ele><time>2026-05-02T14:40:26Z</time></trkpt><trkpt lat="45.65287118719881" lon="10.367877785898385"><ele>334.66666666666663</ele><time>2026-05-02T14:40:27Z</time></trkpt><trkpt lat="45.652730988741204" lon="10.367703186497128"><ele>338.3333333333333</ele><time>2026-05-02T14:40:28Z</time></trkpt><trkpt lat="45.65257994328916" lon="10.367558541819086"><ele>342.0</ele><time>2026-05-02T14:40:29Z</time></trkpt><trkpt lat="45.65241674985119" lon="10.367432915196924"><ele>342.0</ele><time>2026-05-02T14:40:30Z</time></trkpt><trkpt lat="45.65224439928062" lon="10.367324587444402"><ele>342.0</ele><time>2026-05-02T14:40:31Z</time></trkpt><trkpt lat="45.65206727640183" lon="10.367242370848345"><ele>342.0</ele><time>2026-05-02T14:40:32Z</time></trkpt><trkpt lat="45.651885109915206" lon="10.367186854043476"><ele>340.6666666666667</ele><time>2026-05-02T14:40:33Z</time></trkpt><trkpt lat="45.65170272347644" lon="10.36716081061844"><ele>339.33333333333337</ele><time>2026-05-02T14:40:34Z</time></trkpt><trkpt lat="45.65151925443285" lon="10.367160619388399"><ele>338.0</ele><time>2026-05-02T14:40:35Z</time></trkpt><trkpt lat="45.65133082413096" lon="10.367146326271744"><ele>338.0</ele><time>2026-05-02T14:40:36Z</time></trkpt><trkpt lat="45.65113386463865" lon="10.367162148908145"><ele>338.0</ele><time>2026-05-02T14:40:37Z</time></trkpt><trkpt lat="45.65093387675032" lon="10.36718118544459"><ele>338.0</ele><time>2026-05-02T14:40:38Z</time></trkpt><trkpt lat="45.65073200660952" lon="10.367203293545321"><ele>341.6666666666667</ele><time>2026-05-02T14:40:39Z</time></trkpt><trkpt lat="45.65054193548684" lon="10.367247685015357"><ele>345.3333333333333</ele><time>2026-05-02T14:40:40Z</time></trkpt><trkpt lat="45.650360932325356" lon="10.367270130891882"><ele>349.0</ele><time>2026-05-02T14:40:41Z</time></trkpt><trkpt lat="45.65018208775279" lon="10.367304750179539"><ele>349.0</ele><time>2026-05-02T14:40:42Z</time></trkpt><trkpt lat="45.64999776827743" lon="10.367365656830302"><ele>349.0</ele><time>2026-05-02T14:40:43Z</time></trkpt><trkpt lat="45.649816390961085" lon="10.367453507243436"><ele>349.0</ele><time>2026-05-02T14:40:44.001Z</time></trkpt><trkpt lat="45.64963762431896" lon="10.367582026582266"><ele>349.3333333333333</ele><time>2026-05-02T14:40:45.001Z</time></trkpt><trkpt lat="45.64945634438143" lon="10.367736694285425"><ele>349.6666666666667</ele><time>2026-05-02T14:40:46.001Z</time></trkpt><trkpt lat="45.649278953393356" lon="10.367898105487177"><ele>350.0</ele><time>2026-05-02T14:40:47.001Z</time></trkpt><trkpt lat="45.64910776291421" lon="10.3680605429312"><ele>350.0</ele><time>2026-05-02T14:40:48.001Z</time></trkpt><trkpt lat="45.64893212868912" lon="10.36822503552862"><ele>350.0</ele><time>2026-05-02T14:40:49.001Z</time></trkpt><trkpt lat="45.64876128168582" lon="10.368390319517218"><ele>350.0</ele><time>2026-05-02T14:40:50.001Z</time></trkpt><trkpt lat="45.6485794864748" lon="10.368530649848777"><ele>350.6666666666667</ele><time>2026-05-02T14:40:51.001Z</time></trkpt><trkpt lat="45.64841583921776" lon="10.368680659837386"><ele>351.3333333333333</ele><time>2026-05-02T14:40:52.001Z</time></trkpt><trkpt lat="45.648252801387855" lon="10.36883000919824"><ele>352.0</ele><time>2026-05-02T14:40:53.001Z</time></trkpt><trkpt lat="45.648092039362915" lon="10.368977836593727"><ele>353.0</ele><time>2026-05-02T14:40:54.001Z</time></trkpt><trkpt lat="45.64793241487138" lon="10.369124802422123"><ele>354.0</ele><time>2026-05-02T14:40:55.001Z</time></trkpt><trkpt lat="45.64777544081996" lon="10.369269116689551"><ele>355.0</ele><time>2026-05-02T14:40:56.001Z</time></trkpt><trkpt lat="45.647620882264654" lon="10.36941104149881"><ele>356.0</ele><time>2026-05-02T14:40:57.001Z</time></trkpt><trkpt lat="45.64746213843858" lon="10.369557257394671"><ele>357.0</ele><time>2026-05-02T14:40:58.001Z</time></trkpt><trkpt lat="45.64730938461192" lon="10.369697956159813"><ele>358.0</ele><time>2026-05-02T14:40:59.001Z</time></trkpt><trkpt lat="45.64715771434191" lon="10.36983765729599"><ele>358.0</ele><time>2026-05-02T14:41:00.001Z</time></trkpt><trkpt lat="45.64700108698033" lon="10.369981547303205"><ele>358.0</ele><time>2026-05-02T14:41:01.001Z</time></trkpt><trkpt lat="45.64684517868304" lon="10.370123319094096"><ele>358.0</ele><time>2026-05-02T14:41:02.001Z</time></trkpt><trkpt lat="45.646688168342294" lon="10.37026592404601"><ele>358.66666666666663</ele><time>2026-05-02T14:41:03.001Z</time></trkpt><trkpt lat="45.64653419923278" lon="10.37040239884477"><ele>359.3333333333333</ele><time>2026-05-02T14:41:04.001Z</time></trkpt><trkpt lat="45.6463826332972" lon="10.370536743317935"><ele>360.0</ele><time>2026-05-02T14:41:05.001Z</time></trkpt><trkpt lat="45.64623195355037" lon="10.370668763367343"><ele>363.0</ele><time>2026-05-02T14:41:06.001Z</time></trkpt><trkpt lat="45.64607975803263" lon="10.370802091160318"><ele>366.0</ele><time>2026-05-02T14:41:07.001Z</time></trkpt><trkpt lat="45.645927656338756" lon="10.37093465904099"><ele>369.0</ele><time>2026-05-02T14:41:08.001Z</time></trkpt><trkpt lat="45.64577652043687" lon="10.371065744863897"><ele>369.0</ele><time>2026-05-02T14:41:09.001Z</time></trkpt><trkpt lat="45.645618916331884" lon="10.371200320022938"><ele>369.0</ele><time>2026-05-02T14:41:10.001Z</time></trkpt><trkpt lat="45.64546623749185" lon="10.371330566338687"><ele>369.0</ele><time>2026-05-02T14:41:11.001Z</time></trkpt><trkpt lat="45.645322259385466" lon="10.371479063242843"><ele>370.6666666666667</ele><time>2026-05-02T14:41:12.001Z</time></trkpt><trkpt lat="45.64517391227144" lon="10.37160335611629"><ele>372.33333333333337</ele><time>2026-05-02T14:41:13.001Z</time></trkpt><trkpt lat="45.64502784867201" lon="10.371727088202872"><ele>374.0</ele><time>2026-05-02T14:41:14.001Z</time></trkpt><trkpt lat="45.644887067097166" lon="10.371844340128153"><ele>374.0</ele><time>2026-05-02T14:41:15.001Z</time></trkpt><trkpt lat="45.64474656771723" lon="10.37196374682229"><ele>374.0</ele><time>2026-05-02T14:41:16.001Z</time></trkpt><trkpt lat="45.644603938423074" lon="10.372085807011075"><ele>374.0</ele><time>2026-05-02T14:41:17Z</time></trkpt><trkpt lat="45.64445854083487" lon="10.372213093010417"><ele>376.6666666666667</ele><time>2026-05-02T14:41:18Z</time></trkpt><trkpt lat="45.644316516439766" lon="10.372333706938395"><ele>379.3333333333333</ele><time>2026-05-02T14:41:19Z</time></trkpt><trkpt lat="45.644162127870516" lon="10.372435805171541"><ele>382.0</ele><time>2026-05-02T14:41:20Z</time></trkpt><trkpt lat="45.64401440828014" lon="10.372558652905745"><ele>382.0</ele><time>2026-05-02T14:41:21Z</time></trkpt><trkpt lat="45.64386836144189" lon="10.372679938978806"><ele>382.0</ele><time>2026-05-02T14:41:22Z</time></trkpt><trkpt lat="45.643724403715844" lon="10.372799413158527"><ele>382.0</ele><time>2026-05-02T14:41:23Z</time></trkpt><trkpt lat="45.6435796707578" lon="10.372919577768279"><ele>382.0</ele><time>2026-05-02T14:41:24Z</time></trkpt><trkpt lat="45.64343279544092" lon="10.373044381069123"><ele>382.0</ele><time>2026-05-02T14:41:25Z</time></trkpt><trkpt lat="45.64328875685755" lon="10.373190560541154"><ele>382.0</ele><time>2026-05-02T14:41:26Z</time></trkpt><trkpt lat="45.6431351261848" lon="10.373318751372723"><ele>382.0</ele><time>2026-05-02T14:41:27Z</time></trkpt><trkpt lat="45.642974949418964" lon="10.373435218829817"><ele>382.0</ele><time>2026-05-02T14:41:28Z</time></trkpt><trkpt lat="45.64283649447326" lon="10.373577941141011"><ele>382.0</ele><time>2026-05-02T14:41:29Z</time></trkpt><trkpt lat="45.642699808002455" lon="10.37368685953723"><ele>382.0</ele><time>2026-05-02T14:41:30Z</time></trkpt><trkpt lat="45.64257857800791" lon="10.37378535149333"><ele>382.0</ele><time>2026-05-02T14:41:31Z</time></trkpt><trkpt lat="45.64246278779426" lon="10.3738781538523"><ele>382.0</ele><time>2026-05-02T14:41:32Z</time></trkpt><trkpt lat="45.64235700392112" lon="10.37396110134529"><ele>382.0</ele><time>2026-05-02T14:41:33Z</time></trkpt><trkpt lat="45.642264729692506" lon="10.374031758624895"><ele>382.0</ele><time>2026-05-02T14:41:34Z</time></trkpt><trkpt lat="45.64217141308184" lon="10.374088402053415"><ele>382.0</ele><time>2026-05-02T14:41:35Z</time></trkpt><trkpt lat="45.64208233637954" lon="10.3741361004212"><ele>382.0</ele><time>2026-05-02T14:41:36Z</time></trkpt><trkpt lat="45.64198078644978" lon="10.374180746959038"><ele>382.0</ele><time>2026-05-02T14:41:37Z</time></trkpt><trkpt lat="45.64188755087062" lon="10.374263395540458"><ele>382.0</ele><time>2026-05-02T14:41:38Z</time></trkpt><trkpt lat="45.64180268231897" lon="10.374371451908221"><ele>382.20000000000005</ele><time>2026-05-02T14:41:39Z</time></trkpt><trkpt lat="45.64171824611881" lon="10.374462480098202"><ele>382.4</ele><time>2026-05-02T14:41:40Z</time></trkpt><trkpt lat="45.64162401315454" lon="10.37452048996139"><ele>382.6</ele><time>2026-05-02T14:41:41Z</time></trkpt><trkpt lat="45.64150794866364" lon="10.374546996982806"><ele>382.79999999999995</ele><time>2026-05-02T14:41:42Z</time></trkpt><trkpt lat="45.641386651933495" lon="10.374544098306217"><ele>383.0</ele><time>2026-05-02T14:41:43Z</time></trkpt><trkpt lat="45.641264179894776" lon="10.374519243799053"><ele>383.0</ele><time>2026-05-02T14:41:44Z</time></trkpt><trkpt lat="45.64114497755396" lon="10.374445715575481"><ele>383.0</ele><time>2026-05-02T14:41:45Z</time></trkpt><trkpt lat="45.64101944976627" lon="10.374399031682138"><ele>383.0</ele><time>2026-05-02T14:41:46Z</time></trkpt><trkpt lat="45.640899826461926" lon="10.374372079548568"><ele>383.0</ele><time>2026-05-02T14:41:47Z</time></trkpt><trkpt lat="45.6407956201581" lon="10.374324390008915"><ele>383.0</ele><time>2026-05-02T14:41:48Z</time></trkpt><trkpt lat="45.64068008045153" lon="10.37428995983195"><ele>383.0</ele><time>2026-05-02T14:41:49Z</time></trkpt><trkpt lat="45.640555846689814" lon="10.37426002156491"><ele>383.0</ele><time>2026-05-02T14:41:50Z</time></trkpt><trkpt lat="45.64042410083255" lon="10.374244168399862"><ele>383.0</ele><time>2026-05-02T14:41:51Z</time></trkpt><trkpt lat="45.64029374691406" lon="10.374254408106484"><ele>384.25</ele><time>2026-05-02T14:41:52Z</time></trkpt><trkpt lat="45.6401781276259" lon="10.374256087721584"><ele>385.5</ele><time>2026-05-02T14:41:53Z</time></trkpt><trkpt lat="45.64005801260169" lon="10.37427266454969"><ele>386.75</ele><time>2026-05-02T14:41:54Z</time></trkpt><trkpt lat="45.63993526503446" lon="10.374280113092366"><ele>388.0</ele><time>2026-05-02T14:41:55Z</time></trkpt><trkpt lat="45.63981438306069" lon="10.37428954129527"><ele>388.0</ele><time>2026-05-02T14:41:56Z</time></trkpt><trkpt lat="45.63968027981341" lon="10.374294307120008"><ele>388.0</ele><time>2026-05-02T14:41:57Z</time></trkpt><trkpt lat="45.63955282840537" lon="10.374301056545788"><ele>388.0</ele><time>2026-05-02T14:41:58Z</time></trkpt><trkpt lat="45.639419547669846" lon="10.374293940643195"><ele>388.0</ele><time>2026-05-02T14:41:59Z</time></trkpt><trkpt lat="45.63928252279978" lon="10.374279826100729"><ele>387.75</ele><time>2026-05-02T14:42:00Z</time></trkpt><trkpt lat="45.63914667648126" lon="10.374213959963136"><ele>387.5</ele><time>2026-05-02T14:42:01Z</time></trkpt><trkpt lat="45.6390065284171" lon="10.37417504348822"><ele>387.25</ele><time>2026-05-02T14:42:02Z</time></trkpt><trkpt lat="45.63887422521896" lon="10.374107576324526"><ele>387.0</ele><time>2026-05-02T14:42:03Z</time></trkpt><trkpt lat="45.638739874980494" lon="10.374039238630983"><ele>388.0</ele><time>2026-05-02T14:42:04Z</time></trkpt><trkpt lat="45.63860682728789" lon="10.37397857238357"><ele>389.0</ele><time>2026-05-02T14:42:05Z</time></trkpt><trkpt lat="45.638480393245736" lon="10.373933582450796"><ele>390.0</ele><time>2026-05-02T14:42:06Z</time></trkpt><trkpt lat="45.63836252416078" lon="10.373912483258293"><ele>391.0</ele><time>2026-05-02T14:42:07Z</time></trkpt><trkpt lat="45.638230803871075" lon="10.373912030793319"><ele>391.0</ele><time>2026-05-02T14:42:08Z</time></trkpt><trkpt lat="45.63809627999104" lon="10.37391671178866"><ele>391.0</ele><time>2026-05-02T14:42:09Z</time></trkpt><trkpt lat="45.63796917263179" lon="10.373924991828773"><ele>391.0</ele><time>2026-05-02T14:42:10Z</time></trkpt><trkpt lat="45.6378419593065" lon="10.373929752910392"><ele>391.0</ele><time>2026-05-02T14:42:11Z</time></trkpt><trkpt lat="45.637714594363935" lon="10.373927580893566"><ele>391.25</ele><time>2026-05-02T14:42:12Z</time></trkpt><trkpt lat="45.6375905145484" lon="10.373925388943439"><ele>391.5</ele><time>2026-05-02T14:42:13Z</time></trkpt><trkpt lat="45.637463878459634" lon="10.373919086532489"><ele>391.75</ele><time>2026-05-02T14:42:14Z</time></trkpt><trkpt lat="45.63733580666596" lon="10.373927558646573"><ele>392.0</ele><time>2026-05-02T14:42:15Z</time></trkpt><trkpt lat="45.63720281424148" lon="10.373931841049503"><ele>392.0</ele><time>2026-05-02T14:42:16Z</time></trkpt><trkpt lat="45.63706808449421" lon="10.37394127480047"><ele>392.0</ele><time>2026-05-02T14:42:17Z</time></trkpt><trkpt lat="45.63693441870207" lon="10.373958393725076"><ele>392.0</ele><time>2026-05-02T14:42:18Z</time></trkpt><trkpt lat="45.63680422940393" lon="10.373977249415494"><ele>392.0</ele><time>2026-05-02T14:42:19Z</time></trkpt><trkpt lat="45.63667458403193" lon="10.374000900780016"><ele>392.5</ele><time>2026-05-02T14:42:20Z</time></trkpt><trkpt lat="45.636545415537675" lon="10.374019499455214"><ele>393.0</ele><time>2026-05-02T14:42:21Z</time></trkpt><trkpt lat="45.636421290481096" lon="10.374040908859374"><ele>393.5</ele><time>2026-05-02T14:42:22Z</time></trkpt><trkpt lat="45.63630322381029" lon="10.374065017995386"><ele>394.0</ele><time>2026-05-02T14:42:23Z</time></trkpt><trkpt lat="45.63618357741367" lon="10.374083740741305"><ele>393.5</ele><time>2026-05-02T14:42:24Z</time></trkpt><trkpt lat="45.63605548025429" lon="10.37410389323025"><ele>393.0</ele><time>2026-05-02T14:42:25Z</time></trkpt><trkpt lat="45.63592140488099" lon="10.374127674822448"><ele>392.5</ele><time>2026-05-02T14:42:26Z</time></trkpt><trkpt lat="45.63578257990081" lon="10.37415725753898"><ele>392.0</ele><time>2026-05-02T14:42:27Z</time></trkpt><trkpt lat="45.63564964209565" lon="10.374182396993033"><ele>392.0</ele><time>2026-05-02T14:42:28Z</time></trkpt><trkpt lat="45.635513044253734" lon="10.374210137564594"><ele>392.0</ele><time>2026-05-02T14:42:29Z</time></trkpt><trkpt lat="45.635373330597574" lon="10.374242230543611"><ele>392.0</ele><time>2026-05-02T14:42:30Z</time></trkpt><trkpt lat="45.635230903039734" lon="10.37427327536748"><ele>392.0</ele><time>2026-05-02T14:42:31Z</time></trkpt><trkpt lat="45.63508616409087" lon="10.374303264740174"><ele>392.25</ele><time>2026-05-02T14:42:32Z</time></trkpt><trkpt lat="45.63494004771186" lon="10.374334889573086"><ele>392.5</ele><time>2026-05-02T14:42:33Z</time></trkpt><trkpt lat="45.63479278355717" lon="10.374363470256359"><ele>392.75</ele><time>2026-05-02T14:42:34Z</time></trkpt><trkpt lat="45.63464916941361" lon="10.374391406438283"><ele>393.0</ele><time>2026-05-02T14:42:35Z</time></trkpt><trkpt lat="45.634517945876055" lon="10.374408141511372"><ele>394.0</ele><time>2026-05-02T14:42:36Z</time></trkpt><trkpt lat="45.63439305336738" lon="10.374429809555775"><ele>395.0</ele><time>2026-05-02T14:42:37Z</time></trkpt><trkpt lat="45.6342646411028" lon="10.374449010597454"><ele>396.0</ele><time>2026-05-02T14:42:38Z</time></trkpt><trkpt lat="45.63413576006542" lon="10.374476882784297"><ele>397.0</ele><time>2026-05-02T14:42:39Z</time></trkpt><trkpt lat="45.634010144563945" lon="10.374507303597463"><ele>397.0</ele><time>2026-05-02T14:42:40Z</time></trkpt><trkpt lat="45.633886495946285" lon="10.374533590071582"><ele>397.0</ele><time>2026-05-02T14:42:41Z</time></trkpt><trkpt lat="45.63375759601448" lon="10.374557956441155"><ele>397.0</ele><time>2026-05-02T14:42:42Z</time></trkpt><trkpt lat="45.633630795131765" lon="10.374578100937313"><ele>397.0</ele><time>2026-05-02T14:42:43Z</time></trkpt><trkpt lat="45.633506068271025" lon="10.374600209562294"><ele>397.0</ele><time>2026-05-02T14:42:44Z</time></trkpt><trkpt lat="45.63338143101354" lon="10.374619242109713"><ele>397.0</ele><time>2026-05-02T14:42:45Z</time></trkpt><trkpt lat="45.63325820572128" lon="10.374634811499087"><ele>397.0</ele><time>2026-05-02T14:42:46Z</time></trkpt><trkpt lat="45.63313063591796" lon="10.374644015722758"><ele>397.0</ele><time>2026-05-02T14:42:47Z</time></trkpt><trkpt lat="45.633002570116425" lon="10.374644470975444"><ele>397.0</ele><time>2026-05-02T14:42:48Z</time></trkpt><trkpt lat="45.63287267688962" lon="10.374620466962366"><ele>397.0</ele><time>2026-05-02T14:42:49.001Z</time></trkpt><trkpt lat="45.63274577264139" lon="10.374572582726358"><ele>397.0</ele><time>2026-05-02T14:42:50.001Z</time></trkpt><trkpt lat="45.63261992469331" lon="10.374505370187341"><ele>397.0</ele><time>2026-05-02T14:42:51.001Z</time></trkpt><trkpt lat="45.632496913667126" lon="10.37442178096211"><ele>398.5</ele><time>2026-05-02T14:42:52.001Z</time></trkpt><trkpt lat="45.63238003258332" lon="10.37433350342507"><ele>400.0</ele><time>2026-05-02T14:42:53.001Z</time></trkpt><trkpt lat="45.632259928088295" lon="10.37424517894438"><ele>401.5</ele><time>2026-05-02T14:42:54.001Z</time></trkpt><trkpt lat="45.632142271284316" lon="10.374161483413749"><ele>403.0</ele><time>2026-05-02T14:42:55.001Z</time></trkpt><trkpt lat="45.632028790873136" lon="10.37407959743081"><ele>403.75</ele><time>2026-05-02T14:42:56.001Z</time></trkpt><trkpt lat="45.63191954165481" lon="10.373997653521586"><ele>404.5</ele><time>2026-05-02T14:42:57.001Z</time></trkpt><trkpt lat="45.63180858737263" lon="10.373914196460882"><ele>405.25</ele><time>2026-05-02T14:42:58.001Z</time></trkpt><trkpt lat="45.631703325446445" lon="10.373837992096949"><ele>406.0</ele><time>2026-05-02T14:42:59.001Z</time></trkpt><trkpt lat="45.63159404883873" lon="10.373772282771267"><ele>409.75</ele><time>2026-05-02T14:43:00.001Z</time></trkpt><trkpt lat="45.63147640674416" lon="10.373733566522915"><ele>413.5</ele><time>2026-05-02T14:43:01.001Z</time></trkpt><trkpt lat="45.63136055848301" lon="10.373733936723971"><ele>417.25</ele><time>2026-05-02T14:43:02.001Z</time></trkpt><trkpt lat="45.63124563700382" lon="10.373775731437696"><ele>421.0</ele><time>2026-05-02T14:43:03.001Z</time></trkpt><trkpt lat="45.63113396732927" lon="10.373844077280191"><ele>419.5</ele><time>2026-05-02T14:43:04.001Z</time></trkpt><trkpt lat="45.63102679975944" lon="10.373914709419555"><ele>418.0</ele><time>2026-05-02T14:43:05.001Z</time></trkpt><trkpt lat="45.63091954670554" lon="10.373986235540102"><ele>416.5</ele><time>2026-05-02T14:43:06.001Z</time></trkpt><trkpt lat="45.63081108602828" lon="10.374057284220484"><ele>415.0</ele><time>2026-05-02T14:43:07.001Z</time></trkpt><trkpt lat="45.630702623463606" lon="10.37413260035125"><ele>415.0</ele><time>2026-05-02T14:43:08.001Z</time></trkpt><trkpt lat="45.63059021342521" lon="10.37419211628576"><ele>415.0</ele><time>2026-05-02T14:43:09.001Z</time></trkpt><trkpt lat="45.630482297410836" lon="10.374273017217064"><ele>415.0</ele><time>2026-05-02T14:43:10.001Z</time></trkpt><trkpt lat="45.63037834738902" lon="10.374359550404215"><ele>415.0</ele><time>2026-05-02T14:43:11.001Z</time></trkpt><trkpt lat="45.63027867469111" lon="10.37444885908844"><ele>418.0</ele><time>2026-05-02T14:43:12.001Z</time></trkpt><trkpt lat="45.63018385751105" lon="10.374531185875021"><ele>421.0</ele><time>2026-05-02T14:43:13.001Z</time></trkpt><trkpt lat="45.630089647278965" lon="10.37459576961714"><ele>424.0</ele><time>2026-05-02T14:43:14.001Z</time></trkpt><trkpt lat="45.62999894599253" lon="10.374637311440106"><ele>427.0</ele><time>2026-05-02T14:43:15.001Z</time></trkpt><trkpt lat="45.62989689716243" lon="10.374641202503152"><ele>430.0</ele><time>2026-05-02T14:43:16.001Z</time></trkpt><trkpt lat="45.6298029245375" lon="10.37457512493839"><ele>430.0</ele><time>2026-05-02T14:43:17.001Z</time></trkpt><trkpt lat="45.62971072464332" lon="10.374449932910725"><ele>430.0</ele><time>2026-05-02T14:43:18.001Z</time></trkpt><trkpt lat="45.62962132613902" lon="10.374303407697479"><ele>430.0</ele><time>2026-05-02T14:43:19.001Z</time></trkpt><trkpt lat="45.62953522437848" lon="10.374177461033371"><ele>430.0</ele><time>2026-05-02T14:43:20.001Z</time></trkpt><trkpt lat="45.629434243788516" lon="10.374056801075815"><ele>430.0</ele><time>2026-05-02T14:43:21.001Z</time></trkpt><trkpt lat="45.6293241829985" lon="10.373955006426192"><ele>430.0</ele><time>2026-05-02T14:43:22.001Z</time></trkpt><trkpt lat="45.62921385414361" lon="10.373853550958408"><ele>430.0</ele><time>2026-05-02T14:43:23Z</time></trkpt><trkpt lat="45.62909664329856" lon="10.373759096451533"><ele>430.0</ele><time>2026-05-02T14:43:24Z</time></trkpt><trkpt lat="45.62897405656884" lon="10.373682579325983"><ele>433.25</ele><time>2026-05-02T14:43:25Z</time></trkpt><trkpt lat="45.62885063905388" lon="10.373615765683326"><ele>436.5</ele><time>2026-05-02T14:43:26Z</time></trkpt><trkpt lat="45.628729635114105" lon="10.373550922425565"><ele>439.75</ele><time>2026-05-02T14:43:27Z</time></trkpt><trkpt lat="45.628612022350914" lon="10.373483853289564"><ele>443.0</ele><time>2026-05-02T14:43:28Z</time></trkpt><trkpt lat="45.62849398629719" lon="10.3734172667856"><ele>443.0</ele><time>2026-05-02T14:43:29Z</time></trkpt><trkpt lat="45.628379098705224" lon="10.373347275984084"><ele>443.0</ele><time>2026-05-02T14:43:30Z</time></trkpt><trkpt lat="45.62827189270409" lon="10.373285251427014"><ele>443.0</ele><time>2026-05-02T14:43:31Z</time></trkpt><trkpt lat="45.628171269827995" lon="10.37321574266706"><ele>443.0</ele><time>2026-05-02T14:43:32Z</time></trkpt><trkpt lat="45.628068800385755" lon="10.373139955450654"><ele>443.0</ele><time>2026-05-02T14:43:33Z</time></trkpt><trkpt lat="45.62796272549723" lon="10.373055976306116"><ele>443.0</ele><time>2026-05-02T14:43:34Z</time></trkpt><trkpt lat="45.62785856890922" lon="10.372961965399618"><ele>443.0</ele><time>2026-05-02T14:43:35Z</time></trkpt><trkpt lat="45.62774994808606" lon="10.372871038860735"><ele>443.0</ele><time>2026-05-02T14:43:36Z</time></trkpt><trkpt lat="45.627641088583594" lon="10.372778675276102"><ele>444.0</ele><time>2026-05-02T14:43:37Z</time></trkpt><trkpt lat="45.627532082371374" lon="10.372680053240474"><ele>445.0</ele><time>2026-05-02T14:43:38Z</time></trkpt><trkpt lat="45.62742650990482" lon="10.372563029916956"><ele>446.0</ele><time>2026-05-02T14:43:39Z</time></trkpt><trkpt lat="45.627318020481304" lon="10.372430046420403"><ele>447.0</ele><time>2026-05-02T14:43:40Z</time></trkpt><trkpt lat="45.62722419951944" lon="10.372281676695977"><ele>446.75</ele><time>2026-05-02T14:43:41Z</time></trkpt><trkpt lat="45.62714249426686" lon="10.372124197356026"><ele>446.5</ele><time>2026-05-02T14:43:42Z</time></trkpt><trkpt lat="45.62707491539429" lon="10.371964000901501"><ele>446.25</ele><time>2026-05-02T14:43:43Z</time></trkpt><trkpt lat="45.62701298701825" lon="10.37179774648864"><ele>446.0</ele><time>2026-05-02T14:43:44Z</time></trkpt><trkpt lat="45.626955310848324" lon="10.371626231773863"><ele>446.5</ele><time>2026-05-02T14:43:45Z</time></trkpt><trkpt lat="45.62689354415252" lon="10.371456689063319"><ele>447.0</ele><time>2026-05-02T14:43:46Z</time></trkpt><trkpt lat="45.626827361755716" lon="10.371284551390703"><ele>447.5</ele><time>2026-05-02T14:43:47Z</time></trkpt><trkpt lat="45.62676691968973" lon="10.371104403218856"><ele>448.0</ele><time>2026-05-02T14:43:48Z</time></trkpt><trkpt lat="45.62672131720575" lon="10.37093486477976"><ele>448.0</ele><time>2026-05-02T14:43:49Z</time></trkpt><trkpt lat="45.62669471724037" lon="10.370754855274477"><ele>448.0</ele><time>2026-05-02T14:43:50Z</time></trkpt><trkpt lat="45.62667829607398" lon="10.370563366361205"><ele>448.0</ele><time>2026-05-02T14:43:51Z</time></trkpt><trkpt lat="45.62664613094053" lon="10.370393741784937"><ele>448.0</ele><time>2026-05-02T14:43:52Z</time></trkpt><trkpt lat="45.62657155994824" lon="10.370268237182838"><ele>448.5</ele><time>2026-05-02T14:43:53Z</time></trkpt><trkpt lat="45.62645529517632" lon="10.370217017644853"><ele>449.0</ele><time>2026-05-02T14:43:54Z</time></trkpt><trkpt lat="45.62632510962551" lon="10.370236268487107"><ele>449.5</ele><time>2026-05-02T14:43:55Z</time></trkpt><trkpt lat="45.6262053254298" lon="10.370327862982611"><ele>450.0</ele><time>2026-05-02T14:43:56Z</time></trkpt><trkpt lat="45.62612833102719" lon="10.37048190778342"><ele>449.33333333333337</ele><time>2026-05-02T14:43:57Z</time></trkpt><trkpt lat="45.62610557349645" lon="10.370676794036068"><ele>448.6666666666667</ele><time>2026-05-02T14:43:58Z</time></trkpt><trkpt lat="45.62613774650866" lon="10.370895798823906"><ele>448.0</ele><time>2026-05-02T14:43:59Z</time></trkpt><trkpt lat="45.62620999935716" lon="10.37112848218241"><ele>449.33333333333337</ele><time>2026-05-02T14:44:00Z</time></trkpt><trkpt lat="45.626292806230836" lon="10.371370215246927"><ele>450.66666666666663</ele><time>2026-05-02T14:44:01Z</time></trkpt><trkpt lat="45.62634768866116" lon="10.371605909146561"><ele>452.0</ele><time>2026-05-02T14:44:02Z</time></trkpt><trkpt lat="45.62642280139616" lon="10.371809164631205"><ele>452.0</ele><time>2026-05-02T14:44:03Z</time></trkpt><trkpt lat="45.62648397028396" lon="10.372022661159889"><ele>452.0</ele><time>2026-05-02T14:44:04Z</time></trkpt><trkpt lat="45.62654021938239" lon="10.372229974233345"><ele>452.0</ele><time>2026-05-02T14:44:05Z</time></trkpt><trkpt lat="45.62656391077548" lon="10.372428314027069"><ele>453.5</ele><time>2026-05-02T14:44:06Z</time></trkpt><trkpt lat="45.626571026549335" lon="10.372608054498539"><ele>455.0</ele><time>2026-05-02T14:44:07Z</time></trkpt><trkpt lat="45.626551586502394" lon="10.37278599233794"><ele>456.5</ele><time>2026-05-02T14:44:08Z</time></trkpt><trkpt lat="45.62648244217243" lon="10.372944752968296"><ele>458.0</ele><time>2026-05-02T14:44:09Z</time></trkpt><trkpt lat="45.62639541617107" lon="10.37310033647465"><ele>459.2</ele><time>2026-05-02T14:44:10Z</time></trkpt><trkpt lat="45.62630917870353" lon="10.373225085506844"><ele>460.4</ele><time>2026-05-02T14:44:11Z</time></trkpt><trkpt lat="45.62622921610216" lon="10.37334607428815"><ele>461.59999999999997</ele><time>2026-05-02T14:44:12Z</time></trkpt><trkpt lat="45.62619186268645" lon="10.37348461188203"><ele>462.79999999999995</ele><time>2026-05-02T14:44:13Z</time></trkpt><trkpt lat="45.62619092312158" lon="10.373636526277753"><ele>464.0</ele><time>2026-05-02T14:44:14Z</time></trkpt><trkpt lat="45.626240048663696" lon="10.373781338800518"><ele>464.0</ele><time>2026-05-02T14:44:15Z</time></trkpt><trkpt lat="45.62632281416543" lon="10.37389463303203"><ele>464.0</ele><time>2026-05-02T14:44:16Z</time></trkpt><trkpt lat="45.62646097632327" lon="10.373918477004242"><ele>464.0</ele><time>2026-05-02T14:44:17Z</time></trkpt><trkpt lat="45.62657630589567" lon="10.373908351622159"><ele>464.0</ele><time>2026-05-02T14:44:18Z</time></trkpt><trkpt lat="45.62670092998873" lon="10.373849845289639"><ele>464.0</ele><time>2026-05-02T14:44:19Z</time></trkpt><trkpt lat="45.62681588091383" lon="10.37376909984354"><ele>464.0</ele><time>2026-05-02T14:44:20Z</time></trkpt><trkpt lat="45.62694166694337" lon="10.373732934976461"><ele>464.0</ele><time>2026-05-02T14:44:21Z</time></trkpt><trkpt lat="45.62706019447375" lon="10.373752966553477"><ele>464.0</ele><time>2026-05-02T14:44:22Z</time></trkpt><trkpt lat="45.62716130957828" lon="10.37382893055318"><ele>465.5</ele><time>2026-05-02T14:44:23Z</time></trkpt><trkpt lat="45.62723688293972" lon="10.373971699620922"><ele>467.0</ele><time>2026-05-02T14:44:24Z</time></trkpt><trkpt lat="45.62731278761095" lon="10.374123172382815"><ele>468.5</ele><time>2026-05-02T14:44:25Z</time></trkpt><trkpt lat="45.62738146622771" lon="10.374275156439035"><ele>470.0</ele><time>2026-05-02T14:44:26Z</time></trkpt><trkpt lat="45.62743403381731" lon="10.374419147217266"><ele>470.0</ele><time>2026-05-02T14:44:27Z</time></trkpt><trkpt lat="45.62747280731855" lon="10.374539187879932"><ele>470.0</ele><time>2026-05-02T14:44:28Z</time></trkpt><trkpt lat="45.62749460891655" lon="10.374658648427136"><ele>470.0</ele><time>2026-05-02T14:44:29Z</time></trkpt><trkpt lat="45.627474452217456" lon="10.374784856868052"><ele>470.0</ele><time>2026-05-02T14:44:30Z</time></trkpt><trkpt lat="45.62741625133135" lon="10.374897106414943"><ele>470.0</ele><time>2026-05-02T14:44:31Z</time></trkpt><trkpt lat="45.627328558271564" lon="10.37497440900068"><ele>471.75</ele><time>2026-05-02T14:44:32Z</time></trkpt><trkpt lat="45.6272190073712" lon="10.375009387973694"><ele>473.5</ele><time>2026-05-02T14:44:33Z</time></trkpt><trkpt lat="45.62709993932905" lon="10.37492922528321"><ele>475.25</ele><time>2026-05-02T14:44:34Z</time></trkpt><trkpt lat="45.627003024294126" lon="10.374791890496663"><ele>477.0</ele><time>2026-05-02T14:44:35Z</time></trkpt><trkpt lat="45.626907756537854" lon="10.374628679023703"><ele>477.0</ele><time>2026-05-02T14:44:36Z</time></trkpt><trkpt lat="45.62681949820805" lon="10.374459421027526"><ele>477.0</ele><time>2026-05-02T14:44:37Z</time></trkpt><trkpt lat="45.626692899779954" lon="10.374327118063848"><ele>477.0</ele><time>2026-05-02T14:44:38Z</time></trkpt><trkpt lat="45.62653434078164" lon="10.374259585343074"><ele>477.0</ele><time>2026-05-02T14:44:39Z</time></trkpt><trkpt lat="45.626367151491024" lon="10.374256317580604"><ele>477.0</ele><time>2026-05-02T14:44:40Z</time></trkpt><trkpt lat="45.626209417011836" lon="10.374324985001445"><ele>477.0</ele><time>2026-05-02T14:44:41Z</time></trkpt><trkpt lat="45.626067466315966" lon="10.37445864400328"><ele>477.66666666666663</ele><time>2026-05-02T14:44:42Z</time></trkpt><trkpt lat="45.62594614465845" lon="10.37463812285854"><ele>478.3333333333333</ele><time>2026-05-02T14:44:43Z</time></trkpt><trkpt lat="45.625835782847375" lon="10.37483346615208"><ele>479.0</ele><time>2026-05-02T14:44:44Z</time></trkpt><trkpt lat="45.62572041698785" lon="10.37501685979343"><ele>483.66666666666663</ele><time>2026-05-02T14:44:45.001Z</time></trkpt><trkpt lat="45.625589618149256" lon="10.375170185558"><ele>488.33333333333337</ele><time>2026-05-02T14:44:46.001Z</time></trkpt><trkpt lat="45.625478624003456" lon="10.375324858283484"><ele>493.0</ele><time>2026-05-02T14:44:47.001Z</time></trkpt><trkpt lat="45.62536997850733" lon="10.37547571627351"><ele>494.0</ele><time>2026-05-02T14:44:48.001Z</time></trkpt><trkpt lat="45.625268380567" lon="10.375616385710323"><ele>495.0</ele><time>2026-05-02T14:44:49.001Z</time></trkpt><trkpt lat="45.62517314534337" lon="10.375749933484345"><ele>496.0</ele><time>2026-05-02T14:44:50.001Z</time></trkpt><trkpt lat="45.62509050534174" lon="10.3758722017881"><ele>497.0</ele><time>2026-05-02T14:44:51.001Z</time></trkpt><trkpt lat="45.62501089876218" lon="10.37597393684017"><ele>497.0</ele><time>2026-05-02T14:44:52.001Z</time></trkpt><trkpt lat="45.62492776139842" lon="10.376048618596064"><ele>497.00000000000006</ele><time>2026-05-02T14:44:53.001Z</time></trkpt><trkpt lat="45.624833413290894" lon="10.376089143605368"><ele>497.00000000000006</ele><time>2026-05-02T14:44:54.001Z</time></trkpt><trkpt lat="45.62472492949303" lon="10.376061339118497"><ele>497.0</ele><time>2026-05-02T14:44:55.001Z</time></trkpt><trkpt lat="45.62461532761721" lon="10.376001639643249"><ele>497.0</ele><time>2026-05-02T14:44:56.001Z</time></trkpt><trkpt lat="45.62454388426847" lon="10.375851274533337"><ele>497.0</ele><time>2026-05-02T14:44:57.001Z</time></trkpt><trkpt lat="45.624504154529326" lon="10.375668991918827"><ele>497.0</ele><time>2026-05-02T14:44:58.001Z</time></trkpt><trkpt lat="45.62451044615991" lon="10.375464605789858"><ele>497.0</ele><time>2026-05-02T14:44:59.001Z</time></trkpt><trkpt lat="45.624552982138084" lon="10.37526278724097"><ele>497.0</ele><time>2026-05-02T14:45:00.001Z</time></trkpt><trkpt lat="45.62460856827477" lon="10.375053700260889"><ele>495.75</ele><time>2026-05-02T14:45:01.001Z</time></trkpt><trkpt lat="45.624666436162194" lon="10.374849475094686"><ele>494.5</ele><time>2026-05-02T14:45:02.001Z</time></trkpt><trkpt lat="45.62473602517549" lon="10.374659410065906"><ele>493.25</ele><time>2026-05-02T14:45:03.001Z</time></trkpt><trkpt lat="45.624808316948254" lon="10.374495407031501"><ele>492.0</ele><time>2026-05-02T14:45:04.001Z</time></trkpt><trkpt lat="45.62488484312612" lon="10.37434074461037"><ele>494.75</ele><time>2026-05-02T14:45:05.001Z</time></trkpt><trkpt lat="45.6249712499448" lon="10.374197803216212"><ele>497.5</ele><time>2026-05-02T14:45:06.001Z</time></trkpt><trkpt lat="45.62506000636114" lon="10.374056684118562"><ele>500.25</ele><time>2026-05-02T14:45:07.001Z</time></trkpt><trkpt lat="45.625145959981715" lon="10.373932661634159"><ele>503.0</ele><time>2026-05-02T14:45:08.001Z</time></trkpt><trkpt lat="45.625230003949724" lon="10.3738118496457"><ele>500.0</ele><time>2026-05-02T14:45:09.001Z</time></trkpt><trkpt lat="45.62530176652786" lon="10.373699514613318"><ele>496.99999999999994</ele><time>2026-05-02T14:45:10.001Z</time></trkpt><trkpt lat="45.625372996087975" lon="10.373587633246771"><ele>493.99999999999994</ele><time>2026-05-02T14:45:11.001Z</time></trkpt><trkpt lat="45.62544884349359" lon="10.37346535697658"><ele>491.0</ele><time>2026-05-02T14:45:12.001Z</time></trkpt><trkpt lat="45.62550817667753" lon="10.373321260252082"><ele>488.0</ele><time>2026-05-02T14:45:13.001Z</time></trkpt><trkpt lat="45.625551659919054" lon="10.373159999664592"><ele>488.5</ele><time>2026-05-02T14:45:14.001Z</time></trkpt><trkpt lat="45.62558111217889" lon="10.372982793726663"><ele>489.0</ele><time>2026-05-02T14:45:15.001Z</time></trkpt><trkpt lat="45.625592566885146" lon="10.372812757886335"><ele>489.5</ele><time>2026-05-02T14:45:16.001Z</time></trkpt><trkpt lat="45.62557940358719" lon="10.372655944734776"><ele>490.0</ele><time>2026-05-02T14:45:17.001Z</time></trkpt><trkpt lat="45.62556164086159" lon="10.372517778495464"><ele>490.0</ele><time>2026-05-02T14:45:18.001Z</time></trkpt><trkpt lat="45.62554514443225" lon="10.37238348881511"><ele>490.0</ele><time>2026-05-02T14:45:19.001Z</time></trkpt><trkpt lat="45.62549790797238" lon="10.372246769363523"><ele>490.0</ele><time>2026-05-02T14:45:20.001Z</time></trkpt><trkpt lat="45.625450956489935" lon="10.372114625696954"><ele>490.0</ele><time>2026-05-02T14:45:21.001Z</time></trkpt><trkpt lat="45.62539402278783" lon="10.371982537632908"><ele>490.0</ele><time>2026-05-02T14:45:22.001Z</time></trkpt><trkpt lat="45.62532589177219" lon="10.371845876253861"><ele>495.5</ele><time>2026-05-02T14:45:23.001Z</time></trkpt><trkpt lat="45.62526580465426" lon="10.371698185809384"><ele>501.0</ele><time>2026-05-02T14:45:24.001Z</time></trkpt><trkpt lat="45.62520030314766" lon="10.371559632930282"><ele>506.5</ele><time>2026-05-02T14:45:25.001Z</time></trkpt><trkpt lat="45.625136951554545" lon="10.371419521655044"><ele>512.0</ele><time>2026-05-02T14:45:26.001Z</time></trkpt><trkpt lat="45.62507679019831" lon="10.371283314669224"><ele>512.0</ele><time>2026-05-02T14:45:27.001Z</time></trkpt><trkpt lat="45.62501706407525" lon="10.371144987003234"><ele>512.0</ele><time>2026-05-02T14:45:28.001Z</time></trkpt><trkpt lat="45.62495656095897" lon="10.37100615181143"><ele>512.0</ele><time>2026-05-02T14:45:29Z</time></trkpt><trkpt lat="45.62488176771287" lon="10.37087258091951"><ele>512.0</ele><time>2026-05-02T14:45:30Z</time></trkpt><trkpt lat="45.624781875804715" lon="10.370774027023744"><ele>512.0</ele><time>2026-05-02T14:45:31Z</time></trkpt><trkpt lat="45.62467413457211" lon="10.370705586475243"><ele>512.0</ele><time>2026-05-02T14:45:32Z</time></trkpt><trkpt lat="45.62456270709199" lon="10.370672795856724"><ele>512.0</ele><time>2026-05-02T14:45:33Z</time></trkpt><trkpt lat="45.624445448919076" lon="10.37067405904928"><ele>512.0</ele><time>2026-05-02T14:45:34Z</time></trkpt><trkpt lat="45.62432760654118" lon="10.37070292925691"><ele>512.5</ele><time>2026-05-02T14:45:35Z</time></trkpt><trkpt lat="45.62421221601285" lon="10.370777403058321"><ele>513.0</ele><time>2026-05-02T14:45:36Z</time></trkpt><trkpt lat="45.624111680624985" lon="10.370881740451413"><ele>513.5</ele><time>2026-05-02T14:45:37Z</time></trkpt><trkpt lat="45.62402643570113" lon="10.371011138515021"><ele>514.0</ele><time>2026-05-02T14:45:38Z</time></trkpt><trkpt lat="45.623951070815465" lon="10.371150365291781"><ele>514.0</ele><time>2026-05-02T14:45:39Z</time></trkpt><trkpt lat="45.623876313205095" lon="10.371293478486413"><ele>514.0</ele><time>2026-05-02T14:45:40Z</time></trkpt><trkpt lat="45.62379897540174" lon="10.371430243393863"><ele>514.0</ele><time>2026-05-02T14:45:41Z</time></trkpt><trkpt lat="45.62372118967081" lon="10.371564671283037"><ele>514.0</ele><time>2026-05-02T14:45:42Z</time></trkpt><trkpt lat="45.623642266338585" lon="10.371687311318944"><ele>515.75</ele><time>2026-05-02T14:45:43Z</time></trkpt><trkpt lat="45.62357214954057" lon="10.37181096949534"><ele>517.5</ele><time>2026-05-02T14:45:44Z</time></trkpt><trkpt lat="45.623487338168346" lon="10.371909291163554"><ele>519.25</ele><time>2026-05-02T14:45:45Z</time></trkpt><trkpt lat="45.62339419416895" lon="10.372007141232327"><ele>521.0</ele><time>2026-05-02T14:45:46Z</time></trkpt><trkpt lat="45.62328557181817" lon="10.372057459321546"><ele>521.0</ele><time>2026-05-02T14:45:47Z</time></trkpt><trkpt lat="45.62316104351098" lon="10.372053493337052"><ele>521.0</ele><time>2026-05-02T14:45:48Z</time></trkpt><trkpt lat="45.62300521249139" lon="10.372043435301638"><ele>521.0</ele><time>2026-05-02T14:45:49Z</time></trkpt><trkpt lat="45.62287439093155" lon="10.372047833666167"><ele>521.0</ele><time>2026-05-02T14:45:50Z</time></trkpt><trkpt lat="45.62273405462463" lon="10.3721013726004"><ele>526.6666666666666</ele><time>2026-05-02T14:45:51Z</time></trkpt><trkpt lat="45.6226012775821" lon="10.372220868722057"><ele>532.3333333333334</ele><time>2026-05-02T14:45:52Z</time></trkpt><trkpt lat="45.622485814868924" lon="10.372375263512229"><ele>538.0</ele><time>2026-05-02T14:45:53Z</time></trkpt><trkpt lat="45.62235229803822" lon="10.372484131457224"><ele>538.0</ele><time>2026-05-02T14:45:54Z</time></trkpt><trkpt lat="45.62222438269105" lon="10.372556060954304"><ele>538.0</ele><time>2026-05-02T14:45:55Z</time></trkpt><trkpt lat="45.62207939107252" lon="10.372559565814587"><ele>538.0</ele><time>2026-05-02T14:45:56Z</time></trkpt><trkpt lat="45.621931719373" lon="10.372520954013906"><ele>538.0</ele><time>2026-05-02T14:45:57Z</time></trkpt><trkpt lat="45.62179013561044" lon="10.372406160094526"><ele>537.6666666666667</ele><time>2026-05-02T14:45:58Z</time></trkpt><trkpt lat="45.62164401772907" lon="10.372281968180229"><ele>537.3333333333334</ele><time>2026-05-02T14:45:59Z</time></trkpt><trkpt lat="45.62150382604064" lon="10.372136291543566"><ele>537.0</ele><time>2026-05-02T14:46:00Z</time></trkpt><trkpt lat="45.62136877263406" lon="10.371993927996064"><ele>535.75</ele><time>2026-05-02T14:46:01Z</time></trkpt><trkpt lat="45.62123276658899" lon="10.371861296302209"><ele>534.5</ele><time>2026-05-02T14:46:02Z</time></trkpt><trkpt lat="45.62110726746707" lon="10.371749931746034"><ele>533.25</ele><time>2026-05-02T14:46:03Z</time></trkpt><trkpt lat="45.62102048616252" lon="10.371628589703574"><ele>532.0</ele><time>2026-05-02T14:46:04Z</time></trkpt><trkpt lat="45.620953818505626" lon="10.371510797127723"><ele>532.0</ele><time>2026-05-02T14:46:05Z</time></trkpt><trkpt lat="45.62089141371198" lon="10.37138252328596"><ele>532.0</ele><time>2026-05-02T14:46:06Z</time></trkpt><trkpt lat="45.620860683851454" lon="10.371201197790722"><ele>532.0</ele><time>2026-05-02T14:46:07Z</time></trkpt><trkpt lat="45.620861888398245" lon="10.371000928688243"><ele>532.0</ele><time>2026-05-02T14:46:08Z</time></trkpt><trkpt lat="45.62084632734106" lon="10.370782374753968"><ele>533.0</ele><time>2026-05-02T14:46:09Z</time></trkpt><trkpt lat="45.62085170839304" lon="10.37055770065357"><ele>534.0</ele><time>2026-05-02T14:46:10Z</time></trkpt><trkpt lat="45.62085569101617" lon="10.370340113536637"><ele>535.0</ele><time>2026-05-02T14:46:11Z</time></trkpt><trkpt lat="45.6208539401199" lon="10.37011594651112"><ele>535.0</ele><time>2026-05-02T14:46:12Z</time></trkpt><trkpt lat="45.62085573861776" lon="10.369894887685799"><ele>535.0</ele><time>2026-05-02T14:46:13Z</time></trkpt><trkpt lat="45.62085400346061" lon="10.369692172357452"><ele>535.0</ele><time>2026-05-02T14:46:14Z</time></trkpt><trkpt lat="45.62084788902299" lon="10.369517393361575"><ele>535.0</ele><time>2026-05-02T14:46:15Z</time></trkpt><trkpt lat="45.62084960034949" lon="10.369370049994297"><ele>535.0</ele><time>2026-05-02T14:46:16Z</time></trkpt><trkpt lat="45.62086912752983" lon="10.36923542644836"><ele>535.0</ele><time>2026-05-02T14:46:17Z</time></trkpt><trkpt lat="45.620923786078" lon="10.369102733787575"><ele>535.0</ele><time>2026-05-02T14:46:18Z</time></trkpt><trkpt lat="45.62101513918453" lon="10.368983810348057"><ele>535.0</ele><time>2026-05-02T14:46:19Z</time></trkpt><trkpt lat="45.621101293347614" lon="10.368853162423783"><ele>535.25</ele><time>2026-05-02T14:46:20Z</time></trkpt><trkpt lat="45.62115079549255" lon="10.368724475581352"><ele>535.5</ele><time>2026-05-02T14:46:21Z</time></trkpt><trkpt lat="45.62116434849855" lon="10.368551305400509"><ele>535.75</ele><time>2026-05-02T14:46:22Z</time></trkpt><trkpt lat="45.62113776168961" lon="10.368366028982384"><ele>536.0</ele><time>2026-05-02T14:46:23Z</time></trkpt><trkpt lat="45.62109980136002" lon="10.368183391924465"><ele>540.75</ele><time>2026-05-02T14:46:24Z</time></trkpt><trkpt lat="45.62107650390495" lon="10.36801937530635"><ele>545.5</ele><time>2026-05-02T14:46:25Z</time></trkpt><trkpt lat="45.62104385806215" lon="10.367878501375214"><ele>550.25</ele><time>2026-05-02T14:46:26Z</time></trkpt><trkpt lat="45.62097127361701" lon="10.367753377927217"><ele>555.0</ele><time>2026-05-02T14:46:27Z</time></trkpt><trkpt lat="45.62086182824445" lon="10.367657419858295"><ele>555.0</ele><time>2026-05-02T14:46:28Z</time></trkpt><trkpt lat="45.62071891444615" lon="10.367616807313661"><ele>555.0</ele><time>2026-05-02T14:46:29Z</time></trkpt><trkpt lat="45.62057495592441" lon="10.367578669011548"><ele>555.0</ele><time>2026-05-02T14:46:30Z</time></trkpt><trkpt lat="45.62046212873088" lon="10.367509603509568"><ele>555.0</ele><time>2026-05-02T14:46:31Z</time></trkpt><trkpt lat="45.620353729716335" lon="10.367466599613579"><ele>555.75</ele><time>2026-05-02T14:46:32Z</time></trkpt><trkpt lat="45.62026724223792" lon="10.367356296908255"><ele>556.5</ele><time>2026-05-02T14:46:33Z</time></trkpt><trkpt lat="45.62018947759885" lon="10.367235016903956"><ele>557.25</ele><time>2026-05-02T14:46:34Z</time></trkpt><trkpt lat="45.62010670288307" lon="10.367122709787806"><ele>558.0</ele><time>2026-05-02T14:46:35.001Z</time></trkpt><trkpt lat="45.620046114082605" lon="10.367000872951005"><ele>558.0</ele><time>2026-05-02T14:46:36.001Z</time></trkpt><trkpt lat="45.61998343565382" lon="10.366881982863742"><ele>558.0</ele><time>2026-05-02T14:46:37.001Z</time></trkpt><trkpt lat="45.6199192287786" lon="10.36676909384239"><ele>558.0</ele><time>2026-05-02T14:46:38.001Z</time></trkpt><trkpt lat="45.619857370549084" lon="10.366656236969613"><ele>558.0</ele><time>2026-05-02T14:46:39.001Z</time></trkpt><trkpt lat="45.61979588314309" lon="10.366542719209647"><ele>558.0</ele><time>2026-05-02T14:46:40.001Z</time></trkpt><trkpt lat="45.6197307672834" lon="10.36642525039205"><ele>558.6</ele><time>2026-05-02T14:46:41.001Z</time></trkpt><trkpt lat="45.61966553122939" lon="10.366320361286368"><ele>559.1999999999999</ele><time>2026-05-02T14:46:42.001Z</time></trkpt><trkpt lat="45.619607265577926" lon="10.366211946378275"><ele>559.8</ele><time>2026-05-02T14:46:43.001Z</time></trkpt><trkpt lat="45.6195455515211" lon="10.366098602968075"><ele>560.4</ele><time>2026-05-02T14:46:44.001Z</time></trkpt><trkpt lat="45.61948096832374" lon="10.365979778123657"><ele>561.0</ele><time>2026-05-02T14:46:45.001Z</time></trkpt><trkpt lat="45.619415377866076" lon="10.36586058872837"><ele>561.0</ele><time>2026-05-02T14:46:46.001Z</time></trkpt><trkpt lat="45.6193513331053" lon="10.365741087691122"><ele>561.0</ele><time>2026-05-02T14:46:47.001Z</time></trkpt><trkpt lat="45.61928389749831" lon="10.365631420717165"><ele>561.0</ele><time>2026-05-02T14:46:48.001Z</time></trkpt><trkpt lat="45.61920332005282" lon="10.365553634749054"><ele>561.0</ele><time>2026-05-02T14:46:49.001Z</time></trkpt><trkpt lat="45.61909885068993" lon="10.365540856635283"><ele>561.0</ele><time>2026-05-02T14:46:50.001Z</time></trkpt><trkpt lat="45.61899595459363" lon="10.365606240788246"><ele>561.0</ele><time>2026-05-02T14:46:51.001Z</time></trkpt><trkpt lat="45.61892062984455" lon="10.365734257517618"><ele>561.0</ele><time>2026-05-02T14:46:52.001Z</time></trkpt><trkpt lat="45.618853863779286" lon="10.365883702036262"><ele>561.0</ele><time>2026-05-02T14:46:53.001Z</time></trkpt><trkpt lat="45.618763314491154" lon="10.365993260892278"><ele>561.0</ele><time>2026-05-02T14:46:54.001Z</time></trkpt><trkpt lat="45.61868816339827" lon="10.366133136043532"><ele>558.0</ele><time>2026-05-02T14:46:55.001Z</time></trkpt><trkpt lat="45.618592692369475" lon="10.366243963708516"><ele>555.0</ele><time>2026-05-02T14:46:56.001Z</time></trkpt><trkpt lat="45.6184910024708" lon="10.366343521555315"><ele>552.0</ele><time>2026-05-02T14:46:57.001Z</time></trkpt><trkpt lat="45.618370760727274" lon="10.36641880511843"><ele>549.0</ele><time>2026-05-02T14:46:58.001Z</time></trkpt><trkpt lat="45.61827807496459" lon="10.36654328692001"><ele>549.0</ele><time>2026-05-02T14:46:59.001Z</time></trkpt><trkpt lat="45.61819155762145" lon="10.366662957957075"><ele>549.0</ele><time>2026-05-02T14:47:00.001Z</time></trkpt><trkpt lat="45.618112165112514" lon="10.366798211022909"><ele>549.0</ele><time>2026-05-02T14:47:01.001Z</time></trkpt><trkpt lat="45.6180280302762" lon="10.366938536257472"><ele>549.0</ele><time>2026-05-02T14:47:02.001Z</time></trkpt><trkpt lat="45.61794055803455" lon="10.367087684886595"><ele>552.25</ele><time>2026-05-02T14:47:03.001Z</time></trkpt><trkpt lat="45.61785993500669" lon="10.367253059435814"><ele>555.5</ele><time>2026-05-02T14:47:04.001Z</time></trkpt><trkpt lat="45.61780126506488" lon="10.36742278992498"><ele>558.75</ele><time>2026-05-02T14:47:05.001Z</time></trkpt><trkpt lat="45.61771950601941" lon="10.367567275275714"><ele>562.0</ele><time>2026-05-02T14:47:06.001Z</time></trkpt><trkpt lat="45.617636090421165" lon="10.367687677622877"><ele>562.0</ele><time>2026-05-02T14:47:07.001Z</time></trkpt><trkpt lat="45.61751744615671" lon="10.36774519016554"><ele>562.0</ele><time>2026-05-02T14:47:08.001Z</time></trkpt><trkpt lat="45.61738889442427" lon="10.367780252992665"><ele>562.0</ele><time>2026-05-02T14:47:09.001Z</time></trkpt><trkpt lat="45.61726344598663" lon="10.36773654424261"><ele>562.0</ele><time>2026-05-02T14:47:10.001Z</time></trkpt><trkpt lat="45.617152548678575" lon="10.367626670532465"><ele>562.0</ele><time>2026-05-02T14:47:11.001Z</time></trkpt><trkpt lat="45.617052332753026" lon="10.367473772192858"><ele>562.0</ele><time>2026-05-02T14:47:12.001Z</time></trkpt><trkpt lat="45.61695014563529" lon="10.367302204700211"><ele>562.0</ele><time>2026-05-02T14:47:13.001Z</time></trkpt><trkpt lat="45.61686505208469" lon="10.367124350782799"><ele>563.0</ele><time>2026-05-02T14:47:14.001Z</time></trkpt><trkpt lat="45.616788104421005" lon="10.366946567986622"><ele>564.0</ele><time>2026-05-02T14:47:15.001Z</time></trkpt><trkpt lat="45.61672752694167" lon="10.366778263510563"><ele>565.0</ele><time>2026-05-02T14:47:16.001Z</time></trkpt><trkpt lat="45.61667160702508" lon="10.366618587641165"><ele>566.0</ele><time>2026-05-02T14:47:17.001Z</time></trkpt><trkpt lat="45.616620621167606" lon="10.366465160265733"><ele>569.6</ele><time>2026-05-02T14:47:18.001Z</time></trkpt><trkpt lat="45.616573855456245" lon="10.36631652958978"><ele>573.2</ele><time>2026-05-02T14:47:19.001Z</time></trkpt><trkpt lat="45.61653610219578" lon="10.366184410347715"><ele>576.8</ele><time>2026-05-02T14:47:20.001Z</time></trkpt><trkpt lat="45.61647465035388" lon="10.366082817152849"><ele>580.4</ele><time>2026-05-02T14:47:21.001Z</time></trkpt><trkpt lat="45.61639399201987" lon="10.366033709668612"><ele>584.0</ele><time>2026-05-02T14:47:22.001Z</time></trkpt><trkpt lat="45.61630410785926" lon="10.366058262800047"><ele>584.0</ele><time>2026-05-02T14:47:23.001Z</time></trkpt><trkpt lat="45.61622533503142" lon="10.366032955459149"><ele>584.0</ele><time>2026-05-02T14:47:24.001Z</time></trkpt><trkpt lat="45.6161355273979" lon="10.366038840329722"><ele>584.0</ele><time>2026-05-02T14:47:26.001Z</time></trkpt><trkpt lat="45.61603195596444" lon="10.366628546084689"><ele>580.5</ele><time>2026-05-02T14:47:27.001Z</time></trkpt><trkpt lat="45.61594093775947" lon="10.366759303809634"><ele>577.0</ele><time>2026-05-02T14:47:28.001Z</time></trkpt><trkpt lat="45.61583988624899" lon="10.366848836960859"><ele>573.5</ele><time>2026-05-02T14:47:29.001Z</time></trkpt><trkpt lat="45.615726958663316" lon="10.36690301292884"><ele>570.0</ele><time>2026-05-02T14:47:30.001Z</time></trkpt><trkpt lat="45.615602798675695" lon="10.36693132452525"><ele>570.0</ele><time>2026-05-02T14:47:31.001Z</time></trkpt><trkpt lat="45.61548034789588" lon="10.366940538074353"><ele>570.0</ele><time>2026-05-02T14:47:32.001Z</time></trkpt><trkpt lat="45.61536247250897" lon="10.36694820443484"><ele>570.0</ele><time>2026-05-02T14:47:33.001Z</time></trkpt><trkpt lat="45.61525325518597" lon="10.366961021535483"><ele>570.0</ele><time>2026-05-02T14:47:34.001Z</time></trkpt><trkpt lat="45.615151275331094" lon="10.36696899023698"><ele>569.8</ele><time>2026-05-02T14:47:35Z</time></trkpt><trkpt lat="45.61505832273336" lon="10.366948816933043"><ele>569.6</ele><time>2026-05-02T14:47:36Z</time></trkpt><trkpt lat="45.61496939522931" lon="10.366889336419838"><ele>569.4</ele><time>2026-05-02T14:47:37Z</time></trkpt><trkpt lat="45.61488647391007" lon="10.36679840173795"><ele>569.2</ele><time>2026-05-02T14:47:38Z</time></trkpt><trkpt lat="45.61482082077663" lon="10.366663160770386"><ele>569.0</ele><time>2026-05-02T14:47:39Z</time></trkpt><trkpt lat="45.61477697432815" lon="10.366507518195357"><ele>570.2</ele><time>2026-05-02T14:47:40Z</time></trkpt><trkpt lat="45.61475407363556" lon="10.366344484855965"><ele>571.4</ele><time>2026-05-02T14:47:41Z</time></trkpt><trkpt lat="45.61476194958852" lon="10.36618893117631"><ele>572.6</ele><time>2026-05-02T14:47:42Z</time></trkpt><trkpt lat="45.614788209908866" lon="10.366052413496378"><ele>573.8</ele><time>2026-05-02T14:47:43Z</time></trkpt><trkpt lat="45.614813183692256" lon="10.365930624212357"><ele>575.0</ele><time>2026-05-02T14:47:44Z</time></trkpt><trkpt lat="45.614803837035566" lon="10.36580727793872"><ele>575.0</ele><time>2026-05-02T14:47:45Z</time></trkpt><trkpt lat="45.614755213134075" lon="10.365677338111471"><ele>575.0</ele><time>2026-05-02T14:47:46Z</time></trkpt><trkpt lat="45.614675247815185" lon="10.365555252659275"><ele>575.0</ele><time>2026-05-02T14:47:47Z</time></trkpt><trkpt lat="45.614574030365844" lon="10.36545641395958"><ele>575.0</ele><time>2026-05-02T14:47:48Z</time></trkpt><trkpt lat="45.614474952286315" lon="10.365351837857855"><ele>572.6</ele><time>2026-05-02T14:47:49Z</time></trkpt><trkpt lat="45.61438874036394" lon="10.365247838540178"><ele>570.2</ele><time>2026-05-02T14:47:50Z</time></trkpt><trkpt lat="45.61431679511333" lon="10.365142555089092"><ele>567.8</ele><time>2026-05-02T14:47:51Z</time></trkpt><trkpt lat="45.6142609583928" lon="10.3650266937531"><ele>565.4</ele><time>2026-05-02T14:47:52Z</time></trkpt><trkpt lat="45.61421908318623" lon="10.364894954402265"><ele>563.0</ele><time>2026-05-02T14:47:53Z</time></trkpt><trkpt lat="45.61419126599344" lon="10.364733807611223"><ele>563.5</ele><time>2026-05-02T14:47:54Z</time></trkpt><trkpt lat="45.61418322206276" lon="10.364556117153281"><ele>564.0</ele><time>2026-05-02T14:47:55Z</time></trkpt><trkpt lat="45.61420826413422" lon="10.364374936806742"><ele>564.5</ele><time>2026-05-02T14:47:56Z</time></trkpt><trkpt lat="45.6142614876919" lon="10.364203314896463"><ele>565.0</ele><time>2026-05-02T14:47:57Z</time></trkpt><trkpt lat="45.614312564580324" lon="10.364056568776391"><ele>565.0</ele><time>2026-05-02T14:47:58Z</time></trkpt><trkpt lat="45.61432800897549" lon="10.36390680812405"><ele>565.0</ele><time>2026-05-02T14:47:59Z</time></trkpt><trkpt lat="45.61431073666522" lon="10.363750337280367"><ele>565.0</ele><time>2026-05-02T14:48:00Z</time></trkpt><trkpt lat="45.61424811606758" lon="10.363615257324653"><ele>565.0</ele><time>2026-05-02T14:48:01Z</time></trkpt><trkpt lat="45.614141392715396" lon="10.363532649987773"><ele>569.75</ele><time>2026-05-02T14:48:02Z</time></trkpt><trkpt lat="45.61401134184909" lon="10.36351526493169"><ele>574.5</ele><time>2026-05-02T14:48:03Z</time></trkpt><trkpt lat="45.613890570526955" lon="10.363544859258948"><ele>579.25</ele><time>2026-05-02T14:48:04Z</time></trkpt><trkpt lat="45.61377148737544" lon="10.363578241196848"><ele>584.0</ele><time>2026-05-02T14:48:05Z</time></trkpt><trkpt lat="45.6136494174927" lon="10.363603018903639"><ele>585.4</ele><time>2026-05-02T14:48:06Z</time></trkpt><trkpt lat="45.613531986560226" lon="10.363627645375132"><ele>586.8</ele><time>2026-05-02T14:48:07Z</time></trkpt><trkpt lat="45.61342698873099" lon="10.36365824832857"><ele>588.2</ele><time>2026-05-02T14:48:08Z</time></trkpt><trkpt lat="45.613331606268694" lon="10.363701993854729"><ele>589.6</ele><time>2026-05-02T14:48:09Z</time></trkpt><trkpt lat="45.613235897505476" lon="10.363761303241754"><ele>591.0</ele><time>2026-05-02T14:48:10Z</time></trkpt><trkpt lat="45.61312588304299" lon="10.363841525893772"><ele>589.0</ele><time>2026-05-02T14:48:11Z</time></trkpt><trkpt lat="45.6130153172526" lon="10.363930840144183"><ele>587.0</ele><time>2026-05-02T14:48:12Z</time></trkpt><trkpt lat="45.612900219494776" lon="10.36402446600742"><ele>585.0</ele><time>2026-05-02T14:48:13Z</time></trkpt><trkpt lat="45.61278095618084" lon="10.364122524710416"><ele>583.0</ele><time>2026-05-02T14:48:14Z</time></trkpt><trkpt lat="45.612660174506225" lon="10.364225816591999"><ele>583.0</ele><time>2026-05-02T14:48:15Z</time></trkpt><trkpt lat="45.61255097027008" lon="10.364312222491918"><ele>583.0</ele><time>2026-05-02T14:48:16Z</time></trkpt><trkpt lat="45.612449530170416" lon="10.364391292594576"><ele>583.0</ele><time>2026-05-02T14:48:17Z</time></trkpt><trkpt lat="45.612354293167044" lon="10.364464167948478"><ele>583.0</ele><time>2026-05-02T14:48:18Z</time></trkpt><trkpt lat="45.61225372095148" lon="10.364519471375132"><ele>583.0</ele><time>2026-05-02T14:48:19Z</time></trkpt><trkpt lat="45.61214537506863" lon="10.364561302006697"><ele>583.0</ele><time>2026-05-02T14:48:20.001Z</time></trkpt><trkpt lat="45.61202307379365" lon="10.364585456355726"><ele>583.0</ele><time>2026-05-02T14:48:21.001Z</time></trkpt><trkpt lat="45.61189740068444" lon="10.364565803292153"><ele>583.0</ele><time>2026-05-02T14:48:22.001Z</time></trkpt><trkpt lat="45.611773110512424" lon="10.364491972351901"><ele>580.75</ele><time>2026-05-02T14:48:23.001Z</time></trkpt><trkpt lat="45.61167412894591" lon="10.364381449113523"><ele>578.5</ele><time>2026-05-02T14:48:24.001Z</time></trkpt><trkpt lat="45.61160461296214" lon="10.364214341351389"><ele>576.25</ele><time>2026-05-02T14:48:25.001Z</time></trkpt><trkpt lat="45.61156784474876" lon="10.364020484447567"><ele>574.0</ele><time>2026-05-02T14:48:26.001Z</time></trkpt><trkpt lat="45.61155548801127" lon="10.363832590520097"><ele>579.5</ele><time>2026-05-02T14:48:27.001Z</time></trkpt><trkpt lat="45.61154988100233" lon="10.363663006670322"><ele>585.0</ele><time>2026-05-02T14:48:28.001Z</time></trkpt><trkpt lat="45.611506616915975" lon="10.363520233294558"><ele>590.5</ele><time>2026-05-02T14:48:29.001Z</time></trkpt><trkpt lat="45.6114292683999" lon="10.363395501810194"><ele>596.0</ele><time>2026-05-02T14:48:30.001Z</time></trkpt><trkpt lat="45.61132285552747" lon="10.363299201378855"><ele>596.0</ele><time>2026-05-02T14:48:31.001Z</time></trkpt><trkpt lat="45.61120448028697" lon="10.363228324744881"><ele>596.0</ele><time>2026-05-02T14:48:32.001Z</time></trkpt><trkpt lat="45.61108797715415" lon="10.363167513313407"><ele>596.0</ele><time>2026-05-02T14:48:33.001Z</time></trkpt><trkpt lat="45.610971924917266" lon="10.363106397641971"><ele>596.0</ele><time>2026-05-02T14:48:34.001Z</time></trkpt><trkpt lat="45.610861892229835" lon="10.363042167584803"><ele>596.5</ele><time>2026-05-02T14:48:35.001Z</time></trkpt><trkpt lat="45.610759103336655" lon="10.362967958914446"><ele>597.0</ele><time>2026-05-02T14:48:36.001Z</time></trkpt><trkpt lat="45.61066098691699" lon="10.362870852919999"><ele>597.5</ele><time>2026-05-02T14:48:37.001Z</time></trkpt><trkpt lat="45.610569353837285" lon="10.362751083416898"><ele>598.0</ele><time>2026-05-02T14:48:38.001Z</time></trkpt><trkpt lat="45.61048458075082" lon="10.362610195129923"><ele>598.0</ele><time>2026-05-02T14:48:39.001Z</time></trkpt><trkpt lat="45.61040595752044" lon="10.3624583914571"><ele>598.0</ele><time>2026-05-02T14:48:40.001Z</time></trkpt><trkpt lat="45.61032791345099" lon="10.36231168725947"><ele>598.0</ele><time>2026-05-02T14:48:41.001Z</time></trkpt><trkpt lat="45.610250368623355" lon="10.362177920916926"><ele>598.0</ele><time>2026-05-02T14:48:42.001Z</time></trkpt><trkpt lat="45.610165214132905" lon="10.362043490140554"><ele>593.0</ele><time>2026-05-02T14:48:43.001Z</time></trkpt><trkpt lat="45.61008613438473" lon="10.361915046715124"><ele>588.0</ele><time>2026-05-02T14:48:44.001Z</time></trkpt><trkpt lat="45.6099936500645" lon="10.361817459093823"><ele>583.0</ele><time>2026-05-02T14:48:45.001Z</time></trkpt><trkpt lat="45.60989458285983" lon="10.36176838761632"><ele>578.0</ele><time>2026-05-02T14:48:46.001Z</time></trkpt><trkpt lat="45.60980690597096" lon="10.361741564451929"><ele>573.0</ele><time>2026-05-02T14:48:47.001Z</time></trkpt><trkpt lat="45.60973038985915" lon="10.361721543691647"><ele>573.0</ele><time>2026-05-02T14:48:48.001Z</time></trkpt><trkpt lat="45.609656987923486" lon="10.361682956153626"><ele>573.0</ele><time>2026-05-02T14:48:49.001Z</time></trkpt><trkpt lat="45.609602942049094" lon="10.361605602533299"><ele>573.0</ele><time>2026-05-02T14:48:50.001Z</time></trkpt><trkpt lat="45.60957940566789" lon="10.361484577148833"><ele>573.0</ele><time>2026-05-02T14:48:51.001Z</time></trkpt><trkpt lat="45.60959185818674" lon="10.36136590171418"><ele>573.0</ele><time>2026-05-02T14:48:52.001Z</time></trkpt><trkpt lat="45.60965695416067" lon="10.36125624651664"><ele>573.0</ele><time>2026-05-02T14:48:53.001Z</time></trkpt><trkpt lat="45.60974943205281" lon="10.36118381302635"><ele>569.0</ele><time>2026-05-02T14:48:54.001Z</time></trkpt><trkpt lat="45.60986971474771" lon="10.361178285613304"><ele>565.0</ele><time>2026-05-02T14:48:55.001Z</time></trkpt><trkpt lat="45.60998404644978" lon="10.361201138380066"><ele>561.0</ele><time>2026-05-02T14:48:56.001Z</time></trkpt><trkpt lat="45.61009718152744" lon="10.361212628878107"><ele>557.0</ele><time>2026-05-02T14:48:57.001Z</time></trkpt><trkpt lat="45.610207290278865" lon="10.361214380283048"><ele>557.75</ele><time>2026-05-02T14:48:58.001Z</time></trkpt><trkpt lat="45.610324926592284" lon="10.361207838048635"><ele>558.5</ele><time>2026-05-02T14:48:59.001Z</time></trkpt><trkpt lat="45.61043441624307" lon="10.361189243242126"><ele>559.25</ele><time>2026-05-02T14:49:00.001Z</time></trkpt><trkpt lat="45.610547265598406" lon="10.361175543982156"><ele>560.0</ele><time>2026-05-02T14:49:01.001Z</time></trkpt><trkpt lat="45.610664325465876" lon="10.361170172434532"><ele>560.0</ele><time>2026-05-02T14:49:02.001Z</time></trkpt><trkpt lat="45.6107744135396" lon="10.361163234828132"><ele>560.0</ele><time>2026-05-02T14:49:03.001Z</time></trkpt><trkpt lat="45.61088125843303" lon="10.36115898483645"><ele>560.0</ele><time>2026-05-02T14:49:04.001Z</time></trkpt><trkpt lat="45.610993319048724" lon="10.361142028864865"><ele>560.0</ele><time>2026-05-02T14:49:05.001Z</time></trkpt><trkpt lat="45.61111613606222" lon="10.361106837769913"><ele>560.5</ele><time>2026-05-02T14:49:06.001Z</time></trkpt><trkpt lat="45.61123344739478" lon="10.361011015446634"><ele>561.0</ele><time>2026-05-02T14:49:07.001Z</time></trkpt><trkpt lat="45.61134531635912" lon="10.360875757314462"><ele>561.5</ele><time>2026-05-02T14:49:08.001Z</time></trkpt><trkpt lat="45.61143275486991" lon="10.36069541603122"><ele>562.0</ele><time>2026-05-02T14:49:09.001Z</time></trkpt><trkpt lat="45.61149440504864" lon="10.360498277015596"><ele>562.0</ele><time>2026-05-02T14:49:10.001Z</time></trkpt><trkpt lat="45.61153740113496" lon="10.360301912522262"><ele>562.0</ele><time>2026-05-02T14:49:11.001Z</time></trkpt><trkpt lat="45.611591794502814" lon="10.360102928898698"><ele>562.0</ele><time>2026-05-02T14:49:12.001Z</time></trkpt><trkpt lat="45.61164873999234" lon="10.359909039229443"><ele>562.0</ele><time>2026-05-02T14:49:13.001Z</time></trkpt><trkpt lat="45.61170820545339" lon="10.359721846713908"><ele>556.6666666666667</ele><time>2026-05-02T14:49:14.001Z</time></trkpt><trkpt lat="45.611779686538696" lon="10.359532855146233"><ele>551.3333333333334</ele><time>2026-05-02T14:49:15.001Z</time></trkpt><trkpt lat="45.61185987252272" lon="10.359350949196887"><ele>546.0</ele><time>2026-05-02T14:49:16.001Z</time></trkpt><trkpt lat="45.61194241297492" lon="10.359170459339763"><ele>551.6666666666666</ele><time>2026-05-02T14:49:17.001Z</time></trkpt><trkpt lat="45.61202485678835" lon="10.358990648217278"><ele>557.3333333333333</ele><time>2026-05-02T14:49:18.001Z</time></trkpt><trkpt lat="45.612114373752554" lon="10.35880854497521"><ele>563.0</ele><time>2026-05-02T14:49:19.001Z</time></trkpt><trkpt lat="45.612202564769454" lon="10.358623605538757"><ele>563.0</ele><time>2026-05-02T14:49:20.001Z</time></trkpt><trkpt lat="45.612289706592044" lon="10.358443106113041"><ele>563.0</ele><time>2026-05-02T14:49:21.001Z</time></trkpt><trkpt lat="45.612375889782925" lon="10.358256268734149"><ele>563.0</ele><time>2026-05-02T14:49:22.001Z</time></trkpt><trkpt lat="45.61245400625974" lon="10.358081727071287"><ele>560.0</ele><time>2026-05-02T14:49:23.001Z</time></trkpt><trkpt lat="45.61252579359421" lon="10.35791987558291"><ele>557.0</ele><time>2026-05-02T14:49:24.001Z</time></trkpt><trkpt lat="45.61259043933203" lon="10.357783002257765"><ele>554.0</ele><time>2026-05-02T14:49:25.001Z</time></trkpt><trkpt lat="45.61264694981864" lon="10.357651102066443"><ele>551.0</ele><time>2026-05-02T14:49:26.001Z</time></trkpt><trkpt lat="45.6126934309181" lon="10.357557472204078"><ele>548.0</ele><time>2026-05-02T14:49:27.001Z</time></trkpt><trkpt lat="45.61272730039175" lon="10.35746305725199"><ele>548.0000000000001</ele><time>2026-05-02T14:49:28.001Z</time></trkpt><trkpt lat="45.6127482367739" lon="10.357369151047152"><ele>548.0</ele><time>2026-05-02T14:49:29.001Z</time></trkpt><trkpt lat="45.612737824101366" lon="10.357271685222228"><ele>548.0</ele><time>2026-05-02T14:49:30.001Z</time></trkpt><trkpt lat="45.612698503889064" lon="10.357194021858474"><ele>548.0</ele><time>2026-05-02T14:49:31.001Z</time></trkpt><trkpt lat="45.61263335524718" lon="10.357142762740912"><ele>548.0</ele><time>2026-05-02T14:49:32.001Z</time></trkpt><trkpt lat="45.61256655563006" lon="10.357139169032145"><ele>548.0000000000001</ele><time>2026-05-02T14:49:33.001Z</time></trkpt><trkpt lat="45.61250521586899" lon="10.357171096146285"><ele>548.0</ele><time>2026-05-02T14:49:34.001Z</time></trkpt><trkpt lat="45.612453095772324" lon="10.357242081547025"><ele>548.0</ele><time>2026-05-02T14:49:35.001Z</time></trkpt><trkpt lat="45.61241987403582" lon="10.35734402693551"><ele>548.0</ele><time>2026-05-02T14:49:36.001Z</time></trkpt><trkpt lat="45.61241538448274" lon="10.357463284873166"><ele>548.0</ele><time>2026-05-02T14:49:37.001Z</time></trkpt><trkpt lat="45.612393357773854" lon="10.357591389821025"><ele>548.0</ele><time>2026-05-02T14:49:38.001Z</time></trkpt><trkpt lat="45.612373170283384" lon="10.357710813924564"><ele>548.0</ele><time>2026-05-02T14:49:39.001Z</time></trkpt><trkpt lat="45.61236409794304" lon="10.357834598314346"><ele>548.0</ele><time>2026-05-02T14:49:40.001Z</time></trkpt><trkpt lat="45.612321283609155" lon="10.357956007634497"><ele>551.0</ele><time>2026-05-02T14:49:41Z</time></trkpt><trkpt lat="45.612271980404536" lon="10.358079983218584"><ele>554.0</ele><time>2026-05-02T14:49:42Z</time></trkpt><trkpt lat="45.61221389805018" lon="10.358192323033048"><ele>557.0</ele><time>2026-05-02T14:49:43Z</time></trkpt><trkpt lat="45.61215662939472" lon="10.358300870122282"><ele>560.0</ele><time>2026-05-02T14:49:44Z</time></trkpt><trkpt lat="45.6120737217723" lon="10.35837209932648"><ele>563.0</ele><time>2026-05-02T14:49:45Z</time></trkpt><trkpt lat="45.61198931360728" lon="10.358453493284497"><ele>554.75</ele><time>2026-05-02T14:49:46Z</time></trkpt><trkpt lat="45.611892627896516" lon="10.358527737516738"><ele>546.5</ele><time>2026-05-02T14:49:47Z</time></trkpt><trkpt lat="45.61176566362211" lon="10.358609765392998"><ele>538.25</ele><time>2026-05-02T14:49:48Z</time></trkpt><trkpt lat="45.611648723286656" lon="10.358707364936704"><ele>530.0</ele><time>2026-05-02T14:49:49Z</time></trkpt><trkpt lat="45.611532938951875" lon="10.358781312938715"><ele>534.0</ele><time>2026-05-02T14:49:50Z</time></trkpt><trkpt lat="45.611437158789634" lon="10.35887949046372"><ele>538.0</ele><time>2026-05-02T14:49:51Z</time></trkpt><trkpt lat="45.6113584638527" lon="10.359005046367477"><ele>542.0</ele><time>2026-05-02T14:49:52Z</time></trkpt><trkpt lat="45.61130113446988" lon="10.359162786126745"><ele>546.0</ele><time>2026-05-02T14:49:53Z</time></trkpt><trkpt lat="45.611268564806906" lon="10.359342291735526"><ele>546.0</ele><time>2026-05-02T14:49:54Z</time></trkpt><trkpt lat="45.61122349527186" lon="10.35949734477938"><ele>546.0</ele><time>2026-05-02T14:49:55Z</time></trkpt><trkpt lat="45.611160808127124" lon="10.359634534725068"><ele>546.0</ele><time>2026-05-02T14:49:56Z</time></trkpt><trkpt lat="45.61107319046112" lon="10.359729456749937"><ele>546.0</ele><time>2026-05-02T14:49:57Z</time></trkpt><trkpt lat="45.61096075587732" lon="10.35980011947488"><ele>544.75</ele><time>2026-05-02T14:49:58Z</time></trkpt><trkpt lat="45.61083527483872" lon="10.359836377455714"><ele>543.5</ele><time>2026-05-02T14:49:59Z</time></trkpt><trkpt lat="45.61070059558203" lon="10.359882966191545"><ele>542.25</ele><time>2026-05-02T14:50:00Z</time></trkpt><trkpt lat="45.6105743935989" lon="10.359898537200362"><ele>541.0</ele><time>2026-05-02T14:50:01Z</time></trkpt><trkpt lat="45.61044989028684" lon="10.359917553845658"><ele>539.25</ele><time>2026-05-02T14:50:02Z</time></trkpt><trkpt lat="45.61031619270009" lon="10.359934789267477"><ele>537.5</ele><time>2026-05-02T14:50:03Z</time></trkpt><trkpt lat="45.610183555461" lon="10.359962901244785"><ele>535.75</ele><time>2026-05-02T14:50:04Z</time></trkpt><trkpt lat="45.6100713913799" lon="10.359990451604249"><ele>534.0</ele><time>2026-05-02T14:50:05Z</time></trkpt><trkpt lat="45.60996972261644" lon="10.360011745340671"><ele>534.0</ele><time>2026-05-02T14:50:06Z</time></trkpt><trkpt lat="45.609881804843596" lon="10.3600257867388"><ele>534.0</ele><time>2026-05-02T14:50:07Z</time></trkpt><trkpt lat="45.60980561519521" lon="10.360042085896817"><ele>534.0</ele><time>2026-05-02T14:50:08Z</time></trkpt><trkpt lat="45.6097389437653" lon="10.360056216908934"><ele>534.0</ele><time>2026-05-02T14:50:09Z</time></trkpt><trkpt lat="45.60967431966329" lon="10.360036108010455"><ele>534.0</ele><time>2026-05-02T14:50:10Z</time></trkpt><trkpt lat="45.60962363025411" lon="10.359969984384128"><ele>534.0</ele><time>2026-05-02T14:50:11Z</time></trkpt><trkpt lat="45.60961996408631" lon="10.359840840285553"><ele>534.0</ele><time>2026-05-02T14:50:12Z</time></trkpt><trkpt lat="45.60967025827182" lon="10.359719316543323"><ele>534.0</ele><time>2026-05-02T14:50:13Z</time></trkpt><trkpt lat="45.609770324047986" lon="10.35965543207297"><ele>534.0</ele><time>2026-05-02T14:50:14Z</time></trkpt><trkpt lat="45.60990756644532" lon="10.359711254270051"><ele>534.0</ele><time>2026-05-02T14:50:15Z</time></trkpt><trkpt lat="45.610055720921466" lon="10.359696124143774"><ele>534.0</ele><time>2026-05-02T14:50:16Z</time></trkpt><trkpt lat="45.61019546374631" lon="10.359707384781304"><ele>534.0</ele><time>2026-05-02T14:50:17Z</time></trkpt><trkpt lat="45.61033431315852" lon="10.35966147431773"><ele>534.0</ele><time>2026-05-02T14:50:18Z</time></trkpt><trkpt lat="45.610465396197135" lon="10.359584477463315"><ele>534.0</ele><time>2026-05-02T14:50:19Z</time></trkpt><trkpt lat="45.610592900053874" lon="10.359483798047386"><ele>530.3333333333334</ele><time>2026-05-02T14:50:20Z</time></trkpt><trkpt lat="45.61072223771613" lon="10.359348913908091"><ele>526.6666666666667</ele><time>2026-05-02T14:50:21Z</time></trkpt><trkpt lat="45.61083974139787" lon="10.359188372772081"><ele>523.0</ele><time>2026-05-02T14:50:22Z</time></trkpt><trkpt lat="45.61094177512418" lon="10.359010187849812"><ele>525.3333333333334</ele><time>2026-05-02T14:50:23Z</time></trkpt><trkpt lat="45.61102733165539" lon="10.358813838315395"><ele>527.6666666666666</ele><time>2026-05-02T14:50:24.001Z</time></trkpt><trkpt lat="45.61111884541088" lon="10.358619799318568"><ele>530.0</ele><time>2026-05-02T14:50:25Z</time></trkpt><trkpt lat="45.61121032731763" lon="10.358428224908824"><ele>530.0</ele><time>2026-05-02T14:50:26Z</time></trkpt><trkpt lat="45.61130084304558" lon="10.358242960204675"><ele>530.0</ele><time>2026-05-02T14:50:27Z</time></trkpt><trkpt lat="45.61138787923456" lon="10.358077063910505"><ele>530.0</ele><time>2026-05-02T14:50:28Z</time></trkpt><trkpt lat="45.61147260072689" lon="10.357886968275176"><ele>526.75</ele><time>2026-05-02T14:50:29.001Z</time></trkpt><trkpt lat="45.61155041975582" lon="10.357721106348142"><ele>523.5</ele><time>2026-05-02T14:50:30.001Z</time></trkpt><trkpt lat="45.611624285742636" lon="10.357551034270053"><ele>520.25</ele><time>2026-05-02T14:50:31.001Z</time></trkpt><trkpt lat="45.6116910086992" lon="10.357379028431211"><ele>517.0</ele><time>2026-05-02T14:50:32.001Z</time></trkpt><trkpt lat="45.61174679334092" lon="10.357207002958702"><ele>514.5</ele><time>2026-05-02T14:50:33.001Z</time></trkpt><trkpt lat="45.61179747134445" lon="10.357034653735806"><ele>512.0</ele><time>2026-05-02T14:50:34.001Z</time></trkpt><trkpt lat="45.61184355937155" lon="10.356868770571243"><ele>509.5</ele><time>2026-05-02T14:50:35.001Z</time></trkpt><trkpt lat="45.6118934673153" lon="10.35671240498719"><ele>507.0</ele><time>2026-05-02T14:50:36.001Z</time></trkpt><trkpt lat="45.6119412576196" lon="10.356557570033509"><ele>508.25</ele><time>2026-05-02T14:50:37.001Z</time></trkpt><trkpt lat="45.61199055165689" lon="10.356399192653555"><ele>509.5</ele><time>2026-05-02T14:50:38.001Z</time></trkpt><trkpt lat="45.61204123652259" lon="10.356238676030884"><ele>510.75</ele><time>2026-05-02T14:50:39.001Z</time></trkpt><trkpt lat="45.612098428712336" lon="10.356068104549678"><ele>512.0</ele><time>2026-05-02T14:50:40.001Z</time></trkpt><trkpt lat="45.612154102021606" lon="10.35588149978443"><ele>512.0</ele><time>2026-05-02T14:50:41.001Z</time></trkpt><trkpt lat="45.6122060104455" lon="10.355678686635981"><ele>512.0</ele><time>2026-05-02T14:50:42.001Z</time></trkpt><trkpt lat="45.61225282377269" lon="10.355466753984311"><ele>512.0</ele><time>2026-05-02T14:50:43.001Z</time></trkpt><trkpt lat="45.61229851710365" lon="10.355261268165656"><ele>510.66666666666663</ele><time>2026-05-02T14:50:44.001Z</time></trkpt><trkpt lat="45.61234282175086" lon="10.355051173029548"><ele>509.33333333333337</ele><time>2026-05-02T14:50:45.001Z</time></trkpt><trkpt lat="45.61237652271218" lon="10.35484354613837"><ele>508.0</ele><time>2026-05-02T14:50:46.001Z</time></trkpt><trkpt lat="45.612414298384046" lon="10.354626461923242"><ele>505.6666666666667</ele><time>2026-05-02T14:50:47.001Z</time></trkpt><trkpt lat="45.61245402952028" lon="10.354414091863402"><ele>503.33333333333337</ele><time>2026-05-02T14:50:48.001Z</time></trkpt><trkpt lat="45.61248636073481" lon="10.354190314937327"><ele>501.0</ele><time>2026-05-02T14:50:49.001Z</time></trkpt><trkpt lat="45.61249949197973" lon="10.35395308588082"><ele>501.66666666666663</ele><time>2026-05-02T14:50:50.001Z</time></trkpt><trkpt lat="45.61249493723069" lon="10.353703413027773"><ele>502.3333333333333</ele><time>2026-05-02T14:50:51.001Z</time></trkpt><trkpt lat="45.61247633648706" lon="10.35345278286383"><ele>503.0</ele><time>2026-05-02T14:50:52.001Z</time></trkpt><trkpt lat="45.612460574504446" lon="10.35319850543185"><ele>500.66666666666663</ele><time>2026-05-02T14:50:53.001Z</time></trkpt><trkpt lat="45.61245640073485" lon="10.352953578313018"><ele>498.33333333333337</ele><time>2026-05-02T14:50:54.001Z</time></trkpt><trkpt lat="45.612466363253915" lon="10.352710795633762"><ele>496.0</ele><time>2026-05-02T14:50:55.001Z</time></trkpt><trkpt lat="45.612491939094774" lon="10.352481085664486"><ele>496.0</ele><time>2026-05-02T14:50:56.001Z</time></trkpt><trkpt lat="45.612535228568476" lon="10.352249630103788"><ele>496.0</ele><time>2026-05-02T14:50:57.001Z</time></trkpt><trkpt lat="45.61258784797607" lon="10.352001469722262"><ele>496.0</ele><time>2026-05-02T14:50:58.001Z</time></trkpt><trkpt lat="45.612637119679405" lon="10.351748612659785"><ele>493.0</ele><time>2026-05-02T14:50:59.001Z</time></trkpt><trkpt lat="45.61268613387912" lon="10.35149025073689"><ele>490.0</ele><time>2026-05-02T14:51:00.001Z</time></trkpt><trkpt lat="45.61273033228234" lon="10.351234599437245"><ele>487.0</ele><time>2026-05-02T14:51:01.001Z</time></trkpt><trkpt lat="45.61276997030646" lon="10.350985693370008"><ele>484.6666666666667</ele><time>2026-05-02T14:51:02.001Z</time></trkpt><trkpt lat="45.61281812225815" lon="10.350732106076308"><ele>482.33333333333337</ele><time>2026-05-02T14:51:03.001Z</time></trkpt><trkpt lat="45.61285778394512" lon="10.350481202059255"><ele>480.0</ele><time>2026-05-02T14:51:04.001Z</time></trkpt><trkpt lat="45.612905638397976" lon="10.350220611789462"><ele>482.66666666666663</ele><time>2026-05-02T14:51:05.001Z</time></trkpt><trkpt lat="45.612951906267156" lon="10.349955949316396"><ele>485.3333333333333</ele><time>2026-05-02T14:51:06.001Z</time></trkpt><trkpt lat="45.61300278098176" lon="10.34969057394225"><ele>488.0</ele><time>2026-05-02T14:51:07.001Z</time></trkpt><trkpt lat="45.6130440851247" lon="10.34941477737857"><ele>488.0</ele><time>2026-05-02T14:51:08.001Z</time></trkpt><trkpt lat="45.61307664106281" lon="10.349132722199888"><ele>488.0</ele><time>2026-05-02T14:51:09.001Z</time></trkpt><trkpt lat="45.613108382813415" lon="10.348859645313032"><ele>488.0</ele><time>2026-05-02T14:51:10.001Z</time></trkpt><trkpt lat="45.61314235311442" lon="10.348592522471302"><ele>485.66666666666663</ele><time>2026-05-02T14:51:11.001Z</time></trkpt><trkpt lat="45.61317128375955" lon="10.34833516205755"><ele>483.33333333333337</ele><time>2026-05-02T14:51:12.001Z</time></trkpt><trkpt lat="45.61319984393738" lon="10.348098445257868"><ele>481.0</ele><time>2026-05-02T14:51:13.001Z</time></trkpt><trkpt lat="45.61322704459469" lon="10.347875482344197"><ele>479.33333333333337</ele><time>2026-05-02T14:51:14.001Z</time></trkpt><trkpt lat="45.61325533629387" lon="10.347652090034918"><ele>477.66666666666663</ele><time>2026-05-02T14:51:15.001Z</time></trkpt><trkpt lat="45.613289221841946" lon="10.34743064026459"><ele>476.0</ele><time>2026-05-02T14:51:16.001Z</time></trkpt><trkpt lat="45.61333466979803" lon="10.347206658602023"><ele>471.0</ele><time>2026-05-02T14:51:17.001Z</time></trkpt><trkpt lat="45.61339871885274" lon="10.346982607868483"><ele>466.0</ele><time>2026-05-02T14:51:18.001Z</time></trkpt><trkpt lat="45.613474953655455" lon="10.346752644454089"><ele>461.0</ele><time>2026-05-02T14:51:19.001Z</time></trkpt><trkpt lat="45.61356023947717" lon="10.346529180088849"><ele>458.0</ele><time>2026-05-02T14:51:20.001Z</time></trkpt><trkpt lat="45.61364414423039" lon="10.346295346090821"><ele>455.0</ele><time>2026-05-02T14:51:21.001Z</time></trkpt><trkpt lat="45.61372072838652" lon="10.346048538195603"><ele>452.0</ele><time>2026-05-02T14:51:22.001Z</time></trkpt><trkpt lat="45.61380243835888" lon="10.345806811164579"><ele>459.0</ele><time>2026-05-02T14:51:23.001Z</time></trkpt><trkpt lat="45.61387953903309" lon="10.345582252771168"><ele>466.0</ele><time>2026-05-02T14:51:24.001Z</time></trkpt><trkpt lat="45.61394162888958" lon="10.34535421089162"><ele>473.0</ele><time>2026-05-02T14:51:25.001Z</time></trkpt><trkpt lat="45.61397663730359" lon="10.34510868870979"><ele>473.0</ele><time>2026-05-02T14:51:26.001Z</time></trkpt><trkpt lat="45.61399971664532" lon="10.344848795435295"><ele>473.0</ele><time>2026-05-02T14:51:27.001Z</time></trkpt><trkpt lat="45.61400495455817" lon="10.344585998852848"><ele>473.0</ele><time>2026-05-02T14:51:28.001Z</time></trkpt><trkpt lat="45.61401208319381" lon="10.344336001872817"><ele>471.0</ele><time>2026-05-02T14:51:29.001Z</time></trkpt><trkpt lat="45.61403042168116" lon="10.344094542976157"><ele>469.0</ele><time>2026-05-02T14:51:30.001Z</time></trkpt><trkpt lat="45.61409515181097" lon="10.343873893340088"><ele>467.0</ele><time>2026-05-02T14:51:31.001Z</time></trkpt><trkpt lat="45.61415638542643" lon="10.343645249784586"><ele>462.3333333333333</ele><time>2026-05-02T14:51:32.001Z</time></trkpt><trkpt lat="45.61425352237039" lon="10.343448886217287"><ele>457.66666666666663</ele><time>2026-05-02T14:51:33.001Z</time></trkpt><trkpt lat="45.61437290734841" lon="10.343290288941068"><ele>453.0</ele><time>2026-05-02T14:51:34.001Z</time></trkpt><trkpt lat="45.614488757210815" lon="10.343164163015766"><ele>454.0</ele><time>2026-05-02T14:51:35.001Z</time></trkpt><trkpt lat="45.61458929795983" lon="10.343078794762535"><ele>454.99999999999994</ele><time>2026-05-02T14:51:36.001Z</time></trkpt><trkpt lat="45.614669594171055" lon="10.34301588198465"><ele>455.99999999999994</ele><time>2026-05-02T14:51:37.001Z</time></trkpt><trkpt lat="45.6147249988247" lon="10.34293030820031"><ele>457.0</ele><time>2026-05-02T14:51:38.001Z</time></trkpt><trkpt lat="45.614735189802204" lon="10.34280658553463"><ele>458.0</ele><time>2026-05-02T14:51:39.001Z</time></trkpt><trkpt lat="45.614682946070005" lon="10.342691953492533"><ele>458.0</ele><time>2026-05-02T14:51:40.001Z</time></trkpt><trkpt lat="45.61459261242314" lon="10.34262548815493"><ele>458.0</ele><time>2026-05-02T14:51:41.001Z</time></trkpt><trkpt lat="45.614479538672455" lon="10.342671101520116"><ele>458.0</ele><time>2026-05-02T14:51:42.001Z</time></trkpt><trkpt lat="45.61438977552542" lon="10.342789928386678"><ele>458.0</ele><time>2026-05-02T14:51:43.001Z</time></trkpt><trkpt lat="45.61431167896356" lon="10.342984607931509"><ele>456.75</ele><time>2026-05-02T14:51:44.001Z</time></trkpt><trkpt lat="45.61421399265351" lon="10.343139132303458"><ele>455.5</ele><time>2026-05-02T14:51:45.001Z</time></trkpt><trkpt lat="45.614130077476794" lon="10.343291635801874"><ele>454.25</ele><time>2026-05-02T14:51:46.001Z</time></trkpt><trkpt lat="45.61403945988634" lon="10.34345631998116"><ele>453.0</ele><time>2026-05-02T14:51:47Z</time></trkpt><trkpt lat="45.613943644432794" lon="10.343635866003385"><ele>453.0</ele><time>2026-05-02T14:51:48Z</time></trkpt><trkpt lat="45.613865740488905" lon="10.34382986046992"><ele>453.0</ele><time>2026-05-02T14:51:49Z</time></trkpt><trkpt lat="45.61378611037691" lon="10.344021547065973"><ele>453.0</ele><time>2026-05-02T14:51:50Z</time></trkpt><trkpt lat="45.61372045022281" lon="10.344232749507498"><ele>451.33333333333337</ele><time>2026-05-02T14:51:51Z</time></trkpt><trkpt lat="45.61366279962184" lon="10.34445143180004"><ele>449.6666666666667</ele><time>2026-05-02T14:51:52Z</time></trkpt><trkpt lat="45.613597733879644" lon="10.344658881997514"><ele>448.0</ele><time>2026-05-02T14:51:53Z</time></trkpt><trkpt lat="45.61352565963288" lon="10.344851665481045"><ele>448.0</ele><time>2026-05-02T14:51:54Z</time></trkpt><trkpt lat="45.61345084412993" lon="10.345035871030035"><ele>448.0</ele><time>2026-05-02T14:51:55Z</time></trkpt><trkpt lat="45.613376380493044" lon="10.345208740946196"><ele>448.0</ele><time>2026-05-02T14:51:56Z</time></trkpt><trkpt lat="45.613308747468565" lon="10.34536786022291"><ele>448.0</ele><time>2026-05-02T14:51:57Z</time></trkpt><trkpt lat="45.613226533970504" lon="10.345513400467928"><ele>448.6666666666667</ele><time>2026-05-02T14:51:58Z</time></trkpt><trkpt lat="45.61316442256155" lon="10.345657027118506"><ele>449.33333333333337</ele><time>2026-05-02T14:51:59Z</time></trkpt><trkpt lat="45.61310986956988" lon="10.34578006957927"><ele>450.0</ele><time>2026-05-02T14:52:00Z</time></trkpt><trkpt lat="45.61306252761924" lon="10.345883220518093"><ele>450.66666666666663</ele><time>2026-05-02T14:52:01Z</time></trkpt><trkpt lat="45.613019548385154" lon="10.345965615085142"><ele>451.3333333333333</ele><time>2026-05-02T14:52:02Z</time></trkpt><trkpt lat="45.61297777008477" lon="10.34603376757174"><ele>452.0</ele><time>2026-05-02T14:52:03Z</time></trkpt><trkpt lat="45.61286838993895" lon="10.346029836975315"><ele>452.0</ele><time>2026-05-02T14:52:05Z</time></trkpt><trkpt lat="45.612838151336966" lon="10.345921222280133"><ele>452.00000000000006</ele><time>2026-05-02T14:52:06Z</time></trkpt><trkpt lat="45.61285508688615" lon="10.34578208758933"><ele>452.00000000000006</ele><time>2026-05-02T14:52:07Z</time></trkpt><trkpt lat="45.612916667263896" lon="10.345631664397487"><ele>452.0</ele><time>2026-05-02T14:52:08Z</time></trkpt><trkpt lat="45.613005897399965" lon="10.345479694505975"><ele>452.0</ele><time>2026-05-02T14:52:09Z</time></trkpt><trkpt lat="45.61309926069388" lon="10.345313300915592"><ele>450.66666666666663</ele><time>2026-05-02T14:52:10Z</time></trkpt><trkpt lat="45.613180029243736" lon="10.345139101047483"><ele>449.33333333333337</ele><time>2026-05-02T14:52:11Z</time></trkpt><trkpt lat="45.6132543711766" lon="10.344938996531628"><ele>448.0</ele><time>2026-05-02T14:52:12Z</time></trkpt><trkpt lat="45.6133119735366" lon="10.34471773620499"><ele>446.33333333333337</ele><time>2026-05-02T14:52:13Z</time></trkpt><trkpt lat="45.61334978804452" lon="10.344492379327201"><ele>444.66666666666663</ele><time>2026-05-02T14:52:14Z</time></trkpt><trkpt lat="45.61336845344316" lon="10.344265338328235"><ele>443.0</ele><time>2026-05-02T14:52:15Z</time></trkpt><trkpt lat="45.61336868656894" lon="10.34404653780017"><ele>440.3333333333333</ele><time>2026-05-02T14:52:16Z</time></trkpt><trkpt lat="45.61335675924332" lon="10.343822900325973"><ele>437.66666666666663</ele><time>2026-05-02T14:52:17Z</time></trkpt><trkpt lat="45.613339238534756" lon="10.343595785442753"><ele>435.0</ele><time>2026-05-02T14:52:18Z</time></trkpt><trkpt lat="45.613334194109825" lon="10.343375830927322"><ele>435.0</ele><time>2026-05-02T14:52:19Z</time></trkpt><trkpt lat="45.61334085176755" lon="10.343157186660044"><ele>435.0</ele><time>2026-05-02T14:52:20Z</time></trkpt><trkpt lat="45.61337603500774" lon="10.342944750107323"><ele>435.0</ele><time>2026-05-02T14:52:21Z</time></trkpt><trkpt lat="45.61342983259632" lon="10.342717576418472"><ele>432.66666666666663</ele><time>2026-05-02T14:52:22Z</time></trkpt><trkpt lat="45.613496476579826" lon="10.342472150433503"><ele>430.3333333333333</ele><time>2026-05-02T14:52:23Z</time></trkpt><trkpt lat="45.61355508388521" lon="10.342201545913005"><ele>428.0</ele><time>2026-05-02T14:52:24Z</time></trkpt><trkpt lat="45.613597877641126" lon="10.341904424584191"><ele>428.0</ele><time>2026-05-02T14:52:25Z</time></trkpt><trkpt lat="45.61362829719263" lon="10.341594144390468"><ele>428.0</ele><time>2026-05-02T14:52:26Z</time></trkpt><trkpt lat="45.613660097393314" lon="10.34127650764601"><ele>428.0</ele><time>2026-05-02T14:52:27Z</time></trkpt><trkpt lat="45.613692018279274" lon="10.340936297212574"><ele>425.5</ele><time>2026-05-02T14:52:28Z</time></trkpt><trkpt lat="45.61372476477895" lon="10.340592783266171"><ele>423.0</ele><time>2026-05-02T14:52:29Z</time></trkpt><trkpt lat="45.61376800593457" lon="10.340250948690576"><ele>420.5</ele><time>2026-05-02T14:52:30Z</time></trkpt><trkpt lat="45.61381124464026" lon="10.339918394764908"><ele>418.0</ele><time>2026-05-02T14:52:31Z</time></trkpt><trkpt lat="45.613855501619554" lon="10.33958940993447"><ele>418.0</ele><time>2026-05-02T14:52:32Z</time></trkpt><trkpt lat="45.61391165452652" lon="10.339270198646712"><ele>418.0</ele><time>2026-05-02T14:52:33Z</time></trkpt><trkpt lat="45.61395030605007" lon="10.338943867621268"><ele>419.33333333333337</ele><time>2026-05-02T14:52:34Z</time></trkpt><trkpt lat="45.61399778219066" lon="10.338628127938621"><ele>420.66666666666663</ele><time>2026-05-02T14:52:35Z</time></trkpt><trkpt lat="45.61403610326726" lon="10.338333661989436"><ele>422.0</ele><time>2026-05-02T14:52:36Z</time></trkpt><trkpt lat="45.614063140993785" lon="10.338049558275085"><ele>423.0</ele><time>2026-05-02T14:52:37Z</time></trkpt><trkpt lat="45.61407262589819" lon="10.337767353863498"><ele>424.0</ele><time>2026-05-02T14:52:38Z</time></trkpt><trkpt lat="45.614045930415585" lon="10.337486119231047"><ele>425.0</ele><time>2026-05-02T14:52:39Z</time></trkpt><trkpt lat="45.614006842377385" lon="10.337206844219144"><ele>425.0</ele><time>2026-05-02T14:52:40.001Z</time></trkpt><trkpt lat="45.61397212254863" lon="10.336939898924166"><ele>425.0</ele><time>2026-05-02T14:52:41.001Z</time></trkpt><trkpt lat="45.61396051001018" lon="10.336663560079948"><ele>425.0</ele><time>2026-05-02T14:52:42.001Z</time></trkpt><trkpt lat="45.61398104992674" lon="10.336370724832461"><ele>426.3333333333333</ele><time>2026-05-02T14:52:43.001Z</time></trkpt><trkpt lat="45.61400939307297" lon="10.336065147271734"><ele>427.66666666666663</ele><time>2026-05-02T14:52:44.001Z</time></trkpt><trkpt lat="45.6140343555918" lon="10.335768979594347"><ele>429.0</ele><time>2026-05-02T14:52:45.001Z</time></trkpt><trkpt lat="45.61405619927566" lon="10.33546277954256"><ele>429.0</ele><time>2026-05-02T14:52:46.001Z</time></trkpt><trkpt lat="45.61408117843752" lon="10.335160626042239"><ele>429.0</ele><time>2026-05-02T14:52:47.001Z</time></trkpt><trkpt lat="45.614091599773644" lon="10.334853304953608"><ele>429.0</ele><time>2026-05-02T14:52:48.001Z</time></trkpt><trkpt lat="45.61409417881633" lon="10.334550874136843"><ele>424.66666666666663</ele><time>2026-05-02T14:52:49.001Z</time></trkpt><trkpt lat="45.614098273299824" lon="10.334255397931958"><ele>420.3333333333333</ele><time>2026-05-02T14:52:50.001Z</time></trkpt><trkpt lat="45.614098695037015" lon="10.333981016408915"><ele>416.0</ele><time>2026-05-02T14:52:51.001Z</time></trkpt><trkpt lat="45.61410095488304" lon="10.333738867444348"><ele>414.0</ele><time>2026-05-02T14:52:52.001Z</time></trkpt><trkpt lat="45.614108112665534" lon="10.33352898277377"><ele>412.0</ele><time>2026-05-02T14:52:53.001Z</time></trkpt><trkpt lat="45.61411821497418" lon="10.333336779257353"><ele>410.0</ele><time>2026-05-02T14:52:54.001Z</time></trkpt><trkpt lat="45.61411461663597" lon="10.333175839196855"><ele>408.0</ele><time>2026-05-02T14:52:55.001Z</time></trkpt><trkpt lat="45.614081969203646" lon="10.33300502239374"><ele>407.0</ele><time>2026-05-02T14:52:56.001Z</time></trkpt><trkpt lat="45.614026364187275" lon="10.33282048852366"><ele>406.0</ele><time>2026-05-02T14:52:57.001Z</time></trkpt><trkpt lat="45.613941916398126" lon="10.332641968306278"><ele>405.0</ele><time>2026-05-02T14:52:58.001Z</time></trkpt><trkpt lat="45.61383825570599" lon="10.332441963183378"><ele>405.0</ele><time>2026-05-02T14:52:59.001Z</time></trkpt><trkpt lat="45.613735788699884" lon="10.332234583309091"><ele>405.0</ele><time>2026-05-02T14:53:00.001Z</time></trkpt><trkpt lat="45.61362365319831" lon="10.332024930908329"><ele>405.0</ele><time>2026-05-02T14:53:01.001Z</time></trkpt><trkpt lat="45.61351135814241" lon="10.331822964711147"><ele>400.66666666666663</ele><time>2026-05-02T14:53:02.001Z</time></trkpt><trkpt lat="45.613406950351695" lon="10.331626519613542"><ele>396.3333333333333</ele><time>2026-05-02T14:53:03.001Z</time></trkpt><trkpt lat="45.61330941467324" lon="10.331437977460327"><ele>392.0</ele><time>2026-05-02T14:53:04.001Z</time></trkpt><trkpt lat="45.61321485360523" lon="10.331259193001493"><ele>390.5</ele><time>2026-05-02T14:53:05.001Z</time></trkpt><trkpt lat="45.61313440373309" lon="10.33108441742776"><ele>389.0</ele><time>2026-05-02T14:53:06.001Z</time></trkpt><trkpt lat="45.613109737576025" lon="10.330889150749496"><ele>387.5</ele><time>2026-05-02T14:53:07.001Z</time></trkpt><trkpt lat="45.61309809574959" lon="10.330677601984647"><ele>386.0</ele><time>2026-05-02T14:53:08.001Z</time></trkpt><trkpt lat="45.61311921252876" lon="10.330444058590547"><ele>385.66666666666663</ele><time>2026-05-02T14:53:09.001Z</time></trkpt><trkpt lat="45.613120621617625" lon="10.330181092893572"><ele>385.33333333333337</ele><time>2026-05-02T14:53:10.001Z</time></trkpt><trkpt lat="45.613150362691265" lon="10.329913503071309"><ele>385.0</ele><time>2026-05-02T14:53:11.001Z</time></trkpt><trkpt lat="45.613167193870126" lon="10.329630697282491"><ele>384.6666666666667</ele><time>2026-05-02T14:53:12.001Z</time></trkpt><trkpt lat="45.61318243727024" lon="10.329346670966116"><ele>384.33333333333337</ele><time>2026-05-02T14:53:13.001Z</time></trkpt><trkpt lat="45.61319910088555" lon="10.329068937829527"><ele>384.0</ele><time>2026-05-02T14:53:14.001Z</time></trkpt><trkpt lat="45.613218728718486" lon="10.328786875211957"><ele>383.6666666666667</ele><time>2026-05-02T14:53:15.001Z</time></trkpt><trkpt lat="45.61323713606879" lon="10.328501759717556"><ele>383.33333333333337</ele><time>2026-05-02T14:53:16.001Z</time></trkpt><trkpt lat="45.61325112214076" lon="10.328220181687547"><ele>383.0</ele><time>2026-05-02T14:53:17.001Z</time></trkpt><trkpt lat="45.61326795835066" lon="10.327936107454295"><ele>382.0</ele><time>2026-05-02T14:53:18.001Z</time></trkpt><trkpt lat="45.61328871138623" lon="10.327666544042936"><ele>381.0</ele><time>2026-05-02T14:53:19.001Z</time></trkpt><trkpt lat="45.61330953396078" lon="10.327401662812196"><ele>380.0</ele><time>2026-05-02T14:53:20.001Z</time></trkpt><trkpt lat="45.61332351816156" lon="10.327148845000957"><ele>379.5</ele><time>2026-05-02T14:53:21.001Z</time></trkpt><trkpt lat="45.613336376823156" lon="10.326925021820896"><ele>379.0</ele><time>2026-05-02T14:53:22.001Z</time></trkpt><trkpt lat="45.61334634189925" lon="10.32673360287374"><ele>378.5</ele><time>2026-05-02T14:53:23.001Z</time></trkpt><trkpt lat="45.61334702822971" lon="10.32655304708223"><ele>378.0</ele><time>2026-05-02T14:53:24.001Z</time></trkpt><trkpt lat="45.61333712982327" lon="10.32637125568107"><ele>376.75</ele><time>2026-05-02T14:53:25.001Z</time></trkpt><trkpt lat="45.61330204720346" lon="10.326196032825278"><ele>375.5</ele><time>2026-05-02T14:53:26.001Z</time></trkpt><trkpt lat="45.61325730083553" lon="10.326032322774179"><ele>374.25</ele><time>2026-05-02T14:53:27.001Z</time></trkpt><trkpt lat="45.6131927559807" lon="10.32589585268697"><ele>373.0</ele><time>2026-05-02T14:53:28.001Z</time></trkpt><trkpt lat="45.613153467721844" lon="10.325748103907005"><ele>373.0</ele><time>2026-05-02T14:53:29.001Z</time></trkpt><trkpt lat="45.61314097557161" lon="10.325610155092502"><ele>373.0</ele><time>2026-05-02T14:53:30.001Z</time></trkpt><trkpt lat="45.613150437903954" lon="10.325459888365941"><ele>373.0</ele><time>2026-05-02T14:53:31.001Z</time></trkpt><trkpt lat="45.61319091499757" lon="10.325296035648421"><ele>373.0</ele><time>2026-05-02T14:53:32.001Z</time></trkpt><trkpt lat="45.61323792324937" lon="10.325120073576004"><ele>372.5</ele><time>2026-05-02T14:53:33.001Z</time></trkpt><trkpt lat="45.6133132728272" lon="10.324942892751535"><ele>372.0</ele><time>2026-05-02T14:53:34.001Z</time></trkpt><trkpt lat="45.613388706743464" lon="10.324767192746076"><ele>371.5</ele><time>2026-05-02T14:53:35.001Z</time></trkpt><trkpt lat="45.613462599234225" lon="10.324580103487277"><ele>371.0</ele><time>2026-05-02T14:53:36.001Z</time></trkpt><trkpt lat="45.61352226224478" lon="10.324397181095723"><ele>370.20000000000005</ele><time>2026-05-02T14:53:37.001Z</time></trkpt><trkpt lat="45.613566231609205" lon="10.324232489399229"><ele>369.40000000000003</ele><time>2026-05-02T14:53:38.001Z</time></trkpt><trkpt lat="45.61359899855464" lon="10.32407655561036"><ele>368.6</ele><time>2026-05-02T14:53:39.001Z</time></trkpt><trkpt lat="45.613607998581486" lon="10.323922731809777"><ele>367.8</ele><time>2026-05-02T14:53:40.001Z</time></trkpt><trkpt lat="45.613592321394805" lon="10.32377549845534"><ele>367.0</ele><time>2026-05-02T14:53:41.001Z</time></trkpt><trkpt lat="45.6135625538177" lon="10.323605278806237"><ele>366.75</ele><time>2026-05-02T14:53:42.001Z</time></trkpt><trkpt lat="45.613520517498564" lon="10.323427172737828"><ele>366.5</ele><time>2026-05-02T14:53:43.001Z</time></trkpt><trkpt lat="45.61347359129383" lon="10.323262944495113"><ele>366.25</ele><time>2026-05-02T14:53:44.001Z</time></trkpt><trkpt lat="45.61343069347704" lon="10.323093670363175"><ele>366.0</ele><time>2026-05-02T14:53:45.001Z</time></trkpt><trkpt lat="45.613410436634844" lon="10.322929823242083"><ele>365.5</ele><time>2026-05-02T14:53:46.001Z</time></trkpt><trkpt lat="45.613389622972875" lon="10.322776835294937"><ele>365.0</ele><time>2026-05-02T14:53:47.001Z</time></trkpt><trkpt lat="45.613378633753136" lon="10.3226041783507"><ele>364.5</ele><time>2026-05-02T14:53:48.001Z</time></trkpt><trkpt lat="45.61336773670073" lon="10.322433352925058"><ele>364.0</ele><time>2026-05-02T14:53:49.001Z</time></trkpt><trkpt lat="45.61335518820623" lon="10.322268457026809"><ele>363.5</ele><time>2026-05-02T14:53:50.001Z</time></trkpt><trkpt lat="45.61334810081916" lon="10.322100791234465"><ele>363.0</ele><time>2026-05-02T14:53:51.001Z</time></trkpt><trkpt lat="45.613336287009226" lon="10.321925550501662"><ele>362.5</ele><time>2026-05-02T14:53:52.001Z</time></trkpt><trkpt lat="45.61332483567142" lon="10.32174031481188"><ele>362.0</ele><time>2026-05-02T14:53:53Z</time></trkpt><trkpt lat="45.61330747720588" lon="10.32154632155114"><ele>362.25</ele><time>2026-05-02T14:53:54Z</time></trkpt><trkpt lat="45.613299394379396" lon="10.321354742049914"><ele>362.5</ele><time>2026-05-02T14:53:55Z</time></trkpt><trkpt lat="45.61329480803715" lon="10.321154558675257"><ele>362.75</ele><time>2026-05-02T14:53:56Z</time></trkpt><trkpt lat="45.613279726519124" lon="10.320968923441088"><ele>363.0</ele><time>2026-05-02T14:53:57Z</time></trkpt><trkpt lat="45.61325789113196" lon="10.320787225729616"><ele>363.0</ele><time>2026-05-02T14:53:58Z</time></trkpt><trkpt lat="45.61322526089238" lon="10.320598923246182"><ele>363.0</ele><time>2026-05-02T14:53:59Z</time></trkpt><trkpt lat="45.61319689288701" lon="10.320403954321547"><ele>363.0</ele><time>2026-05-02T14:54:00Z</time></trkpt><trkpt lat="45.61317454027927" lon="10.320216888267762"><ele>363.0</ele><time>2026-05-02T14:54:01Z</time></trkpt><trkpt lat="45.613168800147854" lon="10.320027224619716"><ele>362.75</ele><time>2026-05-02T14:54:02Z</time></trkpt><trkpt lat="45.61316349830734" lon="10.319825829654615"><ele>362.5</ele><time>2026-05-02T14:54:03Z</time></trkpt><trkpt lat="45.61316418484364" lon="10.319623706255223"><ele>362.25</ele><time>2026-05-02T14:54:04Z</time></trkpt><trkpt lat="45.61316814313748" lon="10.319420518524733"><ele>362.0</ele><time>2026-05-02T14:54:05Z</time></trkpt><trkpt lat="45.6131760779253" lon="10.31921064443842"><ele>362.0</ele><time>2026-05-02T14:54:06Z</time></trkpt><trkpt lat="45.61318250642165" lon="10.31899246557745"><ele>362.0</ele><time>2026-05-02T14:54:07Z</time></trkpt><trkpt lat="45.61321422041283" lon="10.318781159137146"><ele>362.0</ele><time>2026-05-02T14:54:08Z</time></trkpt><trkpt lat="45.613216271563" lon="10.318585221431155"><ele>362.0</ele><time>2026-05-02T14:54:09Z</time></trkpt><trkpt lat="45.61324110400496" lon="10.318405218485902"><ele>361.75</ele><time>2026-05-02T14:54:10Z</time></trkpt><trkpt lat="45.613245807935456" lon="10.31823723568272"><ele>361.5</ele><time>2026-05-02T14:54:11Z</time></trkpt><trkpt lat="45.613219223186064" lon="10.31807917892203"><ele>361.25</ele><time>2026-05-02T14:54:12Z</time></trkpt><trkpt lat="45.61316057981053" lon="10.317928418901735"><ele>361.0</ele><time>2026-05-02T14:54:13Z</time></trkpt><trkpt lat="45.613081874573446" lon="10.317792869505672"><ele>362.75</ele><time>2026-05-02T14:54:14Z</time></trkpt><trkpt lat="45.61303686264067" lon="10.3176339637242"><ele>364.5</ele><time>2026-05-02T14:54:15Z</time></trkpt><trkpt lat="45.613012365308045" lon="10.317472688572268"><ele>366.25</ele><time>2026-05-02T14:54:16Z</time></trkpt><trkpt lat="45.61300640717861" lon="10.317303643704474"><ele>368.0</ele><time>2026-05-02T14:54:17Z</time></trkpt><trkpt lat="45.613006426823986" lon="10.317160164419088"><ele>369.2</ele><time>2026-05-02T14:54:18Z</time></trkpt><trkpt lat="45.6130033572644" lon="10.317045724999232"><ele>370.4</ele><time>2026-05-02T14:54:19Z</time></trkpt><trkpt lat="45.61300903878304" lon="10.316952138890278"><ele>371.59999999999997</ele><time>2026-05-02T14:54:20Z</time></trkpt><trkpt lat="45.61290889708167" lon="10.316795206287756"><ele>372.79999999999995</ele><time>2026-05-02T14:54:22Z</time></trkpt><trkpt lat="45.6128064805289" lon="10.316749145968696"><ele>374.0</ele><time>2026-05-02T14:54:23Z</time></trkpt><trkpt lat="45.61267831059877" lon="10.316713292891977"><ele>374.25</ele><time>2026-05-02T14:54:24Z</time></trkpt><trkpt lat="45.612554133968025" lon="10.316658932717944"><ele>374.5</ele><time>2026-05-02T14:54:25Z</time></trkpt><trkpt lat="45.612438468955766" lon="10.316597252375423"><ele>374.75</ele><time>2026-05-02T14:54:26Z</time></trkpt><trkpt lat="45.61232710751368" lon="10.316522566305272"><ele>375.0</ele><time>2026-05-02T14:54:27Z</time></trkpt><trkpt lat="45.61222236653744" lon="10.316398688913019"><ele>375.0</ele><time>2026-05-02T14:54:28Z</time></trkpt><trkpt lat="45.61210465163711" lon="10.31628722728257"><ele>375.0</ele><time>2026-05-02T14:54:29Z</time></trkpt><trkpt lat="45.61200499713866" lon="10.316171955060748"><ele>375.0</ele><time>2026-05-02T14:54:30Z</time></trkpt><trkpt lat="45.61192443804377" lon="10.31604341675019"><ele>375.0</ele><time>2026-05-02T14:54:31Z</time></trkpt><trkpt lat="45.61183043901949" lon="10.315929066159063"><ele>373.75</ele><time>2026-05-02T14:54:32Z</time></trkpt><trkpt lat="45.61175323857873" lon="10.315777450166754"><ele>372.5</ele><time>2026-05-02T14:54:33Z</time></trkpt><trkpt lat="45.61167836231882" lon="10.315623238440676"><ele>371.25</ele><time>2026-05-02T14:54:34Z</time></trkpt><trkpt lat="45.611609237784904" lon="10.315481291285641"><ele>370.0</ele><time>2026-05-02T14:54:35Z</time></trkpt><trkpt lat="45.611521704018266" lon="10.315376607304417"><ele>370.0</ele><time>2026-05-02T14:54:36Z</time></trkpt><trkpt lat="45.61142031819079" lon="10.315297065174871"><ele>370.0</ele><time>2026-05-02T14:54:37Z</time></trkpt><trkpt lat="45.61131277747259" lon="10.315238873107559"><ele>370.0</ele><time>2026-05-02T14:54:38Z</time></trkpt><trkpt lat="45.61120012637379" lon="10.315166731798001"><ele>370.0</ele><time>2026-05-02T14:54:39Z</time></trkpt><trkpt lat="45.611087718066166" lon="10.315099338504954"><ele>369.25</ele><time>2026-05-02T14:54:40Z</time></trkpt><trkpt lat="45.610980021611695" lon="10.315032136689466"><ele>368.5</ele><time>2026-05-02T14:54:41Z</time></trkpt><trkpt lat="45.61088075413094" lon="10.314935222603992"><ele>367.75</ele><time>2026-05-02T14:54:42Z</time></trkpt><trkpt lat="45.610789993127035" lon="10.314809160585796"><ele>367.0</ele><time>2026-05-02T14:54:43Z</time></trkpt><trkpt lat="45.61071372781169" lon="10.314648516598952"><ele>367.0</ele><time>2026-05-02T14:54:44Z</time></trkpt><trkpt lat="45.61061450777626" lon="10.314511710476014"><ele>367.0</ele><time>2026-05-02T14:54:45Z</time></trkpt><trkpt lat="45.61051104691721" lon="10.314392514496515"><ele>367.0</ele><time>2026-05-02T14:54:46Z</time></trkpt><trkpt lat="45.61040191253393" lon="10.314300821903261"><ele>367.0</ele><time>2026-05-02T14:54:47Z</time></trkpt><trkpt lat="45.61028257327463" lon="10.314233370329468"><ele>362.0</ele><time>2026-05-02T14:54:48Z</time></trkpt><trkpt lat="45.61015012081783" lon="10.314175869055505"><ele>357.0</ele><time>2026-05-02T14:54:49Z</time></trkpt><trkpt lat="45.610008773732446" lon="10.314123143225364"><ele>352.0</ele><time>2026-05-02T14:54:50Z</time></trkpt><trkpt lat="45.60986540936938" lon="10.314082832133533"><ele>347.0</ele><time>2026-05-02T14:54:51Z</time></trkpt><trkpt lat="45.609728616595575" lon="10.314036016769723"><ele>347.0</ele><time>2026-05-02T14:54:52Z</time></trkpt><trkpt lat="45.609599567142794" lon="10.31396326985001"><ele>347.0</ele><time>2026-05-02T14:54:53Z</time></trkpt><trkpt lat="45.60948140964428" lon="10.313863267147065"><ele>347.0</ele><time>2026-05-02T14:54:54Z</time></trkpt><trkpt lat="45.60937477194509" lon="10.31374640537079"><ele>347.0</ele><time>2026-05-02T14:54:55Z</time></trkpt><trkpt lat="45.609272087085806" lon="10.313602548870668"><ele>345.0</ele><time>2026-05-02T14:54:56.001Z</time></trkpt><trkpt lat="45.609170549460856" lon="10.313442798225388"><ele>343.0</ele><time>2026-05-02T14:54:57.001Z</time></trkpt><trkpt lat="45.609083360467665" lon="10.31326860426757"><ele>341.0</ele><time>2026-05-02T14:54:58.001Z</time></trkpt><trkpt lat="45.60901477905578" lon="10.313077760379725"><ele>341.6666666666667</ele><time>2026-05-02T14:54:59.001Z</time></trkpt><trkpt lat="45.608954302990604" lon="10.312871861263469"><ele>342.3333333333333</ele><time>2026-05-02T14:55:00.001Z</time></trkpt><trkpt lat="45.60889933854421" lon="10.31266344867629"><ele>343.0</ele><time>2026-05-02T14:55:01.001Z</time></trkpt><trkpt lat="45.60885062050453" lon="10.312464775748696"><ele>343.0</ele><time>2026-05-02T14:55:02.001Z</time></trkpt><trkpt lat="45.60880199805942" lon="10.312288703971326"><ele>343.0</ele><time>2026-05-02T14:55:03.001Z</time></trkpt><trkpt lat="45.608750967399935" lon="10.31213697681835"><ele>343.0</ele><time>2026-05-02T14:55:04.001Z</time></trkpt><trkpt lat="45.6086810935573" lon="10.311999801712405"><ele>343.0</ele><time>2026-05-02T14:55:05.001Z</time></trkpt><trkpt lat="45.60859250600447" lon="10.311879438425532"><ele>340.75</ele><time>2026-05-02T14:55:06.001Z</time></trkpt><trkpt lat="45.60849038130968" lon="10.311758572520015"><ele>338.5</ele><time>2026-05-02T14:55:07.001Z</time></trkpt><trkpt lat="45.60837421086781" lon="10.31163997209649"><ele>336.25</ele><time>2026-05-02T14:55:08.001Z</time></trkpt><trkpt lat="45.60824539394138" lon="10.311525366617682"><ele>334.0</ele><time>2026-05-02T14:55:09.001Z</time></trkpt><trkpt lat="45.60810994963835" lon="10.311415090488884"><ele>333.3333333333333</ele><time>2026-05-02T14:55:10.001Z</time></trkpt><trkpt lat="45.607970000351045" lon="10.311293817823888"><ele>332.6666666666667</ele><time>2026-05-02T14:55:11.001Z</time></trkpt><trkpt lat="45.60783868217405" lon="10.311164071353804"><ele>332.0</ele><time>2026-05-02T14:55:12.001Z</time></trkpt><trkpt lat="45.607711966126985" lon="10.311053143758162"><ele>332.0</ele><time>2026-05-02T14:55:13.001Z</time></trkpt><trkpt lat="45.60757532231034" lon="10.310956174379726"><ele>332.0</ele><time>2026-05-02T14:55:14.001Z</time></trkpt><trkpt lat="45.6074273651016" lon="10.310873494807307"><ele>332.0</ele><time>2026-05-02T14:55:15.001Z</time></trkpt><trkpt lat="45.60727868663935" lon="10.310807531065914"><ele>332.0</ele><time>2026-05-02T14:55:16.001Z</time></trkpt><trkpt lat="45.60712868751012" lon="10.31074945334104"><ele>332.0</ele><time>2026-05-02T14:55:17.001Z</time></trkpt><trkpt lat="45.606999980111276" lon="10.31069877419448"><ele>332.0</ele><time>2026-05-02T14:55:18.001Z</time></trkpt><trkpt lat="45.606864110608726" lon="10.31065654262556"><ele>332.0</ele><time>2026-05-02T14:55:19.001Z</time></trkpt><trkpt lat="45.60673037555286" lon="10.310582047594753"><ele>333.0</ele><time>2026-05-02T14:55:20.001Z</time></trkpt><trkpt lat="45.60659787844625" lon="10.310535800511857"><ele>334.0</ele><time>2026-05-02T14:55:21.001Z</time></trkpt><trkpt lat="45.60646157306002" lon="10.31046125557761"><ele>335.0</ele><time>2026-05-02T14:55:22.001Z</time></trkpt><trkpt lat="45.60632782683992" lon="10.310395879965323"><ele>336.0</ele><time>2026-05-02T14:55:23.001Z</time></trkpt><trkpt lat="45.60619913894893" lon="10.310335327876173"><ele>332.75</ele><time>2026-05-02T14:55:24.001Z</time></trkpt><trkpt lat="45.606062463054236" lon="10.310274104336726"><ele>329.5</ele><time>2026-05-02T14:55:25.001Z</time></trkpt><trkpt lat="45.60592036661232" lon="10.31021578394693"><ele>326.25</ele><time>2026-05-02T14:55:26.001Z</time></trkpt><trkpt lat="45.60577673663597" lon="10.310168413094186"><ele>323.0</ele><time>2026-05-02T14:55:27.001Z</time></trkpt><trkpt lat="45.60563473548712" lon="10.31010945891391"><ele>323.0</ele><time>2026-05-02T14:55:28.001Z</time></trkpt><trkpt lat="45.605487350303534" lon="10.310053159439105"><ele>323.0</ele><time>2026-05-02T14:55:29.001Z</time></trkpt><trkpt lat="45.60534089108026" lon="10.309999827768275"><ele>323.0</ele><time>2026-05-02T14:55:30.001Z</time></trkpt><trkpt lat="45.6051916892558" lon="10.309967309019612"><ele>321.6666666666667</ele><time>2026-05-02T14:55:31.001Z</time></trkpt><trkpt lat="45.60503671548639" lon="10.309986953561548"><ele>320.3333333333333</ele><time>2026-05-02T14:55:32.001Z</time></trkpt><trkpt lat="45.60488506717417" lon="10.309999590581992"><ele>319.0</ele><time>2026-05-02T14:55:33.001Z</time></trkpt><trkpt lat="45.60473535635008" lon="10.310006921049121"><ele>319.0</ele><time>2026-05-02T14:55:34.001Z</time></trkpt><trkpt lat="45.60459672314246" lon="10.31001480561282"><ele>319.0</ele><time>2026-05-02T14:55:35.001Z</time></trkpt><trkpt lat="45.60446544069128" lon="10.310018711428564"><ele>319.0</ele><time>2026-05-02T14:55:36.001Z</time></trkpt><trkpt lat="45.604340305737374" lon="10.310013426462676"><ele>319.0</ele><time>2026-05-02T14:55:37.001Z</time></trkpt><trkpt lat="45.60421598197054" lon="10.30998838419357"><ele>318.25</ele><time>2026-05-02T14:55:38.001Z</time></trkpt><trkpt lat="45.60410131564119" lon="10.309918580622615"><ele>317.5</ele><time>2026-05-02T14:55:39.001Z</time></trkpt><trkpt lat="45.603996078674534" lon="10.30979697200027"><ele>316.75</ele><time>2026-05-02T14:55:40.001Z</time></trkpt><trkpt lat="45.60389811113437" lon="10.309646834240922"><ele>316.0</ele><time>2026-05-02T14:55:41.001Z</time></trkpt><trkpt lat="45.603798483928465" lon="10.309485875446311"><ele>316.0</ele><time>2026-05-02T14:55:42.001Z</time></trkpt><trkpt lat="45.60369492282165" lon="10.309328813748822"><ele>316.0</ele><time>2026-05-02T14:55:43.001Z</time></trkpt><trkpt lat="45.603583983468546" lon="10.309176751194716"><ele>316.0</ele><time>2026-05-02T14:55:44.001Z</time></trkpt><trkpt lat="45.603478273837275" lon="10.309028110518538"><ele>315.0</ele><time>2026-05-02T14:55:45.001Z</time></trkpt><trkpt lat="45.60337752228616" lon="10.308889274100098"><ele>314.0</ele><time>2026-05-02T14:55:46.001Z</time></trkpt><trkpt lat="45.603286347970595" lon="10.308761222215892"><ele>313.0</ele><time>2026-05-02T14:55:47.001Z</time></trkpt><trkpt lat="45.603197664866244" lon="10.308628457814313"><ele>312.0</ele><time>2026-05-02T14:55:48.001Z</time></trkpt><trkpt lat="45.60310897873146" lon="10.308488045124887"><ele>312.0</ele><time>2026-05-02T14:55:49.001Z</time></trkpt><trkpt lat="45.60301604837166" lon="10.308349889562901"><ele>312.0</ele><time>2026-05-02T14:55:50.001Z</time></trkpt><trkpt lat="45.602920272992556" lon="10.308215719828617"><ele>312.0</ele><time>2026-05-02T14:55:51.001Z</time></trkpt><trkpt lat="45.60281886205254" lon="10.308088575311608"><ele>312.0</ele><time>2026-05-02T14:55:52.001Z</time></trkpt><trkpt lat="45.6027188984096" lon="10.30795217566822"><ele>311.0</ele><time>2026-05-02T14:55:53.001Z</time></trkpt><trkpt lat="45.60261856772876" lon="10.30780173085"><ele>310.0</ele><time>2026-05-02T14:55:54.001Z</time></trkpt><trkpt lat="45.60251838255397" lon="10.307672778579198"><ele>309.0</ele><time>2026-05-02T14:55:55.001Z</time></trkpt><trkpt lat="45.6024062618747" lon="10.307553968039121"><ele>308.0</ele><time>2026-05-02T14:55:56.001Z</time></trkpt><trkpt lat="45.60227855080494" lon="10.307459597494459"><ele>308.0</ele><time>2026-05-02T14:55:57.001Z</time></trkpt><trkpt lat="45.602140005843864" lon="10.307383978405225"><ele>308.0</ele><time>2026-05-02T14:55:58.001Z</time></trkpt><trkpt lat="45.601992760142515" lon="10.307334208862702"><ele>308.0</ele><time>2026-05-02T14:55:59Z</time></trkpt><trkpt lat="45.60184175038351" lon="10.307289901427367"><ele>308.6666666666667</ele><time>2026-05-02T14:56:00Z</time></trkpt><trkpt lat="45.601685453684745" lon="10.307242595417074"><ele>309.3333333333333</ele><time>2026-05-02T14:56:01Z</time></trkpt><trkpt lat="45.6015259807363" lon="10.307193725987227"><ele>310.0</ele><time>2026-05-02T14:56:02Z</time></trkpt><trkpt lat="45.60137309296149" lon="10.307154619008271"><ele>310.0</ele><time>2026-05-02T14:56:03Z</time></trkpt><trkpt lat="45.6012186242926" lon="10.307143769917484"><ele>310.0</ele><time>2026-05-02T14:56:04Z</time></trkpt><trkpt lat="45.60106742405477" lon="10.307144157036523"><ele>310.0</ele><time>2026-05-02T14:56:05Z</time></trkpt><trkpt lat="45.6009190056111" lon="10.307168533742193"><ele>310.3333333333333</ele><time>2026-05-02T14:56:06Z</time></trkpt><trkpt lat="45.600772357821256" lon="10.307222274327767"><ele>310.6666666666667</ele><time>2026-05-02T14:56:07Z</time></trkpt><trkpt lat="45.60062607532123" lon="10.307293887190156"><ele>311.0</ele><time>2026-05-02T14:56:08Z</time></trkpt><trkpt lat="45.600483239565484" lon="10.307372566196463"><ele>310.0</ele><time>2026-05-02T14:56:09Z</time></trkpt><trkpt lat="45.600347074845466" lon="10.307471385435838"><ele>309.0</ele><time>2026-05-02T14:56:10Z</time></trkpt><trkpt lat="45.600206640490896" lon="10.307575661703568"><ele>308.0</ele><time>2026-05-02T14:56:11Z</time></trkpt><trkpt lat="45.60005913415227" lon="10.307677618275836"><ele>308.0</ele><time>2026-05-02T14:56:12Z</time></trkpt><trkpt lat="45.599911546373946" lon="10.307790629794384"><ele>308.0</ele><time>2026-05-02T14:56:13Z</time></trkpt><trkpt lat="45.59976406856848" lon="10.307893376600578"><ele>308.0</ele><time>2026-05-02T14:56:14Z</time></trkpt><trkpt lat="45.59961935002228" lon="10.30798426208512"><ele>305.33333333333337</ele><time>2026-05-02T14:56:15Z</time></trkpt><trkpt lat="45.599471103271064" lon="10.308070938217659"><ele>302.6666666666667</ele><time>2026-05-02T14:56:16Z</time></trkpt><trkpt lat="45.59932815667902" lon="10.308171985532955"><ele>300.0</ele><time>2026-05-02T14:56:17Z</time></trkpt><trkpt lat="45.59919472959586" lon="10.308289117429146"><ele>300.0</ele><time>2026-05-02T14:56:18Z</time></trkpt><trkpt lat="45.59905516618558" lon="10.308375391686596"><ele>300.0</ele><time>2026-05-02T14:56:19Z</time></trkpt><trkpt lat="45.59892265324682" lon="10.308480469229748"><ele>300.0</ele><time>2026-05-02T14:56:20Z</time></trkpt><trkpt lat="45.59879035613779" lon="10.308581018402396"><ele>300.0</ele><time>2026-05-02T14:56:21Z</time></trkpt><trkpt lat="45.59866783202143" lon="10.308690213882153"><ele>300.0</ele><time>2026-05-02T14:56:22Z</time></trkpt><trkpt lat="45.598568324326024" lon="10.308870656960043"><ele>300.0</ele><time>2026-05-02T14:56:23Z</time></trkpt><trkpt lat="45.59847693251032" lon="10.309022347963731"><ele>300.0</ele><time>2026-05-02T14:56:24Z</time></trkpt><trkpt lat="45.598375039983814" lon="10.309151784742872"><ele>298.75</ele><time>2026-05-02T14:56:25Z</time></trkpt><trkpt lat="45.59827391318164" lon="10.309261674016735"><ele>297.5</ele><time>2026-05-02T14:56:26Z</time></trkpt><trkpt lat="45.59815474946586" lon="10.309328890318037"><ele>296.25</ele><time>2026-05-02T14:56:27Z</time></trkpt><trkpt lat="45.59802022973682" lon="10.30936899553567"><ele>295.0</ele><time>2026-05-02T14:56:28Z</time></trkpt><trkpt lat="45.59788297373986" lon="10.309375689909002"><ele>294.25</ele><time>2026-05-02T14:56:29Z</time></trkpt><trkpt lat="45.59774159253421" lon="10.309332172058829"><ele>293.5</ele><time>2026-05-02T14:56:30Z</time></trkpt><trkpt lat="45.59759852901813" lon="10.309318679582638"><ele>292.75</ele><time>2026-05-02T14:56:31Z</time></trkpt><trkpt lat="45.597459904204555" lon="10.30927239770909"><ele>292.0</ele><time>2026-05-02T14:56:32Z</time></trkpt><trkpt lat="45.59731258548915" lon="10.309240796143058"><ele>292.0</ele><time>2026-05-02T14:56:33Z</time></trkpt><trkpt lat="45.597161413777776" lon="10.309231114861356"><ele>292.0</ele><time>2026-05-02T14:56:34Z</time></trkpt><trkpt lat="45.59701309475452" lon="10.309246604423024"><ele>292.0</ele><time>2026-05-02T14:56:35Z</time></trkpt><trkpt lat="45.59687784282766" lon="10.30927589942949"><ele>292.0</ele><time>2026-05-02T14:56:36Z</time></trkpt><trkpt lat="45.59675962742459" lon="10.309346284012946"><ele>291.75</ele><time>2026-05-02T14:56:37Z</time></trkpt><trkpt lat="45.596662312021884" lon="10.309439093094623"><ele>291.5</ele><time>2026-05-02T14:56:38Z</time></trkpt><trkpt lat="45.59657358759069" lon="10.309538201339143"><ele>291.25</ele><time>2026-05-02T14:56:39Z</time></trkpt><trkpt lat="45.59647537041825" lon="10.30960323423117"><ele>291.0</ele><time>2026-05-02T14:56:40Z</time></trkpt><trkpt lat="45.596358403031125" lon="10.309619793037253"><ele>291.0</ele><time>2026-05-02T14:56:41Z</time></trkpt><trkpt lat="45.59623352862737" lon="10.309570415802881"><ele>291.0</ele><time>2026-05-02T14:56:42Z</time></trkpt><trkpt lat="45.5960995273093" lon="10.309566082447361"><ele>291.0</ele><time>2026-05-02T14:56:43Z</time></trkpt><trkpt lat="45.59596303695138" lon="10.309557465692428"><ele>291.0</ele><time>2026-05-02T14:56:44Z</time></trkpt><trkpt lat="45.59582530865387" lon="10.309593243556659"><ele>290.0</ele><time>2026-05-02T14:56:45Z</time></trkpt><trkpt lat="45.59570137423183" lon="10.309657647391607"><ele>289.0</ele><time>2026-05-02T14:56:46Z</time></trkpt><trkpt lat="45.59558312390952" lon="10.309752743008985"><ele>288.0</ele><time>2026-05-02T14:56:47Z</time></trkpt><trkpt lat="45.595463642858824" lon="10.309879187786937"><ele>287.0</ele><time>2026-05-02T14:56:48Z</time></trkpt><trkpt lat="45.59534022191875" lon="10.309993165877303"><ele>288.25</ele><time>2026-05-02T14:56:49Z</time></trkpt><trkpt lat="45.5952227468579" lon="10.31008610737987"><ele>289.5</ele><time>2026-05-02T14:56:50Z</time></trkpt><trkpt lat="45.5951014759722" lon="10.310166379886814"><ele>290.75</ele><time>2026-05-02T14:56:51Z</time></trkpt><trkpt lat="45.59498314572019" lon="10.31024250283577"><ele>292.0</ele><time>2026-05-02T14:56:52Z</time></trkpt><trkpt lat="45.59488264288336" lon="10.310313681668571"><ele>292.0</ele><time>2026-05-02T14:56:53Z</time></trkpt><trkpt lat="45.59476962678624" lon="10.310383357344355"><ele>292.0</ele><time>2026-05-02T14:56:54Z</time></trkpt><trkpt lat="45.594658521289425" lon="10.310436962874302"><ele>292.0</ele><time>2026-05-02T14:56:55Z</time></trkpt><trkpt lat="45.59453232263376" lon="10.310471446586142"><ele>292.0</ele><time>2026-05-02T14:56:56Z</time></trkpt><trkpt lat="45.59439193374526" lon="10.310474989110311"><ele>291.3333333333333</ele><time>2026-05-02T14:56:57Z</time></trkpt><trkpt lat="45.59424289683213" lon="10.310464718346983"><ele>290.6666666666667</ele><time>2026-05-02T14:56:58Z</time></trkpt><trkpt lat="45.594086337112095" lon="10.310447711515804"><ele>290.0</ele><time>2026-05-02T14:56:59Z</time></trkpt><trkpt lat="45.593933808312485" lon="10.310439209929791"><ele>290.0</ele><time>2026-05-02T14:57:00Z</time></trkpt><trkpt lat="45.59378742804305" lon="10.310447166932857"><ele>290.0</ele><time>2026-05-02T14:57:01Z</time></trkpt><trkpt lat="45.593649144101256" lon="10.310475145615717"><ele>290.0</ele><time>2026-05-02T14:57:02Z</time></trkpt><trkpt lat="45.593522064591305" lon="10.310530890142067"><ele>290.0</ele><time>2026-05-02T14:57:03Z</time></trkpt><trkpt lat="45.5934018935382" lon="10.310610680853081"><ele>285.5</ele><time>2026-05-02T14:57:04Z</time></trkpt><trkpt lat="45.59328330703868" lon="10.310686685487632"><ele>281.0</ele><time>2026-05-02T14:57:05Z</time></trkpt><trkpt lat="45.59316799171987" lon="10.310759990841586"><ele>276.5</ele><time>2026-05-02T14:57:06Z</time></trkpt><trkpt lat="45.59306066315215" lon="10.310810624228928"><ele>272.0</ele><time>2026-05-02T14:57:07Z</time></trkpt><trkpt lat="45.592948614887156" lon="10.310806979647896"><ele>272.0</ele><time>2026-05-02T14:57:08Z</time></trkpt><trkpt lat="45.5928415501941" lon="10.31080780070484"><ele>272.0</ele><time>2026-05-02T14:57:09Z</time></trkpt><trkpt lat="45.59275154059066" lon="10.31069327104026"><ele>272.0</ele><time>2026-05-02T14:57:10Z</time></trkpt><trkpt lat="45.59265272478671" lon="10.310587682921458"><ele>272.0</ele><time>2026-05-02T14:57:11.001Z</time></trkpt><trkpt lat="45.592542954384754" lon="10.31048204552449"><ele>271.5</ele><time>2026-05-02T14:57:12.001Z</time></trkpt><trkpt lat="45.59244618594109" lon="10.310357613765733"><ele>271.0</ele><time>2026-05-02T14:57:13.001Z</time></trkpt><trkpt lat="45.59236500383472" lon="10.310204518357127"><ele>270.5</ele><time>2026-05-02T14:57:14.001Z</time></trkpt><trkpt lat="45.59227388230269" lon="10.310045184439897"><ele>270.0</ele><time>2026-05-02T14:57:15.001Z</time></trkpt><trkpt lat="45.59217641266905" lon="10.3098891720565"><ele>267.3333333333333</ele><time>2026-05-02T14:57:16.001Z</time></trkpt><trkpt lat="45.592083247924876" lon="10.309708524371176"><ele>264.66666666666663</ele><time>2026-05-02T14:57:17.001Z</time></trkpt><trkpt lat="45.59198921177919" lon="10.309540788562463"><ele>262.0</ele><time>2026-05-02T14:57:18.001Z</time></trkpt><trkpt lat="45.59189452237919" lon="10.309348258962624"><ele>262.0</ele><time>2026-05-02T14:57:19.001Z</time></trkpt><trkpt lat="45.59179347829508" lon="10.30915397380111"><ele>262.0</ele><time>2026-05-02T14:57:20.001Z</time></trkpt><trkpt lat="45.59168698629637" lon="10.308948709288263"><ele>262.0</ele><time>2026-05-02T14:57:21.001Z</time></trkpt><trkpt lat="45.5915776778705" lon="10.308742296122784"><ele>266.66666666666663</ele><time>2026-05-02T14:57:22.001Z</time></trkpt><trkpt lat="45.59146230862111" lon="10.308526507586544"><ele>271.3333333333333</ele><time>2026-05-02T14:57:23.001Z</time></trkpt><trkpt lat="45.591344850581066" lon="10.308303532794463"><ele>276.0</ele><time>2026-05-02T14:57:24.001Z</time></trkpt><trkpt lat="45.59123073062252" lon="10.308083855042355"><ele>271.0</ele><time>2026-05-02T14:57:25.001Z</time></trkpt><trkpt lat="45.59111491343935" lon="10.30786303812383"><ele>266.0</ele><time>2026-05-02T14:57:26.001Z</time></trkpt><trkpt lat="45.59100711871639" lon="10.307654053245951"><ele>261.0</ele><time>2026-05-02T14:57:27.001Z</time></trkpt><trkpt lat="45.59091065370909" lon="10.307454379778404"><ele>261.0</ele><time>2026-05-02T14:57:28.001Z</time></trkpt><trkpt lat="45.59081151101166" lon="10.307260339186401"><ele>261.0</ele><time>2026-05-02T14:57:29.001Z</time></trkpt><trkpt lat="45.59072458539427" lon="10.30708957484609"><ele>261.0</ele><time>2026-05-02T14:57:30.001Z</time></trkpt><trkpt lat="45.59063819618805" lon="10.306920361995584"><ele>260.5</ele><time>2026-05-02T14:57:31.001Z</time></trkpt><trkpt lat="45.59055717826702" lon="10.306752311105669"><ele>260.0</ele><time>2026-05-02T14:57:32.001Z</time></trkpt><trkpt lat="45.59047421856168" lon="10.306600730941065"><ele>259.5</ele><time>2026-05-02T14:57:33.001Z</time></trkpt><trkpt lat="45.590387307572094" lon="10.306464741571023"><ele>259.0</ele><time>2026-05-02T14:57:34.001Z</time></trkpt><trkpt lat="45.59029417563743" lon="10.306345132342706"><ele>259.0</ele><time>2026-05-02T14:57:35.001Z</time></trkpt><trkpt lat="45.59019553431533" lon="10.306215991454792"><ele>259.0</ele><time>2026-05-02T14:57:36.001Z</time></trkpt><trkpt lat="45.59009348989244" lon="10.3060854567029"><ele>259.0</ele><time>2026-05-02T14:57:37.001Z</time></trkpt><trkpt lat="45.58998684311115" lon="10.30594715069899"><ele>259.0</ele><time>2026-05-02T14:57:38.001Z</time></trkpt><trkpt lat="45.58988458860016" lon="10.305807348626525"><ele>259.0</ele><time>2026-05-02T14:57:39.001Z</time></trkpt><trkpt lat="45.58978739046367" lon="10.305664289066861"><ele>259.0</ele><time>2026-05-02T14:57:40.001Z</time></trkpt><trkpt lat="45.58970894248501" lon="10.305503428866048"><ele>259.0</ele><time>2026-05-02T14:57:41.001Z</time></trkpt><trkpt lat="45.58963111031784" lon="10.30533953684578"><ele>259.0</ele><time>2026-05-02T14:57:42.001Z</time></trkpt><trkpt lat="45.58954311139224" lon="10.305173247184772"><ele>260.0</ele><time>2026-05-02T14:57:43.001Z</time></trkpt><trkpt lat="45.589459968947324" lon="10.305022954088805"><ele>261.0</ele><time>2026-05-02T14:57:44.001Z</time></trkpt><trkpt lat="45.589379183926596" lon="10.304884660788304"><ele>262.0</ele><time>2026-05-02T14:57:45.001Z</time></trkpt><trkpt lat="45.58930909741016" lon="10.304756661363875"><ele>263.0</ele><time>2026-05-02T14:57:46.001Z</time></trkpt><trkpt lat="45.589255444741475" lon="10.304647721331637"><ele>263.0</ele><time>2026-05-02T14:57:47.001Z</time></trkpt><trkpt lat="45.58920605478059" lon="10.304532840950174"><ele>263.0</ele><time>2026-05-02T14:57:48.001Z</time></trkpt><trkpt lat="45.58915166139487" lon="10.304415029874956"><ele>263.0</ele><time>2026-05-02T14:57:49.001Z</time></trkpt><trkpt lat="45.58909001949187" lon="10.304283859863933"><ele>263.0</ele><time>2026-05-02T14:57:50.001Z</time></trkpt><trkpt lat="45.589019608343705" lon="10.304143276813255"><ele>263.0</ele><time>2026-05-02T14:57:51.001Z</time></trkpt><trkpt lat="45.588941461643934" lon="10.303997775479848"><ele>265.75</ele><time>2026-05-02T14:57:52.001Z</time></trkpt><trkpt lat="45.58887927560339" lon="10.303838997400739"><ele>268.5</ele><time>2026-05-02T14:57:53.001Z</time></trkpt><trkpt lat="45.58883980900565" lon="10.303657329805857"><ele>271.25</ele><time>2026-05-02T14:57:54.001Z</time></trkpt><trkpt lat="45.58877484283858" lon="10.303479766991172"><ele>274.0</ele><time>2026-05-02T14:57:55.001Z</time></trkpt><trkpt lat="45.588729180317465" lon="10.30328217333491"><ele>274.0</ele><time>2026-05-02T14:57:56.001Z</time></trkpt><trkpt lat="45.5886917576037" lon="10.303091657481314"><ele>274.0</ele><time>2026-05-02T14:57:57.001Z</time></trkpt><trkpt lat="45.58867131083127" lon="10.302901933115397"><ele>274.0</ele><time>2026-05-02T14:57:58.001Z</time></trkpt><trkpt lat="45.58866321127132" lon="10.302694128465628"><ele>274.0</ele><time>2026-05-02T14:57:59.001Z</time></trkpt><trkpt lat="45.58866455723118" lon="10.302475439437814"><ele>265.3333333333333</ele><time>2026-05-02T14:58:00.001Z</time></trkpt><trkpt lat="45.58866191864376" lon="10.302251398868897"><ele>256.6666666666667</ele><time>2026-05-02T14:58:01.001Z</time></trkpt><trkpt lat="45.58865145077142" lon="10.302017920039763"><ele>248.0</ele><time>2026-05-02T14:58:02.001Z</time></trkpt><trkpt lat="45.58863490620164" lon="10.301783469221919"><ele>247.33333333333334</ele><time>2026-05-02T14:58:03.001Z</time></trkpt><trkpt lat="45.58861445975524" lon="10.301562474134379"><ele>246.66666666666669</ele><time>2026-05-02T14:58:04.001Z</time></trkpt><trkpt lat="45.588575899522915" lon="10.301354261743352"><ele>246.0</ele><time>2026-05-02T14:58:05Z</time></trkpt><trkpt lat="45.58850427175313" lon="10.301165481418515"><ele>245.66666666666669</ele><time>2026-05-02T14:58:06Z</time></trkpt><trkpt lat="45.58840879297475" lon="10.30098384756709"><ele>245.33333333333334</ele><time>2026-05-02T14:58:07Z</time></trkpt><trkpt lat="45.588302047938114" lon="10.300803621571491"><ele>245.0</ele><time>2026-05-02T14:58:08Z</time></trkpt><trkpt lat="45.58819523471922" lon="10.30062835012058"><ele>244.33333333333334</ele><time>2026-05-02T14:58:09Z</time></trkpt><trkpt lat="45.58809684816511" lon="10.30045520854327"><ele>243.66666666666669</ele><time>2026-05-02T14:58:10Z</time></trkpt><trkpt lat="45.588031820848" lon="10.300253772808224"><ele>243.0</ele><time>2026-05-02T14:58:11Z</time></trkpt><trkpt lat="45.58798081642355" lon="10.300043105775389"><ele>243.0</ele><time>2026-05-02T14:58:12Z</time></trkpt><trkpt lat="45.58792708104411" lon="10.299827697007021"><ele>243.0</ele><time>2026-05-02T14:58:13Z</time></trkpt><trkpt lat="45.587888273822905" lon="10.299595784772272"><ele>243.0</ele><time>2026-05-02T14:58:14Z</time></trkpt><trkpt lat="45.58784623731148" lon="10.299371404270646"><ele>242.33333333333331</ele><time>2026-05-02T14:58:15Z</time></trkpt><trkpt lat="45.58780039773486" lon="10.29913978483474"><ele>241.66666666666666</ele><time>2026-05-02T14:58:16Z</time></trkpt><trkpt lat="45.58775243173715" lon="10.298901424239268"><ele>241.0</ele><time>2026-05-02T14:58:17Z</time></trkpt><trkpt lat="45.587704572826134" lon="10.298668347309903"><ele>241.0</ele><time>2026-05-02T14:58:18Z</time></trkpt><trkpt lat="45.587655477229504" lon="10.298440296915794"><ele>241.0</ele><time>2026-05-02T14:58:19Z</time></trkpt><trkpt lat="45.58760333308126" lon="10.298212232369957"><ele>241.0</ele><time>2026-05-02T14:58:20Z</time></trkpt><trkpt lat="45.58755251997773" lon="10.297974095446207"><ele>240.66666666666666</ele><time>2026-05-02T14:58:21Z</time></trkpt><trkpt lat="45.587503932883514" lon="10.297737057023083"><ele>240.33333333333331</ele><time>2026-05-02T14:58:22Z</time></trkpt><trkpt lat="45.58745531287864" lon="10.297487422979744"><ele>240.0</ele><time>2026-05-02T14:58:23Z</time></trkpt><trkpt lat="45.5874012244696" lon="10.29723680954117"><ele>239.66666666666669</ele><time>2026-05-02T14:58:24Z</time></trkpt><trkpt lat="45.58735072279374" lon="10.29699680876115"><ele>239.33333333333334</ele><time>2026-05-02T14:58:25Z</time></trkpt><trkpt lat="45.587303386326965" lon="10.296756431416117"><ele>239.0</ele><time>2026-05-02T14:58:26Z</time></trkpt><trkpt lat="45.58726148193261" lon="10.296531095088952"><ele>239.0</ele><time>2026-05-02T14:58:27Z</time></trkpt><trkpt lat="45.58721035805465" lon="10.296311391078397"><ele>239.0</ele><time>2026-05-02T14:58:28Z</time></trkpt><trkpt lat="45.587167153517996" lon="10.296103080340162"><ele>239.0</ele><time>2026-05-02T14:58:29Z</time></trkpt><trkpt lat="45.587136115930235" lon="10.295895577070958"><ele>239.0</ele><time>2026-05-02T14:58:30Z</time></trkpt><trkpt lat="45.58709575203937" lon="10.2956770616419"><ele>239.0</ele><time>2026-05-02T14:58:31Z</time></trkpt><trkpt lat="45.58704947232248" lon="10.295457936879508"><ele>239.0</ele><time>2026-05-02T14:58:32Z</time></trkpt><trkpt lat="45.58700677066636" lon="10.295219488935684"><ele>238.66666666666669</ele><time>2026-05-02T14:58:33Z</time></trkpt><trkpt lat="45.58696922029374" lon="10.294985635895799"><ele>238.33333333333331</ele><time>2026-05-02T14:58:34Z</time></trkpt><trkpt lat="45.58693196267067" lon="10.29473987869946"><ele>238.0</ele><time>2026-05-02T14:58:35Z</time></trkpt><trkpt lat="45.586889849626054" lon="10.294483205317244"><ele>238.0</ele><time>2026-05-02T14:58:36Z</time></trkpt><trkpt lat="45.58684890572945" lon="10.294208905237278"><ele>238.0</ele><time>2026-05-02T14:58:37Z</time></trkpt><trkpt lat="45.586804105545774" lon="10.293937008519933"><ele>238.0</ele><time>2026-05-02T14:58:38Z</time></trkpt><trkpt lat="45.58675728918171" lon="10.293660029048716"><ele>237.0</ele><time>2026-05-02T14:58:39Z</time></trkpt><trkpt lat="45.586715923821515" lon="10.29338455787059"><ele>236.0</ele><time>2026-05-02T14:58:40Z</time></trkpt><trkpt lat="45.586680184964294" lon="10.293125762190096"><ele>235.0</ele><time>2026-05-02T14:58:41Z</time></trkpt><trkpt lat="45.586646144043186" lon="10.292885912232588"><ele>234.0</ele><time>2026-05-02T14:58:42Z</time></trkpt><trkpt lat="45.58661206904419" lon="10.292658130405448"><ele>233.0</ele><time>2026-05-02T14:58:43Z</time></trkpt><trkpt lat="45.58657607741978" lon="10.292429979881447"><ele>232.0</ele><time>2026-05-02T14:58:44Z</time></trkpt><trkpt lat="45.586535722786614" lon="10.292187341516463"><ele>232.0</ele><time>2026-05-02T14:58:45Z</time></trkpt><trkpt lat="45.5865036034028" lon="10.29193172512732"><ele>232.0</ele><time>2026-05-02T14:58:46Z</time></trkpt><trkpt lat="45.58646529986363" lon="10.291675271739688"><ele>232.0</ele><time>2026-05-02T14:58:47Z</time></trkpt><trkpt lat="45.58642554620549" lon="10.291409109220243"><ele>231.66666666666666</ele><time>2026-05-02T14:58:48Z</time></trkpt><trkpt lat="45.586383822471625" lon="10.291129264052941"><ele>231.33333333333331</ele><time>2026-05-02T14:58:49Z</time></trkpt><trkpt lat="45.58633030923878" lon="10.290864659443706"><ele>231.0</ele><time>2026-05-02T14:58:50Z</time></trkpt><trkpt lat="45.58629674407889" lon="10.290600397494773"><ele>230.33333333333331</ele><time>2026-05-02T14:58:51Z</time></trkpt><trkpt lat="45.58625949031382" lon="10.29034036170633"><ele>229.66666666666666</ele><time>2026-05-02T14:58:52Z</time></trkpt><trkpt lat="45.586227103612536" lon="10.290082913270044"><ele>229.0</ele><time>2026-05-02T14:58:53Z</time></trkpt><trkpt lat="45.58619707820715" lon="10.28982732335387"><ele>229.66666666666666</ele><time>2026-05-02T14:58:54Z</time></trkpt><trkpt lat="45.58616665302593" lon="10.289587215737209"><ele>230.33333333333331</ele><time>2026-05-02T14:58:55Z</time></trkpt><trkpt lat="45.586135329947695" lon="10.289362810755662"><ele>231.0</ele><time>2026-05-02T14:58:56Z</time></trkpt><trkpt lat="45.58610862738927" lon="10.289153440063965"><ele>231.0</ele><time>2026-05-02T14:58:57Z</time></trkpt><trkpt lat="45.58608414934709" lon="10.28895854306924"><ele>231.0</ele><time>2026-05-02T14:58:58Z</time></trkpt><trkpt lat="45.58606159639259" lon="10.28877270570231"><ele>231.0</ele><time>2026-05-02T14:58:59Z</time></trkpt><trkpt lat="45.58603734745748" lon="10.288601149836902"><ele>231.0</ele><time>2026-05-02T14:59:00Z</time></trkpt><trkpt lat="45.58600830380235" lon="10.288429712703675"><ele>231.0</ele><time>2026-05-02T14:59:01Z</time></trkpt><trkpt lat="45.58598098673599" lon="10.288254603575202"><ele>231.0</ele><time>2026-05-02T14:59:02Z</time></trkpt><trkpt lat="45.58595524007498" lon="10.288072446795024"><ele>231.0</ele><time>2026-05-02T14:59:03Z</time></trkpt><trkpt lat="45.585924100116216" lon="10.287885809626095"><ele>231.0</ele><time>2026-05-02T14:59:04Z</time></trkpt><trkpt lat="45.58589647638851" lon="10.28770159037826"><ele>231.25</ele><time>2026-05-02T14:59:05Z</time></trkpt><trkpt lat="45.58587003993582" lon="10.28752043596522"><ele>231.5</ele><time>2026-05-02T14:59:06Z</time></trkpt><trkpt lat="45.585841919144244" lon="10.287336050626488"><ele>231.75</ele><time>2026-05-02T14:59:07Z</time></trkpt><trkpt lat="45.58581474239851" lon="10.287159773740347"><ele>232.0</ele><time>2026-05-02T14:59:08Z</time></trkpt><trkpt lat="45.58578909344371" lon="10.286981585940206"><ele>231.5</ele><time>2026-05-02T14:59:09Z</time></trkpt><trkpt lat="45.58576499731633" lon="10.286806759795473"><ele>231.0</ele><time>2026-05-02T14:59:10Z</time></trkpt><trkpt lat="45.58573718998507" lon="10.286631194801721"><ele>230.5</ele><time>2026-05-02T14:59:11Z</time></trkpt><trkpt lat="45.585717538245255" lon="10.28645108327646"><ele>230.0</ele><time>2026-05-02T14:59:12Z</time></trkpt><trkpt lat="45.585695315533584" lon="10.28627450454117"><ele>229.25</ele><time>2026-05-02T14:59:13Z</time></trkpt><trkpt lat="45.58566466195192" lon="10.286091287691939"><ele>228.5</ele><time>2026-05-02T14:59:14Z</time></trkpt><trkpt lat="45.58563871791213" lon="10.285902147736333"><ele>227.75</ele><time>2026-05-02T14:59:15Z</time></trkpt><trkpt lat="45.58561552202974" lon="10.285719068927541"><ele>227.0</ele><time>2026-05-02T14:59:16Z</time></trkpt><trkpt lat="45.585587498005246" lon="10.285536681742256"><ele>227.0</ele><time>2026-05-02T14:59:17Z</time></trkpt><trkpt lat="45.5855569881725" lon="10.285358533384958"><ele>227.0</ele><time>2026-05-02T14:59:18Z</time></trkpt><trkpt lat="45.58552066895758" lon="10.285188080458363"><ele>227.0</ele><time>2026-05-02T14:59:19Z</time></trkpt><trkpt lat="45.585493812151796" lon="10.285022058911315"><ele>227.0</ele><time>2026-05-02T14:59:20Z</time></trkpt><trkpt lat="45.585471869088025" lon="10.28485761983116"><ele>227.0</ele><time>2026-05-02T14:59:21Z</time></trkpt><trkpt lat="45.58544470557515" lon="10.284687967957762"><ele>227.0</ele><time>2026-05-02T14:59:22Z</time></trkpt><trkpt lat="45.585418098807935" lon="10.284522250637924"><ele>227.0</ele><time>2026-05-02T14:59:23Z</time></trkpt><trkpt lat="45.585395492456556" lon="10.284353684827076"><ele>227.0</ele><time>2026-05-02T14:59:24.001Z</time></trkpt><trkpt lat="45.5853687997778" lon="10.284188673038429"><ele>227.0</ele><time>2026-05-02T14:59:25.001Z</time></trkpt><trkpt lat="45.58534560016148" lon="10.284021903275594"><ele>227.0</ele><time>2026-05-02T14:59:26.001Z</time></trkpt><trkpt lat="45.58531984201368" lon="10.28385344930575"><ele>227.0</ele><time>2026-05-02T14:59:27.001Z</time></trkpt><trkpt lat="45.58529562997231" lon="10.283686503676117"><ele>227.0</ele><time>2026-05-02T14:59:28.001Z</time></trkpt><trkpt lat="45.585267249383016" lon="10.283507655739873"><ele>226.0</ele><time>2026-05-02T14:59:29.001Z</time></trkpt><trkpt lat="45.5852394750786" lon="10.283326939344313"><ele>225.0</ele><time>2026-05-02T14:59:30.001Z</time></trkpt><trkpt lat="45.58521096671184" lon="10.283144184439879"><ele>224.0</ele><time>2026-05-02T14:59:31.001Z</time></trkpt><trkpt lat="45.58518591991131" lon="10.282967591002052"><ele>223.0</ele><time>2026-05-02T14:59:32.001Z</time></trkpt><trkpt lat="45.58515920359181" lon="10.282789284781735"><ele>223.0</ele><time>2026-05-02T14:59:33.001Z</time></trkpt><trkpt lat="45.585138080088484" lon="10.282612752154987"><ele>223.0</ele><time>2026-05-02T14:59:34.001Z</time></trkpt><trkpt lat="45.58511410706193" lon="10.282428479004302"><ele>223.0</ele><time>2026-05-02T14:59:35.001Z</time></trkpt><trkpt lat="45.58508510372716" lon="10.282238341939754"><ele>223.0</ele><time>2026-05-02T14:59:36.001Z</time></trkpt><trkpt lat="45.58505898758962" lon="10.282050895107874"><ele>222.75</ele><time>2026-05-02T14:59:37.001Z</time></trkpt><trkpt lat="45.58503438250801" lon="10.281873442474186"><ele>222.5</ele><time>2026-05-02T14:59:38.001Z</time></trkpt><trkpt lat="45.58501611788373" lon="10.28170077691031"><ele>222.25</ele><time>2026-05-02T14:59:39.001Z</time></trkpt><trkpt lat="45.58499417701665" lon="10.28152947900919"><ele>222.0</ele><time>2026-05-02T14:59:40.001Z</time></trkpt><trkpt lat="45.58496286747737" lon="10.281361771666438"><ele>221.83333333333334</ele><time>2026-05-02T14:59:41.001Z</time></trkpt><trkpt lat="45.58494854984276" lon="10.281228027346199"><ele>221.66666666666669</ele><time>2026-05-02T14:59:42.001Z</time></trkpt><trkpt lat="45.584926416602435" lon="10.2811180813602"><ele>221.5</ele><time>2026-05-02T14:59:43.001Z</time></trkpt><trkpt lat="45.58491380791239" lon="10.28102109220664"><ele>221.33333333333334</ele><time>2026-05-02T14:59:44.001Z</time></trkpt><trkpt lat="45.58489239813491" lon="10.280865804485085"><ele>221.16666666666669</ele><time>2026-05-02T14:59:46.001Z</time></trkpt><trkpt lat="45.58487247331582" lon="10.280748631149596"><ele>221.0</ele><time>2026-05-02T14:59:49.001Z</time></trkpt><trkpt lat="45.58485626457053" lon="10.2806511732291"><ele>221.0</ele><time>2026-05-02T14:59:51.001Z</time></trkpt><trkpt lat="45.584848891273886" lon="10.280544042679697"><ele>221.00000000000003</ele><time>2026-05-02T14:59:53.001Z</time></trkpt><trkpt lat="45.58486997873855" lon="10.28040802168768"><ele>221.00000000000003</ele><time>2026-05-02T14:59:55.001Z</time></trkpt><trkpt lat="45.58486522483059" lon="10.280237674983232"><ele>221.0</ele><time>2026-05-02T14:59:57.001Z</time></trkpt><trkpt lat="45.58480451770857" lon="10.28012046889805"><ele>221.0</ele><time>2026-05-02T14:59:58.001Z</time></trkpt><trkpt lat="45.58477016419737" lon="10.279989255664931"><ele>221.0</ele><time>2026-05-02T14:59:59.001Z</time></trkpt><trkpt lat="45.58474880688868" lon="10.279851355646384"><ele>221.00000000000003</ele><time>2026-05-02T15:00:00.001Z</time></trkpt><trkpt lat="45.58472996896388" lon="10.279705285613767"><ele>221.00000000000003</ele><time>2026-05-02T15:00:01.001Z</time></trkpt><trkpt lat="45.58470748997077" lon="10.279548836264635"><ele>221.0</ele><time>2026-05-02T15:00:02.001Z</time></trkpt><trkpt lat="45.58468423699833" lon="10.279391892604975"><ele>221.0</ele><time>2026-05-02T15:00:03.001Z</time></trkpt><trkpt lat="45.58465736265715" lon="10.279226481398986"><ele>221.0</ele><time>2026-05-02T15:00:04.001Z</time></trkpt><trkpt lat="45.584628028418905" lon="10.279057195201469"><ele>221.0</ele><time>2026-05-02T15:00:05.001Z</time></trkpt><trkpt lat="45.58460080424789" lon="10.27888382949631"><ele>221.0</ele><time>2026-05-02T15:00:06.001Z</time></trkpt><trkpt lat="45.58457214903359" lon="10.27870418877364"><ele>221.0</ele><time>2026-05-02T15:00:07.001Z</time></trkpt><trkpt lat="45.58454926807216" lon="10.278539752858887"><ele>220.75</ele><time>2026-05-02T15:00:08.001Z</time></trkpt><trkpt lat="45.58452592562011" lon="10.27838033062429"><ele>220.5</ele><time>2026-05-02T15:00:09.001Z</time></trkpt><trkpt lat="45.5844992073087" lon="10.278214257471584"><ele>220.25</ele><time>2026-05-02T15:00:10.001Z</time></trkpt><trkpt lat="45.584474001346116" lon="10.278042585680728"><ele>220.0</ele><time>2026-05-02T15:00:11Z</time></trkpt><trkpt lat="45.58444750106082" lon="10.277871031594248"><ele>219.5</ele><time>2026-05-02T15:00:12Z</time></trkpt><trkpt lat="45.58442420428842" lon="10.277700059306483"><ele>219.0</ele><time>2026-05-02T15:00:13Z</time></trkpt><trkpt lat="45.58439696187495" lon="10.277533388850687"><ele>218.5</ele><time>2026-05-02T15:00:14Z</time></trkpt><trkpt lat="45.58437079393651" lon="10.277372735125246"><ele>218.0</ele><time>2026-05-02T15:00:15Z</time></trkpt><trkpt lat="45.584342108585865" lon="10.277204026000518"><ele>218.0</ele><time>2026-05-02T15:00:16Z</time></trkpt><trkpt lat="45.58431528069917" lon="10.277023450876777"><ele>218.0</ele><time>2026-05-02T15:00:17Z</time></trkpt><trkpt lat="45.584285571703774" lon="10.276830501537763"><ele>218.0</ele><time>2026-05-02T15:00:18Z</time></trkpt><trkpt lat="45.584256818603635" lon="10.276627557125021"><ele>218.0</ele><time>2026-05-02T15:00:19Z</time></trkpt><trkpt lat="45.58422064144821" lon="10.276419206241135"><ele>217.5</ele><time>2026-05-02T15:00:20Z</time></trkpt><trkpt lat="45.584191644849746" lon="10.276218386120615"><ele>217.0</ele><time>2026-05-02T15:00:21Z</time></trkpt><trkpt lat="45.58416344905939" lon="10.276020478400966"><ele>216.5</ele><time>2026-05-02T15:00:22Z</time></trkpt><trkpt lat="45.584139709178665" lon="10.275835344846746"><ele>216.0</ele><time>2026-05-02T15:00:23Z</time></trkpt><trkpt lat="45.58411302864871" lon="10.275647749923024"><ele>215.5</ele><time>2026-05-02T15:00:24Z</time></trkpt><trkpt lat="45.584086832203845" lon="10.275459949776534"><ele>215.0</ele><time>2026-05-02T15:00:25Z</time></trkpt><trkpt lat="45.58405570216246" lon="10.275253892804145"><ele>214.5</ele><time>2026-05-02T15:00:26Z</time></trkpt><trkpt lat="45.58403177942689" lon="10.275057978542575"><ele>214.0</ele><time>2026-05-02T15:00:27Z</time></trkpt><trkpt lat="45.58401166373498" lon="10.274865789176554"><ele>213.75</ele><time>2026-05-02T15:00:28Z</time></trkpt><trkpt lat="45.583996922722" lon="10.274686761746434"><ele>213.5</ele><time>2026-05-02T15:00:29Z</time></trkpt><trkpt lat="45.58398588578334" lon="10.274509198837272"><ele>213.25</ele><time>2026-05-02T15:00:30Z</time></trkpt><trkpt lat="45.58397624505714" lon="10.274345047895324"><ele>213.0</ele><time>2026-05-02T15:00:31Z</time></trkpt><trkpt lat="45.583960021690764" lon="10.274179532432939"><ele>213.0</ele><time>2026-05-02T15:00:32Z</time></trkpt><trkpt lat="45.58394642753932" lon="10.274032010861418"><ele>213.0</ele><time>2026-05-02T15:00:33Z</time></trkpt><trkpt lat="45.58393236854437" lon="10.27391204254943"><ele>213.0</ele><time>2026-05-02T15:00:34Z</time></trkpt><trkpt lat="45.58391158131037" lon="10.273780252350234"><ele>213.0</ele><time>2026-05-02T15:00:36Z</time></trkpt><trkpt lat="45.58390949091555" lon="10.273617743342067"><ele>213.0</ele><time>2026-05-02T15:00:40Z</time></trkpt><trkpt lat="45.583908490594744" lon="10.273510158976809"><ele>213.0</ele><time>2026-05-02T15:00:41Z</time></trkpt><trkpt lat="45.58389954426392" lon="10.273375636922125"><ele>213.0</ele><time>2026-05-02T15:00:42Z</time></trkpt><trkpt lat="45.58389282110314" lon="10.273231053021073"><ele>213.0</ele><time>2026-05-02T15:00:43Z</time></trkpt><trkpt lat="45.58389180151263" lon="10.273065514285285"><ele>213.0</ele><time>2026-05-02T15:00:44Z</time></trkpt><trkpt lat="45.58389343585207" lon="10.272877090723036"><ele>213.0</ele><time>2026-05-02T15:00:45Z</time></trkpt><trkpt lat="45.58388304299112" lon="10.272671249331756"><ele>213.0</ele><time>2026-05-02T15:00:46Z</time></trkpt><trkpt lat="45.58386822771481" lon="10.272442349092326"><ele>213.0</ele><time>2026-05-02T15:00:47Z</time></trkpt><trkpt lat="45.58384923765411" lon="10.272215914156398"><ele>213.0</ele><time>2026-05-02T15:00:48Z</time></trkpt><trkpt lat="45.58383019131633" lon="10.27197723217384"><ele>213.0</ele><time>2026-05-02T15:00:49Z</time></trkpt><trkpt lat="45.58381330593854" lon="10.271729344758958"><ele>213.0</ele><time>2026-05-02T15:00:50Z</time></trkpt><trkpt lat="45.58379443872749" lon="10.271475906002744"><ele>213.0</ele><time>2026-05-02T15:00:51Z</time></trkpt><trkpt lat="45.583778898546704" lon="10.271220255061873"><ele>213.66666666666669</ele><time>2026-05-02T15:00:52Z</time></trkpt><trkpt lat="45.5837674021884" lon="10.270961466014128"><ele>214.33333333333334</ele><time>2026-05-02T15:00:53Z</time></trkpt><trkpt lat="45.58374394955331" lon="10.270690750860481"><ele>215.0</ele><time>2026-05-02T15:00:54Z</time></trkpt><trkpt lat="45.58372812516264" lon="10.270438701461892"><ele>217.0</ele><time>2026-05-02T15:00:55Z</time></trkpt><trkpt lat="45.583715523027855" lon="10.270195537258665"><ele>219.0</ele><time>2026-05-02T15:00:56Z</time></trkpt><trkpt lat="45.583703951673584" lon="10.269963947814306"><ele>221.0</ele><time>2026-05-02T15:00:57Z</time></trkpt><trkpt lat="45.58369764455466" lon="10.269744641103433"><ele>221.0</ele><time>2026-05-02T15:00:58Z</time></trkpt><trkpt lat="45.58369207407985" lon="10.269531279622962"><ele>221.0</ele><time>2026-05-02T15:00:59Z</time></trkpt><trkpt lat="45.58369412471236" lon="10.269333186077935"><ele>221.0</ele><time>2026-05-02T15:01:00Z</time></trkpt><trkpt lat="45.5836951278003" lon="10.269124490831148"><ele>221.0</ele><time>2026-05-02T15:01:01Z</time></trkpt><trkpt lat="45.5836955311957" lon="10.268931401096527"><ele>219.5</ele><time>2026-05-02T15:01:02Z</time></trkpt><trkpt lat="45.58369922089941" lon="10.26874990774145"><ele>218.0</ele><time>2026-05-02T15:01:03Z</time></trkpt><trkpt lat="45.583703569918086" lon="10.268576736896902"><ele>216.5</ele><time>2026-05-02T15:01:04Z</time></trkpt><trkpt lat="45.58370779610387" lon="10.2684128213711"><ele>215.0</ele><time>2026-05-02T15:01:05Z</time></trkpt><trkpt lat="45.583715183483626" lon="10.268265455994378"><ele>215.0</ele><time>2026-05-02T15:01:06Z</time></trkpt><trkpt lat="45.58372509263853" lon="10.268121728704417"><ele>215.0</ele><time>2026-05-02T15:01:07Z</time></trkpt><trkpt lat="45.583741486401884" lon="10.267986371412643"><ele>215.0</ele><time>2026-05-02T15:01:08Z</time></trkpt><trkpt lat="45.58377889813553" lon="10.267865078049145"><ele>215.0</ele><time>2026-05-02T15:01:09Z</time></trkpt><trkpt lat="45.58384156701008" lon="10.267776050866862"><ele>215.0</ele><time>2026-05-02T15:01:10Z</time></trkpt><trkpt lat="45.58389905599103" lon="10.267690750529404"><ele>214.4</ele><time>2026-05-02T15:01:11Z</time></trkpt><trkpt lat="45.583909710640995" lon="10.267578939132607"><ele>213.8</ele><time>2026-05-02T15:01:12Z</time></trkpt><trkpt lat="45.58386799552957" lon="10.267444591638938"><ele>213.2</ele><time>2026-05-02T15:01:13Z</time></trkpt><trkpt lat="45.58380677306848" lon="10.26729925972752"><ele>212.6</ele><time>2026-05-02T15:01:14Z</time></trkpt><trkpt lat="45.58377768713333" lon="10.267139368572733"><ele>212.0</ele><time>2026-05-02T15:01:15Z</time></trkpt><trkpt lat="45.583791678911254" lon="10.266938430325851"><ele>209.66666666666669</ele><time>2026-05-02T15:01:16Z</time></trkpt><trkpt lat="45.583809729086774" lon="10.266718281800511"><ele>207.33333333333331</ele><time>2026-05-02T15:01:17Z</time></trkpt><trkpt lat="45.583820384219976" lon="10.266485335832416"><ele>205.0</ele><time>2026-05-02T15:01:18Z</time></trkpt><trkpt lat="45.58383064090207" lon="10.26625245144473"><ele>204.33333333333331</ele><time>2026-05-02T15:01:19Z</time></trkpt><trkpt lat="45.58384011655973" lon="10.266025423973415"><ele>203.66666666666669</ele><time>2026-05-02T15:01:20Z</time></trkpt><trkpt lat="45.583854017500954" lon="10.265791534905238"><ele>203.0</ele><time>2026-05-02T15:01:21Z</time></trkpt><trkpt lat="45.583870524216366" lon="10.265548657435398"><ele>203.0</ele><time>2026-05-02T15:01:22Z</time></trkpt><trkpt lat="45.58388521474103" lon="10.265305429623863"><ele>203.0</ele><time>2026-05-02T15:01:23Z</time></trkpt><trkpt lat="45.58389448050775" lon="10.265052516635176"><ele>203.0</ele><time>2026-05-02T15:01:24Z</time></trkpt><trkpt lat="45.58390911016917" lon="10.264801012179097"><ele>203.0</ele><time>2026-05-02T15:01:25Z</time></trkpt><trkpt lat="45.58392918486734" lon="10.264547584953592"><ele>203.0</ele><time>2026-05-02T15:01:26Z</time></trkpt><trkpt lat="45.583945485731725" lon="10.26428476472816"><ele>203.0</ele><time>2026-05-02T15:01:27Z</time></trkpt><trkpt lat="45.58395897534167" lon="10.264031066345705"><ele>202.33333333333334</ele><time>2026-05-02T15:01:28Z</time></trkpt><trkpt lat="45.58396992148526" lon="10.263792005470336"><ele>201.66666666666669</ele><time>2026-05-02T15:01:29Z</time></trkpt><trkpt lat="45.58397961131305" lon="10.263580267377415"><ele>201.0</ele><time>2026-05-02T15:01:30Z</time></trkpt><trkpt lat="45.583987604869016" lon="10.263382999263897"><ele>201.0</ele><time>2026-05-02T15:01:31Z</time></trkpt><trkpt lat="45.583992518384974" lon="10.26317773742476"><ele>201.0</ele><time>2026-05-02T15:01:32Z</time></trkpt><trkpt lat="45.58399852119581" lon="10.262976579717314"><ele>201.0</ele><time>2026-05-02T15:01:33Z</time></trkpt><trkpt lat="45.584011803335066" lon="10.262758984930379"><ele>201.0</ele><time>2026-05-02T15:01:34Z</time></trkpt><trkpt lat="45.58402064835313" lon="10.262540713807201"><ele>200.66666666666669</ele><time>2026-05-02T15:01:35Z</time></trkpt><trkpt lat="45.584028041777216" lon="10.262308329029649"><ele>200.33333333333334</ele><time>2026-05-02T15:01:36Z</time></trkpt><trkpt lat="45.5840336618218" lon="10.262059929373182"><ele>200.0</ele><time>2026-05-02T15:01:37Z</time></trkpt><trkpt lat="45.58403891314814" lon="10.261800846416572"><ele>200.0</ele><time>2026-05-02T15:01:38.001Z</time></trkpt><trkpt lat="45.58404732391465" lon="10.261529025379113"><ele>200.0</ele><time>2026-05-02T15:01:39.001Z</time></trkpt><trkpt lat="45.5840564727831" lon="10.261269753424042"><ele>200.0</ele><time>2026-05-02T15:01:40.001Z</time></trkpt><trkpt lat="45.58406583378049" lon="10.261039488311837"><ele>199.8</ele><time>2026-05-02T15:01:41.001Z</time></trkpt><trkpt lat="45.58406823695451" lon="10.260843711881545"><ele>199.6</ele><time>2026-05-02T15:01:42.001Z</time></trkpt><trkpt lat="45.58406636293463" lon="10.260677207797913"><ele>199.39999999999998</ele><time>2026-05-02T15:01:43.001Z</time></trkpt><trkpt lat="45.58406775942341" lon="10.260536253343778"><ele>199.2</ele><time>2026-05-02T15:01:44.001Z</time></trkpt><trkpt lat="45.5840927155565" lon="10.26042413684936"><ele>199.0</ele><time>2026-05-02T15:01:45.001Z</time></trkpt><trkpt lat="45.58413928742252" lon="10.260343287391553"><ele>198.79999999999998</ele><time>2026-05-02T15:01:46.001Z</time></trkpt><trkpt lat="45.58418899059489" lon="10.26026358132406"><ele>198.6</ele><time>2026-05-02T15:01:47.001Z</time></trkpt><trkpt lat="45.58420589112265" lon="10.260171214062243"><ele>198.4</ele><time>2026-05-02T15:01:48.001Z</time></trkpt><trkpt lat="45.5841886783094" lon="10.260047808902302"><ele>198.2</ele><time>2026-05-02T15:01:49.001Z</time></trkpt><trkpt lat="45.584161583822244" lon="10.259887579414604"><ele>198.0</ele><time>2026-05-02T15:01:50.001Z</time></trkpt><trkpt lat="45.58415162995516" lon="10.259706810133315"><ele>197.33333333333331</ele><time>2026-05-02T15:01:51.001Z</time></trkpt><trkpt lat="45.58415635868629" lon="10.259499043047375"><ele>196.66666666666666</ele><time>2026-05-02T15:01:52.001Z</time></trkpt><trkpt lat="45.58417107512686" lon="10.259261289809153"><ele>196.0</ele><time>2026-05-02T15:01:53.001Z</time></trkpt><trkpt lat="45.584181462784436" lon="10.258997534517153"><ele>196.0</ele><time>2026-05-02T15:01:54.001Z</time></trkpt><trkpt lat="45.5841892398627" lon="10.25871788578585"><ele>196.0</ele><time>2026-05-02T15:01:55.001Z</time></trkpt><trkpt lat="45.58420154417374" lon="10.25842557782609"><ele>196.0</ele><time>2026-05-02T15:01:56.001Z</time></trkpt><trkpt lat="45.58421677452279" lon="10.258130875277073"><ele>196.33333333333331</ele><time>2026-05-02T15:01:57.001Z</time></trkpt><trkpt lat="45.58422969826077" lon="10.257836343552814"><ele>196.66666666666669</ele><time>2026-05-02T15:01:58.001Z</time></trkpt><trkpt lat="45.5842441760804" lon="10.257549538023099"><ele>197.0</ele><time>2026-05-02T15:01:59.001Z</time></trkpt><trkpt lat="45.58425797052567" lon="10.257270741799609"><ele>197.0</ele><time>2026-05-02T15:02:00.001Z</time></trkpt><trkpt lat="45.58427305677661" lon="10.25700689409673"><ele>197.0</ele><time>2026-05-02T15:02:01.001Z</time></trkpt><trkpt lat="45.58428651904739" lon="10.256755201009426"><ele>197.0</ele><time>2026-05-02T15:02:02.001Z</time></trkpt><trkpt lat="45.58430045045161" lon="10.256516563025876"><ele>196.25</ele><time>2026-05-02T15:02:03.001Z</time></trkpt><trkpt lat="45.58431043819835" lon="10.256288147348974"><ele>195.5</ele><time>2026-05-02T15:02:04.001Z</time></trkpt><trkpt lat="45.58431849663027" lon="10.256085189243795"><ele>194.75</ele><time>2026-05-02T15:02:05.001Z</time></trkpt><trkpt lat="45.58432334250854" lon="10.255917658998545"><ele>194.0</ele><time>2026-05-02T15:02:06.001Z</time></trkpt><trkpt lat="45.58433355578048" lon="10.255769091086718"><ele>194.00000000000003</ele><time>2026-05-02T15:02:07.001Z</time></trkpt><trkpt lat="45.58434002400559" lon="10.255632760150194"><ele>194.0</ele><time>2026-05-02T15:02:08.001Z</time></trkpt><trkpt lat="45.58434545507433" lon="10.255514658317745"><ele>194.0</ele><time>2026-05-02T15:02:09.001Z</time></trkpt><trkpt lat="45.58436721364598" lon="10.255417675887628"><ele>194.0</ele><time>2026-05-02T15:02:10.001Z</time></trkpt><trkpt lat="45.58439933824216" lon="10.255335800390748"><ele>194.00000000000003</ele><time>2026-05-02T15:02:11.001Z</time></trkpt><trkpt lat="45.58447725709573" lon="10.255192778902748"><ele>194.0</ele><time>2026-05-02T15:02:13.001Z</time></trkpt><trkpt lat="45.58449302179383" lon="10.255085777528931"><ele>194.25</ele><time>2026-05-02T15:02:14.001Z</time></trkpt><trkpt lat="45.58446929059137" lon="10.254955922444733"><ele>194.5</ele><time>2026-05-02T15:02:15.001Z</time></trkpt><trkpt lat="45.58442208732835" lon="10.254799749256513"><ele>194.75</ele><time>2026-05-02T15:02:16.001Z</time></trkpt><trkpt lat="45.58438233399856" lon="10.254617954817647"><ele>195.0</ele><time>2026-05-02T15:02:16.999Z</time></trkpt><trkpt lat="45.58437405110922" lon="10.25440920415805"><ele>194.66666666666669</ele><time>2026-05-02T15:02:17.999Z</time></trkpt><trkpt lat="45.58438129835381" lon="10.254176952506118"><ele>194.33333333333334</ele><time>2026-05-02T15:02:18.999Z</time></trkpt><trkpt lat="45.584389377232434" lon="10.253918737606591"><ele>194.0</ele><time>2026-05-02T15:02:19.999Z</time></trkpt><trkpt lat="45.58440164438163" lon="10.253652286085972"><ele>194.0</ele><time>2026-05-02T15:02:20.999Z</time></trkpt><trkpt lat="45.584415190352736" lon="10.253379377091038"><ele>194.0</ele><time>2026-05-02T15:02:21.999Z</time></trkpt><trkpt lat="45.58442681975278" lon="10.253101508189129"><ele>194.0</ele><time>2026-05-02T15:02:22.999Z</time></trkpt><trkpt lat="45.58443814311227" lon="10.252825495381481"><ele>194.0</ele><time>2026-05-02T15:02:23.999Z</time></trkpt><trkpt lat="45.584463831149755" lon="10.252553685560844"><ele>194.0</ele><time>2026-05-02T15:02:24.999Z</time></trkpt><trkpt lat="45.58447662712075" lon="10.252265305093896"><ele>194.0</ele><time>2026-05-02T15:02:25.999Z</time></trkpt><trkpt lat="45.58448975760584" lon="10.251959400610831"><ele>193.0</ele><time>2026-05-02T15:02:26.999Z</time></trkpt><trkpt lat="45.584503651530014" lon="10.251635474857908"><ele>192.0</ele><time>2026-05-02T15:02:27.999Z</time></trkpt><trkpt lat="45.58450135512369" lon="10.251309778432153"><ele>192.0</ele><time>2026-05-02T15:02:28.999Z</time></trkpt><trkpt lat="45.58451796364158" lon="10.250978636971823"><ele>192.0</ele><time>2026-05-02T15:02:29.999Z</time></trkpt><trkpt lat="45.584535199049604" lon="10.250660858354843"><ele>192.0</ele><time>2026-05-02T15:02:30.999Z</time></trkpt><trkpt lat="45.58455233799936" lon="10.250361111039748"><ele>192.0</ele><time>2026-05-02T15:02:31.999Z</time></trkpt><trkpt lat="45.58456920303585" lon="10.25005336524624"><ele>192.0</ele><time>2026-05-02T15:02:32.999Z</time></trkpt><trkpt lat="45.58458627219882" lon="10.249760245969346"><ele>191.33333333333334</ele><time>2026-05-02T15:02:33.999Z</time></trkpt><trkpt lat="45.584602854023736" lon="10.249470272347684"><ele>190.66666666666669</ele><time>2026-05-02T15:02:34.999Z</time></trkpt><trkpt lat="45.5846222625817" lon="10.24918073586364"><ele>190.0</ele><time>2026-05-02T15:02:35.999Z</time></trkpt><trkpt lat="45.58464255501759" lon="10.248877747642124"><ele>190.0</ele><time>2026-05-02T15:02:36.999Z</time></trkpt><trkpt lat="45.584663035410024" lon="10.24858383600048"><ele>190.0</ele><time>2026-05-02T15:02:37.999Z</time></trkpt><trkpt lat="45.58468199267007" lon="10.248280481501546"><ele>190.0</ele><time>2026-05-02T15:02:38.999Z</time></trkpt><trkpt lat="45.58470215123917" lon="10.24797651848786"><ele>190.0</ele><time>2026-05-02T15:02:39.999Z</time></trkpt><trkpt lat="45.58472307655479" lon="10.247687868903213"><ele>190.0</ele><time>2026-05-02T15:02:40.999Z</time></trkpt><trkpt lat="45.584745613011485" lon="10.247417065112227"><ele>190.0</ele><time>2026-05-02T15:02:41.999Z</time></trkpt><trkpt lat="45.58476905468513" lon="10.247172568160805"><ele>190.0</ele><time>2026-05-02T15:02:43Z</time></trkpt><trkpt lat="45.5847963401561" lon="10.246965317854345"><ele>190.0</ele><time>2026-05-02T15:02:44Z</time></trkpt><trkpt lat="45.58482726835899" lon="10.246802390623861"><ele>190.0</ele><time>2026-05-02T15:02:45Z</time></trkpt><trkpt lat="45.584878817024304" lon="10.246689798027989"><ele>190.0</ele><time>2026-05-02T15:02:46Z</time></trkpt><trkpt lat="45.58494940644944" lon="10.24660690719261"><ele>190.0</ele><time>2026-05-02T15:02:47Z</time></trkpt><trkpt lat="45.5850204583665" lon="10.24653806950447"><ele>190.0</ele><time>2026-05-02T15:02:48Z</time></trkpt><trkpt lat="45.58505095502618" lon="10.246428667685526"><ele>190.0</ele><time>2026-05-02T15:02:49Z</time></trkpt><trkpt lat="45.58502387789574" lon="10.246282438282858"><ele>190.0</ele><time>2026-05-02T15:02:50Z</time></trkpt><trkpt lat="45.584947337978925" lon="10.2461322476273"><ele>190.0</ele><time>2026-05-02T15:02:51Z</time></trkpt><trkpt lat="45.584878630819205" lon="10.245934363854488"><ele>188.66666666666669</ele><time>2026-05-02T15:02:52Z</time></trkpt><trkpt lat="45.58486342369732" lon="10.24567528910218"><ele>187.33333333333334</ele><time>2026-05-02T15:02:53Z</time></trkpt><trkpt lat="45.58490663190768" lon="10.245377697126326"><ele>186.0</ele><time>2026-05-02T15:02:54Z</time></trkpt><trkpt lat="45.584921091271845" lon="10.245116096694263"><ele>186.0</ele><time>2026-05-02T15:02:55Z</time></trkpt><trkpt lat="45.584946769598396" lon="10.244873616517856"><ele>186.0</ele><time>2026-05-02T15:02:56Z</time></trkpt><trkpt lat="45.58496346590122" lon="10.244637608623911"><ele>186.0</ele><time>2026-05-02T15:02:57Z</time></trkpt><trkpt lat="45.584984322989456" lon="10.244381528458677"><ele>186.0</ele><time>2026-05-02T15:02:58Z</time></trkpt><trkpt lat="45.585000442205896" lon="10.244119601522435"><ele>186.0</ele><time>2026-05-02T15:02:59Z</time></trkpt><trkpt lat="45.58500184169072" lon="10.243865461294984"><ele>186.0</ele><time>2026-05-02T15:03:00Z</time></trkpt><trkpt lat="45.58497994845517" lon="10.243614787521407"><ele>186.0</ele><time>2026-05-02T15:03:01Z</time></trkpt><trkpt lat="45.58494977668321" lon="10.24338296560283"><ele>186.0</ele><time>2026-05-02T15:03:02Z</time></trkpt><trkpt lat="45.5849128875522" lon="10.243154546372805"><ele>186.0</ele><time>2026-05-02T15:03:03Z</time></trkpt><trkpt lat="45.58487656121696" lon="10.242926240736674"><ele>186.0</ele><time>2026-05-02T15:03:04Z</time></trkpt><trkpt lat="45.584839249705915" lon="10.242720156340724"><ele>186.0</ele><time>2026-05-02T15:03:05Z</time></trkpt><trkpt lat="45.58479879906618" lon="10.242509233830637"><ele>186.0</ele><time>2026-05-02T15:03:06Z</time></trkpt><trkpt lat="45.58476459637422" lon="10.24231550049088"><ele>186.0</ele><time>2026-05-02T15:03:07Z</time></trkpt><trkpt lat="45.58472789260041" lon="10.242127165998555"><ele>186.0</ele><time>2026-05-02T15:03:08Z</time></trkpt><trkpt lat="45.584686572759345" lon="10.241942518063537"><ele>186.0</ele><time>2026-05-02T15:03:09Z</time></trkpt><trkpt lat="45.58463522704895" lon="10.241762519309253"><ele>186.0</ele><time>2026-05-02T15:03:10Z</time></trkpt><trkpt lat="45.58458350515698" lon="10.241593461840296"><ele>186.0</ele><time>2026-05-02T15:03:11Z</time></trkpt><trkpt lat="45.58452963196377" lon="10.241428501178977"><ele>186.25</ele><time>2026-05-02T15:03:12Z</time></trkpt><trkpt lat="45.58446729743212" lon="10.241275830963097"><ele>186.5</ele><time>2026-05-02T15:03:13Z</time></trkpt><trkpt lat="45.58438346146635" lon="10.241116349521155"><ele>186.75</ele><time>2026-05-02T15:03:14Z</time></trkpt><trkpt lat="45.584285332313634" lon="10.240966452990914"><ele>187.0</ele><time>2026-05-02T15:03:15Z</time></trkpt><trkpt lat="45.5841737432834" lon="10.240812447848674"><ele>186.33333333333334</ele><time>2026-05-02T15:03:16Z</time></trkpt><trkpt lat="45.58406436069863" lon="10.240632606387564"><ele>185.66666666666666</ele><time>2026-05-02T15:03:17Z</time></trkpt><trkpt lat="45.58392992755314" lon="10.240481617363242"><ele>185.0</ele><time>2026-05-02T15:03:18Z</time></trkpt><trkpt lat="45.58379590743483" lon="10.240315958835042"><ele>184.66666666666666</ele><time>2026-05-02T15:03:19Z</time></trkpt><trkpt lat="45.58365921234508" lon="10.240152183197067"><ele>184.33333333333334</ele><time>2026-05-02T15:03:20Z</time></trkpt><trkpt lat="45.58351601836806" lon="10.239995651175024"><ele>184.0</ele><time>2026-05-02T15:03:21Z</time></trkpt><trkpt lat="45.583376914194574" lon="10.23982854215106"><ele>184.0</ele><time>2026-05-02T15:03:22Z</time></trkpt><trkpt lat="45.58324856585193" lon="10.239645727989068"><ele>184.0</ele><time>2026-05-02T15:03:23Z</time></trkpt><trkpt lat="45.58310506038366" lon="10.239470504612704"><ele>184.0</ele><time>2026-05-02T15:03:24Z</time></trkpt><trkpt lat="45.58295215912182" lon="10.239290659216133"><ele>183.33333333333334</ele><time>2026-05-02T15:03:25Z</time></trkpt><trkpt lat="45.58279427151966" lon="10.239111050922514"><ele>182.66666666666666</ele><time>2026-05-02T15:03:26Z</time></trkpt><trkpt lat="45.58262723822552" lon="10.238935702621754"><ele>182.0</ele><time>2026-05-02T15:03:27Z</time></trkpt><trkpt lat="45.58245084015318" lon="10.238782481367632"><ele>182.0</ele><time>2026-05-02T15:03:28Z</time></trkpt><trkpt lat="45.582275506064505" lon="10.238610359925822"><ele>182.0</ele><time>2026-05-02T15:03:29Z</time></trkpt><trkpt lat="45.58209632506364" lon="10.238444433931734"><ele>182.0</ele><time>2026-05-02T15:03:30Z</time></trkpt><trkpt lat="45.58191310835693" lon="10.238273632682393"><ele>181.66666666666666</ele><time>2026-05-02T15:03:31Z</time></trkpt><trkpt lat="45.58172988732618" lon="10.238089081686756"><ele>181.33333333333334</ele><time>2026-05-02T15:03:32Z</time></trkpt><trkpt lat="45.58154535802582" lon="10.237911935184039"><ele>181.0</ele><time>2026-05-02T15:03:33Z</time></trkpt><trkpt lat="45.58135462902361" lon="10.23773228519623"><ele>181.0</ele><time>2026-05-02T15:03:34Z</time></trkpt><trkpt lat="45.581161666435705" lon="10.237557488486203"><ele>181.0</ele><time>2026-05-02T15:03:35Z</time></trkpt><trkpt lat="45.580969555148435" lon="10.237370564143879"><ele>181.0</ele><time>2026-05-02T15:03:36Z</time></trkpt><trkpt lat="45.58077735994398" lon="10.237183723233796"><ele>181.0</ele><time>2026-05-02T15:03:37Z</time></trkpt><trkpt lat="45.58058913182761" lon="10.237002211837662"><ele>181.0</ele><time>2026-05-02T15:03:38Z</time></trkpt><trkpt lat="45.58040158211609" lon="10.236825937384236"><ele>181.0</ele><time>2026-05-02T15:03:39Z</time></trkpt><trkpt lat="45.58021649944929" lon="10.236651367220537"><ele>181.0</ele><time>2026-05-02T15:03:40Z</time></trkpt><trkpt lat="45.58004121555179" lon="10.236481728889538"><ele>180.33333333333334</ele><time>2026-05-02T15:03:41Z</time></trkpt><trkpt lat="45.57987486812921" lon="10.236316742715317"><ele>179.66666666666666</ele><time>2026-05-02T15:03:42Z</time></trkpt><trkpt lat="45.579722155486955" lon="10.23616409322129"><ele>179.0</ele><time>2026-05-02T15:03:43Z</time></trkpt><trkpt lat="45.579584855423256" lon="10.236020441060482"><ele>179.0</ele><time>2026-05-02T15:03:44Z</time></trkpt><trkpt lat="45.57946619601849" lon="10.235895956789005"><ele>179.0</ele><time>2026-05-02T15:03:45Z</time></trkpt><trkpt lat="45.579369898610615" lon="10.235793902476141"><ele>179.0</ele><time>2026-05-02T15:03:46Z</time></trkpt><trkpt lat="45.579285501978575" lon="10.235705134487368"><ele>179.0</ele><time>2026-05-02T15:03:47Z</time></trkpt><trkpt lat="45.57921537922266" lon="10.235631646808228"><ele>179.2</ele><time>2026-05-02T15:03:48Z</time></trkpt><trkpt lat="45.57916979761271" lon="10.235555577848094"><ele>179.39999999999998</ele><time>2026-05-02T15:03:49Z</time></trkpt><trkpt lat="45.579092481108454" lon="10.235474141641346"><ele>179.6</ele><time>2026-05-02T15:03:51Z</time></trkpt><trkpt lat="45.579032144263316" lon="10.235410999172078"><ele>179.8</ele><time>2026-05-02T15:04:02.001Z</time></trkpt><trkpt lat="45.578935682600694" lon="10.23531080199638"><ele>180.0</ele><time>2026-05-02T15:04:04.001Z</time></trkpt><trkpt lat="45.57885657794965" lon="10.235228633949871"><ele>180.0</ele><time>2026-05-02T15:04:05.001Z</time></trkpt><trkpt lat="45.578778775425405" lon="10.235147394649944"><ele>180.0</ele><time>2026-05-02T15:04:06.001Z</time></trkpt><trkpt lat="45.57869313282354" lon="10.235057354099641"><ele>180.0</ele><time>2026-05-02T15:04:07.001Z</time></trkpt><trkpt lat="45.57859205649823" lon="10.234951087276349"><ele>180.0</ele><time>2026-05-02T15:04:08.001Z</time></trkpt><trkpt lat="45.578478213023836" lon="10.234852767189814"><ele>179.66666666666666</ele><time>2026-05-02T15:04:09.001Z</time></trkpt><trkpt lat="45.57836324059675" lon="10.234733002925"><ele>179.33333333333331</ele><time>2026-05-02T15:04:10.001Z</time></trkpt><trkpt lat="45.57824444209426" lon="10.234601408529647"><ele>179.0</ele><time>2026-05-02T15:04:11.001Z</time></trkpt><trkpt lat="45.57810960114379" lon="10.234462094460493"><ele>179.0</ele><time>2026-05-02T15:04:12.001Z</time></trkpt><trkpt lat="45.577961677121685" lon="10.23431013113065"><ele>179.0</ele><time>2026-05-02T15:04:13.001Z</time></trkpt><trkpt lat="45.57780989626623" lon="10.234153830269555"><ele>179.0</ele><time>2026-05-02T15:04:14.001Z</time></trkpt><trkpt lat="45.57765955801449" lon="10.233994242318937"><ele>178.66666666666666</ele><time>2026-05-02T15:04:15.001Z</time></trkpt><trkpt lat="45.57750705943064" lon="10.2338316151198"><ele>178.33333333333334</ele><time>2026-05-02T15:04:16.001Z</time></trkpt><trkpt lat="45.57735044615332" lon="10.233666462332842"><ele>178.0</ele><time>2026-05-02T15:04:17.001Z</time></trkpt><trkpt lat="45.57720341029597" lon="10.233508756969014"><ele>178.0</ele><time>2026-05-02T15:04:18.001Z</time></trkpt><trkpt lat="45.57706309071175" lon="10.233361431967403"><ele>178.0</ele><time>2026-05-02T15:04:19.001Z</time></trkpt><trkpt lat="45.576925110942064" lon="10.233219697151538"><ele>178.0</ele><time>2026-05-02T15:04:20.001Z</time></trkpt><trkpt lat="45.57678302721263" lon="10.233069482403433"><ele>177.66666666666669</ele><time>2026-05-02T15:04:21.001Z</time></trkpt><trkpt lat="45.57663830576805" lon="10.23291838256267"><ele>177.33333333333334</ele><time>2026-05-02T15:04:22.001Z</time></trkpt><trkpt lat="45.57649188728124" lon="10.232765312268322"><ele>177.0</ele><time>2026-05-02T15:04:22.999Z</time></trkpt><trkpt lat="45.57634033363775" lon="10.232612359252364"><ele>176.66666666666666</ele><time>2026-05-02T15:04:23.999Z</time></trkpt><trkpt lat="45.576186380896" lon="10.232457146126315"><ele>176.33333333333331</ele><time>2026-05-02T15:04:24.999Z</time></trkpt><trkpt lat="45.57605955046727" lon="10.232276562918882"><ele>176.0</ele><time>2026-05-02T15:04:25.999Z</time></trkpt><trkpt lat="45.5759481519458" lon="10.232082607424465"><ele>176.0</ele><time>2026-05-02T15:04:26.999Z</time></trkpt><trkpt lat="45.57586282890791" lon="10.23189212494503"><ele>176.0</ele><time>2026-05-02T15:04:27.999Z</time></trkpt><trkpt lat="45.575800313971875" lon="10.23171525762374"><ele>176.0</ele><time>2026-05-02T15:04:28.999Z</time></trkpt><trkpt lat="45.57577232993405" lon="10.231546921830654"><ele>176.0</ele><time>2026-05-02T15:04:29.999Z</time></trkpt><trkpt lat="45.57576090614601" lon="10.231412620591154"><ele>176.0</ele><time>2026-05-02T15:04:30.999Z</time></trkpt><trkpt lat="45.57576509103882" lon="10.231314369699298"><ele>176.0</ele><time>2026-05-02T15:04:31.999Z</time></trkpt><trkpt lat="45.57579146705832" lon="10.231202467764572"><ele>176.0</ele><time>2026-05-02T15:04:33.999Z</time></trkpt><trkpt lat="45.575835807075386" lon="10.231057768605261"><ele>176.0</ele><time>2026-05-02T15:04:40.999Z</time></trkpt><trkpt lat="45.575870463170936" lon="10.230952284318345"><ele>176.0</ele><time>2026-05-02T15:04:41.999Z</time></trkpt><trkpt lat="45.57588399992971" lon="10.230859669005367"><ele>176.0</ele><time>2026-05-02T15:04:42.999Z</time></trkpt><trkpt lat="45.57588938166717" lon="10.230769348103621"><ele>176.0</ele><time>2026-05-02T15:04:43.999Z</time></trkpt><trkpt lat="45.575747891326934" lon="10.230681381152175"><ele>176.0</ele><time>2026-05-02T15:04:45.999Z</time></trkpt><trkpt lat="45.57567498563578" lon="10.230670769499639"><ele>176.0</ele><time>2026-05-02T15:04:46.999Z</time></trkpt><trkpt lat="45.57560241580719" lon="10.230658533476875"><ele>176.0</ele><time>2026-05-02T15:04:48Z</time></trkpt><trkpt lat="45.575539193783236" lon="10.230654618150014"><ele>176.0</ele><time>2026-05-02T15:04:49Z</time></trkpt><trkpt lat="45.57546545699601" lon="10.2306420946484"><ele>176.0</ele><time>2026-05-02T15:04:50Z</time></trkpt><trkpt lat="45.57537851147538" lon="10.230649721259057"><ele>176.0</ele><time>2026-05-02T15:04:51Z</time></trkpt><trkpt lat="45.57528664063553" lon="10.23068158370037"><ele>176.0</ele><time>2026-05-02T15:04:52Z</time></trkpt><trkpt lat="45.575194181247895" lon="10.230717642603334"><ele>176.0</ele><time>2026-05-02T15:04:53Z</time></trkpt><trkpt lat="45.575095125211845" lon="10.230758026505296"><ele>176.0</ele><time>2026-05-02T15:04:54Z</time></trkpt><trkpt lat="45.574996250743894" lon="10.230793151104143"><ele>176.0</ele><time>2026-05-02T15:04:55Z</time></trkpt><trkpt lat="45.57489436363155" lon="10.230824041833138"><ele>176.0</ele><time>2026-05-02T15:04:56Z</time></trkpt><trkpt lat="45.574787861256645" lon="10.230854693048594"><ele>176.0</ele><time>2026-05-02T15:04:57Z</time></trkpt><trkpt lat="45.5746890228556" lon="10.230888468031711"><ele>176.0</ele><time>2026-05-02T15:04:58Z</time></trkpt><trkpt lat="45.57459262315276" lon="10.230920629464723"><ele>176.0</ele><time>2026-05-02T15:04:59Z</time></trkpt><trkpt lat="45.57448470211824" lon="10.230958705477246"><ele>176.0</ele><time>2026-05-02T15:05:00Z</time></trkpt><trkpt lat="45.574364640309035" lon="10.231000549933162"><ele>176.0</ele><time>2026-05-02T15:05:01Z</time></trkpt><trkpt lat="45.57423604480587" lon="10.231044018096611"><ele>176.0</ele><time>2026-05-02T15:05:02Z</time></trkpt><trkpt lat="45.57410752822596" lon="10.23108704719746"><ele>176.0</ele><time>2026-05-02T15:05:03Z</time></trkpt><trkpt lat="45.57397825399687" lon="10.23112966890291"><ele>176.0</ele><time>2026-05-02T15:05:04Z</time></trkpt><trkpt lat="45.57385060691514" lon="10.231174707888012"><ele>176.0</ele><time>2026-05-02T15:05:05Z</time></trkpt><trkpt lat="45.573724634996786" lon="10.231216864257371"><ele>176.0</ele><time>2026-05-02T15:05:06Z</time></trkpt><trkpt lat="45.57359687208376" lon="10.23125908118955"><ele>176.0</ele><time>2026-05-02T15:05:07Z</time></trkpt><trkpt lat="45.573477061317966" lon="10.231298008040008"><ele>176.0</ele><time>2026-05-02T15:05:08Z</time></trkpt><trkpt lat="45.573363177970606" lon="10.23133394762787"><ele>175.60000000000002</ele><time>2026-05-02T15:05:09Z</time></trkpt><trkpt lat="45.57326150400352" lon="10.231366173358076"><ele>175.2</ele><time>2026-05-02T15:05:10Z</time></trkpt><trkpt lat="45.573178503503854" lon="10.231392311540514"><ele>174.8</ele><time>2026-05-02T15:05:11Z</time></trkpt><trkpt lat="45.573091729642435" lon="10.231419082851772"><ele>174.39999999999998</ele><time>2026-05-02T15:05:13Z</time></trkpt><trkpt lat="45.57298451508781" lon="10.23140069402053"><ele>174.0</ele><time>2026-05-02T15:05:20Z</time></trkpt><trkpt lat="45.57290094783117" lon="10.23135075945524"><ele>174.0</ele><time>2026-05-02T15:05:21Z</time></trkpt><trkpt lat="45.57281845421003" lon="10.231427495940904"><ele>174.0</ele><time>2026-05-02T15:05:22Z</time></trkpt><trkpt lat="45.572737408783844" lon="10.231492139153843"><ele>174.0</ele><time>2026-05-02T15:05:23Z</time></trkpt><trkpt lat="45.57264293696999" lon="10.231541155772256"><ele>174.0</ele><time>2026-05-02T15:05:24Z</time></trkpt><trkpt lat="45.57253439782197" lon="10.23156970386454"><ele>174.0</ele><time>2026-05-02T15:05:25Z</time></trkpt><trkpt lat="45.572413322731656" lon="10.231590434110805"><ele>174.0</ele><time>2026-05-02T15:05:26Z</time></trkpt><trkpt lat="45.57229767390625" lon="10.23160085931218"><ele>174.0</ele><time>2026-05-02T15:05:27Z</time></trkpt><trkpt lat="45.57218811970861" lon="10.231614606717317"><ele>174.0</ele><time>2026-05-02T15:05:28Z</time></trkpt><trkpt lat="45.572079125932085" lon="10.231625984620337"><ele>174.0</ele><time>2026-05-02T15:05:29Z</time></trkpt><trkpt lat="45.57195782984805" lon="10.231632971248477"><ele>173.75</ele><time>2026-05-02T15:05:30Z</time></trkpt><trkpt lat="45.57182927018926" lon="10.231637859664135"><ele>173.5</ele><time>2026-05-02T15:05:31Z</time></trkpt><trkpt lat="45.57169169251153" lon="10.231636234415733"><ele>173.25</ele><time>2026-05-02T15:05:32Z</time></trkpt><trkpt lat="45.571555226784454" lon="10.23163036037355"><ele>173.0</ele><time>2026-05-02T15:05:33Z</time></trkpt><trkpt lat="45.57141552648251" lon="10.231622942371843"><ele>173.0</ele><time>2026-05-02T15:05:34Z</time></trkpt><trkpt lat="45.57127906059534" lon="10.231615454486152"><ele>173.0</ele><time>2026-05-02T15:05:35Z</time></trkpt><trkpt lat="45.571148883773475" lon="10.231606127372244"><ele>173.0</ele><time>2026-05-02T15:05:36Z</time></trkpt><trkpt lat="45.57102878072767" lon="10.231597680722356"><ele>173.0</ele><time>2026-05-02T15:05:37Z</time></trkpt><trkpt lat="45.570921983704764" lon="10.231590315617359"><ele>173.0</ele><time>2026-05-02T15:05:38Z</time></trkpt><trkpt lat="45.57083131683675" lon="10.231583658210516"><ele>173.0</ele><time>2026-05-02T15:05:39.001Z</time></trkpt><trkpt lat="45.5707522676928" lon="10.231576211513723"><ele>173.0</ele><time>2026-05-02T15:05:40.001Z</time></trkpt><trkpt lat="45.570683764134586" lon="10.231567470642357"><ele>173.0</ele><time>2026-05-02T15:05:41.001Z</time></trkpt><trkpt lat="45.57059664702495" lon="10.231547171511586"><ele>173.0</ele><time>2026-05-02T15:05:43.001Z</time></trkpt><trkpt lat="45.570537162440914" lon="10.231501533745533"><ele>173.0</ele><time>2026-05-02T15:05:47.001Z</time></trkpt><trkpt lat="45.570419442220356" lon="10.231467251327599"><ele>172.60000000000002</ele><time>2026-05-02T15:05:49.001Z</time></trkpt><trkpt lat="45.57032553270693" lon="10.231466082003474"><ele>172.20000000000002</ele><time>2026-05-02T15:05:50.001Z</time></trkpt><trkpt lat="45.57021061516237" lon="10.231451326959181"><ele>171.8</ele><time>2026-05-02T15:05:51.001Z</time></trkpt><trkpt lat="45.570096130268276" lon="10.231414395951091"><ele>171.4</ele><time>2026-05-02T15:05:52.001Z</time></trkpt><trkpt lat="45.56998611415846" lon="10.231377344708722"><ele>171.0</ele><time>2026-05-02T15:05:53.001Z</time></trkpt><trkpt lat="45.56985384244324" lon="10.231336358159544"><ele>171.0</ele><time>2026-05-02T15:05:54.001Z</time></trkpt><trkpt lat="45.56969629570271" lon="10.231294492111036"><ele>171.0</ele><time>2026-05-02T15:05:55.001Z</time></trkpt><trkpt lat="45.56953688893408" lon="10.23126205550288"><ele>171.0</ele><time>2026-05-02T15:05:56.001Z</time></trkpt><trkpt lat="45.56938414702035" lon="10.231228328693518"><ele>171.20000000000002</ele><time>2026-05-02T15:05:57.001Z</time></trkpt><trkpt lat="45.56924190649539" lon="10.23118674766002"><ele>171.4</ele><time>2026-05-02T15:05:58.001Z</time></trkpt><trkpt lat="45.56914935150904" lon="10.231142631419608"><ele>171.6</ele><time>2026-05-02T15:05:59.001Z</time></trkpt><trkpt lat="45.56905525099628" lon="10.231111591887606"><ele>171.8</ele><time>2026-05-02T15:06:07.001Z</time></trkpt><trkpt lat="45.568979294419265" lon="10.231083665945786"><ele>172.0</ele><time>2026-05-02T15:06:08.001Z</time></trkpt><trkpt lat="45.56891244815222" lon="10.231056617566624"><ele>172.00000000000003</ele><time>2026-05-02T15:06:09.001Z</time></trkpt><trkpt lat="45.56884616809447" lon="10.2310296163909"><ele>172.0</ele><time>2026-05-02T15:06:10.001Z</time></trkpt><trkpt lat="45.568773673529954" lon="10.231002151833021"><ele>172.0</ele><time>2026-05-02T15:06:11.001Z</time></trkpt><trkpt lat="45.56870077991125" lon="10.230973083859807"><ele>172.0</ele><time>2026-05-02T15:06:12.001Z</time></trkpt><trkpt lat="45.568635275387166" lon="10.230936930811204"><ele>172.0</ele><time>2026-05-02T15:06:13.001Z</time></trkpt><trkpt lat="45.56857716617279" lon="10.230895271782538"><ele>172.00000000000003</ele><time>2026-05-02T15:06:14.001Z</time></trkpt><trkpt lat="45.568519638718094" lon="10.230854050750098"><ele>172.0</ele><time>2026-05-02T15:06:15.001Z</time></trkpt><trkpt lat="45.56842682130352" lon="10.230775975175357"><ele>171.5</ele><time>2026-05-02T15:06:17.001Z</time></trkpt><trkpt lat="45.56835601163165" lon="10.230698283995567"><ele>171.0</ele><time>2026-05-02T15:06:20.001Z</time></trkpt><trkpt lat="45.56829877725337" lon="10.23062927509249"><ele>170.5</ele><time>2026-05-02T15:06:22.001Z</time></trkpt><trkpt lat="45.56824861607613" lon="10.230563951277281"><ele>170.0</ele><time>2026-05-02T15:06:23.001Z</time></trkpt><trkpt lat="45.568202327301584" lon="10.230501796680391"><ele>169.5</ele><time>2026-05-02T15:06:24.001Z</time></trkpt><trkpt lat="45.5680635391422" lon="10.230439380212342"><ele>169.0</ele><time>2026-05-02T15:06:26.001Z</time></trkpt><trkpt lat="45.56797518269923" lon="10.23047258985921"><ele>168.79999999999998</ele><time>2026-05-02T15:06:27.001Z</time></trkpt><trkpt lat="45.56787915361556" lon="10.230467316437164"><ele>168.6</ele><time>2026-05-02T15:06:28.001Z</time></trkpt><trkpt lat="45.56778305021652" lon="10.230443062897677"><ele>168.4</ele><time>2026-05-02T15:06:28.999Z</time></trkpt><trkpt lat="45.567683400653806" lon="10.230406322714693"><ele>168.2</ele><time>2026-05-02T15:06:29.999Z</time></trkpt><trkpt lat="45.56757726668792" lon="10.230361675018466"><ele>168.0</ele><time>2026-05-02T15:06:30.999Z</time></trkpt><trkpt lat="45.56746947193308" lon="10.23030511634784"><ele>168.0</ele><time>2026-05-02T15:06:31.999Z</time></trkpt><trkpt lat="45.56735214521973" lon="10.230240233834763"><ele>168.0</ele><time>2026-05-02T15:06:32.999Z</time></trkpt><trkpt lat="45.56721776569772" lon="10.230168756139845"><ele>168.0</ele><time>2026-05-02T15:06:33.999Z</time></trkpt><trkpt lat="45.56708682366868" lon="10.23009123355502"><ele>168.0</ele><time>2026-05-02T15:06:34.999Z</time></trkpt><trkpt lat="45.566959792276364" lon="10.230008019484455"><ele>167.75</ele><time>2026-05-02T15:06:35.999Z</time></trkpt><trkpt lat="45.56682218317809" lon="10.229921443807553"><ele>167.5</ele><time>2026-05-02T15:06:36.999Z</time></trkpt><trkpt lat="45.56668600425352" lon="10.229848107916961"><ele>167.25</ele><time>2026-05-02T15:06:37.999Z</time></trkpt><trkpt lat="45.566555904100355" lon="10.229784232961192"><ele>167.0</ele><time>2026-05-02T15:06:38.999Z</time></trkpt><trkpt lat="45.56644677245825" lon="10.229731804243993"><ele>167.2</ele><time>2026-05-02T15:06:39.999Z</time></trkpt><trkpt lat="45.56637223536336" lon="10.229700163655583"><ele>167.39999999999998</ele><time>2026-05-02T15:06:40.999Z</time></trkpt><trkpt lat="45.56628997296872" lon="10.229658681119199"><ele>167.60000000000002</ele><time>2026-05-02T15:06:41.999Z</time></trkpt><trkpt lat="45.56621383036103" lon="10.229615018864504"><ele>167.8</ele><time>2026-05-02T15:06:42.999Z</time></trkpt><trkpt lat="45.56612032242692" lon="10.229561703293992"><ele>168.0</ele><time>2026-05-02T15:06:43.999Z</time></trkpt><trkpt lat="45.56602097410851" lon="10.229501842654344"><ele>168.0</ele><time>2026-05-02T15:06:44.999Z</time></trkpt><trkpt lat="45.56590930492988" lon="10.229426633157182"><ele>168.0</ele><time>2026-05-02T15:06:45.999Z</time></trkpt><trkpt lat="45.56577990581224" lon="10.2293483434546"><ele>168.0</ele><time>2026-05-02T15:06:46.999Z</time></trkpt><trkpt lat="45.56563884437068" lon="10.229268318897502"><ele>168.0</ele><time>2026-05-02T15:06:48Z</time></trkpt><trkpt lat="45.565498351123296" lon="10.229195901168621"><ele>167.33333333333334</ele><time>2026-05-02T15:06:49Z</time></trkpt><trkpt lat="45.565352768595595" lon="10.229122877881153"><ele>166.66666666666669</ele><time>2026-05-02T15:06:50Z</time></trkpt><trkpt lat="45.56520608959097" lon="10.229060847417244"><ele>166.0</ele><time>2026-05-02T15:06:51Z</time></trkpt><trkpt lat="45.565065321119675" lon="10.229004932532565"><ele>166.0</ele><time>2026-05-02T15:06:52Z</time></trkpt><trkpt lat="45.56493680405014" lon="10.228958077805675"><ele>166.0</ele><time>2026-05-02T15:06:53Z</time></trkpt><trkpt lat="45.56482165622152" lon="10.228914990724638"><ele>166.0</ele><time>2026-05-02T15:06:54Z</time></trkpt><trkpt lat="45.564719186358225" lon="10.228888675146774"><ele>166.0</ele><time>2026-05-02T15:06:55Z</time></trkpt><trkpt lat="45.56463959277636" lon="10.228870394415967"><ele>166.0</ele><time>2026-05-02T15:06:56Z</time></trkpt><trkpt lat="45.56455768939067" lon="10.228851795654121"><ele>165.8</ele><time>2026-05-02T15:06:58Z</time></trkpt><trkpt lat="45.56444968498197" lon="10.228816319278005"><ele>165.60000000000002</ele><time>2026-05-02T15:07:01Z</time></trkpt><trkpt lat="45.564372430309604" lon="10.228788535287249"><ele>165.4</ele><time>2026-05-02T15:07:02Z</time></trkpt><trkpt lat="45.56428521030803" lon="10.228760317102727"><ele>165.2</ele><time>2026-05-02T15:07:03Z</time></trkpt><trkpt lat="45.564192844201735" lon="10.228729745274894"><ele>165.0</ele><time>2026-05-02T15:07:04Z</time></trkpt><trkpt lat="45.56408283085431" lon="10.22869080039643"><ele>165.0</ele><time>2026-05-02T15:07:05Z</time></trkpt><trkpt lat="45.56393993487894" lon="10.228648397310105"><ele>165.0</ele><time>2026-05-02T15:07:06Z</time></trkpt><trkpt lat="45.563783819873706" lon="10.228611123569031"><ele>165.0</ele><time>2026-05-02T15:07:07Z</time></trkpt><trkpt lat="45.56360761715768" lon="10.228582899476404"><ele>164.0</ele><time>2026-05-02T15:07:08Z</time></trkpt><trkpt lat="45.563435023944024" lon="10.228562238250014"><ele>163.0</ele><time>2026-05-02T15:07:09Z</time></trkpt><trkpt lat="45.563255953173254" lon="10.228540786314973"><ele>162.0</ele><time>2026-05-02T15:07:10Z</time></trkpt><trkpt lat="45.56308025420143" lon="10.228512228306043"><ele>162.0</ele><time>2026-05-02T15:07:11Z</time></trkpt><trkpt lat="45.56291600416316" lon="10.228487561960547"><ele>162.0</ele><time>2026-05-02T15:07:12Z</time></trkpt><trkpt lat="45.562755129964415" lon="10.228467118835589"><ele>162.0</ele><time>2026-05-02T15:07:13Z</time></trkpt><trkpt lat="45.5625984694066" lon="10.228453799137483"><ele>162.66666666666666</ele><time>2026-05-02T15:07:14Z</time></trkpt><trkpt lat="45.56244139846608" lon="10.228442911797528"><ele>163.33333333333331</ele><time>2026-05-02T15:07:15Z</time></trkpt><trkpt lat="45.562276432910565" lon="10.228429833637783"><ele>164.0</ele><time>2026-05-02T15:07:16Z</time></trkpt><trkpt lat="45.56211481391431" lon="10.228418710045338"><ele>164.0</ele><time>2026-05-02T15:07:17Z</time></trkpt><trkpt lat="45.561940410538725" lon="10.228401976310652"><ele>164.0</ele><time>2026-05-02T15:07:18Z</time></trkpt><trkpt lat="45.56176840470531" lon="10.22838525188692"><ele>164.0</ele><time>2026-05-02T15:07:19Z</time></trkpt><trkpt lat="45.56158987196943" lon="10.228367592083835"><ele>164.0</ele><time>2026-05-02T15:07:20Z</time></trkpt><trkpt lat="45.561410953308254" lon="10.228346934544104"><ele>164.0</ele><time>2026-05-02T15:07:21Z</time></trkpt><trkpt lat="45.56122799655098" lon="10.22832655183522"><ele>164.0</ele><time>2026-05-02T15:07:22Z</time></trkpt><trkpt lat="45.56105737545802" lon="10.228309556577186"><ele>162.66666666666666</ele><time>2026-05-02T15:07:23Z</time></trkpt><trkpt lat="45.56089209916663" lon="10.228292469359527"><ele>161.33333333333334</ele><time>2026-05-02T15:07:24Z</time></trkpt><trkpt lat="45.5607327551898" lon="10.228278241388225"><ele>160.0</ele><time>2026-05-02T15:07:25Z</time></trkpt><trkpt lat="45.560581365858404" lon="10.228263789532313"><ele>160.0</ele><time>2026-05-02T15:07:26Z</time></trkpt><trkpt lat="45.560442822282475" lon="10.22824741963055"><ele>160.0</ele><time>2026-05-02T15:07:27Z</time></trkpt><trkpt lat="45.560307088274605" lon="10.228227169149378"><ele>160.0</ele><time>2026-05-02T15:07:28Z</time></trkpt><trkpt lat="45.56018233658522" lon="10.228209278715537"><ele>160.0</ele><time>2026-05-02T15:07:29Z</time></trkpt><trkpt lat="45.56006225072485" lon="10.228194685005455"><ele>160.16666666666669</ele><time>2026-05-02T15:07:30Z</time></trkpt><trkpt lat="45.559955610494406" lon="10.228182705448141"><ele>160.33333333333334</ele><time>2026-05-02T15:07:31Z</time></trkpt><trkpt lat="45.5598645682853" lon="10.228171889534451"><ele>160.5</ele><time>2026-05-02T15:07:32Z</time></trkpt><trkpt lat="45.55978222604933" lon="10.228166632939304"><ele>160.66666666666666</ele><time>2026-05-02T15:07:33Z</time></trkpt><trkpt lat="45.559712270754275" lon="10.22815871753138"><ele>160.83333333333331</ele><time>2026-05-02T15:07:34.001Z</time></trkpt><trkpt lat="45.559614787265865" lon="10.228150820529631"><ele>161.0</ele><time>2026-05-02T15:07:36.001Z</time></trkpt><trkpt lat="45.55951662294992" lon="10.228140598786231"><ele>161.0</ele><time>2026-05-02T15:07:40.001Z</time></trkpt><trkpt lat="45.55941931169122" lon="10.228122605199426"><ele>161.0</ele><time>2026-05-02T15:07:42.001Z</time></trkpt><trkpt lat="45.559298853923636" lon="10.228106318173092"><ele>161.0</ele><time>2026-05-02T15:07:44.001Z</time></trkpt><trkpt lat="45.55922166141146" lon="10.228085706197753"><ele>161.0</ele><time>2026-05-02T15:07:45.001Z</time></trkpt><trkpt lat="45.55913933649036" lon="10.228046097749779"><ele>161.0</ele><time>2026-05-02T15:07:46.001Z</time></trkpt><trkpt lat="45.55906374763536" lon="10.228001868234433"><ele>161.0</ele><time>2026-05-02T15:07:47.001Z</time></trkpt><trkpt lat="45.55898571073026" lon="10.22795406007467"><ele>161.0</ele><time>2026-05-02T15:07:48.001Z</time></trkpt><trkpt lat="45.55890213010206" lon="10.227896218719858"><ele>161.0</ele><time>2026-05-02T15:07:49.001Z</time></trkpt><trkpt lat="45.55881876989754" lon="10.227828843424886"><ele>161.0</ele><time>2026-05-02T15:07:50.001Z</time></trkpt><trkpt lat="45.55873984023221" lon="10.227753339760051"><ele>161.0</ele><time>2026-05-02T15:07:51.001Z</time></trkpt><trkpt lat="45.55865718616106" lon="10.2276546903256"><ele>161.4</ele><time>2026-05-02T15:07:52.001Z</time></trkpt><trkpt lat="45.55858596732426" lon="10.227561004324953"><ele>161.8</ele><time>2026-05-02T15:07:53.001Z</time></trkpt><trkpt lat="45.55852782092371" lon="10.227465329650602"><ele>162.20000000000002</ele><time>2026-05-02T15:07:54.001Z</time></trkpt><trkpt lat="45.55845619060765" lon="10.227360897896808"><ele>162.60000000000002</ele><time>2026-05-02T15:07:55.001Z</time></trkpt><trkpt lat="45.558370435777704" lon="10.227252821779066"><ele>163.0</ele><time>2026-05-02T15:07:56.001Z</time></trkpt><trkpt lat="45.558294086120334" lon="10.227147727238064"><ele>163.0</ele><time>2026-05-02T15:07:57.001Z</time></trkpt><trkpt lat="45.55822001626053" lon="10.227050909840386"><ele>163.0</ele><time>2026-05-02T15:07:58.001Z</time></trkpt><trkpt lat="45.55814583272806" lon="10.226960298116005"><ele>163.0</ele><time>2026-05-02T15:07:59.001Z</time></trkpt><trkpt lat="45.558069643638" lon="10.22687225573304"><ele>163.0</ele><time>2026-05-02T15:08:00.001Z</time></trkpt><trkpt lat="45.557992972470075" lon="10.22679449438893"><ele>163.0</ele><time>2026-05-02T15:08:01.001Z</time></trkpt><trkpt lat="45.557902451884345" lon="10.226730922721547"><ele>162.8</ele><time>2026-05-02T15:08:02.001Z</time></trkpt><trkpt lat="45.557809293125246" lon="10.226674070149528"><ele>162.60000000000002</ele><time>2026-05-02T15:08:03.001Z</time></trkpt><trkpt lat="45.5577124586955" lon="10.226623195697252"><ele>162.39999999999998</ele><time>2026-05-02T15:08:04.001Z</time></trkpt><trkpt lat="45.557618847849504" lon="10.226575238706813"><ele>162.2</ele><time>2026-05-02T15:08:05.001Z</time></trkpt><trkpt lat="45.55752759348219" lon="10.226529599511062"><ele>162.0</ele><time>2026-05-02T15:08:06.001Z</time></trkpt><trkpt lat="45.55742119397565" lon="10.22646524626499"><ele>162.0</ele><time>2026-05-02T15:08:07.001Z</time></trkpt><trkpt lat="45.5573145092216" lon="10.226399459387665"><ele>162.0</ele><time>2026-05-02T15:08:08.001Z</time></trkpt><trkpt lat="45.5572038835409" lon="10.226323920286205"><ele>162.0</ele><time>2026-05-02T15:08:09.001Z</time></trkpt><trkpt lat="45.55709276094746" lon="10.226240391624382"><ele>162.0</ele><time>2026-05-02T15:08:10.001Z</time></trkpt><trkpt lat="45.55698018050107" lon="10.226153185588027"><ele>162.0</ele><time>2026-05-02T15:08:11.001Z</time></trkpt><trkpt lat="45.55687129999722" lon="10.22607257669754"><ele>162.0</ele><time>2026-05-02T15:08:12.001Z</time></trkpt><trkpt lat="45.55677412155329" lon="10.226001963438367"><ele>162.0</ele><time>2026-05-02T15:08:13.001Z</time></trkpt><trkpt lat="45.55667992186001" lon="10.22593643071807"><ele>162.0</ele><time>2026-05-02T15:08:14.001Z</time></trkpt><trkpt lat="45.55658726207207" lon="10.225876859636116"><ele>162.0</ele><time>2026-05-02T15:08:15.001Z</time></trkpt><trkpt lat="45.55650613556662" lon="10.225828745678678"><ele>162.0</ele><time>2026-05-02T15:08:16.001Z</time></trkpt><trkpt lat="45.556432182899414" lon="10.225788368140556"><ele>162.0</ele><time>2026-05-02T15:08:17.001Z</time></trkpt><trkpt lat="45.556366054889274" lon="10.225749020415545"><ele>162.0</ele><time>2026-05-02T15:08:18.001Z</time></trkpt><trkpt lat="45.556299605279264" lon="10.22570978146292"><ele>162.0</ele><time>2026-05-02T15:08:19.001Z</time></trkpt><trkpt lat="45.55622746942579" lon="10.225675705413131"><ele>162.0</ele><time>2026-05-02T15:08:20.001Z</time></trkpt><trkpt lat="45.55615290293488" lon="10.225653081144817"><ele>162.0</ele><time>2026-05-02T15:08:21.001Z</time></trkpt><trkpt lat="45.55605369373488" lon="10.225623334296257"><ele>162.0</ele><time>2026-05-02T15:08:23.001Z</time></trkpt><trkpt lat="45.5559841187781" lon="10.225629070085553"><ele>162.0</ele><time>2026-05-02T15:08:59Z</time></trkpt><trkpt lat="45.5558860489777" lon="10.225610723072462"><ele>162.0</ele><time>2026-05-02T15:09:01Z</time></trkpt><trkpt lat="45.5558017238335" lon="10.225598247862623"><ele>162.0</ele><time>2026-05-02T15:09:03Z</time></trkpt><trkpt lat="45.55571063078977" lon="10.22560430559761"><ele>162.0</ele><time>2026-05-02T15:09:05Z</time></trkpt><trkpt lat="45.55558041859901" lon="10.225618219386572"><ele>162.0</ele><time>2026-05-02T15:09:07Z</time></trkpt><trkpt lat="45.55549700057012" lon="10.22561855807508"><ele>162.0</ele><time>2026-05-02T15:09:08Z</time></trkpt><trkpt lat="45.555421542378475" lon="10.225613710884874"><ele>162.0</ele><time>2026-05-02T15:09:09Z</time></trkpt><trkpt lat="45.55535399981614" lon="10.225613085602191"><ele>162.0</ele><time>2026-05-02T15:09:10Z</time></trkpt><trkpt lat="45.55528770579237" lon="10.225604085006632"><ele>162.0</ele><time>2026-05-02T15:09:11Z</time></trkpt><trkpt lat="45.55521356219411" lon="10.22560457842412"><ele>162.0</ele><time>2026-05-02T15:09:12Z</time></trkpt><trkpt lat="45.555136706449574" lon="10.225599771214934"><ele>162.0</ele><time>2026-05-02T15:09:13Z</time></trkpt><trkpt lat="45.55505690778467" lon="10.225587038012963"><ele>161.66666666666666</ele><time>2026-05-02T15:09:14Z</time></trkpt><trkpt lat="45.5549874861812" lon="10.225579461570737"><ele>161.33333333333334</ele><time>2026-05-02T15:09:15Z</time></trkpt><trkpt lat="45.554916843723454" lon="10.225547795324609"><ele>161.0</ele><time>2026-05-02T15:09:16Z</time></trkpt><trkpt lat="45.55483247667343" lon="10.225548312063086"><ele>160.66666666666669</ele><time>2026-05-02T15:09:17Z</time></trkpt><trkpt lat="45.55473929328742" lon="10.225559159849736"><ele>160.33333333333334</ele><time>2026-05-02T15:09:18Z</time></trkpt><trkpt lat="45.55465623234719" lon="10.225566632910677"><ele>160.0</ele><time>2026-05-02T15:09:19Z</time></trkpt><trkpt lat="45.55456434343641" lon="10.22557867780096"><ele>160.16666666666669</ele><time>2026-05-02T15:09:20Z</time></trkpt><trkpt lat="45.554471034819734" lon="10.22559399420574"><ele>160.33333333333334</ele><time>2026-05-02T15:09:21Z</time></trkpt><trkpt lat="45.55438596558983" lon="10.225604566878838"><ele>160.5</ele><time>2026-05-02T15:09:22Z</time></trkpt><trkpt lat="45.554309551922124" lon="10.225606940039587"><ele>160.66666666666666</ele><time>2026-05-02T15:09:23Z</time></trkpt><trkpt lat="45.55422495515072" lon="10.225615342965927"><ele>160.83333333333331</ele><time>2026-05-02T15:09:24Z</time></trkpt><trkpt lat="45.55413615992538" lon="10.225614749821355"><ele>161.0</ele><time>2026-05-02T15:09:25Z</time></trkpt><trkpt lat="45.55404969589077" lon="10.225608798819705"><ele>161.0</ele><time>2026-05-02T15:09:26Z</time></trkpt><trkpt lat="45.5539639754666" lon="10.225605205437578"><ele>161.0</ele><time>2026-05-02T15:09:27.001Z</time></trkpt><trkpt lat="45.553881682542304" lon="10.22559588453814"><ele>161.0</ele><time>2026-05-02T15:09:28.001Z</time></trkpt><trkpt lat="45.55379438366056" lon="10.225591993310104"><ele>161.0</ele><time>2026-05-02T15:09:29.001Z</time></trkpt><trkpt lat="45.55371058208946" lon="10.225582368201062"><ele>161.0</ele><time>2026-05-02T15:09:30.001Z</time></trkpt><trkpt lat="45.553621125784005" lon="10.225542467705388"><ele>161.0</ele><time>2026-05-02T15:09:31.001Z</time></trkpt><trkpt lat="45.553543429016784" lon="10.22546545405045"><ele>160.60000000000002</ele><time>2026-05-02T15:09:32.001Z</time></trkpt><trkpt lat="45.553477909656166" lon="10.225353446450125"><ele>160.20000000000002</ele><time>2026-05-02T15:09:33.001Z</time></trkpt><trkpt lat="45.55342177261632" lon="10.225228373876218"><ele>159.8</ele><time>2026-05-02T15:09:34.001Z</time></trkpt><trkpt lat="45.553373022133236" lon="10.225094138720317"><ele>159.4</ele><time>2026-05-02T15:09:35.001Z</time></trkpt><trkpt lat="45.553328239100416" lon="10.22497580402407"><ele>159.0</ele><time>2026-05-02T15:09:36.001Z</time></trkpt><trkpt lat="45.553285264214935" lon="10.224859282049954"><ele>158.8</ele><time>2026-05-02T15:09:37.001Z</time></trkpt><trkpt lat="45.553232088482815" lon="10.224752891171939"><ele>158.60000000000002</ele><time>2026-05-02T15:09:38.001Z</time></trkpt><trkpt lat="45.55318069685182" lon="10.224648823387978"><ele>158.4</ele><time>2026-05-02T15:09:39.001Z</time></trkpt><trkpt lat="45.5531251738243" lon="10.224541146713765"><ele>158.20000000000002</ele><time>2026-05-02T15:09:40.001Z</time></trkpt><trkpt lat="45.553072925845136" lon="10.224426756691287"><ele>158.0</ele><time>2026-05-02T15:09:41.001Z</time></trkpt><trkpt lat="45.55302074246057" lon="10.22431115014178"><ele>158.0</ele><time>2026-05-02T15:09:42.001Z</time></trkpt><trkpt lat="45.55296716204904" lon="10.224199739977715"><ele>158.0</ele><time>2026-05-02T15:09:43.001Z</time></trkpt><trkpt lat="45.552922837143086" lon="10.224080922508506"><ele>158.0</ele><time>2026-05-02T15:09:44.001Z</time></trkpt><trkpt lat="45.55287562422132" lon="10.223953565449927"><ele>158.0</ele><time>2026-05-02T15:09:45.001Z</time></trkpt><trkpt lat="45.552808773699844" lon="10.223834135534963"><ele>158.0</ele><time>2026-05-02T15:09:46.001Z</time></trkpt><trkpt lat="45.55274609339236" lon="10.223725586971211"><ele>157.6</ele><time>2026-05-02T15:09:47.001Z</time></trkpt><trkpt lat="45.55268340601657" lon="10.223621106769418"><ele>157.20000000000002</ele><time>2026-05-02T15:09:48.001Z</time></trkpt><trkpt lat="45.55262633999951" lon="10.223520996903506"><ele>156.8</ele><time>2026-05-02T15:09:49.001Z</time></trkpt><trkpt lat="45.5525622976574" lon="10.223445910667461"><ele>156.4</ele><time>2026-05-02T15:09:50.001Z</time></trkpt><trkpt lat="45.552477214952134" lon="10.223410868552744"><ele>156.0</ele><time>2026-05-02T15:09:51.001Z</time></trkpt><trkpt lat="45.55238043313538" lon="10.223400225323388"><ele>156.0</ele><time>2026-05-02T15:09:52.001Z</time></trkpt><trkpt lat="45.55228220609722" lon="10.223392986396298"><ele>156.0</ele><time>2026-05-02T15:09:53.001Z</time></trkpt><trkpt lat="45.552178848004495" lon="10.223374292899928"><ele>156.0</ele><time>2026-05-02T15:09:54.001Z</time></trkpt><trkpt lat="45.55207704590059" lon="10.223341338812968"><ele>156.0</ele><time>2026-05-02T15:09:55.001Z</time></trkpt><trkpt lat="45.55197090301494" lon="10.223311545558659"><ele>156.0</ele><time>2026-05-02T15:09:56.001Z</time></trkpt><trkpt lat="45.5518679197884" lon="10.223283489087965"><ele>156.4</ele><time>2026-05-02T15:09:57.001Z</time></trkpt><trkpt lat="45.55175917672994" lon="10.223263057702066"><ele>156.8</ele><time>2026-05-02T15:09:58.001Z</time></trkpt><trkpt lat="45.55164692160101" lon="10.223245878663883"><ele>157.20000000000002</ele><time>2026-05-02T15:09:59.001Z</time></trkpt><trkpt lat="45.55154148371309" lon="10.223225746965381"><ele>157.6</ele><time>2026-05-02T15:10:00.001Z</time></trkpt><trkpt lat="45.55143473222507" lon="10.223204487739435"><ele>158.0</ele><time>2026-05-02T15:10:01.001Z</time></trkpt><trkpt lat="45.551322550422746" lon="10.223182176234756"><ele>158.0</ele><time>2026-05-02T15:10:02.001Z</time></trkpt><trkpt lat="45.55121433870912" lon="10.223151723362074"><ele>158.0</ele><time>2026-05-02T15:10:03.001Z</time></trkpt><trkpt lat="45.551111371017335" lon="10.223126508123325"><ele>158.0</ele><time>2026-05-02T15:10:04.001Z</time></trkpt><trkpt lat="45.551015819928885" lon="10.223103294203824"><ele>158.0</ele><time>2026-05-02T15:10:05.001Z</time></trkpt><trkpt lat="45.55090958375818" lon="10.223080139140173"><ele>158.0</ele><time>2026-05-02T15:10:06.001Z</time></trkpt><trkpt lat="45.550814601574636" lon="10.223056571721415"><ele>157.66666666666666</ele><time>2026-05-02T15:10:07.001Z</time></trkpt><trkpt lat="45.55071719030763" lon="10.223038296327445"><ele>157.33333333333331</ele><time>2026-05-02T15:10:08.001Z</time></trkpt><trkpt lat="45.550634910600536" lon="10.223004958101177"><ele>157.0</ele><time>2026-05-02T15:10:09.001Z</time></trkpt><trkpt lat="45.55056237351166" lon="10.222962825204775"><ele>156.66666666666666</ele><time>2026-05-02T15:10:10.001Z</time></trkpt><trkpt lat="45.55050181293851" lon="10.22293593526579"><ele>156.33333333333334</ele><time>2026-05-02T15:10:11.001Z</time></trkpt><trkpt lat="45.55043972879213" lon="10.222906059073187"><ele>156.0</ele><time>2026-05-02T15:10:13.001Z</time></trkpt><trkpt lat="45.55037688181885" lon="10.222841291913031"><ele>155.83333333333334</ele><time>2026-05-02T15:10:28.002Z</time></trkpt><trkpt lat="45.55030340957964" lon="10.222823934225605"><ele>155.66666666666666</ele><time>2026-05-02T15:10:29.002Z</time></trkpt><trkpt lat="45.55023020583013" lon="10.222781937003703"><ele>155.5</ele><time>2026-05-02T15:10:30.002Z</time></trkpt><trkpt lat="45.55015145159892" lon="10.222737024938668"><ele>155.33333333333331</ele><time>2026-05-02T15:10:31.002Z</time></trkpt><trkpt lat="45.550063210185535" lon="10.222679557544462"><ele>155.16666666666666</ele><time>2026-05-02T15:10:32.002Z</time></trkpt><trkpt lat="45.54997364346181" lon="10.222579379047666"><ele>155.0</ele><time>2026-05-02T15:10:33.002Z</time></trkpt><trkpt lat="45.5498703934653" lon="10.222517631971511"><ele>155.0</ele><time>2026-05-02T15:10:34.002Z</time></trkpt><trkpt lat="45.54977220193293" lon="10.222457718269013"><ele>155.0</ele><time>2026-05-02T15:10:35.002Z</time></trkpt><trkpt lat="45.54966620483608" lon="10.222412319843878"><ele>155.0</ele><time>2026-05-02T15:10:36.002Z</time></trkpt><trkpt lat="45.5495597026305" lon="10.222339869381289"><ele>155.0</ele><time>2026-05-02T15:10:37.002Z</time></trkpt><trkpt lat="45.54945587101682" lon="10.222244911949177"><ele>155.5</ele><time>2026-05-02T15:10:38.002Z</time></trkpt><trkpt lat="45.54935298507055" lon="10.222134072455127"><ele>156.0</ele><time>2026-05-02T15:10:39.002Z</time></trkpt><trkpt lat="45.54924643510731" lon="10.22202036251457"><ele>156.5</ele><time>2026-05-02T15:10:40.002Z</time></trkpt><trkpt lat="45.54913526902785" lon="10.221912224328696"><ele>157.0</ele><time>2026-05-02T15:10:40.999Z</time></trkpt><trkpt lat="45.54902131024836" lon="10.221813715231677"><ele>157.0</ele><time>2026-05-02T15:10:41.999Z</time></trkpt><trkpt lat="45.54890238089604" lon="10.22173820265096"><ele>157.0</ele><time>2026-05-02T15:10:42.999Z</time></trkpt><trkpt lat="45.54878461985383" lon="10.221678356575628"><ele>157.0</ele><time>2026-05-02T15:10:43.999Z</time></trkpt><trkpt lat="45.54867216192975" lon="10.221628190141274"><ele>157.0</ele><time>2026-05-02T15:10:44.999Z</time></trkpt><trkpt lat="45.54856796019251" lon="10.221573931485196"><ele>156.79999999999998</ele><time>2026-05-02T15:10:45.999Z</time></trkpt><trkpt lat="45.54846891847959" lon="10.221521676349028"><ele>156.6</ele><time>2026-05-02T15:10:46.999Z</time></trkpt><trkpt lat="45.54837199244506" lon="10.221469208429115"><ele>156.39999999999998</ele><time>2026-05-02T15:10:47.999Z</time></trkpt><trkpt lat="45.548274713434154" lon="10.22141489583546"><ele>156.2</ele><time>2026-05-02T15:10:48.999Z</time></trkpt><trkpt lat="45.54817364701289" lon="10.221346262353112"><ele>156.0</ele><time>2026-05-02T15:10:49.999Z</time></trkpt><trkpt lat="45.54806801051058" lon="10.221268601063455"><ele>156.0</ele><time>2026-05-02T15:10:50.999Z</time></trkpt><trkpt lat="45.547959402918714" lon="10.221177033410545"><ele>156.0</ele><time>2026-05-02T15:10:51.999Z</time></trkpt><trkpt lat="45.5478521662354" lon="10.221083772905303"><ele>156.0</ele><time>2026-05-02T15:10:52.999Z</time></trkpt><trkpt lat="45.54774309139688" lon="10.220993528521964"><ele>156.0</ele><time>2026-05-02T15:10:53.999Z</time></trkpt><trkpt lat="45.54763883547322" lon="10.220908265574192"><ele>156.16666666666666</ele><time>2026-05-02T15:10:54.999Z</time></trkpt><trkpt lat="45.54754425119381" lon="10.220843345234393"><ele>156.33333333333334</ele><time>2026-05-02T15:10:55.999Z</time></trkpt><trkpt lat="45.54745674730625" lon="10.220795923399661"><ele>156.5</ele><time>2026-05-02T15:10:56.999Z</time></trkpt><trkpt lat="45.547371835724775" lon="10.220760463198323"><ele>156.66666666666669</ele><time>2026-05-02T15:10:57.999Z</time></trkpt><trkpt lat="45.54729449938361" lon="10.220728460784807"><ele>156.83333333333334</ele><time>2026-05-02T15:10:58.999Z</time></trkpt><trkpt lat="45.54723172994212" lon="10.220710310611555"><ele>157.0</ele><time>2026-05-02T15:10:59.999Z</time></trkpt><trkpt lat="45.54716709201163" lon="10.22068523779847"><ele>157.0</ele><time>2026-05-02T15:11:03Z</time></trkpt><trkpt lat="45.54710249608726" lon="10.220660651513004"><ele>157.0</ele><time>2026-05-02T15:11:31Z</time></trkpt><trkpt lat="45.54697443630747" lon="10.220606247282957"><ele>157.0</ele><time>2026-05-02T15:11:33Z</time></trkpt><trkpt lat="45.546906143221456" lon="10.220585359920587"><ele>157.0</ele><time>2026-05-02T15:11:34Z</time></trkpt><trkpt lat="45.54683096732564" lon="10.22056716860396"><ele>157.0</ele><time>2026-05-02T15:11:35Z</time></trkpt><trkpt lat="45.546765152088796" lon="10.22054933692783"><ele>157.0</ele><time>2026-05-02T15:11:36Z</time></trkpt><trkpt lat="45.54670149784287" lon="10.220523811134258"><ele>156.79999999999998</ele><time>2026-05-02T15:11:37.001Z</time></trkpt><trkpt lat="45.546602604749616" lon="10.220489859071641"><ele>156.6</ele><time>2026-05-02T15:11:39.001Z</time></trkpt><trkpt lat="45.54653903449853" lon="10.220466040538764"><ele>156.39999999999998</ele><time>2026-05-02T15:11:41.001Z</time></trkpt><trkpt lat="45.546455209431734" lon="10.22044200133207"><ele>156.2</ele><time>2026-05-02T15:11:50.001Z</time></trkpt><trkpt lat="45.54632488143669" lon="10.22040307423184"><ele>156.0</ele><time>2026-05-02T15:11:52.001Z</time></trkpt><trkpt lat="45.546207873887674" lon="10.220366210605304"><ele>156.0</ele><time>2026-05-02T15:11:54.001Z</time></trkpt><trkpt lat="45.54610464665082" lon="10.220341427759864"><ele>156.0</ele><time>2026-05-02T15:11:56.001Z</time></trkpt><trkpt lat="45.546019351498096" lon="10.220309734569824"><ele>156.0</ele><time>2026-05-02T15:11:58.001Z</time></trkpt><trkpt lat="45.545936178599405" lon="10.220275774213691"><ele>156.0</ele><time>2026-05-02T15:12:00.001Z</time></trkpt><trkpt lat="45.54584613838285" lon="10.220246304339652"><ele>156.0</ele><time>2026-05-02T15:12:02.001Z</time></trkpt><trkpt lat="45.545755016151254" lon="10.220211962723695"><ele>156.0</ele><time>2026-05-02T15:12:04.001Z</time></trkpt><trkpt lat="45.545664636178586" lon="10.220180086609087"><ele>156.0</ele><time>2026-05-02T15:12:06.001Z</time></trkpt><trkpt lat="45.54559392568013" lon="10.220159677172843"><ele>156.0</ele><time>2026-05-02T15:12:08.001Z</time></trkpt><trkpt lat="45.54552524244011" lon="10.220136290019516"><ele>156.0</ele><time>2026-05-02T15:12:10.001Z</time></trkpt><trkpt lat="45.54543789855774" lon="10.220106218172106"><ele>156.0</ele><time>2026-05-02T15:12:13.001Z</time></trkpt><trkpt lat="45.54540253652118" lon="10.219910879741166"><ele>156.0</ele><time>2026-05-02T15:12:17.001Z</time></trkpt><trkpt lat="45.545422727606656" lon="10.219818520956668"><ele>156.0</ele><time>2026-05-02T15:12:18.001Z</time></trkpt><trkpt lat="45.5454385331464" lon="10.219708619448793"><ele>156.0</ele><time>2026-05-02T15:12:19.001Z</time></trkpt><trkpt lat="45.54545691854185" lon="10.21957056972492"><ele>156.0</ele><time>2026-05-02T15:12:20.001Z</time></trkpt><trkpt lat="45.54548269095537" lon="10.219428479574681"><ele>156.0</ele><time>2026-05-02T15:12:21.001Z</time></trkpt><trkpt lat="45.5455138067873" lon="10.219280156944272"><ele>156.0</ele><time>2026-05-02T15:12:22.002Z</time></trkpt><trkpt lat="45.5455482416647" lon="10.219140297692492"><ele>156.0</ele><time>2026-05-02T15:12:23.002Z</time></trkpt><trkpt lat="45.545561941964955" lon="10.219012475107986"><ele>156.0</ele><time>2026-05-02T15:12:24.002Z</time></trkpt><trkpt lat="45.545580968829505" lon="10.218890769009894"><ele>156.0</ele><time>2026-05-02T15:12:25.002Z</time></trkpt><trkpt lat="45.54560171761922" lon="10.218767024043562"><ele>156.0</ele><time>2026-05-02T15:12:26.002Z</time></trkpt><trkpt lat="45.545622270305884" lon="10.218636619194742"><ele>156.0</ele><time>2026-05-02T15:12:27.002Z</time></trkpt><trkpt lat="45.545645332690235" lon="10.218503799803026"><ele>156.0</ele><time>2026-05-02T15:12:28.002Z</time></trkpt><trkpt lat="45.54566472616625" lon="10.218377713999061"><ele>156.0</ele><time>2026-05-02T15:12:29.002Z</time></trkpt><trkpt lat="45.54568607770154" lon="10.218255834541289"><ele>156.0</ele><time>2026-05-02T15:12:30.002Z</time></trkpt><trkpt lat="45.545707830144636" lon="10.218145170491159"><ele>156.0</ele><time>2026-05-02T15:12:31.002Z</time></trkpt><trkpt lat="45.5457261254019" lon="10.218030396978714"><ele>156.0</ele><time>2026-05-02T15:12:32.002Z</time></trkpt><trkpt lat="45.54574870552946" lon="10.217911950355743"><ele>155.8</ele><time>2026-05-02T15:12:33.002Z</time></trkpt><trkpt lat="45.54577072227861" lon="10.217786893799927"><ele>155.6</ele><time>2026-05-02T15:12:34.002Z</time></trkpt><trkpt lat="45.54579797101589" lon="10.217659296821957"><ele>155.4</ele><time>2026-05-02T15:12:35.002Z</time></trkpt><trkpt lat="45.54582283826082" lon="10.217531547170708"><ele>155.2</ele><time>2026-05-02T15:12:36.002Z</time></trkpt><trkpt lat="45.54584922872365" lon="10.217405127520944"><ele>155.0</ele><time>2026-05-02T15:12:37.002Z</time></trkpt><trkpt lat="45.545868624549065" lon="10.217284303702542"><ele>155.0</ele><time>2026-05-02T15:12:38.002Z</time></trkpt><trkpt lat="45.545885286634196" lon="10.217172316995482"><ele>155.0</ele><time>2026-05-02T15:12:39.002Z</time></trkpt><trkpt lat="45.54589998938435" lon="10.217078114246567"><ele>155.0</ele><time>2026-05-02T15:12:40.002Z</time></trkpt><trkpt lat="45.54592673258325" lon="10.216960763994054"><ele>155.0</ele><time>2026-05-02T15:12:42.002Z</time></trkpt><trkpt lat="45.54595811632534" lon="10.216874417476992"><ele>155.0</ele><time>2026-05-02T15:12:45.002Z</time></trkpt><trkpt lat="45.54597515966668" lon="10.216755503761291"><ele>155.0</ele><time>2026-05-02T15:12:46.999Z</time></trkpt><trkpt lat="45.54600277587183" lon="10.216585755699642"><ele>154.4</ele><time>2026-05-02T15:12:48.999Z</time></trkpt><trkpt lat="45.54602635417419" lon="10.216418088248565"><ele>153.8</ele><time>2026-05-02T15:12:50.999Z</time></trkpt><trkpt lat="45.54605103049787" lon="10.216236190440698"><ele>153.2</ele><time>2026-05-02T15:12:52.999Z</time></trkpt><trkpt lat="45.54606708901912" lon="10.21612736710804"><ele>152.6</ele><time>2026-05-02T15:12:53.999Z</time></trkpt><trkpt lat="45.54608357333248" lon="10.216021282815413"><ele>152.0</ele><time>2026-05-02T15:12:54.999Z</time></trkpt><trkpt lat="45.54610077761288" lon="10.215906900816712"><ele>152.0</ele><time>2026-05-02T15:12:55.999Z</time></trkpt><trkpt lat="45.546123081780486" lon="10.215791395986669"><ele>152.0</ele><time>2026-05-02T15:12:56.999Z</time></trkpt><trkpt lat="45.546145813610345" lon="10.215669000847898"><ele>152.0</ele><time>2026-05-02T15:12:57.999Z</time></trkpt><trkpt lat="45.546161381119944" lon="10.215542791980537"><ele>152.0</ele><time>2026-05-02T15:12:58.999Z</time></trkpt><trkpt lat="45.54618130143859" lon="10.215427087526365"><ele>152.0</ele><time>2026-05-02T15:12:59.999Z</time></trkpt><trkpt lat="45.54620736534762" lon="10.215319196089096"><ele>152.0</ele><time>2026-05-02T15:13:00.999Z</time></trkpt><trkpt lat="45.54622736045059" lon="10.215212292726036"><ele>152.16666666666666</ele><time>2026-05-02T15:13:01.999Z</time></trkpt><trkpt lat="45.54624478665718" lon="10.215109635724813"><ele>152.33333333333331</ele><time>2026-05-02T15:13:02.999Z</time></trkpt><trkpt lat="45.54626183205596" lon="10.215019159098217"><ele>152.5</ele><time>2026-05-02T15:13:03.999Z</time></trkpt><trkpt lat="45.54627681020043" lon="10.21492941376424"><ele>152.66666666666666</ele><time>2026-05-02T15:13:05Z</time></trkpt><trkpt lat="45.5463022021472" lon="10.214785282204149"><ele>152.83333333333334</ele><time>2026-05-02T15:13:07Z</time></trkpt><trkpt lat="45.5463306926486" lon="10.214653366069435"><ele>153.0</ele><time>2026-05-02T15:13:09Z</time></trkpt><trkpt lat="45.54635637534431" lon="10.214532983988564"><ele>152.66666666666666</ele><time>2026-05-02T15:13:11Z</time></trkpt><trkpt lat="45.54637452086619" lon="10.214395254922682"><ele>152.33333333333334</ele><time>2026-05-02T15:13:13Z</time></trkpt><trkpt lat="45.546395692063406" lon="10.214309927301507"><ele>152.0</ele><time>2026-05-02T15:13:14Z</time></trkpt><trkpt lat="45.54641588164459" lon="10.214214556609264"><ele>151.66666666666669</ele><time>2026-05-02T15:13:15Z</time></trkpt><trkpt lat="45.54643304363419" lon="10.214103252128012"><ele>151.33333333333334</ele><time>2026-05-02T15:13:16Z</time></trkpt><trkpt lat="45.54644246040468" lon="10.21398624495076"><ele>151.0</ele><time>2026-05-02T15:13:17Z</time></trkpt><trkpt lat="45.54644239567065" lon="10.213861838468615"><ele>151.0</ele><time>2026-05-02T15:13:18Z</time></trkpt><trkpt lat="45.54644066925907" lon="10.213736032916596"><ele>151.0</ele><time>2026-05-02T15:13:19Z</time></trkpt><trkpt lat="45.54643250750339" lon="10.213609346258943"><ele>151.0</ele><time>2026-05-02T15:13:20Z</time></trkpt><trkpt lat="45.54642257150984" lon="10.213489540814884"><ele>151.0</ele><time>2026-05-02T15:13:21Z</time></trkpt><trkpt lat="45.54642487977397" lon="10.213364129433696"><ele>151.0</ele><time>2026-05-02T15:13:22Z</time></trkpt><trkpt lat="45.546408705341705" lon="10.213254333088999"><ele>151.0</ele><time>2026-05-02T15:13:23Z</time></trkpt><trkpt lat="45.546284498945965" lon="10.213185080004587"><ele>150.75</ele><time>2026-05-02T15:13:24Z</time></trkpt><trkpt lat="45.54618208469212" lon="10.213154297077619"><ele>150.5</ele><time>2026-05-02T15:13:25Z</time></trkpt><trkpt lat="45.546079491854776" lon="10.21310421917064"><ele>150.25</ele><time>2026-05-02T15:13:26Z</time></trkpt><trkpt lat="45.545964889955854" lon="10.213026856599104"><ele>150.0</ele><time>2026-05-02T15:13:27Z</time></trkpt><trkpt lat="45.54584091440431" lon="10.212973769673125"><ele>150.0</ele><time>2026-05-02T15:13:28Z</time></trkpt><trkpt lat="45.54572673858449" lon="10.212912997557604"><ele>150.0</ele><time>2026-05-02T15:13:29Z</time></trkpt><trkpt lat="45.54561990638117" lon="10.212863383326567"><ele>150.0</ele><time>2026-05-02T15:13:30Z</time></trkpt><trkpt lat="45.54552006909858" lon="10.212817437985443"><ele>150.0</ele><time>2026-05-02T15:13:31Z</time></trkpt><trkpt lat="45.545410341806004" lon="10.212761576744333"><ele>150.0</ele><time>2026-05-02T15:13:32Z</time></trkpt><trkpt lat="45.545305751772496" lon="10.212700650388026"><ele>150.0</ele><time>2026-05-02T15:13:33Z</time></trkpt><trkpt lat="45.54520008641931" lon="10.212646437284166"><ele>150.0</ele><time>2026-05-02T15:13:34Z</time></trkpt><trkpt lat="45.54509761527006" lon="10.212598517122673"><ele>150.0</ele><time>2026-05-02T15:13:35Z</time></trkpt><trkpt lat="45.54500203402441" lon="10.212554724681315"><ele>150.0</ele><time>2026-05-02T15:13:36.001Z</time></trkpt><trkpt lat="45.54490770064427" lon="10.212501971296943"><ele>150.0</ele><time>2026-05-02T15:13:37.001Z</time></trkpt><trkpt lat="45.54480888035786" lon="10.212445818316592"><ele>150.0</ele><time>2026-05-02T15:13:38.001Z</time></trkpt><trkpt lat="45.544695434145616" lon="10.212387546030259"><ele>150.0</ele><time>2026-05-02T15:13:39.001Z</time></trkpt><trkpt lat="45.54458807022606" lon="10.21230783074522"><ele>150.0</ele><time>2026-05-02T15:13:40.001Z</time></trkpt><trkpt lat="45.54448337653627" lon="10.21226355161317"><ele>150.0</ele><time>2026-05-02T15:13:41.001Z</time></trkpt><trkpt lat="45.544376958866515" lon="10.212237642305922"><ele>150.0</ele><time>2026-05-02T15:13:42.001Z</time></trkpt><trkpt lat="45.54428319350404" lon="10.212187315895958"><ele>150.0</ele><time>2026-05-02T15:13:43.001Z</time></trkpt><trkpt lat="45.54418484577261" lon="10.212128875438125"><ele>150.0</ele><time>2026-05-02T15:13:44.001Z</time></trkpt><trkpt lat="45.544078727386555" lon="10.212065921080784"><ele>150.0</ele><time>2026-05-02T15:13:45.001Z</time></trkpt><trkpt lat="45.543964087653976" lon="10.212007736669891"><ele>150.0</ele><time>2026-05-02T15:13:46.001Z</time></trkpt><trkpt lat="45.54385814359977" lon="10.211960591627417"><ele>150.0</ele><time>2026-05-02T15:13:47.001Z</time></trkpt><trkpt lat="45.543759039441184" lon="10.211908375497593"><ele>150.0</ele><time>2026-05-02T15:13:48.001Z</time></trkpt><trkpt lat="45.54366218980371" lon="10.211860280966368"><ele>150.0</ele><time>2026-05-02T15:13:49.001Z</time></trkpt><trkpt lat="45.54356452057728" lon="10.211811361435513"><ele>150.0</ele><time>2026-05-02T15:13:50.001Z</time></trkpt><trkpt lat="45.54346399837058" lon="10.211759804651255"><ele>150.0</ele><time>2026-05-02T15:13:51.001Z</time></trkpt><trkpt lat="45.543363380472925" lon="10.211707157089643"><ele>150.0</ele><time>2026-05-02T15:13:52.001Z</time></trkpt><trkpt lat="45.54326380034122" lon="10.211655558620205"><ele>150.0</ele><time>2026-05-02T15:13:53.001Z</time></trkpt><trkpt lat="45.54316008285689" lon="10.211597223581627"><ele>150.0</ele><time>2026-05-02T15:13:54.001Z</time></trkpt><trkpt lat="45.54306344874434" lon="10.211529358499996"><ele>150.0</ele><time>2026-05-02T15:13:55.001Z</time></trkpt><trkpt lat="45.54294507949794" lon="10.211474178371066"><ele>151.0</ele><time>2026-05-02T15:13:56.001Z</time></trkpt><trkpt lat="45.54284378313695" lon="10.211412725813068"><ele>152.0</ele><time>2026-05-02T15:13:57.001Z</time></trkpt><trkpt lat="45.54269469490668" lon="10.211389959866924"><ele>153.0</ele><time>2026-05-02T15:13:58.001Z</time></trkpt><trkpt lat="45.54258449304683" lon="10.21133043383991"><ele>154.0</ele><time>2026-05-02T15:13:59.001Z</time></trkpt><trkpt lat="45.54247431896274" lon="10.211270211343816"><ele>154.0</ele><time>2026-05-02T15:14:00.001Z</time></trkpt><trkpt lat="45.54236743763782" lon="10.211213636101737"><ele>154.0</ele><time>2026-05-02T15:14:01.001Z</time></trkpt><trkpt lat="45.54225526857062" lon="10.211159064874218"><ele>154.0</ele><time>2026-05-02T15:14:02.001Z</time></trkpt><trkpt lat="45.542143120072105" lon="10.211099653192536"><ele>154.0</ele><time>2026-05-02T15:14:03.001Z</time></trkpt><trkpt lat="45.54202830320223" lon="10.211040166368031"><ele>153.4</ele><time>2026-05-02T15:14:04.001Z</time></trkpt><trkpt lat="45.54191828851565" lon="10.210981972840957"><ele>152.8</ele><time>2026-05-02T15:14:05.001Z</time></trkpt><trkpt lat="45.54181168707032" lon="10.21092074247736"><ele>152.2</ele><time>2026-05-02T15:14:06.001Z</time></trkpt><trkpt lat="45.541708850235274" lon="10.210865830639975"><ele>151.6</ele><time>2026-05-02T15:14:07.001Z</time></trkpt><trkpt lat="45.54160719650816" lon="10.21081671922199"><ele>151.0</ele><time>2026-05-02T15:14:08.001Z</time></trkpt><trkpt lat="45.5415032444885" lon="10.2107780661716"><ele>151.0</ele><time>2026-05-02T15:14:09.001Z</time></trkpt><trkpt lat="45.54139941028301" lon="10.210749986468615"><ele>151.0</ele><time>2026-05-02T15:14:10.001Z</time></trkpt><trkpt lat="45.541281930303285" lon="10.210721681495137"><ele>151.0</ele><time>2026-05-02T15:14:11.001Z</time></trkpt><trkpt lat="45.541157290448105" lon="10.210694858015982"><ele>151.0</ele><time>2026-05-02T15:14:12.001Z</time></trkpt><trkpt lat="45.541026519136686" lon="10.210664510355338"><ele>150.75</ele><time>2026-05-02T15:14:13.001Z</time></trkpt><trkpt lat="45.54089890447031" lon="10.210630256970878"><ele>150.5</ele><time>2026-05-02T15:14:14.001Z</time></trkpt><trkpt lat="45.54076888081411" lon="10.21059661567646"><ele>150.25</ele><time>2026-05-02T15:14:15.001Z</time></trkpt><trkpt lat="45.540645619530494" lon="10.210560553628634"><ele>150.0</ele><time>2026-05-02T15:14:16.002Z</time></trkpt><trkpt lat="45.54051687415699" lon="10.210518704747459"><ele>150.0</ele><time>2026-05-02T15:14:17.002Z</time></trkpt><trkpt lat="45.54038828163598" lon="10.210480953843218"><ele>150.0</ele><time>2026-05-02T15:14:18.002Z</time></trkpt><trkpt lat="45.54025549359836" lon="10.210438828282442"><ele>150.0</ele><time>2026-05-02T15:14:19.002Z</time></trkpt><trkpt lat="45.54012781221025" lon="10.210401091809189"><ele>150.0</ele><time>2026-05-02T15:14:20.002Z</time></trkpt><trkpt lat="45.5400093695284" lon="10.210369829165545"><ele>149.6</ele><time>2026-05-02T15:14:21.002Z</time></trkpt><trkpt lat="45.539894042805834" lon="10.210352800436512"><ele>149.2</ele><time>2026-05-02T15:14:22.002Z</time></trkpt><trkpt lat="45.53978512924433" lon="10.210313968308068"><ele>148.8</ele><time>2026-05-02T15:14:23.002Z</time></trkpt><trkpt lat="45.539678547195365" lon="10.210287103367827"><ele>148.4</ele><time>2026-05-02T15:14:24.002Z</time></trkpt><trkpt lat="45.53957085139842" lon="10.210273079548937"><ele>148.0</ele><time>2026-05-02T15:14:25.002Z</time></trkpt><trkpt lat="45.53946362569117" lon="10.210244604154786"><ele>147.5</ele><time>2026-05-02T15:14:26.002Z</time></trkpt><trkpt lat="45.53934906308247" lon="10.210214180340513"><ele>147.0</ele><time>2026-05-02T15:14:27.002Z</time></trkpt><trkpt lat="45.53923371510783" lon="10.210174583445482"><ele>146.5</ele><time>2026-05-02T15:14:28.002Z</time></trkpt><trkpt lat="45.539119166694235" lon="10.210146160791835"><ele>146.0</ele><time>2026-05-02T15:14:29.002Z</time></trkpt><trkpt lat="45.53900974409776" lon="10.210109274827232"><ele>146.0</ele><time>2026-05-02T15:14:30.002Z</time></trkpt><trkpt lat="45.53889997607735" lon="10.210075589295753"><ele>146.0</ele><time>2026-05-02T15:14:31.002Z</time></trkpt><trkpt lat="45.53879100198846" lon="10.210051616606435"><ele>146.0</ele><time>2026-05-02T15:14:32.002Z</time></trkpt><trkpt lat="45.538676054542506" lon="10.21002431014822"><ele>146.0</ele><time>2026-05-02T15:14:33.002Z</time></trkpt><trkpt lat="45.538566616030764" lon="10.210000124652478"><ele>145.8</ele><time>2026-05-02T15:14:34.002Z</time></trkpt><trkpt lat="45.53845903358975" lon="10.209967795916814"><ele>145.6</ele><time>2026-05-02T15:14:35.002Z</time></trkpt><trkpt lat="45.53835079944688" lon="10.20994449060856"><ele>145.4</ele><time>2026-05-02T15:14:36.002Z</time></trkpt><trkpt lat="45.53824345322981" lon="10.20991557597881"><ele>145.2</ele><time>2026-05-02T15:14:37.002Z</time></trkpt><trkpt lat="45.53812990123964" lon="10.209885393704374"><ele>145.0</ele><time>2026-05-02T15:14:38.002Z</time></trkpt><trkpt lat="45.53801150849831" lon="10.209858133456208"><ele>145.2</ele><time>2026-05-02T15:14:39.002Z</time></trkpt><trkpt lat="45.53790029240565" lon="10.209818001990032"><ele>145.4</ele><time>2026-05-02T15:14:40.002Z</time></trkpt><trkpt lat="45.537786318244585" lon="10.209786883211445"><ele>145.6</ele><time>2026-05-02T15:14:41.002Z</time></trkpt><trkpt lat="45.53767733075335" lon="10.209765070090793"><ele>145.8</ele><time>2026-05-02T15:14:42.002Z</time></trkpt><trkpt lat="45.537582201464474" lon="10.209750714012051"><ele>146.0</ele><time>2026-05-02T15:14:43.002Z</time></trkpt><trkpt lat="45.537480263032805" lon="10.209726187515725"><ele>146.0</ele><time>2026-05-02T15:14:44.002Z</time></trkpt><trkpt lat="45.537369834656786" lon="10.209700055951064"><ele>146.0</ele><time>2026-05-02T15:14:45.002Z</time></trkpt><trkpt lat="45.53726481824973" lon="10.209654025034174"><ele>146.0</ele><time>2026-05-02T15:14:46.002Z</time></trkpt><trkpt lat="45.53716261369796" lon="10.209608912402668"><ele>146.0</ele><time>2026-05-02T15:14:47.002Z</time></trkpt><trkpt lat="45.537060540810444" lon="10.209580394755978"><ele>146.0</ele><time>2026-05-02T15:14:48.002Z</time></trkpt><trkpt lat="45.53696395538662" lon="10.20960913330883"><ele>147.4</ele><time>2026-05-02T15:14:49.002Z</time></trkpt><trkpt lat="45.53687589427835" lon="10.20948454242929"><ele>148.8</ele><time>2026-05-02T15:14:50.002Z</time></trkpt><trkpt lat="45.53680465961786" lon="10.209391290640465"><ele>150.20000000000002</ele><time>2026-05-02T15:14:51.002Z</time></trkpt><trkpt lat="45.536749404601125" lon="10.20927030281735"><ele>151.6</ele><time>2026-05-02T15:14:52.002Z</time></trkpt><trkpt lat="45.536691845403226" lon="10.209133550793322"><ele>153.0</ele><time>2026-05-02T15:14:53Z</time></trkpt><trkpt lat="45.53664838407009" lon="10.209010700696147"><ele>151.6</ele><time>2026-05-02T15:14:54Z</time></trkpt><trkpt lat="45.536602623909495" lon="10.20887465111403"><ele>150.20000000000002</ele><time>2026-05-02T15:14:55Z</time></trkpt><trkpt lat="45.53655963944028" lon="10.208724853605014"><ele>148.8</ele><time>2026-05-02T15:14:56Z</time></trkpt><trkpt lat="45.53651191380861" lon="10.208612459146016"><ele>147.4</ele><time>2026-05-02T15:14:57Z</time></trkpt><trkpt lat="45.536468150766446" lon="10.208456884838407"><ele>146.0</ele><time>2026-05-02T15:14:58Z</time></trkpt><trkpt lat="45.53640576003304" lon="10.208314414866901"><ele>145.25</ele><time>2026-05-02T15:14:59Z</time></trkpt><trkpt lat="45.53633756774826" lon="10.208158453482786"><ele>144.5</ele><time>2026-05-02T15:15:00.021Z</time></trkpt><trkpt lat="45.53627677064158" lon="10.208009717903938"><ele>143.75</ele><time>2026-05-02T15:15:01.017Z</time></trkpt><trkpt lat="45.53621970551023" lon="10.20786068940703"><ele>143.0</ele><time>2026-05-02T15:15:02Z</time></trkpt><trkpt lat="45.536211364957246" lon="10.207720430933147"><ele>143.0</ele><time>2026-05-02T15:15:03Z</time></trkpt><trkpt lat="45.53616793157883" lon="10.20754672715919"><ele>143.0</ele><time>2026-05-02T15:15:04Z</time></trkpt><trkpt lat="45.53616613515985" lon="10.207347813684054"><ele>143.0</ele><time>2026-05-02T15:15:05Z</time></trkpt><trkpt lat="45.53616888891338" lon="10.207125266441029"><ele>143.0</ele><time>2026-05-02T15:15:06Z</time></trkpt><trkpt lat="45.53619690164993" lon="10.206893682135206"><ele>143.0</ele><time>2026-05-02T15:15:07Z</time></trkpt><trkpt lat="45.53624370915463" lon="10.20667341186383"><ele>143.0</ele><time>2026-05-02T15:15:08Z</time></trkpt><trkpt lat="45.536279057671464" lon="10.206466594809356"><ele>143.0</ele><time>2026-05-02T15:15:09Z</time></trkpt><trkpt lat="45.53632339832373" lon="10.206271690302673"><ele>142.5</ele><time>2026-05-02T15:15:10Z</time></trkpt><trkpt lat="45.5363437821258" lon="10.206068784945241"><ele>142.0</ele><time>2026-05-02T15:15:11Z</time></trkpt><trkpt lat="45.53639482143823" lon="10.205865767039745"><ele>141.5</ele><time>2026-05-02T15:15:12Z</time></trkpt><trkpt lat="45.53642708664801" lon="10.205660383394807"><ele>141.0</ele><time>2026-05-02T15:15:13Z</time></trkpt><trkpt lat="45.53646134507353" lon="10.205466038153812"><ele>141.0</ele><time>2026-05-02T15:15:14Z</time></trkpt><trkpt lat="45.536493122753186" lon="10.205290902218719"><ele>141.0</ele><time>2026-05-02T15:15:15Z</time></trkpt><trkpt lat="45.53652324920594" lon="10.2051208657324"><ele>141.0</ele><time>2026-05-02T15:15:16Z</time></trkpt><trkpt lat="45.53655398077944" lon="10.204939190354752"><ele>141.0</ele><time>2026-05-02T15:15:17Z</time></trkpt><trkpt lat="45.5365811414644" lon="10.204738332884094"><ele>141.25</ele><time>2026-05-02T15:15:18Z</time></trkpt><trkpt lat="45.536611683950966" lon="10.204548895235941"><ele>141.5</ele><time>2026-05-02T15:15:19Z</time></trkpt><trkpt lat="45.536639402485825" lon="10.204349609942721"><ele>141.75</ele><time>2026-05-02T15:15:20Z</time></trkpt><trkpt lat="45.536665514040536" lon="10.204171649192649"><ele>142.0</ele><time>2026-05-02T15:15:21Z</time></trkpt><trkpt lat="45.536692844266135" lon="10.204014215822918"><ele>141.83333333333334</ele><time>2026-05-02T15:15:22Z</time></trkpt><trkpt lat="45.53671814061913" lon="10.203869576456466"><ele>141.66666666666669</ele><time>2026-05-02T15:15:23Z</time></trkpt><trkpt lat="45.53674297705974" lon="10.203736746834897"><ele>141.5</ele><time>2026-05-02T15:15:24Z</time></trkpt><trkpt lat="45.53675791328545" lon="10.20362501270908"><ele>141.33333333333334</ele><time>2026-05-02T15:15:25Z</time></trkpt><trkpt lat="45.536779868576176" lon="10.203515346369876"><ele>141.16666666666666</ele><time>2026-05-02T15:15:27.001Z</time></trkpt><trkpt lat="45.53682653912304" lon="10.203431502406517"><ele>141.0</ele><time>2026-05-02T15:15:29.001Z</time></trkpt><trkpt lat="45.536920657947256" lon="10.203308937922111"><ele>141.0</ele><time>2026-05-02T15:15:31.001Z</time></trkpt><trkpt lat="45.53694047758191" lon="10.203210596889559"><ele>141.0</ele><time>2026-05-02T15:15:32.001Z</time></trkpt><trkpt lat="45.53693994400863" lon="10.203089740016067"><ele>141.0</ele><time>2026-05-02T15:15:33.001Z</time></trkpt><trkpt lat="45.53692962269108" lon="10.202954767668494"><ele>141.0</ele><time>2026-05-02T15:15:34.001Z</time></trkpt><trkpt lat="45.536928137730534" lon="10.202821267253034"><ele>141.0</ele><time>2026-05-02T15:15:35.001Z</time></trkpt><trkpt lat="45.53691667644168" lon="10.202698868579567"><ele>141.0</ele><time>2026-05-02T15:15:36.001Z</time></trkpt><trkpt lat="45.536870508636696" lon="10.20259260048653"><ele>141.0</ele><time>2026-05-02T15:15:37.001Z</time></trkpt><trkpt lat="45.536791189498985" lon="10.202505377407448"><ele>141.0</ele><time>2026-05-02T15:15:38.001Z</time></trkpt><trkpt lat="45.53669485812391" lon="10.202438555256204"><ele>141.0</ele><time>2026-05-02T15:15:39.001Z</time></trkpt><trkpt lat="45.536583430703836" lon="10.202387329688914"><ele>141.0</ele><time>2026-05-02T15:15:40.001Z</time></trkpt><trkpt lat="45.536465265697736" lon="10.202330096429153"><ele>141.0</ele><time>2026-05-02T15:15:41.001Z</time></trkpt><trkpt lat="45.536350901394606" lon="10.202269432273535"><ele>141.0</ele><time>2026-05-02T15:15:42.001Z</time></trkpt><trkpt lat="45.53623078818931" lon="10.202203209457945"><ele>141.0</ele><time>2026-05-02T15:15:43.001Z</time></trkpt><trkpt lat="45.53610816673187" lon="10.20213115324314"><ele>141.0</ele><time>2026-05-02T15:15:44.001Z</time></trkpt><trkpt lat="45.535986521011715" lon="10.202057396820129"><ele>141.0</ele><time>2026-05-02T15:15:45.024Z</time></trkpt><trkpt lat="45.535866900351934" lon="10.201987819868261"><ele>140.25</ele><time>2026-05-02T15:15:46.024Z</time></trkpt><trkpt lat="45.535747217429915" lon="10.20192336662602"><ele>139.5</ele><time>2026-05-02T15:15:47.013Z</time></trkpt><trkpt lat="45.5356236713358" lon="10.201857302462011"><ele>138.75</ele><time>2026-05-02T15:15:48.018Z</time></trkpt><trkpt lat="45.53550220395695" lon="10.201791355107568"><ele>138.0</ele><time>2026-05-02T15:15:49.025Z</time></trkpt><trkpt lat="45.534762572539535" lon="10.201547546321713"><ele>138.0</ele><time>2026-05-02T15:15:54.001Z</time></trkpt><trkpt lat="45.53463371683007" lon="10.201496807188306"><ele>138.0</ele><time>2026-05-02T15:15:55.001Z</time></trkpt><trkpt lat="45.53451229814256" lon="10.201468345135838"><ele>138.0</ele><time>2026-05-02T15:15:56.001Z</time></trkpt><trkpt lat="45.534413834562365" lon="10.201418547113"><ele>138.0</ele><time>2026-05-02T15:15:57.001Z</time></trkpt><trkpt lat="45.534320658386854" lon="10.201378899390988"><ele>138.0</ele><time>2026-05-02T15:15:58.001Z</time></trkpt><trkpt lat="45.534250987614804" lon="10.201327211541528"><ele>138.0</ele><time>2026-05-02T15:15:59.001Z</time></trkpt><trkpt lat="45.53413267864209" lon="10.201295376458747"><ele>138.0</ele><time>2026-05-02T15:16:00.001Z</time></trkpt><trkpt lat="45.5340264022552" lon="10.201235292118815"><ele>138.0</ele><time>2026-05-02T15:16:01.001Z</time></trkpt><trkpt lat="45.533924862517914" lon="10.201190861156212"><ele>138.0</ele><time>2026-05-02T15:16:02.001Z</time></trkpt><trkpt lat="45.53379662419624" lon="10.201138034878083"><ele>137.6</ele><time>2026-05-02T15:16:03.001Z</time></trkpt><trkpt lat="45.533676691101455" lon="10.201084951384518"><ele>137.20000000000002</ele><time>2026-05-02T15:16:04.001Z</time></trkpt><trkpt lat="45.53357737331558" lon="10.201062463775926"><ele>136.8</ele><time>2026-05-02T15:16:05.001Z</time></trkpt><trkpt lat="45.53347631834882" lon="10.201019538241766"><ele>136.4</ele><time>2026-05-02T15:16:06.002Z</time></trkpt><trkpt lat="45.533377259886414" lon="10.200972656428739"><ele>136.0</ele><time>2026-05-02T15:16:07.002Z</time></trkpt><trkpt lat="45.53327807224539" lon="10.200928247887905"><ele>136.0</ele><time>2026-05-02T15:16:08.002Z</time></trkpt><trkpt lat="45.53317352500141" lon="10.200882163375537"><ele>136.0</ele><time>2026-05-02T15:16:09.002Z</time></trkpt><trkpt lat="45.53307084319926" lon="10.200837484779726"><ele>136.0</ele><time>2026-05-02T15:16:10.002Z</time></trkpt><trkpt lat="45.532966008520724" lon="10.20079345268536"><ele>136.0</ele><time>2026-05-02T15:16:11.002Z</time></trkpt><trkpt lat="45.532856210763626" lon="10.200744407753424"><ele>136.0</ele><time>2026-05-02T15:16:12.002Z</time></trkpt><trkpt lat="45.53274990755689" lon="10.20070214899996"><ele>135.5</ele><time>2026-05-02T15:16:13.002Z</time></trkpt><trkpt lat="45.532636658659484" lon="10.200659144155015"><ele>135.0</ele><time>2026-05-02T15:16:14.002Z</time></trkpt><trkpt lat="45.53251621509202" lon="10.200609465238463"><ele>134.5</ele><time>2026-05-02T15:16:15.002Z</time></trkpt><trkpt lat="45.53240231818676" lon="10.200568197186671"><ele>134.0</ele><time>2026-05-02T15:16:16.002Z</time></trkpt><trkpt lat="45.53229526673792" lon="10.200530889093363"><ele>134.0</ele><time>2026-05-02T15:16:17.002Z</time></trkpt><trkpt lat="45.53219539405237" lon="10.2004921675859"><ele>134.0</ele><time>2026-05-02T15:16:18.002Z</time></trkpt><trkpt lat="45.532100950435904" lon="10.200455381503822"><ele>134.0</ele><time>2026-05-02T15:16:19.002Z</time></trkpt><trkpt lat="45.53201020556055" lon="10.200421654866632"><ele>134.0</ele><time>2026-05-02T15:16:20.002Z</time></trkpt><trkpt lat="45.531921262316" lon="10.20039326909319"><ele>134.0</ele><time>2026-05-02T15:16:21.002Z</time></trkpt><trkpt lat="45.53183651044676" lon="10.200365266663496"><ele>133.6</ele><time>2026-05-02T15:16:22.002Z</time></trkpt><trkpt lat="45.5317452659679" lon="10.200331932991523"><ele>133.2</ele><time>2026-05-02T15:16:23.002Z</time></trkpt><trkpt lat="45.53164601601291" lon="10.20029168372652"><ele>132.79999999999998</ele><time>2026-05-02T15:16:24.002Z</time></trkpt><trkpt lat="45.531547233583495" lon="10.200251502226584"><ele>132.4</ele><time>2026-05-02T15:16:25.002Z</time></trkpt><trkpt lat="45.53145391942856" lon="10.200217337905768"><ele>132.0</ele><time>2026-05-02T15:16:26.002Z</time></trkpt><trkpt lat="45.53136701112621" lon="10.200184096117333"><ele>132.0</ele><time>2026-05-02T15:16:27.002Z</time></trkpt><trkpt lat="45.53128556218209" lon="10.200149505577244"><ele>132.0</ele><time>2026-05-02T15:16:28.002Z</time></trkpt><trkpt lat="45.53120203892566" lon="10.20011661537408"><ele>132.0</ele><time>2026-05-02T15:16:29.002Z</time></trkpt><trkpt lat="45.53112470020233" lon="10.20008669313305"><ele>132.0</ele><time>2026-05-02T15:16:30.002Z</time></trkpt><trkpt lat="45.5310477051158" lon="10.200060565210666"><ele>132.0</ele><time>2026-05-02T15:16:31.002Z</time></trkpt><trkpt lat="45.530976107173984" lon="10.200042731173266"><ele>132.0</ele><time>2026-05-02T15:16:32.002Z</time></trkpt><trkpt lat="45.530901227282115" lon="10.200039236150426"><ele>131.83333333333334</ele><time>2026-05-02T15:16:33.002Z</time></trkpt><trkpt lat="45.530825149452376" lon="10.200039015781487"><ele>131.66666666666666</ele><time>2026-05-02T15:16:34.002Z</time></trkpt><trkpt lat="45.530751809131104" lon="10.200022721962895"><ele>131.5</ele><time>2026-05-02T15:16:35.002Z</time></trkpt><trkpt lat="45.53066952084404" lon="10.199989779649085"><ele>131.33333333333331</ele><time>2026-05-02T15:16:36.002Z</time></trkpt><trkpt lat="45.53058459198831" lon="10.199949441308517"><ele>131.16666666666666</ele><time>2026-05-02T15:16:37.002Z</time></trkpt><trkpt lat="45.53049179558259" lon="10.199897113911796"><ele>131.0</ele><time>2026-05-02T15:16:38.002Z</time></trkpt><trkpt lat="45.5303930210856" lon="10.19983752312624"><ele>131.25</ele><time>2026-05-02T15:16:39.002Z</time></trkpt><trkpt lat="45.530286202758404" lon="10.199777695441067"><ele>131.5</ele><time>2026-05-02T15:16:40.002Z</time></trkpt><trkpt lat="45.53016695664952" lon="10.199712157947658"><ele>131.75</ele><time>2026-05-02T15:16:41.002Z</time></trkpt><trkpt lat="45.5300466003717" lon="10.199649116060192"><ele>132.0</ele><time>2026-05-02T15:16:42.002Z</time></trkpt><trkpt lat="45.52990792094612" lon="10.199600265646472"><ele>132.0</ele><time>2026-05-02T15:16:43.002Z</time></trkpt><trkpt lat="45.52977362097194" lon="10.1995524792429"><ele>132.0</ele><time>2026-05-02T15:16:44.002Z</time></trkpt><trkpt lat="45.52964753973021" lon="10.199506415288013"><ele>132.0</ele><time>2026-05-02T15:16:45.002Z</time></trkpt><trkpt lat="45.529520597284545" lon="10.199455172557748"><ele>132.0</ele><time>2026-05-02T15:16:46.003Z</time></trkpt><trkpt lat="45.52940294496079" lon="10.19940841033067"><ele>132.0</ele><time>2026-05-02T15:16:47.003Z</time></trkpt><trkpt lat="45.52928827993587" lon="10.199364977257424"><ele>132.0</ele><time>2026-05-02T15:16:48.003Z</time></trkpt><trkpt lat="45.52917212361679" lon="10.199328204425365"><ele>132.0</ele><time>2026-05-02T15:16:49.003Z</time></trkpt><trkpt lat="45.529056076591324" lon="10.199257907399488"><ele>132.0</ele><time>2026-05-02T15:16:50.003Z</time></trkpt><trkpt lat="45.52891755686572" lon="10.199204194313744"><ele>132.0</ele><time>2026-05-02T15:16:51.003Z</time></trkpt><trkpt lat="45.5287584891151" lon="10.199141941780525"><ele>132.0</ele><time>2026-05-02T15:16:52.003Z</time></trkpt><trkpt lat="45.528594002387834" lon="10.199077533623937"><ele>132.0</ele><time>2026-05-02T15:16:53.003Z</time></trkpt><trkpt lat="45.52841547248132" lon="10.199009335378069"><ele>131.0</ele><time>2026-05-02T15:16:54.003Z</time></trkpt><trkpt lat="45.52824165145564" lon="10.198947664232236"><ele>130.0</ele><time>2026-05-02T15:16:55.003Z</time></trkpt><trkpt lat="45.52807719287454" lon="10.19889041427548"><ele>129.0</ele><time>2026-05-02T15:16:56.003Z</time></trkpt><trkpt lat="45.52792586822509" lon="10.198833088901644"><ele>129.5</ele><time>2026-05-02T15:16:57.003Z</time></trkpt><trkpt lat="45.52778375074005" lon="10.19879600512731"><ele>130.0</ele><time>2026-05-02T15:16:58.003Z</time></trkpt><trkpt lat="45.52766348210447" lon="10.198717036100533"><ele>130.5</ele><time>2026-05-02T15:16:59Z</time></trkpt><trkpt lat="45.52755997454427" lon="10.198641122756083"><ele>131.0</ele><time>2026-05-02T15:17:00Z</time></trkpt><trkpt lat="45.52747160786486" lon="10.1985454139977"><ele>131.0</ele><time>2026-05-02T15:17:01Z</time></trkpt><trkpt lat="45.52739733870297" lon="10.198450275283118"><ele>131.0</ele><time>2026-05-02T15:17:02Z</time></trkpt><trkpt lat="45.527340201700135" lon="10.198356155154602"><ele>131.0</ele><time>2026-05-02T15:17:03Z</time></trkpt><trkpt lat="45.52727884106262" lon="10.198296323734645"><ele>131.0</ele><time>2026-05-02T15:17:04Z</time></trkpt><trkpt lat="45.52720558148696" lon="10.19818739074266"><ele>131.0</ele><time>2026-05-02T15:17:06Z</time></trkpt><trkpt lat="45.527203403337786" lon="10.198063556449085"><ele>131.0</ele><time>2026-05-02T15:17:12Z</time></trkpt><trkpt lat="45.52715552858273" lon="10.197911164966404"><ele>131.0</ele><time>2026-05-02T15:17:14Z</time></trkpt><trkpt lat="45.527121821549166" lon="10.19780536775226"><ele>131.0</ele><time>2026-05-02T15:17:15Z</time></trkpt><trkpt lat="45.527062404328376" lon="10.197708785713829"><ele>131.0</ele><time>2026-05-02T15:17:16Z</time></trkpt><trkpt lat="45.52705031189796" lon="10.19754363501578"><ele>131.0</ele><time>2026-05-02T15:17:17Z</time></trkpt><trkpt lat="45.52704131897604" lon="10.19737047661443"><ele>131.0</ele><time>2026-05-02T15:17:18Z</time></trkpt><trkpt lat="45.527045856524516" lon="10.197156259402455"><ele>131.0</ele><time>2026-05-02T15:17:19Z</time></trkpt><trkpt lat="45.527064122363456" lon="10.196927397459529"><ele>131.0</ele><time>2026-05-02T15:17:20Z</time></trkpt><trkpt lat="45.527106087776225" lon="10.196686978566136"><ele>131.33333333333331</ele><time>2026-05-02T15:17:21Z</time></trkpt><trkpt lat="45.52715060153578" lon="10.196451553705721"><ele>131.66666666666666</ele><time>2026-05-02T15:17:22Z</time></trkpt><trkpt lat="45.52720827326532" lon="10.196199825406687"><ele>132.0</ele><time>2026-05-02T15:17:23Z</time></trkpt><trkpt lat="45.52728343573066" lon="10.195964141389938"><ele>132.0</ele><time>2026-05-02T15:17:24.001Z</time></trkpt><trkpt lat="45.52735645825786" lon="10.195710408596979"><ele>132.0</ele><time>2026-05-02T15:17:25.001Z</time></trkpt><trkpt lat="45.527434896800536" lon="10.195457830933094"><ele>132.0</ele><time>2026-05-02T15:17:26.001Z</time></trkpt><trkpt lat="45.52750600133924" lon="10.195202676469027"><ele>131.66666666666666</ele><time>2026-05-02T15:17:27.001Z</time></trkpt><trkpt lat="45.527576464522014" lon="10.194953432350594"><ele>131.33333333333331</ele><time>2026-05-02T15:17:28.001Z</time></trkpt><trkpt lat="45.52764685159504" lon="10.194714994739375"><ele>131.0</ele><time>2026-05-02T15:17:29.001Z</time></trkpt><trkpt lat="45.52771725019587" lon="10.194476462113299"><ele>131.33333333333331</ele><time>2026-05-02T15:17:30.001Z</time></trkpt><trkpt lat="45.52778747567783" lon="10.19423860433055"><ele>131.66666666666666</ele><time>2026-05-02T15:17:31.001Z</time></trkpt><trkpt lat="45.5278577531523" lon="10.19399910387886"><ele>132.0</ele><time>2026-05-02T15:17:32.001Z</time></trkpt><trkpt lat="45.52792327739305" lon="10.193755504792831"><ele>131.66666666666666</ele><time>2026-05-02T15:17:33.001Z</time></trkpt><trkpt lat="45.52799143107041" lon="10.193520110341952"><ele>131.33333333333331</ele><time>2026-05-02T15:17:34.001Z</time></trkpt><trkpt lat="45.52805551647736" lon="10.193287943607887"><ele>131.0</ele><time>2026-05-02T15:17:35.001Z</time></trkpt><trkpt lat="45.528121208153685" lon="10.19306230353104"><ele>131.0</ele><time>2026-05-02T15:17:36.001Z</time></trkpt><trkpt lat="45.52818196332705" lon="10.192849926520932"><ele>131.0</ele><time>2026-05-02T15:17:37.001Z</time></trkpt><trkpt lat="45.52824033329864" lon="10.192646832024671"><ele>131.0</ele><time>2026-05-02T15:17:38.001Z</time></trkpt><trkpt lat="45.52830025578808" lon="10.192452670437806"><ele>130.66666666666666</ele><time>2026-05-02T15:17:39.001Z</time></trkpt><trkpt lat="45.528361138342724" lon="10.192253962414451"><ele>130.33333333333334</ele><time>2026-05-02T15:17:40.001Z</time></trkpt><trkpt lat="45.528419294878496" lon="10.192052639931294"><ele>130.0</ele><time>2026-05-02T15:17:41.001Z</time></trkpt><trkpt lat="45.52847811456369" lon="10.191853086769974"><ele>130.0</ele><time>2026-05-02T15:17:42.001Z</time></trkpt><trkpt lat="45.52853927780043" lon="10.19165584932927"><ele>130.0</ele><time>2026-05-02T15:17:43.001Z</time></trkpt><trkpt lat="45.528599892885104" lon="10.19144726921689"><ele>130.0</ele><time>2026-05-02T15:17:44.001Z</time></trkpt><trkpt lat="45.52865827352779" lon="10.19123748215161"><ele>130.0</ele><time>2026-05-02T15:17:45.001Z</time></trkpt><trkpt lat="45.528714942245806" lon="10.191021986500624"><ele>130.0</ele><time>2026-05-02T15:17:46.001Z</time></trkpt><trkpt lat="45.52877945368362" lon="10.190808353316726"><ele>130.0</ele><time>2026-05-02T15:17:47.001Z</time></trkpt><trkpt lat="45.52884225885481" lon="10.190597219231098"><ele>129.66666666666669</ele><time>2026-05-02T15:17:48.001Z</time></trkpt><trkpt lat="45.52890310842734" lon="10.190378238503946"><ele>129.33333333333334</ele><time>2026-05-02T15:17:49.001Z</time></trkpt><trkpt lat="45.528967640662124" lon="10.190165293934859"><ele>129.0</ele><time>2026-05-02T15:17:50.001Z</time></trkpt><trkpt lat="45.529030761210954" lon="10.1899495167893"><ele>129.33333333333334</ele><time>2026-05-02T15:17:51.001Z</time></trkpt><trkpt lat="45.52909255228723" lon="10.189724230870798"><ele>129.66666666666669</ele><time>2026-05-02T15:17:52.001Z</time></trkpt><trkpt lat="45.529152048738844" lon="10.189514509097108"><ele>130.0</ele><time>2026-05-02T15:17:53.001Z</time></trkpt><trkpt lat="45.529206764643995" lon="10.189320644230369"><ele>130.0</ele><time>2026-05-02T15:17:54.001Z</time></trkpt><trkpt lat="45.529256892489464" lon="10.189143799448779"><ele>130.0</ele><time>2026-05-02T15:17:55.001Z</time></trkpt><trkpt lat="45.52930473574851" lon="10.188978341664729"><ele>130.0</ele><time>2026-05-02T15:17:56.001Z</time></trkpt><trkpt lat="45.52934801679551" lon="10.188843578295007"><ele>130.0</ele><time>2026-05-02T15:17:57.001Z</time></trkpt><trkpt lat="45.529379026350774" lon="10.188735767514519"><ele>130.0</ele><time>2026-05-02T15:17:58.001Z</time></trkpt><trkpt lat="45.52940776154638" lon="10.188645601703286"><ele>130.0</ele><time>2026-05-02T15:17:59.001Z</time></trkpt><trkpt lat="45.52947060857664" lon="10.18851096576352"><ele>130.0</ele><time>2026-05-02T15:18:01.001Z</time></trkpt><trkpt lat="45.52952202030003" lon="10.188445308662914"><ele>130.0</ele><time>2026-05-02T15:18:02.001Z</time></trkpt><trkpt lat="45.52957387314104" lon="10.18837691756347"><ele>130.0</ele><time>2026-05-02T15:18:03.001Z</time></trkpt><trkpt lat="45.52961408658158" lon="10.188186740360868"><ele>130.0</ele><time>2026-05-02T15:18:05.001Z</time></trkpt><trkpt lat="45.52960888403085" lon="10.188042066132725"><ele>130.0</ele><time>2026-05-02T15:18:06.001Z</time></trkpt><trkpt lat="45.52962387366913" lon="10.187885519881704"><ele>130.0</ele><time>2026-05-02T15:18:07.001Z</time></trkpt><trkpt lat="45.52966864115132" lon="10.187716287146413"><ele>130.0</ele><time>2026-05-02T15:18:08.001Z</time></trkpt><trkpt lat="45.52972188862022" lon="10.18754410376925"><ele>130.0</ele><time>2026-05-02T15:18:09.002Z</time></trkpt><trkpt lat="45.52977521275583" lon="10.187377711955655"><ele>130.0</ele><time>2026-05-02T15:18:10.002Z</time></trkpt><trkpt lat="45.52982523835008" lon="10.187225130623402"><ele>130.0</ele><time>2026-05-02T15:18:11.002Z</time></trkpt><trkpt lat="45.529866720567505" lon="10.18708301957838"><ele>130.0</ele><time>2026-05-02T15:18:12.002Z</time></trkpt><trkpt lat="45.52990294339141" lon="10.186951952099662"><ele>130.0</ele><time>2026-05-02T15:18:13.002Z</time></trkpt><trkpt lat="45.52993385665622" lon="10.186834651613657"><ele>130.0</ele><time>2026-05-02T15:18:14.002Z</time></trkpt><trkpt lat="45.529963603157896" lon="10.186728587360427"><ele>130.0</ele><time>2026-05-02T15:18:15.002Z</time></trkpt><trkpt lat="45.52999382009303" lon="10.186629803357103"><ele>130.0</ele><time>2026-05-02T15:18:16.002Z</time></trkpt><trkpt lat="45.53002300578234" lon="10.186540900533814"><ele>130.0</ele><time>2026-05-02T15:18:17.002Z</time></trkpt><trkpt lat="45.530066735447946" lon="10.186381457038056"><ele>130.0</ele><time>2026-05-02T15:18:19.002Z</time></trkpt><trkpt lat="45.53011307804923" lon="10.186233841684572"><ele>130.0</ele><time>2026-05-02T15:18:21.002Z</time></trkpt><trkpt lat="45.53015280084" lon="10.186076045518892"><ele>130.0</ele><time>2026-05-02T15:18:23.002Z</time></trkpt><trkpt lat="45.530177334337424" lon="10.185984331802837"><ele>130.0</ele><time>2026-05-02T15:18:24.002Z</time></trkpt><trkpt lat="45.53020679104952" lon="10.185873783076715"><ele>130.0</ele><time>2026-05-02T15:18:25.002Z</time></trkpt><trkpt lat="45.530241257354106" lon="10.185755637331413"><ele>130.0</ele><time>2026-05-02T15:18:26.002Z</time></trkpt><trkpt lat="45.53027592647033" lon="10.185621794806382"><ele>130.0</ele><time>2026-05-02T15:18:27.002Z</time></trkpt><trkpt lat="45.530311186578516" lon="10.185483844420816"><ele>130.0</ele><time>2026-05-02T15:18:28.002Z</time></trkpt><trkpt lat="45.53035057743353" lon="10.185344369172281"><ele>130.0</ele><time>2026-05-02T15:18:29.002Z</time></trkpt><trkpt lat="45.530387935611735" lon="10.185203927753594"><ele>130.0</ele><time>2026-05-02T15:18:30.002Z</time></trkpt><trkpt lat="45.5304228215859" lon="10.18506803195099"><ele>130.0</ele><time>2026-05-02T15:18:31.002Z</time></trkpt><trkpt lat="45.530457096153164" lon="10.184939266137585"><ele>130.0</ele><time>2026-05-02T15:18:32.002Z</time></trkpt><trkpt lat="45.53048994878487" lon="10.184822401721581"><ele>130.0</ele><time>2026-05-02T15:18:33.002Z</time></trkpt><trkpt lat="45.530521879484084" lon="10.184707660949313"><ele>129.8</ele><time>2026-05-02T15:18:34.002Z</time></trkpt><trkpt lat="45.53055263440106" lon="10.184582060428296"><ele>129.6</ele><time>2026-05-02T15:18:35.002Z</time></trkpt><trkpt lat="45.53058380991181" lon="10.184451971331816"><ele>129.4</ele><time>2026-05-02T15:18:36.002Z</time></trkpt><trkpt lat="45.53061269863695" lon="10.184325332886335"><ele>129.2</ele><time>2026-05-02T15:18:37.002Z</time></trkpt><trkpt lat="45.53063550303104" lon="10.184192545112358"><ele>129.0</ele><time>2026-05-02T15:18:38.002Z</time></trkpt><trkpt lat="45.53066396649622" lon="10.184058437927364"><ele>129.0</ele><time>2026-05-02T15:18:39.002Z</time></trkpt><trkpt lat="45.53069421355577" lon="10.183927442287759"><ele>129.0</ele><time>2026-05-02T15:18:40.002Z</time></trkpt><trkpt lat="45.5307290978711" lon="10.183791652942379"><ele>129.0</ele><time>2026-05-02T15:18:41.002Z</time></trkpt><trkpt lat="45.53076444011787" lon="10.18365011769531"><ele>129.0</ele><time>2026-05-02T15:18:42.002Z</time></trkpt><trkpt lat="45.530806686546725" lon="10.183506895476137"><ele>129.0</ele><time>2026-05-02T15:18:43.002Z</time></trkpt><trkpt lat="45.530846748579926" lon="10.183356062810835"><ele>129.0</ele><time>2026-05-02T15:18:44.002Z</time></trkpt><trkpt lat="45.530887519562896" lon="10.183210425844972"><ele>129.0</ele><time>2026-05-02T15:18:45.002Z</time></trkpt><trkpt lat="45.530930091534685" lon="10.183065655871566"><ele>129.0</ele><time>2026-05-02T15:18:46.002Z</time></trkpt><trkpt lat="45.530971229257524" lon="10.182915123728506"><ele>129.0</ele><time>2026-05-02T15:18:47.002Z</time></trkpt><trkpt lat="45.531012329260214" lon="10.182781142418946"><ele>129.0</ele><time>2026-05-02T15:18:48.002Z</time></trkpt><trkpt lat="45.53104908165977" lon="10.182663156033835"><ele>129.0</ele><time>2026-05-02T15:18:49.002Z</time></trkpt><trkpt lat="45.53108489750453" lon="10.182539074603174"><ele>129.0</ele><time>2026-05-02T15:18:50.003Z</time></trkpt><trkpt lat="45.53111968251085" lon="10.182422833258233"><ele>129.0</ele><time>2026-05-02T15:18:51.003Z</time></trkpt><trkpt lat="45.531161020631274" lon="10.18228911736282"><ele>129.0</ele><time>2026-05-02T15:18:52.003Z</time></trkpt><trkpt lat="45.53120401591818" lon="10.182151730257242"><ele>129.0</ele><time>2026-05-02T15:18:53.003Z</time></trkpt><trkpt lat="45.53124396329022" lon="10.18201530111224"><ele>129.4</ele><time>2026-05-02T15:18:54.003Z</time></trkpt><trkpt lat="45.53128075340703" lon="10.18189241897895"><ele>129.8</ele><time>2026-05-02T15:18:55.003Z</time></trkpt><trkpt lat="45.53131755744561" lon="10.181767352341236"><ele>130.2</ele><time>2026-05-02T15:18:56.003Z</time></trkpt><trkpt lat="45.53135188652801" lon="10.181648960099482"><ele>130.6</ele><time>2026-05-02T15:18:57.003Z</time></trkpt><trkpt lat="45.53138725425635" lon="10.181528029706262"><ele>131.0</ele><time>2026-05-02T15:18:58.003Z</time></trkpt><trkpt lat="45.531430993533796" lon="10.181394282361799"><ele>131.0</ele><time>2026-05-02T15:18:59.003Z</time></trkpt><trkpt lat="45.53147192657829" lon="10.181256205541642"><ele>131.0</ele><time>2026-05-02T15:19:00.003Z</time></trkpt><trkpt lat="45.53151350750178" lon="10.181111527683937"><ele>131.0</ele><time>2026-05-02T15:19:01.003Z</time></trkpt><trkpt lat="45.53154922328562" lon="10.18095529037556"><ele>131.0</ele><time>2026-05-02T15:19:02.003Z</time></trkpt><trkpt lat="45.531586169063395" lon="10.180812689391086"><ele>131.0</ele><time>2026-05-02T15:19:03.003Z</time></trkpt><trkpt lat="45.53161991606579" lon="10.180664177251636"><ele>130.75</ele><time>2026-05-02T15:19:04.003Z</time></trkpt><trkpt lat="45.53165922222586" lon="10.180506696329948"><ele>130.5</ele><time>2026-05-02T15:19:05Z</time></trkpt><trkpt lat="45.53170123787175" lon="10.180341036469246"><ele>130.25</ele><time>2026-05-02T15:19:06Z</time></trkpt><trkpt lat="45.531742003560495" lon="10.180164421988412"><ele>130.0</ele><time>2026-05-02T15:19:07Z</time></trkpt><trkpt lat="45.53178139856035" lon="10.17999741453239"><ele>129.25</ele><time>2026-05-02T15:19:08Z</time></trkpt><trkpt lat="45.53181834700831" lon="10.179831798210781"><ele>128.5</ele><time>2026-05-02T15:19:09Z</time></trkpt><trkpt lat="45.53185543418747" lon="10.179659623871954"><ele>127.75</ele><time>2026-05-02T15:19:10Z</time></trkpt><trkpt lat="45.531895811374824" lon="10.179485019239344"><ele>127.0</ele><time>2026-05-02T15:19:11Z</time></trkpt><trkpt lat="45.53193546183642" lon="10.179317582675797"><ele>127.0</ele><time>2026-05-02T15:19:12Z</time></trkpt><trkpt lat="45.53197257204613" lon="10.179164945647164"><ele>126.99999999999999</ele><time>2026-05-02T15:19:13Z</time></trkpt><trkpt lat="45.53200571116552" lon="10.179019590410386"><ele>126.99999999999999</ele><time>2026-05-02T15:19:14Z</time></trkpt><trkpt lat="45.53203661792011" lon="10.178877605232557"><ele>127.0</ele><time>2026-05-02T15:19:15Z</time></trkpt><trkpt lat="45.53206944447718" lon="10.178733136208082"><ele>127.0</ele><time>2026-05-02T15:19:16Z</time></trkpt><trkpt lat="45.53210069464854" lon="10.178586060049799"><ele>127.0</ele><time>2026-05-02T15:19:17Z</time></trkpt><trkpt lat="45.53212537382916" lon="10.178451958079002"><ele>126.99999999999999</ele><time>2026-05-02T15:19:18Z</time></trkpt><trkpt lat="45.532143990131004" lon="10.178312165144096"><ele>126.99999999999999</ele><time>2026-05-02T15:19:19Z</time></trkpt><trkpt lat="45.53215953584978" lon="10.178150725069036"><ele>127.0</ele><time>2026-05-02T15:19:20Z</time></trkpt><trkpt lat="45.53216758034088" lon="10.177973620111771"><ele>127.0</ele><time>2026-05-02T15:19:21Z</time></trkpt><trkpt lat="45.532172963702486" lon="10.177783846627426"><ele>127.5</ele><time>2026-05-02T15:19:22Z</time></trkpt><trkpt lat="45.53216679823307" lon="10.17758505302195"><ele>128.0</ele><time>2026-05-02T15:19:23Z</time></trkpt><trkpt lat="45.532148370360304" lon="10.177377815443121"><ele>128.5</ele><time>2026-05-02T15:19:24Z</time></trkpt><trkpt lat="45.53212791574829" lon="10.177158766266217"><ele>129.0</ele><time>2026-05-02T15:19:25Z</time></trkpt><trkpt lat="45.5321093398422" lon="10.176935466223954"><ele>129.0</ele><time>2026-05-02T15:19:26Z</time></trkpt><trkpt lat="45.53209094498226" lon="10.176698984009958"><ele>129.0</ele><time>2026-05-02T15:19:27Z</time></trkpt><trkpt lat="45.53207964589754" lon="10.176462333992516"><ele>129.0</ele><time>2026-05-02T15:19:28Z</time></trkpt><trkpt lat="45.532064055283456" lon="10.176227644034716"><ele>128.66666666666666</ele><time>2026-05-02T15:19:29Z</time></trkpt><trkpt lat="45.53204644595197" lon="10.175999835973231"><ele>128.33333333333331</ele><time>2026-05-02T15:19:30Z</time></trkpt><trkpt lat="45.53203669953622" lon="10.175771753345524"><ele>128.0</ele><time>2026-05-02T15:19:31Z</time></trkpt><trkpt lat="45.53201605380366" lon="10.175548062927417"><ele>128.0</ele><time>2026-05-02T15:19:32.001Z</time></trkpt><trkpt lat="45.53199475842321" lon="10.175339732588368"><ele>128.0</ele><time>2026-05-02T15:19:33.001Z</time></trkpt><trkpt lat="45.53197356961717" lon="10.17510503824304"><ele>128.0</ele><time>2026-05-02T15:19:34.001Z</time></trkpt><trkpt lat="45.531949562347975" lon="10.174866817999"><ele>128.0</ele><time>2026-05-02T15:19:35.001Z</time></trkpt><trkpt lat="45.531926061182055" lon="10.174614078802506"><ele>128.0</ele><time>2026-05-02T15:19:36.001Z</time></trkpt><trkpt lat="45.53190501318609" lon="10.174350811248772"><ele>128.0</ele><time>2026-05-02T15:19:37.001Z</time></trkpt><trkpt lat="45.53187911700375" lon="10.174094020371053"><ele>127.66666666666666</ele><time>2026-05-02T15:19:38.001Z</time></trkpt><trkpt lat="45.531852045910895" lon="10.173842816528204"><ele>127.33333333333334</ele><time>2026-05-02T15:19:39.001Z</time></trkpt><trkpt lat="45.531824940262666" lon="10.173580498713324"><ele>127.0</ele><time>2026-05-02T15:19:40.001Z</time></trkpt><trkpt lat="45.53179293601759" lon="10.173316817374062"><ele>126.66666666666667</ele><time>2026-05-02T15:19:41.001Z</time></trkpt><trkpt lat="45.53176690196059" lon="10.173051890445684"><ele>126.33333333333334</ele><time>2026-05-02T15:19:42.001Z</time></trkpt><trkpt lat="45.53174208173881" lon="10.172778911633344"><ele>126.0</ele><time>2026-05-02T15:19:43.001Z</time></trkpt><trkpt lat="45.53171823182627" lon="10.172505726598224"><ele>126.66666666666666</ele><time>2026-05-02T15:19:44.001Z</time></trkpt><trkpt lat="45.531698891385034" lon="10.172220295010318"><ele>127.33333333333333</ele><time>2026-05-02T15:19:45.001Z</time></trkpt><trkpt lat="45.531672309085515" lon="10.171942244791035"><ele>128.0</ele><time>2026-05-02T15:19:46.001Z</time></trkpt><trkpt lat="45.53165099178034" lon="10.171662077474434"><ele>128.66666666666666</ele><time>2026-05-02T15:19:47.001Z</time></trkpt><trkpt lat="45.5316374445531" lon="10.171384217295241"><ele>129.33333333333334</ele><time>2026-05-02T15:19:48.001Z</time></trkpt><trkpt lat="45.5316275393804" lon="10.171117593954314"><ele>130.0</ele><time>2026-05-02T15:19:49.001Z</time></trkpt><trkpt lat="45.53161843004463" lon="10.170853666449842"><ele>129.33333333333334</ele><time>2026-05-02T15:19:50.001Z</time></trkpt><trkpt lat="45.53161009033573" lon="10.170597177302447"><ele>128.66666666666666</ele><time>2026-05-02T15:19:51.001Z</time></trkpt><trkpt lat="45.53160132559627" lon="10.17034909241683"><ele>128.0</ele><time>2026-05-02T15:19:52.001Z</time></trkpt><trkpt lat="45.53159349474169" lon="10.170094757346122"><ele>127.33333333333333</ele><time>2026-05-02T15:19:53.001Z</time></trkpt><trkpt lat="45.53158794660689" lon="10.169856346045734"><ele>126.66666666666666</ele><time>2026-05-02T15:19:54.001Z</time></trkpt><trkpt lat="45.53158068960544" lon="10.169621848833566"><ele>126.0</ele><time>2026-05-02T15:19:55.001Z</time></trkpt><trkpt lat="45.531569443036695" lon="10.169382434408165"><ele>126.0</ele><time>2026-05-02T15:19:56.001Z</time></trkpt><trkpt lat="45.53156241266903" lon="10.169139871516402"><ele>126.0</ele><time>2026-05-02T15:19:57.001Z</time></trkpt><trkpt lat="45.531551773235336" lon="10.168902772315002"><ele>126.0</ele><time>2026-05-02T15:19:58.001Z</time></trkpt><trkpt lat="45.53153870880624" lon="10.168678381008762"><ele>126.75</ele><time>2026-05-02T15:19:59.001Z</time></trkpt><trkpt lat="45.531519009778506" lon="10.16846627101005"><ele>127.5</ele><time>2026-05-02T15:20:00.001Z</time></trkpt><trkpt lat="45.53148307351373" lon="10.168263576714414"><ele>128.25</ele><time>2026-05-02T15:20:01.001Z</time></trkpt><trkpt lat="45.53143515356347" lon="10.168078349612728"><ele>129.0</ele><time>2026-05-02T15:20:02.001Z</time></trkpt><trkpt lat="45.53139045138129" lon="10.167896980786363"><ele>129.0</ele><time>2026-05-02T15:20:03.001Z</time></trkpt><trkpt lat="45.53133955853998" lon="10.16772859894985"><ele>129.0</ele><time>2026-05-02T15:20:04.001Z</time></trkpt><trkpt lat="45.53128135734447" lon="10.167579925665494"><ele>129.0</ele><time>2026-05-02T15:20:05.001Z</time></trkpt><trkpt lat="45.53122435499045" lon="10.167452720193944"><ele>129.0</ele><time>2026-05-02T15:20:06.001Z</time></trkpt><trkpt lat="45.53118086136063" lon="10.16735732084634"><ele>129.0</ele><time>2026-05-02T15:20:07.001Z</time></trkpt><trkpt lat="45.53114238219505" lon="10.16723977000405"><ele>129.0</ele><time>2026-05-02T15:20:09.001Z</time></trkpt><trkpt lat="45.53112029182807" lon="10.16712058518782"><ele>129.0</ele><time>2026-05-02T15:20:11.001Z</time></trkpt><trkpt lat="45.531102117997136" lon="10.167023308710494"><ele>129.0</ele><time>2026-05-02T15:20:12.001Z</time></trkpt><trkpt lat="45.531077189013345" lon="10.166920002625274"><ele>129.0</ele><time>2026-05-02T15:20:13.001Z</time></trkpt><trkpt lat="45.5310313663871" lon="10.16684796593526"><ele>129.0</ele><time>2026-05-02T15:20:14.001Z</time></trkpt><trkpt lat="45.530982393216036" lon="10.166789639763556"><ele>129.0</ele><time>2026-05-02T15:20:15.001Z</time></trkpt><trkpt lat="45.53089811017568" lon="10.166784851392727"><ele>129.0</ele><time>2026-05-02T15:20:16.001Z</time></trkpt><trkpt lat="45.53080612515608" lon="10.16673741179633"><ele>129.0</ele><time>2026-05-02T15:20:17.001Z</time></trkpt><trkpt lat="45.53071145593232" lon="10.166659005225753"><ele>129.0</ele><time>2026-05-02T15:20:18.001Z</time></trkpt><trkpt lat="45.53061964154636" lon="10.166549587998173"><ele>129.0</ele><time>2026-05-02T15:20:19.002Z</time></trkpt><trkpt lat="45.530532327786425" lon="10.16643295272986"><ele>129.0</ele><time>2026-05-02T15:20:20.002Z</time></trkpt><trkpt lat="45.53045283777821" lon="10.166323952172824"><ele>128.25</ele><time>2026-05-02T15:20:21.002Z</time></trkpt><trkpt lat="45.53036507707498" lon="10.166210498866405"><ele>127.5</ele><time>2026-05-02T15:20:22.002Z</time></trkpt><trkpt lat="45.530273021772196" lon="10.166092515990657"><ele>126.75</ele><time>2026-05-02T15:20:23.002Z</time></trkpt><trkpt lat="45.53017219055719" lon="10.165964327905344"><ele>126.0</ele><time>2026-05-02T15:20:24.002Z</time></trkpt><trkpt lat="45.53007174658414" lon="10.165821300435434"><ele>125.5</ele><time>2026-05-02T15:20:25.002Z</time></trkpt><trkpt lat="45.52995462381856" lon="10.165663568275468"><ele>125.0</ele><time>2026-05-02T15:20:26.002Z</time></trkpt><trkpt lat="45.529851971135635" lon="10.165529572456686"><ele>124.5</ele><time>2026-05-02T15:20:27.002Z</time></trkpt><trkpt lat="45.529755141275594" lon="10.165403491575848"><ele>124.0</ele><time>2026-05-02T15:20:28.002Z</time></trkpt><trkpt lat="45.52965584260699" lon="10.165282171893875"><ele>124.25</ele><time>2026-05-02T15:20:29.002Z</time></trkpt><trkpt lat="45.529553832527945" lon="10.165152097322943"><ele>124.5</ele><time>2026-05-02T15:20:30.002Z</time></trkpt><trkpt lat="45.52945490287004" lon="10.16501273540576"><ele>124.75</ele><time>2026-05-02T15:20:31.002Z</time></trkpt><trkpt lat="45.52935378417577" lon="10.1648746021447"><ele>125.0</ele><time>2026-05-02T15:20:32.002Z</time></trkpt><trkpt lat="45.52926249686062" lon="10.164741563815467"><ele>125.0</ele><time>2026-05-02T15:20:33.002Z</time></trkpt><trkpt lat="45.529180537913" lon="10.164610091368752"><ele>125.0</ele><time>2026-05-02T15:20:34.002Z</time></trkpt><trkpt lat="45.529103344528075" lon="10.16447500823447"><ele>125.0</ele><time>2026-05-02T15:20:35.002Z</time></trkpt><trkpt lat="45.52902899977772" lon="10.164330657254279"><ele>125.0</ele><time>2026-05-02T15:20:36.002Z</time></trkpt><trkpt lat="45.528953523873525" lon="10.164180011527089"><ele>125.0</ele><time>2026-05-02T15:20:37.002Z</time></trkpt><trkpt lat="45.5288832142796" lon="10.164036991725128"><ele>125.0</ele><time>2026-05-02T15:20:38.002Z</time></trkpt><trkpt lat="45.528815131629685" lon="10.163906584658497"><ele>125.0</ele><time>2026-05-02T15:20:39.002Z</time></trkpt><trkpt lat="45.5287557468617" lon="10.163800730027337"><ele>125.0</ele><time>2026-05-02T15:20:40.002Z</time></trkpt><trkpt lat="45.528701872061745" lon="10.163715661996642"><ele>125.0</ele><time>2026-05-02T15:20:41.002Z</time></trkpt><trkpt lat="45.528656219450056" lon="10.1636368630795"><ele>125.2</ele><time>2026-05-02T15:20:42.002Z</time></trkpt><trkpt lat="45.52861281350737" lon="10.163554955248872"><ele>125.4</ele><time>2026-05-02T15:20:43.002Z</time></trkpt><trkpt lat="45.5285701479654" lon="10.163458973585259"><ele>125.6</ele><time>2026-05-02T15:20:44.002Z</time></trkpt><trkpt lat="45.52852204261158" lon="10.163343922947963"><ele>125.8</ele><time>2026-05-02T15:20:45.002Z</time></trkpt><trkpt lat="45.52844001209832" lon="10.163270613029955"><ele>126.0</ele><time>2026-05-02T15:20:46.002Z</time></trkpt><trkpt lat="45.528410057472954" lon="10.163107623897734"><ele>125.5</ele><time>2026-05-02T15:20:47.002Z</time></trkpt><trkpt lat="45.528357795210546" lon="10.162977363794129"><ele>125.0</ele><time>2026-05-02T15:20:48.002Z</time></trkpt><trkpt lat="45.528292287599314" lon="10.162830978820596"><ele>124.5</ele><time>2026-05-02T15:20:49.002Z</time></trkpt><trkpt lat="45.52821522615152" lon="10.16267291225411"><ele>124.0</ele><time>2026-05-02T15:20:50.002Z</time></trkpt><trkpt lat="45.52813251076709" lon="10.162507353970836"><ele>123.75</ele><time>2026-05-02T15:20:51.002Z</time></trkpt><trkpt lat="45.528047080764814" lon="10.16233956974139"><ele>123.5</ele><time>2026-05-02T15:20:52.002Z</time></trkpt><trkpt lat="45.527966475530654" lon="10.162185383048458"><ele>123.25</ele><time>2026-05-02T15:20:53.002Z</time></trkpt><trkpt lat="45.52788265672397" lon="10.162024817854633"><ele>123.0</ele><time>2026-05-02T15:20:54.002Z</time></trkpt><trkpt lat="45.5277914177496" lon="10.161859679448932"><ele>123.0</ele><time>2026-05-02T15:20:55.002Z</time></trkpt><trkpt lat="45.52770133573995" lon="10.161686578523573"><ele>123.0</ele><time>2026-05-02T15:20:56.002Z</time></trkpt><trkpt lat="45.527608769172" lon="10.161519647823457"><ele>123.0</ele><time>2026-05-02T15:20:57.002Z</time></trkpt><trkpt lat="45.527521656783726" lon="10.161355410956721"><ele>123.0</ele><time>2026-05-02T15:20:58.002Z</time></trkpt><trkpt lat="45.527445756257" lon="10.161202193589585"><ele>122.75</ele><time>2026-05-02T15:20:59.002Z</time></trkpt><trkpt lat="45.52737433370559" lon="10.161054532206608"><ele>122.5</ele><time>2026-05-02T15:21:00.002Z</time></trkpt><trkpt lat="45.52730458601452" lon="10.160911987550143"><ele>122.25</ele><time>2026-05-02T15:21:01.002Z</time></trkpt><trkpt lat="45.52723812086458" lon="10.160774826210629"><ele>122.0</ele><time>2026-05-02T15:21:02.003Z</time></trkpt><trkpt lat="45.52718619834767" lon="10.160649973978435"><ele>122.16666666666666</ele><time>2026-05-02T15:21:03.003Z</time></trkpt><trkpt lat="45.52714606493923" lon="10.160539180108929"><ele>122.33333333333333</ele><time>2026-05-02T15:21:04.003Z</time></trkpt><trkpt lat="45.5271209960768" lon="10.160446205387135"><ele>122.5</ele><time>2026-05-02T15:21:05.003Z</time></trkpt><trkpt lat="45.52709949479504" lon="10.160342892674818"><ele>122.66666666666666</ele><time>2026-05-02T15:21:08.003Z</time></trkpt><trkpt lat="45.52709225211933" lon="10.160220555252307"><ele>122.83333333333333</ele><time>2026-05-02T15:21:10.003Z</time></trkpt><trkpt lat="45.527079721340606" lon="10.16011149925264"><ele>123.0</ele><time>2026-05-02T15:21:11Z</time></trkpt><trkpt lat="45.52702594790863" lon="10.160001156629496"><ele>123.0</ele><time>2026-05-02T15:21:12Z</time></trkpt><trkpt lat="45.52693060080739" lon="10.159912748697344"><ele>123.0</ele><time>2026-05-02T15:21:13Z</time></trkpt><trkpt lat="45.52682913019553" lon="10.15981817281192"><ele>123.0</ele><time>2026-05-02T15:21:14Z</time></trkpt><trkpt lat="45.52674660641703" lon="10.15969166853646"><ele>123.0</ele><time>2026-05-02T15:21:15Z</time></trkpt><trkpt lat="45.52668336336648" lon="10.159571121217077"><ele>123.33333333333333</ele><time>2026-05-02T15:21:16Z</time></trkpt><trkpt lat="45.52662341392441" lon="10.159455554886813"><ele>123.66666666666666</ele><time>2026-05-02T15:21:17Z</time></trkpt><trkpt lat="45.52656879861779" lon="10.159349256272671"><ele>124.0</ele><time>2026-05-02T15:21:18Z</time></trkpt><trkpt lat="45.52652379593861" lon="10.15925322968837"><ele>124.33333333333333</ele><time>2026-05-02T15:21:19Z</time></trkpt><trkpt lat="45.526479104948166" lon="10.159164137493894"><ele>124.66666666666666</ele><time>2026-05-02T15:21:20Z</time></trkpt><trkpt lat="45.52643575066695" lon="10.15907484226295"><ele>125.0</ele><time>2026-05-02T15:21:21Z</time></trkpt><trkpt lat="45.52638666762847" lon="10.158975806705534"><ele>124.99999999999999</ele><time>2026-05-02T15:21:22Z</time></trkpt><trkpt lat="45.526336348402985" lon="10.15887061017217"><ele>125.0</ele><time>2026-05-02T15:21:23Z</time></trkpt><trkpt lat="45.52628597426546" lon="10.158772590906423"><ele>125.0</ele><time>2026-05-02T15:21:24Z</time></trkpt><trkpt lat="45.52624388688258" lon="10.158680295532259"><ele>125.0</ele><time>2026-05-02T15:21:25Z</time></trkpt><trkpt lat="45.52619223736472" lon="10.158584064297195"><ele>124.99999999999999</ele><time>2026-05-02T15:21:26Z</time></trkpt><trkpt lat="45.52614508032933" lon="10.158480132752302"><ele>125.0</ele><time>2026-05-02T15:21:27Z</time></trkpt><trkpt lat="45.526099084885985" lon="10.158387529844061"><ele>124.4</ele><time>2026-05-02T15:21:28Z</time></trkpt><trkpt lat="45.526051964280846" lon="10.158289307548653"><ele>123.8</ele><time>2026-05-02T15:21:29Z</time></trkpt><trkpt lat="45.5259986330318" lon="10.15818330257867"><ele>123.19999999999999</ele><time>2026-05-02T15:21:30Z</time></trkpt><trkpt lat="45.52594203089383" lon="10.158071491529615"><ele>122.6</ele><time>2026-05-02T15:21:31Z</time></trkpt><trkpt lat="45.525883665362" lon="10.1579563394945"><ele>122.0</ele><time>2026-05-02T15:21:32Z</time></trkpt><trkpt lat="45.525827778995" lon="10.157838765623886"><ele>121.8</ele><time>2026-05-02T15:21:33Z</time></trkpt><trkpt lat="45.52577035908386" lon="10.157716049622008"><ele>121.6</ele><time>2026-05-02T15:21:34Z</time></trkpt><trkpt lat="45.52570776099102" lon="10.157588667505161"><ele>121.39999999999999</ele><time>2026-05-02T15:21:35Z</time></trkpt><trkpt lat="45.525644310712174" lon="10.157461808972561"><ele>121.19999999999999</ele><time>2026-05-02T15:21:36Z</time></trkpt><trkpt lat="45.525582003390504" lon="10.157334548508489"><ele>121.0</ele><time>2026-05-02T15:21:37Z</time></trkpt><trkpt lat="45.52552412777243" lon="10.157214964317912"><ele>121.0</ele><time>2026-05-02T15:21:38.001Z</time></trkpt><trkpt lat="45.525464199486336" lon="10.157090534111575"><ele>121.0</ele><time>2026-05-02T15:21:39.001Z</time></trkpt><trkpt lat="45.52539725878064" lon="10.156957630583578"><ele>121.0</ele><time>2026-05-02T15:21:40.001Z</time></trkpt><trkpt lat="45.52533047009735" lon="10.156820682492057"><ele>121.0</ele><time>2026-05-02T15:21:41.001Z</time></trkpt><trkpt lat="45.5252665244286" lon="10.15668708235483"><ele>121.0</ele><time>2026-05-02T15:21:42.001Z</time></trkpt><trkpt lat="45.525203127925074" lon="10.156554050342098"><ele>121.0</ele><time>2026-05-02T15:21:43.001Z</time></trkpt><trkpt lat="45.52514179347861" lon="10.156437630886797"><ele>121.0</ele><time>2026-05-02T15:21:44.001Z</time></trkpt><trkpt lat="45.52507838127574" lon="10.156314725938604"><ele>121.0</ele><time>2026-05-02T15:21:45.001Z</time></trkpt><trkpt lat="45.52500738249021" lon="10.156174057340383"><ele>121.0</ele><time>2026-05-02T15:21:46.001Z</time></trkpt><trkpt lat="45.524930155002245" lon="10.156017969020372"><ele>120.75</ele><time>2026-05-02T15:21:47.001Z</time></trkpt><trkpt lat="45.52484905307295" lon="10.155854653344608"><ele>120.5</ele><time>2026-05-02T15:21:48.001Z</time></trkpt><trkpt lat="45.524758540023406" lon="10.155675071730286"><ele>120.25</ele><time>2026-05-02T15:21:49.001Z</time></trkpt><trkpt lat="45.52467723924397" lon="10.155506845077053"><ele>120.0</ele><time>2026-05-02T15:21:50.001Z</time></trkpt><trkpt lat="45.52460180184936" lon="10.155344028136279"><ele>120.0</ele><time>2026-05-02T15:21:51.001Z</time></trkpt><trkpt lat="45.524523972665456" lon="10.15518963463509"><ele>120.0</ele><time>2026-05-02T15:21:52.001Z</time></trkpt><trkpt lat="45.52444995483728" lon="10.155041273445017"><ele>120.0</ele><time>2026-05-02T15:21:53.001Z</time></trkpt><trkpt lat="45.52437533895163" lon="10.154888267685866"><ele>120.0</ele><time>2026-05-02T15:21:54.001Z</time></trkpt><trkpt lat="45.52429565917729" lon="10.154728203158342"><ele>120.0</ele><time>2026-05-02T15:21:55.001Z</time></trkpt><trkpt lat="45.524208859041956" lon="10.154557993358438"><ele>120.0</ele><time>2026-05-02T15:21:56.001Z</time></trkpt><trkpt lat="45.52411584872273" lon="10.154375022759837"><ele>120.0</ele><time>2026-05-02T15:21:57.001Z</time></trkpt><trkpt lat="45.52401989106994" lon="10.154180967339745"><ele>120.0</ele><time>2026-05-02T15:21:58.001Z</time></trkpt><trkpt lat="45.523923023520304" lon="10.153978972742369"><ele>120.0</ele><time>2026-05-02T15:21:59.001Z</time></trkpt><trkpt lat="45.5238258677603" lon="10.153777097528563"><ele>120.0</ele><time>2026-05-02T15:22:00.001Z</time></trkpt><trkpt lat="45.52372313062075" lon="10.153572102016097"><ele>120.0</ele><time>2026-05-02T15:22:01.001Z</time></trkpt><trkpt lat="45.52362077767754" lon="10.15336073691883"><ele>120.0</ele><time>2026-05-02T15:22:02.001Z</time></trkpt><trkpt lat="45.52352215496162" lon="10.153155428597291"><ele>120.0</ele><time>2026-05-02T15:22:03.001Z</time></trkpt><trkpt lat="45.52342757176553" lon="10.152958095021345"><ele>120.33333333333334</ele><time>2026-05-02T15:22:04.001Z</time></trkpt><trkpt lat="45.52333296528025" lon="10.152761004362164"><ele>120.66666666666667</ele><time>2026-05-02T15:22:05.001Z</time></trkpt><trkpt lat="45.52324200541892" lon="10.152559707177259"><ele>121.0</ele><time>2026-05-02T15:22:06.001Z</time></trkpt><trkpt lat="45.52315115296432" lon="10.152355293511322"><ele>121.0</ele><time>2026-05-02T15:22:07.001Z</time></trkpt><trkpt lat="45.52306038856599" lon="10.15214754897328"><ele>121.0</ele><time>2026-05-02T15:22:08.001Z</time></trkpt><trkpt lat="45.52296429713977" lon="10.151946730024612"><ele>121.0</ele><time>2026-05-02T15:22:09.001Z</time></trkpt><trkpt lat="45.5228707489012" lon="10.151744870004425"><ele>121.0</ele><time>2026-05-02T15:22:10.001Z</time></trkpt><trkpt lat="45.52279615575754" lon="10.151542710684435"><ele>121.0</ele><time>2026-05-02T15:22:11.001Z</time></trkpt><trkpt lat="45.52270310705967" lon="10.151346050741902"><ele>121.0</ele><time>2026-05-02T15:22:12.001Z</time></trkpt><trkpt lat="45.52260371660206" lon="10.151171145403048"><ele>121.0</ele><time>2026-05-02T15:22:13.001Z</time></trkpt><trkpt lat="45.52253430390205" lon="10.150985621748516"><ele>121.0</ele><time>2026-05-02T15:22:14.001Z</time></trkpt><trkpt lat="45.52245357258778" lon="10.150813455159263"><ele>121.0</ele><time>2026-05-02T15:22:15.001Z</time></trkpt><trkpt lat="45.52236149552201" lon="10.150649988571919"><ele>121.0</ele><time>2026-05-02T15:22:16.001Z</time></trkpt><trkpt lat="45.522285071677445" lon="10.150469793472954"><ele>120.66666666666667</ele><time>2026-05-02T15:22:17.001Z</time></trkpt><trkpt lat="45.52219813052634" lon="10.15029556371292"><ele>120.33333333333334</ele><time>2026-05-02T15:22:18.001Z</time></trkpt><trkpt lat="45.52211823105413" lon="10.150114812903519"><ele>120.0</ele><time>2026-05-02T15:22:19.001Z</time></trkpt><trkpt lat="45.52203535593177" lon="10.14992568158321"><ele>119.33333333333334</ele><time>2026-05-02T15:22:20.001Z</time></trkpt><trkpt lat="45.52194813403825" lon="10.149739800538477"><ele>118.66666666666667</ele><time>2026-05-02T15:22:21.001Z</time></trkpt><trkpt lat="45.52185753625518" lon="10.149554509950125"><ele>118.0</ele><time>2026-05-02T15:22:22.001Z</time></trkpt><trkpt lat="45.521761516317234" lon="10.149354554033478"><ele>118.0</ele><time>2026-05-02T15:22:23.001Z</time></trkpt><trkpt lat="45.521669403593926" lon="10.149151514614863"><ele>118.0</ele><time>2026-05-02T15:22:24.001Z</time></trkpt><trkpt lat="45.52157095640295" lon="10.148946472014856"><ele>118.0</ele><time>2026-05-02T15:22:25.002Z</time></trkpt><trkpt lat="45.521475847761046" lon="10.148742500839152"><ele>117.66666666666667</ele><time>2026-05-02T15:22:26.002Z</time></trkpt><trkpt lat="45.521386187878036" lon="10.14854820641917"><ele>117.33333333333334</ele><time>2026-05-02T15:22:27.002Z</time></trkpt><trkpt lat="45.521300833110985" lon="10.148363742361392"><ele>117.0</ele><time>2026-05-02T15:22:28.002Z</time></trkpt><trkpt lat="45.52121720811103" lon="10.148188139903"><ele>117.5</ele><time>2026-05-02T15:22:29.002Z</time></trkpt><trkpt lat="45.52113633567203" lon="10.148017886263725"><ele>118.0</ele><time>2026-05-02T15:22:30.002Z</time></trkpt><trkpt lat="45.52107147402992" lon="10.147832102865069"><ele>118.5</ele><time>2026-05-02T15:22:31.002Z</time></trkpt><trkpt lat="45.520987977513656" lon="10.1476526372313"><ele>119.0</ele><time>2026-05-02T15:22:32.002Z</time></trkpt><trkpt lat="45.520904382401746" lon="10.147472939893873"><ele>118.33333333333333</ele><time>2026-05-02T15:22:33.002Z</time></trkpt><trkpt lat="45.52082067431435" lon="10.147294501870157"><ele>117.66666666666666</ele><time>2026-05-02T15:22:34.002Z</time></trkpt><trkpt lat="45.52073789633449" lon="10.147116585577779"><ele>117.0</ele><time>2026-05-02T15:22:35.002Z</time></trkpt><trkpt lat="45.520641403710464" lon="10.146947260627433"><ele>117.0</ele><time>2026-05-02T15:22:36.002Z</time></trkpt><trkpt lat="45.520553526203244" lon="10.146755440472553"><ele>117.0</ele><time>2026-05-02T15:22:37.002Z</time></trkpt><trkpt lat="45.52046148695863" lon="10.146568648797565"><ele>117.0</ele><time>2026-05-02T15:22:38.002Z</time></trkpt><trkpt lat="45.52037492553532" lon="10.146379622984263"><ele>116.75</ele><time>2026-05-02T15:22:39.002Z</time></trkpt><trkpt lat="45.52028987059911" lon="10.146197023700994"><ele>116.5</ele><time>2026-05-02T15:22:40.002Z</time></trkpt><trkpt lat="45.520211948526224" lon="10.14602371221115"><ele>116.25</ele><time>2026-05-02T15:22:41.002Z</time></trkpt><trkpt lat="45.5201371107215" lon="10.145859339844245"><ele>116.0</ele><time>2026-05-02T15:22:42.002Z</time></trkpt><trkpt lat="45.520062982645484" lon="10.145707175714355"><ele>116.5</ele><time>2026-05-02T15:22:43.002Z</time></trkpt><trkpt lat="45.519992160357965" lon="10.145557583020404"><ele>117.0</ele><time>2026-05-02T15:22:44.002Z</time></trkpt><trkpt lat="45.51992517665895" lon="10.145409249195916"><ele>117.5</ele><time>2026-05-02T15:22:45.002Z</time></trkpt><trkpt lat="45.519853101656615" lon="10.145273750132766"><ele>118.0</ele><time>2026-05-02T15:22:46.002Z</time></trkpt><trkpt lat="45.51977272857645" lon="10.14515343516491"><ele>118.0</ele><time>2026-05-02T15:22:47.002Z</time></trkpt><trkpt lat="45.51968794854813" lon="10.145030635734416"><ele>118.0</ele><time>2026-05-02T15:22:48.002Z</time></trkpt><trkpt lat="45.51962485055852" lon="10.144883010058688"><ele>118.0</ele><time>2026-05-02T15:22:49.002Z</time></trkpt><trkpt lat="45.5195747146468" lon="10.14474233767258"><ele>118.0</ele><time>2026-05-02T15:22:50.002Z</time></trkpt><trkpt lat="45.51951916352916" lon="10.14462532553685"><ele>117.0</ele><time>2026-05-02T15:22:51.002Z</time></trkpt><trkpt lat="45.5194472021354" lon="10.144512896788818"><ele>116.0</ele><time>2026-05-02T15:22:52.002Z</time></trkpt><trkpt lat="45.51939296218279" lon="10.144376430966666"><ele>115.0</ele><time>2026-05-02T15:22:53.002Z</time></trkpt><trkpt lat="45.51933854510481" lon="10.144215996431333"><ele>114.0</ele><time>2026-05-02T15:22:54.002Z</time></trkpt><trkpt lat="45.51927418549489" lon="10.144051276118137"><ele>114.33333333333334</ele><time>2026-05-02T15:22:55.002Z</time></trkpt><trkpt lat="45.51919413580709" lon="10.143874823988584"><ele>114.66666666666667</ele><time>2026-05-02T15:22:56.002Z</time></trkpt><trkpt lat="45.51910582002929" lon="10.143684120837865"><ele>115.0</ele><time>2026-05-02T15:22:57.002Z</time></trkpt><trkpt lat="45.519010144780175" lon="10.14348515800568"><ele>115.0</ele><time>2026-05-02T15:22:58.002Z</time></trkpt><trkpt lat="45.51890500612554" lon="10.143271246935534"><ele>115.0</ele><time>2026-05-02T15:22:59.002Z</time></trkpt><trkpt lat="45.51880219347939" lon="10.14305560337336"><ele>115.0</ele><time>2026-05-02T15:23:00.002Z</time></trkpt><trkpt lat="45.51870079702965" lon="10.14283989653487"><ele>115.0</ele><time>2026-05-02T15:23:01.002Z</time></trkpt><trkpt lat="45.51860950108576" lon="10.142635879923082"><ele>115.0</ele><time>2026-05-02T15:23:02.002Z</time></trkpt><trkpt lat="45.51851978806037" lon="10.142441060740103"><ele>115.0</ele><time>2026-05-02T15:23:03.002Z</time></trkpt><trkpt lat="45.51844883334924" lon="10.14224601054582"><ele>114.33333333333334</ele><time>2026-05-02T15:23:04.002Z</time></trkpt><trkpt lat="45.518364652561274" lon="10.142063837512946"><ele>113.66666666666666</ele><time>2026-05-02T15:23:05.002Z</time></trkpt><trkpt lat="45.518260912569914" lon="10.141892603391653"><ele>113.0</ele><time>2026-05-02T15:23:06.002Z</time></trkpt><trkpt lat="45.51817505073546" lon="10.141716712822163"><ele>113.0</ele><time>2026-05-02T15:23:07.002Z</time></trkpt><trkpt lat="45.51809317775274" lon="10.141546213573577"><ele>113.0</ele><time>2026-05-02T15:23:08.002Z</time></trkpt><trkpt lat="45.51801357330004" lon="10.141372918281174"><ele>113.0</ele><time>2026-05-02T15:23:09.002Z</time></trkpt><trkpt lat="45.51795628138958" lon="10.141192393058281"><ele>113.0</ele><time>2026-05-02T15:23:10.003Z</time></trkpt><trkpt lat="45.517883235650196" lon="10.141037446158087"><ele>113.0</ele><time>2026-05-02T15:23:11.003Z</time></trkpt><trkpt lat="45.517796800304524" lon="10.140895364125159"><ele>113.0</ele><time>2026-05-02T15:23:12.003Z</time></trkpt><trkpt lat="45.51773264711984" lon="10.14074720983182"><ele>113.0</ele><time>2026-05-02T15:23:13.003Z</time></trkpt><trkpt lat="45.51767089649469" lon="10.140613933306788"><ele>113.0</ele><time>2026-05-02T15:23:14.003Z</time></trkpt><trkpt lat="45.51761525535058" lon="10.140493077003832"><ele>113.16666666666666</ele><time>2026-05-02T15:23:15.003Z</time></trkpt><trkpt lat="45.51756479295505" lon="10.140388868356688"><ele>113.33333333333333</ele><time>2026-05-02T15:23:16.003Z</time></trkpt><trkpt lat="45.517517763542116" lon="10.140291435784123"><ele>113.5</ele><time>2026-05-02T15:23:17Z</time></trkpt><trkpt lat="45.51747453512874" lon="10.140196935924267"><ele>113.66666666666666</ele><time>2026-05-02T15:23:18Z</time></trkpt><trkpt lat="45.51743018073223" lon="10.14009744786747"><ele>113.83333333333333</ele><time>2026-05-02T15:23:19Z</time></trkpt><trkpt lat="45.51738469717926" lon="10.13999522949003"><ele>114.0</ele><time>2026-05-02T15:23:20Z</time></trkpt><trkpt lat="45.51733458565429" lon="10.13988867468131"><ele>114.0</ele><time>2026-05-02T15:23:21Z</time></trkpt><trkpt lat="45.517283292561935" lon="10.13977974640561"><ele>114.0</ele><time>2026-05-02T15:23:22Z</time></trkpt><trkpt lat="45.51723008305438" lon="10.139670278677752"><ele>114.0</ele><time>2026-05-02T15:23:23Z</time></trkpt><trkpt lat="45.5171802031426" lon="10.139567993901272"><ele>114.0</ele><time>2026-05-02T15:23:24Z</time></trkpt><trkpt lat="45.517138274383605" lon="10.139482733685925"><ele>114.0</ele><time>2026-05-02T15:23:25Z</time></trkpt><trkpt lat="45.51708478490256" lon="10.139372979976626"><ele>114.0</ele><time>2026-05-02T15:23:27Z</time></trkpt><trkpt lat="45.51704048743858" lon="10.139284421497925"><ele>114.0</ele><time>2026-05-02T15:23:31Z</time></trkpt><trkpt lat="45.51700694356466" lon="10.139177534605388"><ele>114.0</ele><time>2026-05-02T15:23:33Z</time></trkpt><trkpt lat="45.51697010682845" lon="10.139100669002827"><ele>114.0</ele><time>2026-05-02T15:23:34Z</time></trkpt><trkpt lat="45.51692317685945" lon="10.13903381673077"><ele>114.0</ele><time>2026-05-02T15:23:35Z</time></trkpt><trkpt lat="45.51688897598792" lon="10.138958308183131"><ele>114.0</ele><time>2026-05-02T15:23:36Z</time></trkpt><trkpt lat="45.516816370577395" lon="10.138813103507236"><ele>114.0</ele><time>2026-05-02T15:23:38Z</time></trkpt><trkpt lat="45.5167764226342" lon="10.138735559963578"><ele>113.83333333333333</ele><time>2026-05-02T15:23:39Z</time></trkpt><trkpt lat="45.51673680925409" lon="10.138651787467234"><ele>113.66666666666666</ele><time>2026-05-02T15:23:40Z</time></trkpt><trkpt lat="45.516691112754195" lon="10.138559267578042"><ele>113.5</ele><time>2026-05-02T15:23:41.001Z</time></trkpt><trkpt lat="45.51664337143013" lon="10.138459938412094"><ele>113.33333333333333</ele><time>2026-05-02T15:23:42.001Z</time></trkpt><trkpt lat="45.51659986547223" lon="10.13836563996398"><ele>113.16666666666666</ele><time>2026-05-02T15:23:43.001Z</time></trkpt><trkpt lat="45.5165644340393" lon="10.138274725323715"><ele>113.0</ele><time>2026-05-02T15:23:44.001Z</time></trkpt><trkpt lat="45.51654588264221" lon="10.138175630091803"><ele>113.0</ele><time>2026-05-02T15:23:45.001Z</time></trkpt><trkpt lat="45.51653296846785" lon="10.138055379949845"><ele>113.00000000000001</ele><time>2026-05-02T15:23:46.001Z</time></trkpt><trkpt lat="45.51654071257602" lon="10.137916540439447"><ele>113.00000000000001</ele><time>2026-05-02T15:23:47.001Z</time></trkpt><trkpt lat="45.51655070029088" lon="10.13776966229077"><ele>113.0</ele><time>2026-05-02T15:23:48.001Z</time></trkpt><trkpt lat="45.516550616445144" lon="10.137605898692994"><ele>113.0</ele><time>2026-05-02T15:23:49.001Z</time></trkpt><trkpt lat="45.516513603466116" lon="10.13743480846732"><ele>112.75</ele><time>2026-05-02T15:23:50.001Z</time></trkpt><trkpt lat="45.5164571479069" lon="10.137269179037146"><ele>112.5</ele><time>2026-05-02T15:23:51.001Z</time></trkpt><trkpt lat="45.51640835848637" lon="10.137104505629384"><ele>112.25</ele><time>2026-05-02T15:23:52.001Z</time></trkpt><trkpt lat="45.516368247570284" lon="10.136932499739084"><ele>112.0</ele><time>2026-05-02T15:23:53.001Z</time></trkpt><trkpt lat="45.516344988709605" lon="10.136740074647678"><ele>112.33333333333334</ele><time>2026-05-02T15:23:54.001Z</time></trkpt><trkpt lat="45.51634973180869" lon="10.136532976465615"><ele>112.66666666666666</ele><time>2026-05-02T15:23:55.001Z</time></trkpt><trkpt lat="45.5163712326103" lon="10.136297938554646"><ele>113.0</ele><time>2026-05-02T15:23:56.001Z</time></trkpt><trkpt lat="45.516396850334864" lon="10.136046254864553"><ele>113.0</ele><time>2026-05-02T15:23:57.001Z</time></trkpt><trkpt lat="45.516420644461675" lon="10.13578589132291"><ele>113.0</ele><time>2026-05-02T15:23:58.001Z</time></trkpt><trkpt lat="45.51644547324728" lon="10.135513627835023"><ele>113.0</ele><time>2026-05-02T15:23:59.001Z</time></trkpt><trkpt lat="45.516474076283636" lon="10.135230353329552"><ele>113.33333333333333</ele><time>2026-05-02T15:24:00.001Z</time></trkpt><trkpt lat="45.51650201113396" lon="10.134940245317908"><ele>113.66666666666666</ele><time>2026-05-02T15:24:01.001Z</time></trkpt><trkpt lat="45.51653037792212" lon="10.134642177132934"><ele>114.0</ele><time>2026-05-02T15:24:02.001Z</time></trkpt><trkpt lat="45.516559651675735" lon="10.1343536340859"><ele>114.0</ele><time>2026-05-02T15:24:03.001Z</time></trkpt><trkpt lat="45.51658723297761" lon="10.134073019331787"><ele>114.0</ele><time>2026-05-02T15:24:04.001Z</time></trkpt><trkpt lat="45.51661470337687" lon="10.13379471318837"><ele>114.0</ele><time>2026-05-02T15:24:05.001Z</time></trkpt><trkpt lat="45.5166437313472" lon="10.133516971906895"><ele>114.0</ele><time>2026-05-02T15:24:06.001Z</time></trkpt><trkpt lat="45.5166717728103" lon="10.133247759046432"><ele>114.0</ele><time>2026-05-02T15:24:07.001Z</time></trkpt><trkpt lat="45.51669719547063" lon="10.132978324713108"><ele>114.0</ele><time>2026-05-02T15:24:08.001Z</time></trkpt><trkpt lat="45.51672134365782" lon="10.132718902438567"><ele>113.75</ele><time>2026-05-02T15:24:09.001Z</time></trkpt><trkpt lat="45.51673933304386" lon="10.132493511186198"><ele>113.5</ele><time>2026-05-02T15:24:10.001Z</time></trkpt><trkpt lat="45.51675513938429" lon="10.132295132925234"><ele>113.25</ele><time>2026-05-02T15:24:11.001Z</time></trkpt><trkpt lat="45.516773942217434" lon="10.13211724874003"><ele>113.0</ele><time>2026-05-02T15:24:12.001Z</time></trkpt><trkpt lat="45.51680273972732" lon="10.131974006512513"><ele>113.0</ele><time>2026-05-02T15:24:13.001Z</time></trkpt><trkpt lat="45.516847888662056" lon="10.13185120834727"><ele>113.00000000000001</ele><time>2026-05-02T15:24:14.001Z</time></trkpt><trkpt lat="45.51691762427636" lon="10.131745113739525"><ele>113.00000000000001</ele><time>2026-05-02T15:24:15.001Z</time></trkpt><trkpt lat="45.5169687283801" lon="10.131621564498195"><ele>113.0</ele><time>2026-05-02T15:24:16.001Z</time></trkpt><trkpt lat="45.51696759880117" lon="10.131450118707662"><ele>113.0</ele><time>2026-05-02T15:24:17.001Z</time></trkpt><trkpt lat="45.51691679582275" lon="10.131275278570131"><ele>113.0</ele><time>2026-05-02T15:24:18.001Z</time></trkpt><trkpt lat="45.51687670386491" lon="10.13107977156629"><ele>113.0</ele><time>2026-05-02T15:24:19.001Z</time></trkpt><trkpt lat="45.51688866061093" lon="10.13084886713117"><ele>113.0</ele><time>2026-05-02T15:24:20.001Z</time></trkpt><trkpt lat="45.51691915296456" lon="10.130595001352571"><ele>113.0</ele><time>2026-05-02T15:24:21.001Z</time></trkpt><trkpt lat="45.51694795621314" lon="10.130332575532263"><ele>113.0</ele><time>2026-05-02T15:24:22.001Z</time></trkpt><trkpt lat="45.516974023042486" lon="10.130071403680327"><ele>113.0</ele><time>2026-05-02T15:24:23.001Z</time></trkpt><trkpt lat="45.516998986720026" lon="10.129816569883628"><ele>113.0</ele><time>2026-05-02T15:24:24.001Z</time></trkpt><trkpt lat="45.517023406449866" lon="10.129553710061643"><ele>113.0</ele><time>2026-05-02T15:24:25.001Z</time></trkpt><trkpt lat="45.51705651966637" lon="10.129292768009718"><ele>113.0</ele><time>2026-05-02T15:24:26.001Z</time></trkpt><trkpt lat="45.5170812259594" lon="10.129022289299963"><ele>113.0</ele><time>2026-05-02T15:24:27.001Z</time></trkpt><trkpt lat="45.51710790046361" lon="10.128752594519145"><ele>113.0</ele><time>2026-05-02T15:24:28.001Z</time></trkpt><trkpt lat="45.517139889983326" lon="10.128480738908427"><ele>113.0</ele><time>2026-05-02T15:24:29.001Z</time></trkpt><trkpt lat="45.51716827118787" lon="10.128205946008409"><ele>113.33333333333333</ele><time>2026-05-02T15:24:30.001Z</time></trkpt><trkpt lat="45.51719491616413" lon="10.12793256474493"><ele>113.66666666666666</ele><time>2026-05-02T15:24:31.001Z</time></trkpt><trkpt lat="45.51722168345928" lon="10.127662423831456"><ele>114.0</ele><time>2026-05-02T15:24:32.002Z</time></trkpt><trkpt lat="45.51723993088343" lon="10.127402214094449"><ele>114.0</ele><time>2026-05-02T15:24:33.002Z</time></trkpt><trkpt lat="45.51723987337062" lon="10.127153602222748"><ele>114.0</ele><time>2026-05-02T15:24:34.002Z</time></trkpt><trkpt lat="45.517268468382525" lon="10.126920832959954"><ele>114.0</ele><time>2026-05-02T15:24:35.002Z</time></trkpt><trkpt lat="45.517151932650286" lon="10.126672360110732"><ele>113.66666666666666</ele><time>2026-05-02T15:24:36.002Z</time></trkpt><trkpt lat="45.51705725188226" lon="10.126444936237132"><ele>113.33333333333333</ele><time>2026-05-02T15:24:37.002Z</time></trkpt><trkpt lat="45.51694396821785" lon="10.12622009976887"><ele>113.0</ele><time>2026-05-02T15:24:38.002Z</time></trkpt><trkpt lat="45.516827828364136" lon="10.125989654633804"><ele>113.0</ele><time>2026-05-02T15:24:39.002Z</time></trkpt><trkpt lat="45.51671533786322" lon="10.125763968577798"><ele>113.0</ele><time>2026-05-02T15:24:40.002Z</time></trkpt><trkpt lat="45.51660381156311" lon="10.125531163264528"><ele>113.0</ele><time>2026-05-02T15:24:41.002Z</time></trkpt><trkpt lat="45.5164916017178" lon="10.125292371530328"><ele>113.0</ele><time>2026-05-02T15:24:42.002Z</time></trkpt><trkpt lat="45.51638003014402" lon="10.125057904837508"><ele>113.0</ele><time>2026-05-02T15:24:43.002Z</time></trkpt><trkpt lat="45.51626825112805" lon="10.12482526613933"><ele>113.0</ele><time>2026-05-02T15:24:44.002Z</time></trkpt><trkpt lat="45.51615774121815" lon="10.1245892561657"><ele>113.0</ele><time>2026-05-02T15:24:45.002Z</time></trkpt><trkpt lat="45.516046655880686" lon="10.124355123831165"><ele>113.0</ele><time>2026-05-02T15:24:46.002Z</time></trkpt><trkpt lat="45.51593231748235" lon="10.124121977622526"><ele>113.0</ele><time>2026-05-02T15:24:47.002Z</time></trkpt><trkpt lat="45.51581320434998" lon="10.123886413758274"><ele>113.0</ele><time>2026-05-02T15:24:48.002Z</time></trkpt><trkpt lat="45.51570068444974" lon="10.123652572411425"><ele>113.0</ele><time>2026-05-02T15:24:49.002Z</time></trkpt><trkpt lat="45.51559647874499" lon="10.123442215920608"><ele>113.0</ele><time>2026-05-02T15:24:50.002Z</time></trkpt><trkpt lat="45.515498117412804" lon="10.123247959341303"><ele>113.25</ele><time>2026-05-02T15:24:51.002Z</time></trkpt><trkpt lat="45.51541204142297" lon="10.12307027017791"><ele>113.5</ele><time>2026-05-02T15:24:52.002Z</time></trkpt><trkpt lat="45.51533408095378" lon="10.122901466952047"><ele>113.75</ele><time>2026-05-02T15:24:53.002Z</time></trkpt><trkpt lat="45.515258941893705" lon="10.122740435362113"><ele>114.0</ele><time>2026-05-02T15:24:54.002Z</time></trkpt><trkpt lat="45.51518662810747" lon="10.122587219049686"><ele>113.5</ele><time>2026-05-02T15:24:55.002Z</time></trkpt><trkpt lat="45.515117330380484" lon="10.122447042664746"><ele>113.0</ele><time>2026-05-02T15:24:56.002Z</time></trkpt><trkpt lat="45.51504976727215" lon="10.122308018243292"><ele>112.5</ele><time>2026-05-02T15:24:57.002Z</time></trkpt><trkpt lat="45.514988016176154" lon="10.122178649379695"><ele>112.0</ele><time>2026-05-02T15:24:58.002Z</time></trkpt><trkpt lat="45.51492475171541" lon="10.122045160892137"><ele>112.0</ele><time>2026-05-02T15:24:59.002Z</time></trkpt><trkpt lat="45.51485693674393" lon="10.121902322385168"><ele>112.0</ele><time>2026-05-02T15:25:00.002Z</time></trkpt><trkpt lat="45.514782434495174" lon="10.121746694551899"><ele>112.0</ele><time>2026-05-02T15:25:01.002Z</time></trkpt><trkpt lat="45.51470261634575" lon="10.121584829468047"><ele>112.0</ele><time>2026-05-02T15:25:02.002Z</time></trkpt><trkpt lat="45.51462635588684" lon="10.12142656624728"><ele>111.8</ele><time>2026-05-02T15:25:03.002Z</time></trkpt><trkpt lat="45.51456049266037" lon="10.121287417803284"><ele>111.6</ele><time>2026-05-02T15:25:04.002Z</time></trkpt><trkpt lat="45.514499584967595" lon="10.121142347464987"><ele>111.39999999999999</ele><time>2026-05-02T15:25:05.002Z</time></trkpt><trkpt lat="45.51444539909375" lon="10.121013525024898"><ele>111.19999999999999</ele><time>2026-05-02T15:25:06.002Z</time></trkpt><trkpt lat="45.51439427302903" lon="10.120890644244708"><ele>111.0</ele><time>2026-05-02T15:25:07.002Z</time></trkpt><trkpt lat="45.51435063308938" lon="10.1207680309305"><ele>110.83333333333333</ele><time>2026-05-02T15:25:08.002Z</time></trkpt><trkpt lat="45.514317812023776" lon="10.12064713209029"><ele>110.66666666666666</ele><time>2026-05-02T15:25:09.002Z</time></trkpt><trkpt lat="45.51429530921217" lon="10.120523026330192"><ele>110.5</ele><time>2026-05-02T15:25:10.002Z</time></trkpt><trkpt lat="45.514293935037415" lon="10.120401123786543"><ele>110.33333333333333</ele><time>2026-05-02T15:25:11.002Z</time></trkpt><trkpt lat="45.514323178981435" lon="10.120290677170242"><ele>110.16666666666666</ele><time>2026-05-02T15:25:13.002Z</time></trkpt><trkpt lat="45.514392537608096" lon="10.120195408822767"><ele>110.0</ele><time>2026-05-02T15:25:16.002Z</time></trkpt><trkpt lat="45.51444324649707" lon="10.120131760515045"><ele>110.0</ele><time>2026-05-02T15:25:17.002Z</time></trkpt><trkpt lat="45.51449589714795" lon="10.120040071367248"><ele>110.0</ele><time>2026-05-02T15:25:18.002Z</time></trkpt><trkpt lat="45.514517018851286" lon="10.119916354481445"><ele>110.0</ele><time>2026-05-02T15:25:19.003Z</time></trkpt><trkpt lat="45.514501871562786" lon="10.119793335292957"><ele>110.0</ele><time>2026-05-02T15:25:20.003Z</time></trkpt><trkpt lat="45.51443900619444" lon="10.119663492006737"><ele>110.0</ele><time>2026-05-02T15:25:21.003Z</time></trkpt><trkpt lat="45.51436177024932" lon="10.119532739513136"><ele>110.0</ele><time>2026-05-02T15:25:22.003Z</time></trkpt><trkpt lat="45.514286320038295" lon="10.119377489336074"><ele>110.0</ele><time>2026-05-02T15:25:23.001Z</time></trkpt><trkpt lat="45.514222249424265" lon="10.119210813018645"><ele>110.0</ele><time>2026-05-02T15:25:24.001Z</time></trkpt><trkpt lat="45.51417124210942" lon="10.119041613731632"><ele>110.0</ele><time>2026-05-02T15:25:25.001Z</time></trkpt><trkpt lat="45.5141247249932" lon="10.118871086204676"><ele>110.0</ele><time>2026-05-02T15:25:26.001Z</time></trkpt><trkpt lat="45.51408054360573" lon="10.118700843623397"><ele>110.0</ele><time>2026-05-02T15:25:27.001Z</time></trkpt><trkpt lat="45.514050240399335" lon="10.118529837688568"><ele>110.0</ele><time>2026-05-02T15:25:28.001Z</time></trkpt><trkpt lat="45.5140382698743" lon="10.118357887031705"><ele>110.0</ele><time>2026-05-02T15:25:29.001Z</time></trkpt><trkpt lat="45.51403443133845" lon="10.118172427769315"><ele>110.0</ele><time>2026-05-02T15:25:30.001Z</time></trkpt><trkpt lat="45.51403930651117" lon="10.117981837784061"><ele>110.0</ele><time>2026-05-02T15:25:31.001Z</time></trkpt><trkpt lat="45.514040583572026" lon="10.117785970586374"><ele>110.0</ele><time>2026-05-02T15:25:32.001Z</time></trkpt><trkpt lat="45.51404398432746" lon="10.117584900074649"><ele>110.0</ele><time>2026-05-02T15:25:33.001Z</time></trkpt><trkpt lat="45.51405450986332" lon="10.11738088779779"><ele>110.33333333333333</ele><time>2026-05-02T15:25:34.001Z</time></trkpt><trkpt lat="45.514072023360306" lon="10.117165935039052"><ele>110.66666666666666</ele><time>2026-05-02T15:25:35.001Z</time></trkpt><trkpt lat="45.51409449260026" lon="10.11694876304336"><ele>111.0</ele><time>2026-05-02T15:25:36.001Z</time></trkpt><trkpt lat="45.51412374893631" lon="10.11672442412465"><ele>111.0</ele><time>2026-05-02T15:25:37.001Z</time></trkpt><trkpt lat="45.514156990365365" lon="10.116503977741084"><ele>111.0</ele><time>2026-05-02T15:25:38.001Z</time></trkpt><trkpt lat="45.51419526327678" lon="10.116287942230379"><ele>111.0</ele><time>2026-05-02T15:25:39.001Z</time></trkpt><trkpt lat="45.514236139834054" lon="10.116078205807753"><ele>111.0</ele><time>2026-05-02T15:25:40.001Z</time></trkpt><trkpt lat="45.51428693400263" lon="10.11587213648597"><ele>111.0</ele><time>2026-05-02T15:25:41.001Z</time></trkpt><trkpt lat="45.51434227082214" lon="10.11566406889464"><ele>111.0</ele><time>2026-05-02T15:25:42.001Z</time></trkpt><trkpt lat="45.5144034137176" lon="10.11544824724425"><ele>111.33333333333334</ele><time>2026-05-02T15:25:43.001Z</time></trkpt><trkpt lat="45.514465290956906" lon="10.115235121662154"><ele>111.66666666666667</ele><time>2026-05-02T15:25:44.001Z</time></trkpt><trkpt lat="45.51453616514658" lon="10.115020741257444"><ele>112.0</ele><time>2026-05-02T15:25:45.001Z</time></trkpt><trkpt lat="45.51461560566759" lon="10.114804866171088"><ele>112.33333333333334</ele><time>2026-05-02T15:25:46.001Z</time></trkpt><trkpt lat="45.51470036734658" lon="10.114581635317741"><ele>112.66666666666666</ele><time>2026-05-02T15:25:47.001Z</time></trkpt><trkpt lat="45.51478792885254" lon="10.114354759737338"><ele>113.0</ele><time>2026-05-02T15:25:48.001Z</time></trkpt><trkpt lat="45.51487648966385" lon="10.114122483425588"><ele>112.66666666666666</ele><time>2026-05-02T15:25:49.001Z</time></trkpt><trkpt lat="45.514968667015864" lon="10.113886523587931"><ele>112.33333333333334</ele><time>2026-05-02T15:25:50.001Z</time></trkpt><trkpt lat="45.51505678045481" lon="10.113649861753107"><ele>112.0</ele><time>2026-05-02T15:25:51.001Z</time></trkpt><trkpt lat="45.515150098791544" lon="10.113408590181118"><ele>112.33333333333334</ele><time>2026-05-02T15:25:52.001Z</time></trkpt><trkpt lat="45.51524340450291" lon="10.113177636313694"><ele>112.66666666666666</ele><time>2026-05-02T15:25:53.001Z</time></trkpt><trkpt lat="45.515331707829645" lon="10.112957438067856"><ele>113.0</ele><time>2026-05-02T15:25:54.001Z</time></trkpt><trkpt lat="45.51541467825424" lon="10.112721953410436"><ele>113.33333333333333</ele><time>2026-05-02T15:25:55.001Z</time></trkpt><trkpt lat="45.515503320495775" lon="10.112471906570033"><ele>113.66666666666666</ele><time>2026-05-02T15:25:56.001Z</time></trkpt><trkpt lat="45.51560484974954" lon="10.112209456033755"><ele>114.0</ele><time>2026-05-02T15:25:57.001Z</time></trkpt><trkpt lat="45.515720889029" lon="10.111937884896097"><ele>114.0</ele><time>2026-05-02T15:25:58.001Z</time></trkpt><trkpt lat="45.51583514497591" lon="10.111664685995738"><ele>114.0</ele><time>2026-05-02T15:25:59.001Z</time></trkpt><trkpt lat="45.51594576131393" lon="10.11138258680923"><ele>114.0</ele><time>2026-05-02T15:26:00.001Z</time></trkpt><trkpt lat="45.51605203740447" lon="10.1110998429283"><ele>114.0</ele><time>2026-05-02T15:26:01.001Z</time></trkpt><trkpt lat="45.516152250684065" lon="10.110832312702845"><ele>114.0</ele><time>2026-05-02T15:26:02.001Z</time></trkpt><trkpt lat="45.516245481075075" lon="10.110579351868415"><ele>114.0</ele><time>2026-05-02T15:26:03.001Z</time></trkpt><trkpt lat="45.5163343108664" lon="10.110341866702829"><ele>114.0</ele><time>2026-05-02T15:26:04.001Z</time></trkpt><trkpt lat="45.516418528910265" lon="10.110122882308351"><ele>114.0</ele><time>2026-05-02T15:26:05.001Z</time></trkpt><trkpt lat="45.51649835063109" lon="10.10991601844311"><ele>114.0</ele><time>2026-05-02T15:26:06.001Z</time></trkpt><trkpt lat="45.51657185844819" lon="10.10971919382765"><ele>114.0</ele><time>2026-05-02T15:26:07.001Z</time></trkpt><trkpt lat="45.516638259136435" lon="10.109534269672778"><ele>114.0</ele><time>2026-05-02T15:26:08.001Z</time></trkpt><trkpt lat="45.51669135971096" lon="10.109355930858666"><ele>114.0</ele><time>2026-05-02T15:26:09.001Z</time></trkpt><trkpt lat="45.51673569587241" lon="10.109188850763244"><ele>114.0</ele><time>2026-05-02T15:26:10.001Z</time></trkpt><trkpt lat="45.51677039410344" lon="10.109050252152318"><ele>114.0</ele><time>2026-05-02T15:26:11.001Z</time></trkpt><trkpt lat="45.516809500260706" lon="10.108939734046198"><ele>114.0</ele><time>2026-05-02T15:26:12.001Z</time></trkpt><trkpt lat="45.51685571257262" lon="10.108858098734094"><ele>114.0</ele><time>2026-05-02T15:26:13.001Z</time></trkpt><trkpt lat="45.51691697665518" lon="10.108779391772973"><ele>114.0</ele><time>2026-05-02T15:26:14.001Z</time></trkpt><trkpt lat="45.516996462173886" lon="10.10870853577604"><ele>114.0</ele><time>2026-05-02T15:26:15.001Z</time></trkpt><trkpt lat="45.51706343676305" lon="10.108607517133251"><ele>114.0</ele><time>2026-05-02T15:26:16.001Z</time></trkpt><trkpt lat="45.517085336063964" lon="10.108470131887952"><ele>114.0</ele><time>2026-05-02T15:26:17.001Z</time></trkpt><trkpt lat="45.517052105323025" lon="10.108333507336182"><ele>114.0</ele><time>2026-05-02T15:26:18.001Z</time></trkpt><trkpt lat="45.51698871166073" lon="10.108218651748853"><ele>114.0</ele><time>2026-05-02T15:26:19.001Z</time></trkpt><trkpt lat="45.51689173520491" lon="10.108145627571629"><ele>114.0</ele><time>2026-05-02T15:26:20.001Z</time></trkpt><trkpt lat="45.51676779643549" lon="10.108105807747183"><ele>114.0</ele><time>2026-05-02T15:26:21.001Z</time></trkpt><trkpt lat="45.51667054826847" lon="10.107970188091706"><ele>114.0</ele><time>2026-05-02T15:26:22.001Z</time></trkpt><trkpt lat="45.516582026183166" lon="10.10778627301718"><ele>114.0</ele><time>2026-05-02T15:26:23.001Z</time></trkpt><trkpt lat="45.51649631153441" lon="10.107557211490523"><ele>114.0</ele><time>2026-05-02T15:26:24.001Z</time></trkpt><trkpt lat="45.516407691542554" lon="10.107324565686323"><ele>114.0</ele><time>2026-05-02T15:26:25.001Z</time></trkpt><trkpt lat="45.51630815443908" lon="10.107100565853854"><ele>114.0</ele><time>2026-05-02T15:26:26.001Z</time></trkpt><trkpt lat="45.516201807676" lon="10.106883368748528"><ele>114.0</ele><time>2026-05-02T15:26:27.001Z</time></trkpt><trkpt lat="45.51609030987333" lon="10.106661577306356"><ele>114.0</ele><time>2026-05-02T15:26:28.001Z</time></trkpt><trkpt lat="45.51597948478738" lon="10.106445557903404"><ele>114.0</ele><time>2026-05-02T15:26:29.001Z</time></trkpt><trkpt lat="45.51586830458482" lon="10.106224934704642"><ele>114.0</ele><time>2026-05-02T15:26:30.001Z</time></trkpt><trkpt lat="45.515749592406124" lon="10.105998613775437"><ele>114.0</ele><time>2026-05-02T15:26:31.001Z</time></trkpt><trkpt lat="45.51563146119548" lon="10.105771617323928"><ele>114.0</ele><time>2026-05-02T15:26:32.002Z</time></trkpt><trkpt lat="45.51551011855674" lon="10.105539944061153"><ele>114.0</ele><time>2026-05-02T15:26:33.002Z</time></trkpt><trkpt lat="45.51539404869663" lon="10.105305828701056"><ele>114.0</ele><time>2026-05-02T15:26:34.002Z</time></trkpt><trkpt lat="45.515270469697604" lon="10.105064062343747"><ele>114.0</ele><time>2026-05-02T15:26:35.002Z</time></trkpt><trkpt lat="45.51514452333114" lon="10.104820121668503"><ele>114.0</ele><time>2026-05-02T15:26:36.002Z</time></trkpt><trkpt lat="45.515015307208394" lon="10.104570041585344"><ele>114.0</ele><time>2026-05-02T15:26:37.002Z</time></trkpt><trkpt lat="45.514879679980524" lon="10.104313100671225"><ele>114.0</ele><time>2026-05-02T15:26:38.002Z</time></trkpt><trkpt lat="45.51474427896136" lon="10.1040539045075"><ele>114.0</ele><time>2026-05-02T15:26:39.002Z</time></trkpt><trkpt lat="45.514607406040504" lon="10.10378842825418"><ele>114.0</ele><time>2026-05-02T15:26:40.002Z</time></trkpt><trkpt lat="45.51447285032894" lon="10.103518333223962"><ele>113.5</ele><time>2026-05-02T15:26:41.002Z</time></trkpt><trkpt lat="45.514331253285704" lon="10.103250944445625"><ele>113.0</ele><time>2026-05-02T15:26:42.002Z</time></trkpt><trkpt lat="45.51419574077466" lon="10.102989331002851"><ele>112.66666666666666</ele><time>2026-05-02T15:26:43.002Z</time></trkpt><trkpt lat="45.51406735172898" lon="10.10274355020875"><ele>112.33333333333334</ele><time>2026-05-02T15:26:44.002Z</time></trkpt><trkpt lat="45.51394509283289" lon="10.102505267131436"><ele>112.0</ele><time>2026-05-02T15:26:45.002Z</time></trkpt><trkpt lat="45.513827225814175" lon="10.102275494980242"><ele>113.0</ele><time>2026-05-02T15:26:46.002Z</time></trkpt><trkpt lat="45.513706325067986" lon="10.102046177388068"><ele>114.0</ele><time>2026-05-02T15:26:47.002Z</time></trkpt><trkpt lat="45.51357793511773" lon="10.101816435367073"><ele>115.0</ele><time>2026-05-02T15:26:48.002Z</time></trkpt><trkpt lat="45.51344499097888" lon="10.101591360506715"><ele>115.0</ele><time>2026-05-02T15:26:49.002Z</time></trkpt><trkpt lat="45.513304483297354" lon="10.10136900151963"><ele>115.0</ele><time>2026-05-02T15:26:50.002Z</time></trkpt><trkpt lat="45.513167680836524" lon="10.101165761508316"><ele>115.0</ele><time>2026-05-02T15:26:51.002Z</time></trkpt><trkpt lat="45.51303876502183" lon="10.100971184094346"><ele>115.0</ele><time>2026-05-02T15:26:52.002Z</time></trkpt><trkpt lat="45.5129120374821" lon="10.10077605773036"><ele>115.0</ele><time>2026-05-02T15:26:53.002Z</time></trkpt><trkpt lat="45.51280001412126" lon="10.100586393866605"><ele>115.0</ele><time>2026-05-02T15:26:54.002Z</time></trkpt><trkpt lat="45.51268848103792" lon="10.100400910394503"><ele>114.0</ele><time>2026-05-02T15:26:55.002Z</time></trkpt><trkpt lat="45.51257437714298" lon="10.100217898909028"><ele>113.0</ele><time>2026-05-02T15:26:56.002Z</time></trkpt><trkpt lat="45.512457906076634" lon="10.100034822920726"><ele>112.0</ele><time>2026-05-02T15:26:57.002Z</time></trkpt><trkpt lat="45.5123466884941" lon="10.099870204517435"><ele>112.0</ele><time>2026-05-02T15:26:58.002Z</time></trkpt><trkpt lat="45.5122376603352" lon="10.099710981744364"><ele>112.0</ele><time>2026-05-02T15:26:59.002Z</time></trkpt><trkpt lat="45.512129714131945" lon="10.099547628566278"><ele>112.0</ele><time>2026-05-02T15:27:00.002Z</time></trkpt><trkpt lat="45.51203552206733" lon="10.099392833076092"><ele>111.5</ele><time>2026-05-02T15:27:01.002Z</time></trkpt><trkpt lat="45.511934964725874" lon="10.099245356052489"><ele>111.0</ele><time>2026-05-02T15:27:02.002Z</time></trkpt><trkpt lat="45.511841748607374" lon="10.099103463779432"><ele>110.5</ele><time>2026-05-02T15:27:03.002Z</time></trkpt><trkpt lat="45.511745664711775" lon="10.098958354849236"><ele>110.0</ele><time>2026-05-02T15:27:04.002Z</time></trkpt><trkpt lat="45.511643740574726" lon="10.098807680031056"><ele>110.0</ele><time>2026-05-02T15:27:05.002Z</time></trkpt><trkpt lat="45.51154440129733" lon="10.098666767214064"><ele>110.0</ele><time>2026-05-02T15:27:06.002Z</time></trkpt><trkpt lat="45.51145638499249" lon="10.098528886595709"><ele>110.0</ele><time>2026-05-02T15:27:07.002Z</time></trkpt><trkpt lat="45.511375135444965" lon="10.098393313514102"><ele>110.0</ele><time>2026-05-02T15:27:08.002Z</time></trkpt><trkpt lat="45.511298077929375" lon="10.09826780509297"><ele>110.6</ele><time>2026-05-02T15:27:09.002Z</time></trkpt><trkpt lat="45.51120933026807" lon="10.098169995451222"><ele>111.2</ele><time>2026-05-02T15:27:10.002Z</time></trkpt><trkpt lat="45.51112004408871" lon="10.098086761489784"><ele>111.80000000000001</ele><time>2026-05-02T15:27:11.002Z</time></trkpt><trkpt lat="45.51104375543934" lon="10.098010284593887"><ele>112.4</ele><time>2026-05-02T15:27:12.002Z</time></trkpt><trkpt lat="45.510969732261565" lon="10.097936377411369"><ele>113.0</ele><time>2026-05-02T15:27:13.002Z</time></trkpt><trkpt lat="45.510913232952994" lon="10.097830918316415"><ele>113.0</ele><time>2026-05-02T15:27:14.002Z</time></trkpt><trkpt lat="45.51085806809999" lon="10.097718939956025"><ele>113.00000000000001</ele><time>2026-05-02T15:27:15.002Z</time></trkpt><trkpt lat="45.5108333573032" lon="10.097577198966679"><ele>113.00000000000001</ele><time>2026-05-02T15:27:16.002Z</time></trkpt><trkpt lat="45.51074349897411" lon="10.097504907815742"><ele>113.0</ele><time>2026-05-02T15:27:17.002Z</time></trkpt><trkpt lat="45.51062436392057" lon="10.09747714517032"><ele>113.0</ele><time>2026-05-02T15:27:18.002Z</time></trkpt><trkpt lat="45.510489005428525" lon="10.09747415101601"><ele>112.66666666666666</ele><time>2026-05-02T15:27:19.002Z</time></trkpt><trkpt lat="45.51034956522671" lon="10.097411411264776"><ele>112.33333333333334</ele><time>2026-05-02T15:27:20.002Z</time></trkpt><trkpt lat="45.51020500161426" lon="10.097270709592584"><ele>112.0</ele><time>2026-05-02T15:27:21.002Z</time></trkpt><trkpt lat="45.51004701936644" lon="10.097114948029907"><ele>112.0</ele><time>2026-05-02T15:27:22.002Z</time></trkpt><trkpt lat="45.50986543277589" lon="10.096988500800384"><ele>112.0</ele><time>2026-05-02T15:27:23.002Z</time></trkpt><trkpt lat="45.509664886716" lon="10.096894898135456"><ele>112.0</ele><time>2026-05-02T15:27:24.002Z</time></trkpt><trkpt lat="45.509474863569885" lon="10.096787826450498"><ele>112.0</ele><time>2026-05-02T15:27:25.002Z</time></trkpt><trkpt lat="45.50928410896826" lon="10.096683143450086"><ele>112.0</ele><time>2026-05-02T15:27:26.003Z</time></trkpt><trkpt lat="45.50908884498025" lon="10.096581393255425"><ele>112.0</ele><time>2026-05-02T15:27:27.003Z</time></trkpt><trkpt lat="45.50889237331743" lon="10.096477953838512"><ele>111.33333333333334</ele><time>2026-05-02T15:27:28.003Z</time></trkpt><trkpt lat="45.50869644689979" lon="10.096370523032768"><ele>110.66666666666666</ele><time>2026-05-02T15:27:29.001Z</time></trkpt><trkpt lat="45.50850015774413" lon="10.096261664129115"><ele>110.0</ele><time>2026-05-02T15:27:30.001Z</time></trkpt><trkpt lat="45.508304627529284" lon="10.096149662833675"><ele>110.0</ele><time>2026-05-02T15:27:31.001Z</time></trkpt><trkpt lat="45.508109534945255" lon="10.096038907248891"><ele>110.0</ele><time>2026-05-02T15:27:32.001Z</time></trkpt><trkpt lat="45.507913461104195" lon="10.095930102916236"><ele>110.0</ele><time>2026-05-02T15:27:33.001Z</time></trkpt><trkpt lat="45.50771766567414" lon="10.095821852879931"><ele>110.0</ele><time>2026-05-02T15:27:34.001Z</time></trkpt><trkpt lat="45.50752593701721" lon="10.095708470574687"><ele>110.0</ele><time>2026-05-02T15:27:35.001Z</time></trkpt><trkpt lat="45.507329606884426" lon="10.095595352639426"><ele>110.0</ele><time>2026-05-02T15:27:36.001Z</time></trkpt><trkpt lat="45.50713361536289" lon="10.095478464321085"><ele>110.33333333333333</ele><time>2026-05-02T15:27:37.001Z</time></trkpt><trkpt lat="45.50693802007115" lon="10.095361276157007"><ele>110.66666666666666</ele><time>2026-05-02T15:27:38.001Z</time></trkpt><trkpt lat="45.50674308541861" lon="10.09522510498931"><ele>111.0</ele><time>2026-05-02T15:27:39.001Z</time></trkpt><trkpt lat="45.50657540742138" lon="10.095035464637002"><ele>111.0</ele><time>2026-05-02T15:27:40.001Z</time></trkpt><trkpt lat="45.50641560083852" lon="10.09482624890271"><ele>111.0</ele><time>2026-05-02T15:27:41.001Z</time></trkpt><trkpt lat="45.50628003875906" lon="10.094585688069568"><ele>111.0</ele><time>2026-05-02T15:27:42.001Z</time></trkpt><trkpt lat="45.506156005900785" lon="10.09432807960771"><ele>111.0</ele><time>2026-05-02T15:27:43.001Z</time></trkpt><trkpt lat="45.506068480609976" lon="10.094044764333868"><ele>111.0</ele><time>2026-05-02T15:27:44.001Z</time></trkpt><trkpt lat="45.506006402860976" lon="10.09374822592323"><ele>111.0</ele><time>2026-05-02T15:27:45.001Z</time></trkpt><trkpt lat="45.50595618889731" lon="10.093468052972455"><ele>111.0</ele><time>2026-05-02T15:27:46.001Z</time></trkpt><trkpt lat="45.50589780745029" lon="10.093204229997903"><ele>111.0</ele><time>2026-05-02T15:27:47.001Z</time></trkpt><trkpt lat="45.505817088559176" lon="10.092948340499657"><ele>111.0</ele><time>2026-05-02T15:27:48.001Z</time></trkpt><trkpt lat="45.50570996231452" lon="10.092704908969248"><ele>111.0</ele><time>2026-05-02T15:27:49.001Z</time></trkpt><trkpt lat="45.50557862522619" lon="10.092487361048617"><ele>111.0</ele><time>2026-05-02T15:27:50.001Z</time></trkpt><trkpt lat="45.505432766481924" lon="10.092298490086145"><ele>111.0</ele><time>2026-05-02T15:27:51.001Z</time></trkpt><trkpt lat="45.50527532968226" lon="10.092136904426146"><ele>111.0</ele><time>2026-05-02T15:27:52.001Z</time></trkpt><trkpt lat="45.50510495566873" lon="10.092001398220606"><ele>111.0</ele><time>2026-05-02T15:27:53.001Z</time></trkpt><trkpt lat="45.50492305109201" lon="10.091872157325811"><ele>111.0</ele><time>2026-05-02T15:27:54.001Z</time></trkpt><trkpt lat="45.50474125974298" lon="10.09174414876602"><ele>111.0</ele><time>2026-05-02T15:27:55.001Z</time></trkpt><trkpt lat="45.50455709341286" lon="10.091619087127928"><ele>111.0</ele><time>2026-05-02T15:27:56.001Z</time></trkpt><trkpt lat="45.50437211680917" lon="10.091489536135143"><ele>111.0</ele><time>2026-05-02T15:27:57.001Z</time></trkpt><trkpt lat="45.50418986691209" lon="10.091357246189638"><ele>111.0</ele><time>2026-05-02T15:27:58.001Z</time></trkpt><trkpt lat="45.50400200268649" lon="10.091222057128526"><ele>111.0</ele><time>2026-05-02T15:27:59.001Z</time></trkpt><trkpt lat="45.50381906154651" lon="10.09109111651747"><ele>111.0</ele><time>2026-05-02T15:28:00.001Z</time></trkpt><trkpt lat="45.50364398771848" lon="10.090966676191142"><ele>111.0</ele><time>2026-05-02T15:28:01.001Z</time></trkpt><trkpt lat="45.50347596707529" lon="10.090843084619042"><ele>111.0</ele><time>2026-05-02T15:28:02.001Z</time></trkpt><trkpt lat="45.50331147212602" lon="10.090724302342462"><ele>111.0</ele><time>2026-05-02T15:28:03.001Z</time></trkpt><trkpt lat="45.503143360663145" lon="10.090605355459727"><ele>111.0</ele><time>2026-05-02T15:28:04.001Z</time></trkpt><trkpt lat="45.50297423799869" lon="10.090488145318554"><ele>111.0</ele><time>2026-05-02T15:28:05.001Z</time></trkpt><trkpt lat="45.50280695335885" lon="10.090367752778922"><ele>111.0</ele><time>2026-05-02T15:28:06.001Z</time></trkpt><trkpt lat="45.502639604555334" lon="10.09024650455624"><ele>110.66666666666666</ele><time>2026-05-02T15:28:07.001Z</time></trkpt><trkpt lat="45.502477202387816" lon="10.09013194911571"><ele>110.33333333333333</ele><time>2026-05-02T15:28:08.001Z</time></trkpt><trkpt lat="45.50231869672757" lon="10.090035855689672"><ele>110.0</ele><time>2026-05-02T15:28:09.001Z</time></trkpt><trkpt lat="45.50216477669555" lon="10.089959967298443"><ele>110.33333333333333</ele><time>2026-05-02T15:28:10.001Z</time></trkpt><trkpt lat="45.502009899608545" lon="10.089898408327334"><ele>110.66666666666666</ele><time>2026-05-02T15:28:11.001Z</time></trkpt><trkpt lat="45.50184949239436" lon="10.089858511934413"><ele>111.0</ele><time>2026-05-02T15:28:12.001Z</time></trkpt><trkpt lat="45.50168630144345" lon="10.089835494908897"><ele>111.0</ele><time>2026-05-02T15:28:13.001Z</time></trkpt><trkpt lat="45.501531453699535" lon="10.089821687499754"><ele>111.0</ele><time>2026-05-02T15:28:14.001Z</time></trkpt><trkpt lat="45.50138114337024" lon="10.089833498178214"><ele>111.0</ele><time>2026-05-02T15:28:15.001Z</time></trkpt><trkpt lat="45.50123839451173" lon="10.089841371461429"><ele>111.0</ele><time>2026-05-02T15:28:16.001Z</time></trkpt><trkpt lat="45.501098561644504" lon="10.089844147913121"><ele>111.25</ele><time>2026-05-02T15:28:17.001Z</time></trkpt><trkpt lat="45.500968860216915" lon="10.089842943073375"><ele>111.5</ele><time>2026-05-02T15:28:18.001Z</time></trkpt><trkpt lat="45.50084130161519" lon="10.089852904240272"><ele>111.75</ele><time>2026-05-02T15:28:19.001Z</time></trkpt><trkpt lat="45.50073552614761" lon="10.089862798365791"><ele>112.0</ele><time>2026-05-02T15:28:20.001Z</time></trkpt><trkpt lat="45.50064765878472" lon="10.089857975332958"><ele>112.00000000000001</ele><time>2026-05-02T15:28:21.001Z</time></trkpt><trkpt lat="45.50056686520679" lon="10.089822232756784"><ele>112.0</ele><time>2026-05-02T15:28:22.001Z</time></trkpt><trkpt lat="45.50049624400325" lon="10.089754651886793"><ele>112.0</ele><time>2026-05-02T15:28:23.001Z</time></trkpt><trkpt lat="45.500430117204914" lon="10.089676851502942"><ele>112.0</ele><time>2026-05-02T15:28:24.001Z</time></trkpt><trkpt lat="45.50036121941685" lon="10.089621718946958"><ele>112.00000000000001</ele><time>2026-05-02T15:28:25.001Z</time></trkpt><trkpt lat="45.500272551006695" lon="10.089569794901106"><ele>112.0</ele><time>2026-05-02T15:28:26.001Z</time></trkpt><trkpt lat="45.50017280092293" lon="10.089523351880942"><ele>111.75</ele><time>2026-05-02T15:28:27.001Z</time></trkpt><trkpt lat="45.50006756922542" lon="10.089451548821561"><ele>111.5</ele><time>2026-05-02T15:28:28.001Z</time></trkpt><trkpt lat="45.499969133523415" lon="10.089341111410528"><ele>111.25</ele><time>2026-05-02T15:28:29.001Z</time></trkpt><trkpt lat="45.499873470315755" lon="10.08920982961556"><ele>111.0</ele><time>2026-05-02T15:28:30.001Z</time></trkpt><trkpt lat="45.49977842601649" lon="10.089061296558027"><ele>111.25</ele><time>2026-05-02T15:28:31.001Z</time></trkpt><trkpt lat="45.499685392128754" lon="10.088900474456892"><ele>111.5</ele><time>2026-05-02T15:28:32.001Z</time></trkpt><trkpt lat="45.49959507793964" lon="10.088732650823593"><ele>111.75</ele><time>2026-05-02T15:28:33.001Z</time></trkpt><trkpt lat="45.49951330193627" lon="10.088570884512666"><ele>112.0</ele><time>2026-05-02T15:28:34.001Z</time></trkpt><trkpt lat="45.499436169853155" lon="10.088415308703809"><ele>112.0</ele><time>2026-05-02T15:28:35.001Z</time></trkpt><trkpt lat="45.49935982302429" lon="10.088242925459422"><ele>112.0</ele><time>2026-05-02T15:28:36.001Z</time></trkpt><trkpt lat="45.49928387139558" lon="10.088058944727665"><ele>112.0</ele><time>2026-05-02T15:28:37.001Z</time></trkpt><trkpt lat="45.49920014080762" lon="10.087871695303837"><ele>112.0</ele><time>2026-05-02T15:28:38.001Z</time></trkpt><trkpt lat="45.499108996169596" lon="10.087678175183237"><ele>112.0</ele><time>2026-05-02T15:28:39.001Z</time></trkpt><trkpt lat="45.499016092313646" lon="10.087478699284034"><ele>112.0</ele><time>2026-05-02T15:28:40.001Z</time></trkpt><trkpt lat="45.49891755041792" lon="10.087268740826309"><ele>112.0</ele><time>2026-05-02T15:28:41.001Z</time></trkpt><trkpt lat="45.49882235225774" lon="10.087068036183"><ele>111.0</ele><time>2026-05-02T15:28:42.001Z</time></trkpt><trkpt lat="45.49873412564549" lon="10.086878980518005"><ele>110.0</ele><time>2026-05-02T15:28:43.001Z</time></trkpt><trkpt lat="45.49864659793724" lon="10.086693822293697"><ele>109.0</ele><time>2026-05-02T15:28:44.001Z</time></trkpt><trkpt lat="45.49856583830367" lon="10.086509126021644"><ele>108.66666666666667</ele><time>2026-05-02T15:28:45.001Z</time></trkpt><trkpt lat="45.49847593051214" lon="10.08630893538766"><ele>108.33333333333334</ele><time>2026-05-02T15:28:46.001Z</time></trkpt><trkpt lat="45.49838918627178" lon="10.086129365693957"><ele>108.0</ele><time>2026-05-02T15:28:47.001Z</time></trkpt><trkpt lat="45.49830247103665" lon="10.085953607888253"><ele>108.0</ele><time>2026-05-02T15:28:48.001Z</time></trkpt><trkpt lat="45.49822639004405" lon="10.085783253613858"><ele>108.0</ele><time>2026-05-02T15:28:49.001Z</time></trkpt><trkpt lat="45.49815489178561" lon="10.085620346384434"><ele>108.0</ele><time>2026-05-02T15:28:50.001Z</time></trkpt><trkpt lat="45.49808666585388" lon="10.085465512142108"><ele>108.0</ele><time>2026-05-02T15:28:51.002Z</time></trkpt><trkpt lat="45.49801852232786" lon="10.085330053004396"><ele>108.0</ele><time>2026-05-02T15:28:52.002Z</time></trkpt><trkpt lat="45.497963558647385" lon="10.085211007113157"><ele>108.0</ele><time>2026-05-02T15:28:53.002Z</time></trkpt><trkpt lat="45.49791321773924" lon="10.085095965171881"><ele>108.0</ele><time>2026-05-02T15:28:54.002Z</time></trkpt><trkpt lat="45.497867065628206" lon="10.084993513265289"><ele>108.0</ele><time>2026-05-02T15:28:55.002Z</time></trkpt><trkpt lat="45.49783124788935" lon="10.084898484879222"><ele>108.0</ele><time>2026-05-02T15:28:56.002Z</time></trkpt><trkpt lat="45.49779971253542" lon="10.084808652010912"><ele>108.0</ele><time>2026-05-02T15:28:57.002Z</time></trkpt><trkpt lat="45.497776781665785" lon="10.084721139170844"><ele>107.60000000000001</ele><time>2026-05-02T15:28:58.002Z</time></trkpt><trkpt lat="45.497773038379705" lon="10.084627819316369"><ele>107.20000000000002</ele><time>2026-05-02T15:28:59.002Z</time></trkpt><trkpt lat="45.49775584048515" lon="10.084517599364823"><ele>106.8</ele><time>2026-05-02T15:29:00.002Z</time></trkpt><trkpt lat="45.49771331503546" lon="10.084389133646127"><ele>106.4</ele><time>2026-05-02T15:29:01.002Z</time></trkpt><trkpt lat="45.49763906398024" lon="10.084272454849371"><ele>106.0</ele><time>2026-05-02T15:29:02.002Z</time></trkpt><trkpt lat="45.497543841830556" lon="10.084160441908649"><ele>106.75</ele><time>2026-05-02T15:29:03.002Z</time></trkpt><trkpt lat="45.49745685138182" lon="10.084033503387381"><ele>107.5</ele><time>2026-05-02T15:29:04.002Z</time></trkpt><trkpt lat="45.49738026571145" lon="10.08389535988615"><ele>108.25</ele><time>2026-05-02T15:29:05.002Z</time></trkpt><trkpt lat="45.49730520359749" lon="10.083748188274216"><ele>109.0</ele><time>2026-05-02T15:29:06.002Z</time></trkpt><trkpt lat="45.497227741711306" lon="10.083582030451048"><ele>109.0</ele><time>2026-05-02T15:29:07.002Z</time></trkpt><trkpt lat="45.497146441296174" lon="10.083405822099833"><ele>109.0</ele><time>2026-05-02T15:29:08.002Z</time></trkpt><trkpt lat="45.497060618742694" lon="10.083221064056492"><ele>109.0</ele><time>2026-05-02T15:29:09.002Z</time></trkpt><trkpt lat="45.49697039182971" lon="10.083020728447545"><ele>110.0</ele><time>2026-05-02T15:29:10.002Z</time></trkpt><trkpt lat="45.496879869324914" lon="10.082825934395105"><ele>111.0</ele><time>2026-05-02T15:29:11.002Z</time></trkpt><trkpt lat="45.49679028438511" lon="10.082642408226587"><ele>112.0</ele><time>2026-05-02T15:29:12.002Z</time></trkpt><trkpt lat="45.4967106312497" lon="10.082468398755589"><ele>111.5</ele><time>2026-05-02T15:29:13.002Z</time></trkpt><trkpt lat="45.496640910119304" lon="10.082314619013834"><ele>111.0</ele><time>2026-05-02T15:29:14.002Z</time></trkpt><trkpt lat="45.49657174513854" lon="10.082163309725383"><ele>110.5</ele><time>2026-05-02T15:29:15.002Z</time></trkpt><trkpt lat="45.496510338334744" lon="10.082020792355083"><ele>110.0</ele><time>2026-05-02T15:29:16.002Z</time></trkpt><trkpt lat="45.496444401208926" lon="10.081878600941412"><ele>110.0</ele><time>2026-05-02T15:29:17.002Z</time></trkpt><trkpt lat="45.49638163713515" lon="10.081744535030731"><ele>110.0</ele><time>2026-05-02T15:29:18.002Z</time></trkpt><trkpt lat="45.49631466537846" lon="10.081609433756062"><ele>110.0</ele><time>2026-05-02T15:29:19.002Z</time></trkpt><trkpt lat="45.496257804501596" lon="10.081483450137727"><ele>110.0</ele><time>2026-05-02T15:29:20.002Z</time></trkpt><trkpt lat="45.49619994641518" lon="10.081354734678907"><ele>110.0</ele><time>2026-05-02T15:29:21.002Z</time></trkpt><trkpt lat="45.49614911828414" lon="10.081234315254942"><ele>109.66666666666666</ele><time>2026-05-02T15:29:22.002Z</time></trkpt><trkpt lat="45.49610645571921" lon="10.081118221746856"><ele>109.33333333333333</ele><time>2026-05-02T15:29:23.002Z</time></trkpt><trkpt lat="45.4960791013601" lon="10.081005376368102"><ele>109.0</ele><time>2026-05-02T15:29:24.002Z</time></trkpt><trkpt lat="45.49606223127015" lon="10.08090247646616"><ele>108.66666666666666</ele><time>2026-05-02T15:29:25.002Z</time></trkpt><trkpt lat="45.49605918113325" lon="10.080793177004052"><ele>108.33333333333333</ele><time>2026-05-02T15:29:26.002Z</time></trkpt><trkpt lat="45.49607194526811" lon="10.080677302080765"><ele>108.0</ele><time>2026-05-02T15:29:27.002Z</time></trkpt><trkpt lat="45.4961151712856" lon="10.080563556623192"><ele>108.0</ele><time>2026-05-02T15:29:28.002Z</time></trkpt><trkpt lat="45.4961451157515" lon="10.08044401902519"><ele>108.00000000000001</ele><time>2026-05-02T15:29:29.002Z</time></trkpt><trkpt lat="45.49614003543282" lon="10.080316497489916"><ele>108.00000000000001</ele><time>2026-05-02T15:29:30.002Z</time></trkpt><trkpt lat="45.496103507209455" lon="10.080193002838053"><ele>108.0</ele><time>2026-05-02T15:29:31.002Z</time></trkpt><trkpt lat="45.49604097860109" lon="10.080095909179125"><ele>108.0</ele><time>2026-05-02T15:29:32.002Z</time></trkpt><trkpt lat="45.49595692301164" lon="10.080030167365857"><ele>108.0</ele><time>2026-05-02T15:29:33.002Z</time></trkpt><trkpt lat="45.49585864806489" lon="10.080005379874745"><ele>108.00000000000001</ele><time>2026-05-02T15:29:34.002Z</time></trkpt><trkpt lat="45.49575507273646" lon="10.079994337759237"><ele>108.00000000000001</ele><time>2026-05-02T15:29:35.001Z</time></trkpt><trkpt lat="45.49565261980762" lon="10.079942359709277"><ele>108.0</ele><time>2026-05-02T15:29:36.001Z</time></trkpt><trkpt lat="45.49555448922748" lon="10.079850561284212"><ele>108.0</ele><time>2026-05-02T15:29:37.001Z</time></trkpt><trkpt lat="45.495467593192636" lon="10.079740084173535"><ele>108.25</ele><time>2026-05-02T15:29:38.001Z</time></trkpt><trkpt lat="45.49538173994647" lon="10.079603055644675"><ele>108.5</ele><time>2026-05-02T15:29:39.001Z</time></trkpt><trkpt lat="45.49529878985708" lon="10.079449495297519"><ele>108.75</ele><time>2026-05-02T15:29:40.001Z</time></trkpt><trkpt lat="45.49522102317899" lon="10.079277640622538"><ele>109.0</ele><time>2026-05-02T15:29:41Z</time></trkpt><trkpt lat="45.495146169391376" lon="10.079112807540294"><ele>109.0</ele><time>2026-05-02T15:29:42Z</time></trkpt><trkpt lat="45.49507555454302" lon="10.078965753946912"><ele>109.0</ele><time>2026-05-02T15:29:43Z</time></trkpt><trkpt lat="45.49500899513807" lon="10.07881824669718"><ele>109.0</ele><time>2026-05-02T15:29:44Z</time></trkpt><trkpt lat="45.49493753946123" lon="10.078653001563596"><ele>109.0</ele><time>2026-05-02T15:29:45Z</time></trkpt><trkpt lat="45.49485809168965" lon="10.078478884846048"><ele>109.0</ele><time>2026-05-02T15:29:46Z</time></trkpt><trkpt lat="45.494773248460795" lon="10.078295296848367"><ele>109.0</ele><time>2026-05-02T15:29:47Z</time></trkpt><trkpt lat="45.49468542986105" lon="10.0781010281104"><ele>109.0</ele><time>2026-05-02T15:29:48Z</time></trkpt><trkpt lat="45.49459105706867" lon="10.07789898686823"><ele>108.66666666666667</ele><time>2026-05-02T15:29:49Z</time></trkpt><trkpt lat="45.49449338134821" lon="10.0776911212583"><ele>108.33333333333334</ele><time>2026-05-02T15:29:50Z</time></trkpt><trkpt lat="45.49439713156794" lon="10.077488956683805"><ele>108.0</ele><time>2026-05-02T15:29:51Z</time></trkpt><trkpt lat="45.49429848744426" lon="10.077278835937017"><ele>108.0</ele><time>2026-05-02T15:29:52Z</time></trkpt><trkpt lat="45.494199640711855" lon="10.077064260614907"><ele>108.0</ele><time>2026-05-02T15:29:53Z</time></trkpt><trkpt lat="45.494107637627096" lon="10.076860587491268"><ele>108.0</ele><time>2026-05-02T15:29:54Z</time></trkpt><trkpt lat="45.49401843974209" lon="10.07666547650745"><ele>108.0</ele><time>2026-05-02T15:29:55Z</time></trkpt><trkpt lat="45.49393115312758" lon="10.076475132759956"><ele>108.0</ele><time>2026-05-02T15:29:56Z</time></trkpt><trkpt lat="45.493838305397524" lon="10.07628610897658"><ele>108.0</ele><time>2026-05-02T15:29:57Z</time></trkpt><trkpt lat="45.493745305115716" lon="10.076100651917795"><ele>108.0</ele><time>2026-05-02T15:29:58Z</time></trkpt><trkpt lat="45.49364833681224" lon="10.075891235606301"><ele>108.0</ele><time>2026-05-02T15:29:59Z</time></trkpt><trkpt lat="45.49354377884367" lon="10.075671104459248"><ele>108.0</ele><time>2026-05-02T15:30:00Z</time></trkpt><trkpt lat="45.49343456155835" lon="10.075441691889866"><ele>108.0</ele><time>2026-05-02T15:30:01Z</time></trkpt><trkpt lat="45.49332485828685" lon="10.075201534771704"><ele>108.0</ele><time>2026-05-02T15:30:02Z</time></trkpt><trkpt lat="45.49320554178378" lon="10.074956317710424"><ele>108.0</ele><time>2026-05-02T15:30:03.001Z</time></trkpt><trkpt lat="45.4930847863156" lon="10.074702144727068"><ele>108.0</ele><time>2026-05-02T15:30:04.001Z</time></trkpt><trkpt lat="45.49296653225898" lon="10.074447296362536"><ele>108.0</ele><time>2026-05-02T15:30:05.001Z</time></trkpt><trkpt lat="45.49284565390838" lon="10.074184161893136"><ele>108.0</ele><time>2026-05-02T15:30:06.001Z</time></trkpt><trkpt lat="45.4927230708132" lon="10.073920094074749"><ele>109.0</ele><time>2026-05-02T15:30:07.001Z</time></trkpt><trkpt lat="45.49260068252636" lon="10.073650379911713"><ele>110.0</ele><time>2026-05-02T15:30:08.001Z</time></trkpt><trkpt lat="45.49247416028453" lon="10.073380079125931"><ele>110.0</ele><time>2026-05-02T15:30:09.001Z</time></trkpt><trkpt lat="45.492347618769834" lon="10.073109935089418"><ele>110.0</ele><time>2026-05-02T15:30:10.001Z</time></trkpt><trkpt lat="45.49222328080464" lon="10.072836027987579"><ele>110.0</ele><time>2026-05-02T15:30:11.001Z</time></trkpt><trkpt lat="45.492097898360726" lon="10.072556658119757"><ele>110.0</ele><time>2026-05-02T15:30:12.001Z</time></trkpt><trkpt lat="45.491971401583136" lon="10.072278286324396"><ele>109.0</ele><time>2026-05-02T15:30:13.001Z</time></trkpt><trkpt lat="45.49184523433835" lon="10.07200382310924"><ele>108.0</ele><time>2026-05-02T15:30:14.001Z</time></trkpt><trkpt lat="45.49171953355747" lon="10.0717262596814"><ele>109.0</ele><time>2026-05-02T15:30:15.001Z</time></trkpt><trkpt lat="45.491593073456045" lon="10.071450992722156"><ele>110.0</ele><time>2026-05-02T15:30:16.001Z</time></trkpt><trkpt lat="45.491464376625395" lon="10.07117735015856"><ele>110.0</ele><time>2026-05-02T15:30:17.001Z</time></trkpt><trkpt lat="45.49133895194866" lon="10.07090189475762"><ele>110.0</ele><time>2026-05-02T15:30:18.001Z</time></trkpt><trkpt lat="45.491211880702544" lon="10.070623404912668"><ele>109.0</ele><time>2026-05-02T15:30:19.001Z</time></trkpt><trkpt lat="45.49108609805389" lon="10.070353111669649"><ele>108.0</ele><time>2026-05-02T15:30:20.001Z</time></trkpt><trkpt lat="45.49096350332785" lon="10.070084744408128"><ele>108.0</ele><time>2026-05-02T15:30:21.001Z</time></trkpt><trkpt lat="45.49083991136872" lon="10.069814013115172"><ele>108.0</ele><time>2026-05-02T15:30:22.001Z</time></trkpt><trkpt lat="45.49071624522554" lon="10.069546177373203"><ele>108.0</ele><time>2026-05-02T15:30:23.001Z</time></trkpt><trkpt lat="45.49059628907265" lon="10.069279520398243"><ele>108.0</ele><time>2026-05-02T15:30:24.001Z</time></trkpt><trkpt lat="45.49047376456345" lon="10.069010180972402"><ele>108.0</ele><time>2026-05-02T15:30:25.001Z</time></trkpt><trkpt lat="45.49035076085279" lon="10.068747748620597"><ele>108.0</ele><time>2026-05-02T15:30:26.001Z</time></trkpt><trkpt lat="45.4902255871954" lon="10.068482719053767"><ele>108.0</ele><time>2026-05-02T15:30:27.001Z</time></trkpt><trkpt lat="45.49010516678394" lon="10.068224198525506"><ele>108.0</ele><time>2026-05-02T15:30:28.001Z</time></trkpt><trkpt lat="45.489991237302824" lon="10.06797623536642"><ele>108.33333333333334</ele><time>2026-05-02T15:30:29.001Z</time></trkpt><trkpt lat="45.48988513365319" lon="10.06774079544968"><ele>108.66666666666667</ele><time>2026-05-02T15:30:30.001Z</time></trkpt><trkpt lat="45.489781989017985" lon="10.067512547820646"><ele>109.0</ele><time>2026-05-02T15:30:31.001Z</time></trkpt><trkpt lat="45.48968138337336" lon="10.067300589457114"><ele>109.33333333333334</ele><time>2026-05-02T15:30:32.001Z</time></trkpt><trkpt lat="45.489592033141946" lon="10.067113996451656"><ele>109.66666666666666</ele><time>2026-05-02T15:30:33.001Z</time></trkpt><trkpt lat="45.48951110916874" lon="10.066942736312992"><ele>110.0</ele><time>2026-05-02T15:30:34.001Z</time></trkpt><trkpt lat="45.48942780193761" lon="10.066764557254677"><ele>110.0</ele><time>2026-05-02T15:30:35.001Z</time></trkpt><trkpt lat="45.489349800149284" lon="10.066584969777935"><ele>110.0</ele><time>2026-05-02T15:30:36.001Z</time></trkpt><trkpt lat="45.4892721165312" lon="10.066412812768979"><ele>110.0</ele><time>2026-05-02T15:30:37.001Z</time></trkpt><trkpt lat="45.48919789667419" lon="10.066247009746588"><ele>110.0</ele><time>2026-05-02T15:30:38.001Z</time></trkpt><trkpt lat="45.48912602085608" lon="10.066095441825025"><ele>110.0</ele><time>2026-05-02T15:30:39.001Z</time></trkpt><trkpt lat="45.489055619749934" lon="10.065952360426976"><ele>110.0</ele><time>2026-05-02T15:30:40.001Z</time></trkpt><trkpt lat="45.48898423289953" lon="10.065811783269424"><ele>110.0</ele><time>2026-05-02T15:30:41.001Z</time></trkpt><trkpt lat="45.48892124545655" lon="10.065670300610147"><ele>110.0</ele><time>2026-05-02T15:30:42.001Z</time></trkpt><trkpt lat="45.488862847229726" lon="10.065545444930464"><ele>109.83333333333333</ele><time>2026-05-02T15:30:43.001Z</time></trkpt><trkpt lat="45.48881491839083" lon="10.065430971911367"><ele>109.66666666666666</ele><time>2026-05-02T15:30:44.001Z</time></trkpt><trkpt lat="45.488768566603206" lon="10.065314347056695"><ele>109.5</ele><time>2026-05-02T15:30:45.001Z</time></trkpt><trkpt lat="45.48873874356321" lon="10.065198287764677"><ele>109.33333333333334</ele><time>2026-05-02T15:30:46.001Z</time></trkpt><trkpt lat="45.48873472336056" lon="10.06507408461279"><ele>109.16666666666667</ele><time>2026-05-02T15:30:47.001Z</time></trkpt><trkpt lat="45.48875001521991" lon="10.064954044141707"><ele>109.0</ele><time>2026-05-02T15:30:48.001Z</time></trkpt><trkpt lat="45.4887537307529" lon="10.064828907124852"><ele>108.6</ele><time>2026-05-02T15:30:49.001Z</time></trkpt><trkpt lat="45.488718863449265" lon="10.064729760234158"><ele>108.2</ele><time>2026-05-02T15:30:50.001Z</time></trkpt><trkpt lat="45.4886458189455" lon="10.064647826056392"><ele>107.79999999999998</ele><time>2026-05-02T15:30:51.001Z</time></trkpt><trkpt lat="45.488547429043344" lon="10.06458221827375"><ele>107.39999999999999</ele><time>2026-05-02T15:30:52.001Z</time></trkpt><trkpt lat="45.48845114325141" lon="10.064506975004697"><ele>107.0</ele><time>2026-05-02T15:30:53.001Z</time></trkpt><trkpt lat="45.488360238842816" lon="10.06440663387574"><ele>107.0</ele><time>2026-05-02T15:30:54.001Z</time></trkpt><trkpt lat="45.488288627753214" lon="10.064275482954288"><ele>107.0</ele><time>2026-05-02T15:30:55.001Z</time></trkpt><trkpt lat="45.48822591063394" lon="10.064149600508646"><ele>107.0</ele><time>2026-05-02T15:30:56.001Z</time></trkpt><trkpt lat="45.488168207061044" lon="10.06401607593727"><ele>107.0</ele><time>2026-05-02T15:30:57.001Z</time></trkpt><trkpt lat="45.488097259664386" lon="10.063863185632846"><ele>107.33333333333333</ele><time>2026-05-02T15:30:58.001Z</time></trkpt><trkpt lat="45.48801170492515" lon="10.06367926239603"><ele>107.66666666666666</ele><time>2026-05-02T15:30:59.001Z</time></trkpt><trkpt lat="45.48791515375315" lon="10.063489342635357"><ele>108.0</ele><time>2026-05-02T15:31:00.001Z</time></trkpt><trkpt lat="45.48782012021955" lon="10.063290581228701"><ele>108.66666666666666</ele><time>2026-05-02T15:31:01.001Z</time></trkpt><trkpt lat="45.48772096608063" lon="10.063083792603503"><ele>109.33333333333333</ele><time>2026-05-02T15:31:02.001Z</time></trkpt><trkpt lat="45.48762048867432" lon="10.062862882255239"><ele>110.0</ele><time>2026-05-02T15:31:03.001Z</time></trkpt><trkpt lat="45.487513061991464" lon="10.062633243065505"><ele>110.0</ele><time>2026-05-02T15:31:04.001Z</time></trkpt><trkpt lat="45.487403575384924" lon="10.062400963485306"><ele>110.0</ele><time>2026-05-02T15:31:05.001Z</time></trkpt><trkpt lat="45.48729312550838" lon="10.062156640487196"><ele>110.0</ele><time>2026-05-02T15:31:06.001Z</time></trkpt><trkpt lat="45.487183861491275" lon="10.06191037634322"><ele>109.66666666666666</ele><time>2026-05-02T15:31:07.001Z</time></trkpt><trkpt lat="45.48706966643938" lon="10.06166575113395"><ele>109.33333333333334</ele><time>2026-05-02T15:31:08.001Z</time></trkpt><trkpt lat="45.48695120489396" lon="10.06141998912246"><ele>109.0</ele><time>2026-05-02T15:31:09.001Z</time></trkpt><trkpt lat="45.486839552334914" lon="10.061183760101246"><ele>109.0</ele><time>2026-05-02T15:31:10.001Z</time></trkpt><trkpt lat="45.48672825781742" lon="10.060949698127397"><ele>109.0</ele><time>2026-05-02T15:31:11.001Z</time></trkpt><trkpt lat="45.48662557766892" lon="10.060726393243208"><ele>109.0</ele><time>2026-05-02T15:31:12.001Z</time></trkpt><trkpt lat="45.48652507657746" lon="10.060509456554911"><ele>109.0</ele><time>2026-05-02T15:31:13.002Z</time></trkpt><trkpt lat="45.486429546348674" lon="10.060300980115532"><ele>109.0</ele><time>2026-05-02T15:31:14.002Z</time></trkpt><trkpt lat="45.48633176575774" lon="10.06009376238346"><ele>109.0</ele><time>2026-05-02T15:31:15.002Z</time></trkpt><trkpt lat="45.48623288663619" lon="10.05989163345248"><ele>108.66666666666667</ele><time>2026-05-02T15:31:16.002Z</time></trkpt><trkpt lat="45.48614087081164" lon="10.059695168613358"><ele>108.33333333333334</ele><time>2026-05-02T15:31:17.002Z</time></trkpt><trkpt lat="45.48605383391543" lon="10.05950346858077"><ele>108.0</ele><time>2026-05-02T15:31:18.002Z</time></trkpt><trkpt lat="45.485963766948366" lon="10.059307579184173"><ele>108.33333333333334</ele><time>2026-05-02T15:31:19.002Z</time></trkpt><trkpt lat="45.48587043609183" lon="10.059110001749783"><ele>108.66666666666667</ele><time>2026-05-02T15:31:20.002Z</time></trkpt><trkpt lat="45.485774959075314" lon="10.058902648741196"><ele>109.0</ele><time>2026-05-02T15:31:21.002Z</time></trkpt><trkpt lat="45.48567935557675" lon="10.058691860417925"><ele>109.0</ele><time>2026-05-02T15:31:22.002Z</time></trkpt><trkpt lat="45.48558685611191" lon="10.058489960310196"><ele>109.0</ele><time>2026-05-02T15:31:23.002Z</time></trkpt><trkpt lat="45.485486767471684" lon="10.05828385954723"><ele>109.0</ele><time>2026-05-02T15:31:24.002Z</time></trkpt><trkpt lat="45.48538859262451" lon="10.058076373387793"><ele>109.33333333333334</ele><time>2026-05-02T15:31:25.002Z</time></trkpt><trkpt lat="45.485293377988825" lon="10.057871425111085"><ele>109.66666666666666</ele><time>2026-05-02T15:31:26.002Z</time></trkpt><trkpt lat="45.48520045515548" lon="10.057667721235754"><ele>110.0</ele><time>2026-05-02T15:31:27.002Z</time></trkpt><trkpt lat="45.4851076522772" lon="10.057464384769535"><ele>110.33333333333333</ele><time>2026-05-02T15:31:28.002Z</time></trkpt><trkpt lat="45.48501699475289" lon="10.057269413549307"><ele>110.66666666666666</ele><time>2026-05-02T15:31:29.002Z</time></trkpt><trkpt lat="45.48493076157863" lon="10.057077653162311"><ele>111.0</ele><time>2026-05-02T15:31:30.002Z</time></trkpt><trkpt lat="45.48484056363664" lon="10.056887947708322"><ele>111.0</ele><time>2026-05-02T15:31:31.002Z</time></trkpt><trkpt lat="45.48476017415022" lon="10.056716083909507"><ele>111.0</ele><time>2026-05-02T15:31:32.002Z</time></trkpt><trkpt lat="45.48467788571617" lon="10.056549216978276"><ele>111.0</ele><time>2026-05-02T15:31:33.002Z</time></trkpt><trkpt lat="45.484600923118784" lon="10.056390631511889"><ele>111.0</ele><time>2026-05-02T15:31:34.002Z</time></trkpt><trkpt lat="45.48452492611163" lon="10.056216903978349"><ele>111.25</ele><time>2026-05-02T15:31:35.002Z</time></trkpt><trkpt lat="45.4844506135792" lon="10.056042557195216"><ele>111.5</ele><time>2026-05-02T15:31:36.002Z</time></trkpt><trkpt lat="45.48436910196122" lon="10.055866423340566"><ele>111.75</ele><time>2026-05-02T15:31:37.002Z</time></trkpt><trkpt lat="45.48428836961163" lon="10.055672913099043"><ele>112.0</ele><time>2026-05-02T15:31:38.002Z</time></trkpt><trkpt lat="45.48419693448047" lon="10.055470033285898"><ele>112.0</ele><time>2026-05-02T15:31:39.002Z</time></trkpt><trkpt lat="45.4841084630707" lon="10.055290113428947"><ele>112.0</ele><time>2026-05-02T15:31:40.002Z</time></trkpt><trkpt lat="45.48402877395919" lon="10.05509680969039"><ele>112.0</ele><time>2026-05-02T15:31:41Z</time></trkpt><trkpt lat="45.48395345462852" lon="10.054919997622745"><ele>111.33333333333334</ele><time>2026-05-02T15:31:42Z</time></trkpt><trkpt lat="45.483878682330264" lon="10.054721200322014"><ele>110.66666666666666</ele><time>2026-05-02T15:31:43Z</time></trkpt><trkpt lat="45.483791567120655" lon="10.054530294588147"><ele>110.0</ele><time>2026-05-02T15:31:44Z</time></trkpt><trkpt lat="45.483703293364904" lon="10.054333774742652"><ele>110.0</ele><time>2026-05-02T15:31:45Z</time></trkpt><trkpt lat="45.483615266759216" lon="10.054142984629127"><ele>110.0</ele><time>2026-05-02T15:31:46Z</time></trkpt><trkpt lat="45.483539147077884" lon="10.053944187245351"><ele>110.0</ele><time>2026-05-02T15:31:47Z</time></trkpt><trkpt lat="45.48345129863099" lon="10.053746721977676"><ele>110.0</ele><time>2026-05-02T15:31:48Z</time></trkpt><trkpt lat="45.483362999809756" lon="10.053551902409477"><ele>110.0</ele><time>2026-05-02T15:31:49Z</time></trkpt><trkpt lat="45.48326579423738" lon="10.053357885100295"><ele>110.0</ele><time>2026-05-02T15:31:50Z</time></trkpt><trkpt lat="45.483171612007325" lon="10.053176092504696"><ele>110.0</ele><time>2026-05-02T15:31:51Z</time></trkpt><trkpt lat="45.48308893121593" lon="10.052996464081271"><ele>110.0</ele><time>2026-05-02T15:31:52Z</time></trkpt><trkpt lat="45.48300056685635" lon="10.052810910807459"><ele>110.0</ele><time>2026-05-02T15:31:53Z</time></trkpt><trkpt lat="45.482911859712424" lon="10.052621844479821"><ele>109.66666666666666</ele><time>2026-05-02T15:31:54Z</time></trkpt><trkpt lat="45.482819440925404" lon="10.052435725313831"><ele>109.33333333333334</ele><time>2026-05-02T15:31:55Z</time></trkpt><trkpt lat="45.482726648382744" lon="10.052239702992694"><ele>109.0</ele><time>2026-05-02T15:31:56Z</time></trkpt><trkpt lat="45.48263232369652" lon="10.052045747743573"><ele>109.0</ele><time>2026-05-02T15:31:57Z</time></trkpt><trkpt lat="45.482533093968726" lon="10.051846670712875"><ele>109.0</ele><time>2026-05-02T15:31:58Z</time></trkpt><trkpt lat="45.48243646170438" lon="10.051639979869096"><ele>109.0</ele><time>2026-05-02T15:31:59Z</time></trkpt><trkpt lat="45.482341173777655" lon="10.051425288184209"><ele>108.66666666666667</ele><time>2026-05-02T15:32:00Z</time></trkpt><trkpt lat="45.48224562981197" lon="10.051210125925264"><ele>108.33333333333334</ele><time>2026-05-02T15:32:01Z</time></trkpt><trkpt lat="45.48214662617208" lon="10.050992562717859"><ele>108.0</ele><time>2026-05-02T15:32:02Z</time></trkpt><trkpt lat="45.48204372877922" lon="10.050773267865898"><ele>107.66666666666666</ele><time>2026-05-02T15:32:03Z</time></trkpt><trkpt lat="45.48193753757613" lon="10.050549684718959"><ele>107.33333333333333</ele><time>2026-05-02T15:32:04Z</time></trkpt><trkpt lat="45.48182954907836" lon="10.050323592114733"><ele>107.0</ele><time>2026-05-02T15:32:05Z</time></trkpt><trkpt lat="45.481723063921876" lon="10.050094299599792"><ele>106.66666666666666</ele><time>2026-05-02T15:32:06Z</time></trkpt><trkpt lat="45.48161705901688" lon="10.049869432994997"><ele>106.33333333333334</ele><time>2026-05-02T15:32:07Z</time></trkpt><trkpt lat="45.48151092433512" lon="10.049642761570352"><ele>106.0</ele><time>2026-05-02T15:32:08Z</time></trkpt><trkpt lat="45.48140951097811" lon="10.049418247155367"><ele>106.0</ele><time>2026-05-02T15:32:09Z</time></trkpt><trkpt lat="45.4813032333592" lon="10.049207542287638"><ele>106.0</ele><time>2026-05-02T15:32:10Z</time></trkpt><trkpt lat="45.48118181548897" lon="10.049012423038926"><ele>106.0</ele><time>2026-05-02T15:32:11Z</time></trkpt><trkpt lat="45.48104938018097" lon="10.048827490042942"><ele>105.66666666666667</ele><time>2026-05-02T15:32:12Z</time></trkpt><trkpt lat="45.48090511263815" lon="10.048646035491501"><ele>105.33333333333334</ele><time>2026-05-02T15:32:13Z</time></trkpt><trkpt lat="45.48075982688821" lon="10.048473485891849"><ele>105.0</ele><time>2026-05-02T15:32:14Z</time></trkpt><trkpt lat="45.480609184287786" lon="10.048301447226006"><ele>105.0</ele><time>2026-05-02T15:32:15Z</time></trkpt><trkpt lat="45.48046098713429" lon="10.04812311774853"><ele>105.0</ele><time>2026-05-02T15:32:16Z</time></trkpt><trkpt lat="45.480313129811435" lon="10.047940592888201"><ele>105.0</ele><time>2026-05-02T15:32:17Z</time></trkpt><trkpt lat="45.480162811764245" lon="10.047761737230088"><ele>105.0</ele><time>2026-05-02T15:32:18Z</time></trkpt><trkpt lat="45.48001022633552" lon="10.047579089190902"><ele>105.0</ele><time>2026-05-02T15:32:19Z</time></trkpt><trkpt lat="45.47985772263914" lon="10.047395148617268"><ele>105.0</ele><time>2026-05-02T15:32:20Z</time></trkpt><trkpt lat="45.47970561961654" lon="10.047210723523838"><ele>105.0</ele><time>2026-05-02T15:32:21Z</time></trkpt><trkpt lat="45.47954781814908" lon="10.047017516480272"><ele>105.0</ele><time>2026-05-02T15:32:22Z</time></trkpt><trkpt lat="45.47937801951414" lon="10.046818883574332"><ele>105.0</ele><time>2026-05-02T15:32:23Z</time></trkpt><trkpt lat="45.479204937635444" lon="10.046617152416369"><ele>105.0</ele><time>2026-05-02T15:32:24Z</time></trkpt><trkpt lat="45.47902747440641" lon="10.046411280728462"><ele>105.0</ele><time>2026-05-02T15:32:25Z</time></trkpt><trkpt lat="45.47885130759017" lon="10.046207952723785"><ele>105.0</ele><time>2026-05-02T15:32:26Z</time></trkpt><trkpt lat="45.47867264913057" lon="10.04599853022632"><ele>105.0</ele><time>2026-05-02T15:32:27Z</time></trkpt><trkpt lat="45.47850035601873" lon="10.045784763336055"><ele>106.0</ele><time>2026-05-02T15:32:28.001Z</time></trkpt><trkpt lat="45.478321875828335" lon="10.045573408022557"><ele>107.0</ele><time>2026-05-02T15:32:29.001Z</time></trkpt><trkpt lat="45.478173482741845" lon="10.045328989660074"><ele>107.0</ele><time>2026-05-02T15:32:30.001Z</time></trkpt><trkpt lat="45.4780070633006" lon="10.04512741918457"><ele>107.0</ele><time>2026-05-02T15:32:31.001Z</time></trkpt><trkpt lat="45.47785407791714" lon="10.044944726162779"><ele>107.0</ele><time>2026-05-02T15:32:32.001Z</time></trkpt><trkpt lat="45.47769607589646" lon="10.044786666757672"><ele>107.33333333333333</ele><time>2026-05-02T15:32:33.001Z</time></trkpt><trkpt lat="45.47755902757757" lon="10.044613081026116"><ele>107.66666666666666</ele><time>2026-05-02T15:32:34.001Z</time></trkpt><trkpt lat="45.47742251157228" lon="10.044442326775602"><ele>108.0</ele><time>2026-05-02T15:32:35.001Z</time></trkpt><trkpt lat="45.47729414029481" lon="10.04428614501584"><ele>108.0</ele><time>2026-05-02T15:32:36.001Z</time></trkpt><trkpt lat="45.47717112354177" lon="10.044143496480855"><ele>108.0</ele><time>2026-05-02T15:32:37.001Z</time></trkpt><trkpt lat="45.47706055963297" lon="10.044004297148637"><ele>108.0</ele><time>2026-05-02T15:32:38.001Z</time></trkpt><trkpt lat="45.47696531676001" lon="10.043885825857924"><ele>108.0</ele><time>2026-05-02T15:32:39.001Z</time></trkpt><trkpt lat="45.476877165080154" lon="10.04378474995521"><ele>107.80000000000001</ele><time>2026-05-02T15:32:40.001Z</time></trkpt><trkpt lat="45.47680312406025" lon="10.043709639975603"><ele>107.60000000000001</ele><time>2026-05-02T15:32:41.001Z</time></trkpt><trkpt lat="45.47674542106708" lon="10.043632492433384"><ele>107.39999999999999</ele><time>2026-05-02T15:32:42.001Z</time></trkpt><trkpt lat="45.476698735386336" lon="10.043538787232523"><ele>107.19999999999999</ele><time>2026-05-02T15:32:43.001Z</time></trkpt><trkpt lat="45.476699287060505" lon="10.043409388690478"><ele>107.0</ele><time>2026-05-02T15:32:44.001Z</time></trkpt><trkpt lat="45.4767468733592" lon="10.043257908944007"><ele>106.75</ele><time>2026-05-02T15:32:45.001Z</time></trkpt><trkpt lat="45.47680826473957" lon="10.043087278091946"><ele>106.5</ele><time>2026-05-02T15:32:46.001Z</time></trkpt><trkpt lat="45.476868373729545" lon="10.042903991090483"><ele>106.25</ele><time>2026-05-02T15:32:47.001Z</time></trkpt><trkpt lat="45.47692373377006" lon="10.042730083075423"><ele>106.0</ele><time>2026-05-02T15:32:48.001Z</time></trkpt><trkpt lat="45.47696461662428" lon="10.042540421748134"><ele>106.0</ele><time>2026-05-02T15:32:49.001Z</time></trkpt><trkpt lat="45.47698707412591" lon="10.0423301637208"><ele>106.0</ele><time>2026-05-02T15:32:50.001Z</time></trkpt><trkpt lat="45.477002381960965" lon="10.042103893523091"><ele>106.0</ele><time>2026-05-02T15:32:51.001Z</time></trkpt><trkpt lat="45.477047203201174" lon="10.041876791192907"><ele>106.0</ele><time>2026-05-02T15:32:52.001Z</time></trkpt><trkpt lat="45.47710036613712" lon="10.041658732992579"><ele>106.0</ele><time>2026-05-02T15:32:53.001Z</time></trkpt><trkpt lat="45.47714914673995" lon="10.041423746310041"><ele>106.0</ele><time>2026-05-02T15:32:54.001Z</time></trkpt><trkpt lat="45.477198272819514" lon="10.041188262084065"><ele>106.33333333333334</ele><time>2026-05-02T15:32:55.001Z</time></trkpt><trkpt lat="45.47724977946347" lon="10.040946350803669"><ele>106.66666666666666</ele><time>2026-05-02T15:32:56.001Z</time></trkpt><trkpt lat="45.47730401421084" lon="10.040698224658247"><ele>107.0</ele><time>2026-05-02T15:32:57.001Z</time></trkpt><trkpt lat="45.477355515892015" lon="10.04046030411657"><ele>107.0</ele><time>2026-05-02T15:32:58.001Z</time></trkpt><trkpt lat="45.47740680955394" lon="10.040225389490507"><ele>107.0</ele><time>2026-05-02T15:32:59.001Z</time></trkpt><trkpt lat="45.47745280575862" lon="10.039991709431972"><ele>107.0</ele><time>2026-05-02T15:33:00.001Z</time></trkpt><trkpt lat="45.477501233917536" lon="10.039773209965292"><ele>107.0</ele><time>2026-05-02T15:33:01.001Z</time></trkpt><trkpt lat="45.47754721347671" lon="10.03955818229238"><ele>107.0</ele><time>2026-05-02T15:33:02.001Z</time></trkpt><trkpt lat="45.47759544701628" lon="10.039336324308048"><ele>107.0</ele><time>2026-05-02T15:33:03.001Z</time></trkpt><trkpt lat="45.47764182326883" lon="10.039119224879931"><ele>106.75</ele><time>2026-05-02T15:33:04.001Z</time></trkpt><trkpt lat="45.477691588361374" lon="10.038899977247926"><ele>106.5</ele><time>2026-05-02T15:33:05.001Z</time></trkpt><trkpt lat="45.47773259274551" lon="10.03869935058317"><ele>106.25</ele><time>2026-05-02T15:33:06.001Z</time></trkpt><trkpt lat="45.47777223720851" lon="10.038512169840104"><ele>106.0</ele><time>2026-05-02T15:33:07.001Z</time></trkpt><trkpt lat="45.47781147419732" lon="10.038343195568514"><ele>105.8</ele><time>2026-05-02T15:33:08.001Z</time></trkpt><trkpt lat="45.477846392650505" lon="10.038179508598546"><ele>105.6</ele><time>2026-05-02T15:33:09.001Z</time></trkpt><trkpt lat="45.47787891445652" lon="10.038023357024779"><ele>105.4</ele><time>2026-05-02T15:33:10.001Z</time></trkpt><trkpt lat="45.47790090375523" lon="10.037875827462514"><ele>105.2</ele><time>2026-05-02T15:33:11.001Z</time></trkpt><trkpt lat="45.47793574996528" lon="10.037749161418425"><ele>105.0</ele><time>2026-05-02T15:33:12.001Z</time></trkpt><trkpt lat="45.477974164845016" lon="10.037651980426814"><ele>105.4</ele><time>2026-05-02T15:33:13.001Z</time></trkpt><trkpt lat="45.47802136861971" lon="10.037568075560738"><ele>105.8</ele><time>2026-05-02T15:33:14.001Z</time></trkpt><trkpt lat="45.478081541901794" lon="10.037492189812264"><ele>106.19999999999999</ele><time>2026-05-02T15:33:15.001Z</time></trkpt><trkpt lat="45.47813111981484" lon="10.037379666796369"><ele>106.6</ele><time>2026-05-02T15:33:16.001Z</time></trkpt><trkpt lat="45.47812843421431" lon="10.037240357133356"><ele>107.0</ele><time>2026-05-02T15:33:17.001Z</time></trkpt><trkpt lat="45.478116328479054" lon="10.037078001307105"><ele>107.0</ele><time>2026-05-02T15:33:18.001Z</time></trkpt><trkpt lat="45.478125201636225" lon="10.03690790916765"><ele>107.0</ele><time>2026-05-02T15:33:19.001Z</time></trkpt><trkpt lat="45.47815695233106" lon="10.036726900371384"><ele>107.0</ele><time>2026-05-02T15:33:20.001Z</time></trkpt><trkpt lat="45.47820473899599" lon="10.036532235964621"><ele>107.0</ele><time>2026-05-02T15:33:21.001Z</time></trkpt><trkpt lat="45.4782543931442" lon="10.036321975635543"><ele>107.0</ele><time>2026-05-02T15:33:22.001Z</time></trkpt><trkpt lat="45.478305152189066" lon="10.03608746877764"><ele>107.0</ele><time>2026-05-02T15:33:23.001Z</time></trkpt><trkpt lat="45.478355145334774" lon="10.035832057847657"><ele>107.0</ele><time>2026-05-02T15:33:24.001Z</time></trkpt><trkpt lat="45.47840739322136" lon="10.035581412310124"><ele>107.0</ele><time>2026-05-02T15:33:25.001Z</time></trkpt><trkpt lat="45.47846347737693" lon="10.035330423615822"><ele>107.0</ele><time>2026-05-02T15:33:26.001Z</time></trkpt><trkpt lat="45.47852158863669" lon="10.035090021119675"><ele>107.0</ele><time>2026-05-02T15:33:27.001Z</time></trkpt><trkpt lat="45.478574924865555" lon="10.034835736503737"><ele>107.0</ele><time>2026-05-02T15:33:28.001Z</time></trkpt><trkpt lat="45.478631377269146" lon="10.034560652591368"><ele>107.0</ele><time>2026-05-02T15:33:29.001Z</time></trkpt><trkpt lat="45.478686391772065" lon="10.03426993560018"><ele>107.0</ele><time>2026-05-02T15:33:30.001Z</time></trkpt><trkpt lat="45.47875083905734" lon="10.033971947361376"><ele>106.5</ele><time>2026-05-02T15:33:31.001Z</time></trkpt><trkpt lat="45.478812921985785" lon="10.033667234830006"><ele>106.0</ele><time>2026-05-02T15:33:32.001Z</time></trkpt><trkpt lat="45.47887891035862" lon="10.033338656852358"><ele>106.0</ele><time>2026-05-02T15:33:33.001Z</time></trkpt><trkpt lat="45.47894984750107" lon="10.033002130872411"><ele>106.0</ele><time>2026-05-02T15:33:34.001Z</time></trkpt><trkpt lat="45.47902215944729" lon="10.0326725078421"><ele>106.5</ele><time>2026-05-02T15:33:35.002Z</time></trkpt><trkpt lat="45.479090505594435" lon="10.032359526182805"><ele>107.0</ele><time>2026-05-02T15:33:36.002Z</time></trkpt><trkpt lat="45.47913618707885" lon="10.032041423102028"><ele>107.0</ele><time>2026-05-02T15:33:37.002Z</time></trkpt><trkpt lat="45.47915891601258" lon="10.03171507783326"><ele>107.0</ele><time>2026-05-02T15:33:38.002Z</time></trkpt><trkpt lat="45.4791687786142" lon="10.03138659496298"><ele>107.0</ele><time>2026-05-02T15:33:39.002Z</time></trkpt><trkpt lat="45.4791683642605" lon="10.03105639232196"><ele>107.0</ele><time>2026-05-02T15:33:40.002Z</time></trkpt><trkpt lat="45.4791554597104" lon="10.030728534403138"><ele>107.5</ele><time>2026-05-02T15:33:41.002Z</time></trkpt><trkpt lat="45.479128053299114" lon="10.030397367329288"><ele>108.0</ele><time>2026-05-02T15:33:42.002Z</time></trkpt><trkpt lat="45.47908687883843" lon="10.030067596100043"><ele>107.5</ele><time>2026-05-02T15:33:43.002Z</time></trkpt><trkpt lat="45.47903654735597" lon="10.02974187448676"><ele>107.0</ele><time>2026-05-02T15:33:44.002Z</time></trkpt><trkpt lat="45.47897502309688" lon="10.029419806037176"><ele>107.0</ele><time>2026-05-02T15:33:45.002Z</time></trkpt><trkpt lat="45.47891959097118" lon="10.029102741539877"><ele>107.0</ele><time>2026-05-02T15:33:46.002Z</time></trkpt><trkpt lat="45.47885558781786" lon="10.028782501810262"><ele>107.0</ele><time>2026-05-02T15:33:47Z</time></trkpt><trkpt lat="45.478803210523786" lon="10.028468964675815"><ele>107.0</ele><time>2026-05-02T15:33:48Z</time></trkpt><trkpt lat="45.47875271402371" lon="10.028164018847743"><ele>107.0</ele><time>2026-05-02T15:33:49Z</time></trkpt><trkpt lat="45.478697417579276" lon="10.027859097596297"><ele>107.0</ele><time>2026-05-02T15:33:50Z</time></trkpt><trkpt lat="45.478637684757906" lon="10.027526131293122"><ele>107.0</ele><time>2026-05-02T15:33:51Z</time></trkpt><trkpt lat="45.4785776931961" lon="10.027201362579646"><ele>107.0</ele><time>2026-05-02T15:33:52Z</time></trkpt><trkpt lat="45.478520610228564" lon="10.026871600677602"><ele>107.0</ele><time>2026-05-02T15:33:53Z</time></trkpt><trkpt lat="45.47846630852102" lon="10.026548589851432"><ele>107.0</ele><time>2026-05-02T15:33:54Z</time></trkpt><trkpt lat="45.47841095817806" lon="10.026234783424755"><ele>107.0</ele><time>2026-05-02T15:33:55Z</time></trkpt><trkpt lat="45.478367142557026" lon="10.025939617733348"><ele>107.0</ele><time>2026-05-02T15:33:56Z</time></trkpt><trkpt lat="45.478319992133365" lon="10.025662268844174"><ele>107.0</ele><time>2026-05-02T15:33:57Z</time></trkpt><trkpt lat="45.478276529793" lon="10.025389737924034"><ele>107.0</ele><time>2026-05-02T15:33:58Z</time></trkpt><trkpt lat="45.47824096943099" lon="10.025133143381671"><ele>107.0</ele><time>2026-05-02T15:33:59Z</time></trkpt><trkpt lat="45.478208284239486" lon="10.024871888390033"><ele>106.66666666666666</ele><time>2026-05-02T15:34:00Z</time></trkpt><trkpt lat="45.47816771425864" lon="10.024630963592404"><ele>106.33333333333334</ele><time>2026-05-02T15:34:01Z</time></trkpt><trkpt lat="45.478146004059575" lon="10.024369966009603"><ele>106.0</ele><time>2026-05-02T15:34:02Z</time></trkpt><trkpt lat="45.478116899159474" lon="10.024082825563001"><ele>106.0</ele><time>2026-05-02T15:34:03Z</time></trkpt><trkpt lat="45.47809359874242" lon="10.023800645867114"><ele>106.0</ele><time>2026-05-02T15:34:04Z</time></trkpt><trkpt lat="45.47807518198939" lon="10.023512445860044"><ele>106.0</ele><time>2026-05-02T15:34:05Z</time></trkpt><trkpt lat="45.47806665284612" lon="10.02323499203602"><ele>106.0</ele><time>2026-05-02T15:34:06Z</time></trkpt><trkpt lat="45.4780625146477" lon="10.022956534518562"><ele>106.0</ele><time>2026-05-02T15:34:07Z</time></trkpt><trkpt lat="45.47805786487711" lon="10.022701098050046"><ele>106.0</ele><time>2026-05-02T15:34:08Z</time></trkpt><trkpt lat="45.478055713173624" lon="10.022455197991425"><ele>106.33333333333334</ele><time>2026-05-02T15:34:09Z</time></trkpt><trkpt lat="45.47805364877139" lon="10.022205718658938"><ele>106.66666666666666</ele><time>2026-05-02T15:34:10Z</time></trkpt><trkpt lat="45.47805226231055" lon="10.021970903656786"><ele>107.0</ele><time>2026-05-02T15:34:11Z</time></trkpt><trkpt lat="45.4780397680407" lon="10.02174188129412"><ele>106.75</ele><time>2026-05-02T15:34:12Z</time></trkpt><trkpt lat="45.47803707063769" lon="10.02152062006541"><ele>106.5</ele><time>2026-05-02T15:34:13Z</time></trkpt><trkpt lat="45.47803153919793" lon="10.021318473792606"><ele>106.25</ele><time>2026-05-02T15:34:14Z</time></trkpt><trkpt lat="45.47803279242885" lon="10.021130674155827"><ele>106.0</ele><time>2026-05-02T15:34:15Z</time></trkpt><trkpt lat="45.47802741384068" lon="10.020994427271708"><ele>106.00000000000001</ele><time>2026-05-02T15:34:16Z</time></trkpt><trkpt lat="45.47802808796078" lon="10.020869960250124"><ele>106.0</ele><time>2026-05-02T15:34:17Z</time></trkpt><trkpt lat="45.47803274804438" lon="10.020757197042714"><ele>106.0</ele><time>2026-05-02T15:34:18Z</time></trkpt><trkpt lat="45.47804950068644" lon="10.020636773738698"><ele>106.0</ele><time>2026-05-02T15:34:19Z</time></trkpt><trkpt lat="45.478074943066915" lon="10.020520600621134"><ele>106.00000000000001</ele><time>2026-05-02T15:34:20Z</time></trkpt><trkpt lat="45.47807320227283" lon="10.020394951109331"><ele>106.0</ele><time>2026-05-02T15:34:21Z</time></trkpt><trkpt lat="45.47803860145908" lon="10.020262693640332"><ele>106.25</ele><time>2026-05-02T15:34:22Z</time></trkpt><trkpt lat="45.47800135254024" lon="10.020126787050176"><ele>106.5</ele><time>2026-05-02T15:34:23Z</time></trkpt><trkpt lat="45.47798179088476" lon="10.01997030065958"><ele>106.75</ele><time>2026-05-02T15:34:24.001Z</time></trkpt><trkpt lat="45.47796958837084" lon="10.019798707546613"><ele>107.0</ele><time>2026-05-02T15:34:25.001Z</time></trkpt><trkpt lat="45.47796192662656" lon="10.019624064074096"><ele>107.0</ele><time>2026-05-02T15:34:26.001Z</time></trkpt><trkpt lat="45.477953052691575" lon="10.019435294762442"><ele>107.0</ele><time>2026-05-02T15:34:27.001Z</time></trkpt><trkpt lat="45.47794126845175" lon="10.019251872673347"><ele>107.0</ele><time>2026-05-02T15:34:28.001Z</time></trkpt><trkpt lat="45.47792432898239" lon="10.019076968592463"><ele>107.0</ele><time>2026-05-02T15:34:29.001Z</time></trkpt><trkpt lat="45.477919114210934" lon="10.018894156521958"><ele>107.0</ele><time>2026-05-02T15:34:30.001Z</time></trkpt><trkpt lat="45.47791053181811" lon="10.0187153076583"><ele>107.0</ele><time>2026-05-02T15:34:31.001Z</time></trkpt><trkpt lat="45.477901588473486" lon="10.018525966398842"><ele>107.0</ele><time>2026-05-02T15:34:32.001Z</time></trkpt><trkpt lat="45.477893148764586" lon="10.018353533447828"><ele>107.0</ele><time>2026-05-02T15:34:33.001Z</time></trkpt><trkpt lat="45.477890800814734" lon="10.018214038195852"><ele>107.19999999999999</ele><time>2026-05-02T15:34:34.001Z</time></trkpt><trkpt lat="45.47789366206197" lon="10.018097434617681"><ele>107.39999999999999</ele><time>2026-05-02T15:34:35.001Z</time></trkpt><trkpt lat="45.47789655380752" lon="10.017977674258205"><ele>107.60000000000001</ele><time>2026-05-02T15:34:36.001Z</time></trkpt><trkpt lat="45.47790200954594" lon="10.017855264690912"><ele>107.80000000000001</ele><time>2026-05-02T15:34:37.001Z</time></trkpt><trkpt lat="45.47790681750255" lon="10.017719880634617"><ele>108.0</ele><time>2026-05-02T15:34:38.001Z</time></trkpt><trkpt lat="45.47791562653453" lon="10.01757164128538"><ele>108.0</ele><time>2026-05-02T15:34:39.001Z</time></trkpt><trkpt lat="45.47792693625456" lon="10.017421505326869"><ele>108.0</ele><time>2026-05-02T15:34:40.001Z</time></trkpt><trkpt lat="45.47793747952414" lon="10.017257725303727"><ele>108.0</ele><time>2026-05-02T15:34:41.001Z</time></trkpt><trkpt lat="45.47794805163562" lon="10.017081318165149"><ele>108.0</ele><time>2026-05-02T15:34:42.001Z</time></trkpt><trkpt lat="45.47795846460175" lon="10.016887718978365"><ele>108.0</ele><time>2026-05-02T15:34:43.001Z</time></trkpt><trkpt lat="45.47796686290635" lon="10.016691193982645"><ele>108.0</ele><time>2026-05-02T15:34:44.001Z</time></trkpt><trkpt lat="45.47797287977007" lon="10.01649838329032"><ele>108.0</ele><time>2026-05-02T15:34:45.001Z</time></trkpt><trkpt lat="45.47797802064259" lon="10.016307973158426"><ele>108.0</ele><time>2026-05-02T15:34:46.001Z</time></trkpt><trkpt lat="45.477966036350566" lon="10.016124234282765"><ele>108.0</ele><time>2026-05-02T15:34:47.001Z</time></trkpt><trkpt lat="45.477929182594515" lon="10.015941795666631"><ele>108.0</ele><time>2026-05-02T15:34:48.001Z</time></trkpt><trkpt lat="45.47789071672146" lon="10.015758919625092"><ele>108.0</ele><time>2026-05-02T15:34:49.001Z</time></trkpt><trkpt lat="45.477847731896574" lon="10.015569912883977"><ele>108.0</ele><time>2026-05-02T15:34:50.001Z</time></trkpt><trkpt lat="45.47780051294186" lon="10.015375440818467"><ele>108.0</ele><time>2026-05-02T15:34:51.001Z</time></trkpt><trkpt lat="45.47775540738759" lon="10.015194509508849"><ele>108.0</ele><time>2026-05-02T15:34:52.001Z</time></trkpt><trkpt lat="45.47772180296377" lon="10.015021911694893"><ele>108.0</ele><time>2026-05-02T15:34:53.001Z</time></trkpt><trkpt lat="45.47769268482728" lon="10.014849433995272"><ele>108.0</ele><time>2026-05-02T15:34:54.001Z</time></trkpt><trkpt lat="45.47766265654443" lon="10.014674857845819"><ele>108.25</ele><time>2026-05-02T15:34:55.001Z</time></trkpt><trkpt lat="45.47762685299452" lon="10.014501658351024"><ele>108.5</ele><time>2026-05-02T15:34:56.001Z</time></trkpt><trkpt lat="45.47758814501741" lon="10.014323360631346"><ele>108.75</ele><time>2026-05-02T15:34:57.001Z</time></trkpt><trkpt lat="45.47754668969132" lon="10.014157447055346"><ele>109.0</ele><time>2026-05-02T15:34:58.001Z</time></trkpt><trkpt lat="45.47750351070174" lon="10.014010282430196"><ele>109.00000000000001</ele><time>2026-05-02T15:34:59.001Z</time></trkpt><trkpt lat="45.47746689782055" lon="10.0138937369732"><ele>109.0</ele><time>2026-05-02T15:35:00.001Z</time></trkpt><trkpt lat="45.47742989404171" lon="10.013793887439416"><ele>109.0</ele><time>2026-05-02T15:35:01.001Z</time></trkpt><trkpt lat="45.47739806231202" lon="10.013696928235277"><ele>109.0</ele><time>2026-05-02T15:35:02.001Z</time></trkpt><trkpt lat="45.4773718802315" lon="10.013613935511158"><ele>109.00000000000001</ele><time>2026-05-02T15:35:03.001Z</time></trkpt><trkpt lat="45.47734349375208" lon="10.013523755709997"><ele>109.0</ele><time>2026-05-02T15:35:05.001Z</time></trkpt><trkpt lat="45.47735391203008" lon="10.013388876801763"><ele>108.83333333333334</ele><time>2026-05-02T15:35:25.001Z</time></trkpt><trkpt lat="45.47728962440283" lon="10.013311706958921"><ele>108.66666666666667</ele><time>2026-05-02T15:35:26.001Z</time></trkpt><trkpt lat="45.47725483657246" lon="10.013193571551842"><ele>108.5</ele><time>2026-05-02T15:35:27.001Z</time></trkpt><trkpt lat="45.477224880087846" lon="10.01308494874542"><ele>108.33333333333334</ele><time>2026-05-02T15:35:28.001Z</time></trkpt><trkpt lat="45.47720485994081" lon="10.012982196019664"><ele>108.16666666666667</ele><time>2026-05-02T15:35:29.001Z</time></trkpt><trkpt lat="45.47718462661409" lon="10.012837455073521"><ele>108.0</ele><time>2026-05-02T15:35:31.001Z</time></trkpt><trkpt lat="45.4771736963813" lon="10.012653361377199"><ele>108.0</ele><time>2026-05-02T15:35:33.002Z</time></trkpt><trkpt lat="45.477192328317315" lon="10.012523493901753"><ele>108.00000000000001</ele><time>2026-05-02T15:35:34.002Z</time></trkpt><trkpt lat="45.47720126982232" lon="10.012380391407309"><ele>108.00000000000001</ele><time>2026-05-02T15:35:35.002Z</time></trkpt><trkpt lat="45.4772160703313" lon="10.012218764596849"><ele>108.0</ele><time>2026-05-02T15:35:36.002Z</time></trkpt><trkpt lat="45.477231188562456" lon="10.012053668013131"><ele>108.0</ele><time>2026-05-02T15:35:37.002Z</time></trkpt><trkpt lat="45.477245972681246" lon="10.011887154816728"><ele>108.25</ele><time>2026-05-02T15:35:38.002Z</time></trkpt><trkpt lat="45.4772601281626" lon="10.011713460043696"><ele>108.5</ele><time>2026-05-02T15:35:39.002Z</time></trkpt><trkpt lat="45.477266669118045" lon="10.01153590583083"><ele>108.75</ele><time>2026-05-02T15:35:40.002Z</time></trkpt><trkpt lat="45.47728134245099" lon="10.011343457244237"><ele>109.0</ele><time>2026-05-02T15:35:41.002Z</time></trkpt><trkpt lat="45.47729444948331" lon="10.011161033925745"><ele>109.0</ele><time>2026-05-02T15:35:42.002Z</time></trkpt><trkpt lat="45.47730553115058" lon="10.010992014512304"><ele>109.0</ele><time>2026-05-02T15:35:43.002Z</time></trkpt><trkpt lat="45.47730704166578" lon="10.010849334353878"><ele>109.0</ele><time>2026-05-02T15:35:44.002Z</time></trkpt><trkpt lat="45.47730833758156" lon="10.010733342330186"><ele>109.0</ele><time>2026-05-02T15:35:45.002Z</time></trkpt><trkpt lat="45.47730905427603" lon="10.010642351682797"><ele>109.0</ele><time>2026-05-02T15:35:46.002Z</time></trkpt><trkpt lat="45.47717660577933" lon="10.010704532813476"><ele>108.80000000000001</ele><time>2026-05-02T15:35:50.002Z</time></trkpt><trkpt lat="45.4770920890805" lon="10.01084826062889"><ele>108.60000000000001</ele><time>2026-05-02T15:35:52.002Z</time></trkpt><trkpt lat="45.47702977593761" lon="10.01092446991845"><ele>108.4</ele><time>2026-05-02T15:35:53Z</time></trkpt><trkpt lat="45.47696793853793" lon="10.011019931491782"><ele>108.2</ele><time>2026-05-02T15:35:54Z</time></trkpt><trkpt lat="45.476915519764056" lon="10.01113149773745"><ele>108.0</ele><time>2026-05-02T15:35:55Z</time></trkpt><trkpt lat="45.47685829643457" lon="10.011217033659019"><ele>108.0</ele><time>2026-05-02T15:35:56Z</time></trkpt><trkpt lat="45.47679745728276" lon="10.011354706482365"><ele>108.0</ele><time>2026-05-02T15:35:58Z</time></trkpt><trkpt lat="45.4767578348838" lon="10.011435232388186"><ele>108.0</ele><time>2026-05-02T15:36:01Z</time></trkpt><trkpt lat="45.47673017794556" lon="10.011523831456666"><ele>108.0</ele><time>2026-05-02T15:39:36.001Z</time></trkpt><trkpt lat="45.476734368733595" lon="10.011630965648493"><ele>108.0</ele><time>2026-05-02T15:39:42.001Z</time></trkpt><trkpt lat="45.47675952985503" lon="10.011532485001998"><ele>108.0</ele><time>2026-05-02T15:53:33Z</time></trkpt><trkpt lat="45.47676425217567" lon="10.011433405993634"><ele>108.0</ele><time>2026-05-02T15:53:43Z</time></trkpt><trkpt lat="45.476719692037776" lon="10.011534213901363"><ele>108.0</ele><time>2026-05-02T15:58:19.001Z</time></trkpt><trkpt lat="45.47667935020075" lon="10.011636799204314"><ele>108.0</ele><time>2026-05-02T15:58:21.001Z</time></trkpt><trkpt lat="45.47662918853386" lon="10.011730738561923"><ele>108.0</ele><time>2026-05-02T15:58:23.001Z</time></trkpt><trkpt lat="45.47658826878858" lon="10.011840474280985"><ele>108.0</ele><time>2026-05-02T15:58:25.001Z</time></trkpt><trkpt lat="45.47654263841142" lon="10.011958382127089"><ele>108.0</ele><time>2026-05-02T15:58:27.001Z</time></trkpt><trkpt lat="45.476501547172965" lon="10.012091269473453"><ele>108.0</ele><time>2026-05-02T15:58:29.001Z</time></trkpt><trkpt lat="45.476398338767034" lon="10.012200677970707"><ele>108.0</ele><time>2026-05-02T15:58:31.001Z</time></trkpt><trkpt lat="45.47636939362224" lon="10.012315553804154"><ele>108.0</ele><time>2026-05-02T15:58:33.001Z</time></trkpt><trkpt lat="45.47634869441236" lon="10.012411928253874"><ele>108.0</ele><time>2026-05-02T15:58:38.001Z</time></trkpt><trkpt lat="45.47650442756845" lon="10.01250715177565"><ele>108.0</ele><time>2026-05-02T15:58:40.001Z</time></trkpt><trkpt lat="45.476570927585314" lon="10.012520484455884"><ele>108.00000000000001</ele><time>2026-05-02T15:58:41.001Z</time></trkpt><trkpt lat="45.47668232703863" lon="10.01256148083022"><ele>108.00000000000001</ele><time>2026-05-02T15:58:43.001Z</time></trkpt><trkpt lat="45.47679894149845" lon="10.012599512144705"><ele>108.0</ele><time>2026-05-02T15:58:45.001Z</time></trkpt><trkpt lat="45.47691506093619" lon="10.012638611949255"><ele>108.0</ele><time>2026-05-02T15:58:47.001Z</time></trkpt><trkpt lat="45.477018334800206" lon="10.012673527329127"><ele>108.0</ele><time>2026-05-02T15:58:49.001Z</time></trkpt><trkpt lat="45.47711209068404" lon="10.012728432406368"><ele>108.0</ele><time>2026-05-02T15:58:51.001Z</time></trkpt><trkpt lat="45.47721186684975" lon="10.012433795117703"><ele>108.0</ele><time>2026-05-02T15:58:54.001Z</time></trkpt><trkpt lat="45.47721549640235" lon="10.012339427789874"><ele>108.0</ele><time>2026-05-02T15:58:55.002Z</time></trkpt><trkpt lat="45.47721963610977" lon="10.0121661341262"><ele>108.2</ele><time>2026-05-02T15:58:57.002Z</time></trkpt><trkpt lat="45.477227802742995" lon="10.011997511358398"><ele>108.4</ele><time>2026-05-02T15:58:59.002Z</time></trkpt><trkpt lat="45.477243101332895" lon="10.011819136757591"><ele>108.60000000000001</ele><time>2026-05-02T15:59:01.002Z</time></trkpt><trkpt lat="45.47724928790139" lon="10.011720811044562"><ele>108.80000000000001</ele><time>2026-05-02T15:59:02.002Z</time></trkpt><trkpt lat="45.4772566627612" lon="10.011614777299725"><ele>109.0</ele><time>2026-05-02T15:59:03.002Z</time></trkpt><trkpt lat="45.47727091055391" lon="10.011502332565806"><ele>109.00000000000001</ele><time>2026-05-02T15:59:04.002Z</time></trkpt><trkpt lat="45.47727445281597" lon="10.011378746193323"><ele>109.0</ele><time>2026-05-02T15:59:05.002Z</time></trkpt><trkpt lat="45.47728386708388" lon="10.011259277656832"><ele>109.0</ele><time>2026-05-02T15:59:06.002Z</time></trkpt><trkpt lat="45.47729674060745" lon="10.011145992038768"><ele>109.0</ele><time>2026-05-02T15:59:07.002Z</time></trkpt><trkpt lat="45.47730560956749" lon="10.011017237553231"><ele>109.00000000000001</ele><time>2026-05-02T15:59:08.002Z</time></trkpt><trkpt lat="45.47730813589144" lon="10.010869737665733"><ele>109.0</ele><time>2026-05-02T15:59:09.002Z</time></trkpt><trkpt lat="45.47730806471053" lon="10.01071675666594"><ele>109.25</ele><time>2026-05-02T15:59:10.002Z</time></trkpt><trkpt lat="45.47730615817949" lon="10.010558263762597"><ele>109.5</ele><time>2026-05-02T15:59:11.002Z</time></trkpt><trkpt lat="45.47730200504083" lon="10.010390905075516"><ele>109.75</ele><time>2026-05-02T15:59:12.002Z</time></trkpt><trkpt lat="45.47729279994987" lon="10.010217681077947"><ele>110.0</ele><time>2026-05-02T15:59:13.002Z</time></trkpt><trkpt lat="45.477285866439594" lon="10.010049532239753"><ele>109.5</ele><time>2026-05-02T15:59:14.002Z</time></trkpt><trkpt lat="45.47727079968131" lon="10.009877172707082"><ele>109.0</ele><time>2026-05-02T15:59:15.002Z</time></trkpt><trkpt lat="45.47725379172037" lon="10.009711569419597"><ele>108.5</ele><time>2026-05-02T15:59:16.002Z</time></trkpt><trkpt lat="45.47723154271421" lon="10.00954214249098"><ele>108.0</ele><time>2026-05-02T15:59:17.002Z</time></trkpt><trkpt lat="45.47720326994517" lon="10.009373148633603"><ele>108.0</ele><time>2026-05-02T15:59:18.002Z</time></trkpt><trkpt lat="45.47717436932869" lon="10.009201203132179"><ele>108.0</ele><time>2026-05-02T15:59:19Z</time></trkpt><trkpt lat="45.47714708113897" lon="10.00902687019626"><ele>108.0</ele><time>2026-05-02T15:59:20Z</time></trkpt><trkpt lat="45.477119642339936" lon="10.008849221713211"><ele>108.0</ele><time>2026-05-02T15:59:21Z</time></trkpt><trkpt lat="45.47708983505121" lon="10.008668353743314"><ele>108.0</ele><time>2026-05-02T15:59:22Z</time></trkpt><trkpt lat="45.47706342654521" lon="10.008490864899056"><ele>108.0</ele><time>2026-05-02T15:59:23Z</time></trkpt><trkpt lat="45.47704132713462" lon="10.008312796117485"><ele>108.0</ele><time>2026-05-02T15:59:24Z</time></trkpt><trkpt lat="45.47702052252323" lon="10.008135514574466"><ele>108.0</ele><time>2026-05-02T15:59:25Z</time></trkpt><trkpt lat="45.47700381321212" lon="10.007950287179769"><ele>108.0</ele><time>2026-05-02T15:59:26Z</time></trkpt><trkpt lat="45.47699296742076" lon="10.00776920364834"><ele>108.0</ele><time>2026-05-02T15:59:27Z</time></trkpt><trkpt lat="45.47699282463669" lon="10.007580692906933"><ele>108.0</ele><time>2026-05-02T15:59:28Z</time></trkpt><trkpt lat="45.47699935843823" lon="10.007398818727308"><ele>108.0</ele><time>2026-05-02T15:59:29Z</time></trkpt><trkpt lat="45.477012977024785" lon="10.00722338337917"><ele>108.0</ele><time>2026-05-02T15:59:30Z</time></trkpt><trkpt lat="45.47702506592499" lon="10.007047042586787"><ele>108.0</ele><time>2026-05-02T15:59:31Z</time></trkpt><trkpt lat="45.477041219386" lon="10.006879242103082"><ele>108.0</ele><time>2026-05-02T15:59:32Z</time></trkpt><trkpt lat="45.4770554763061" lon="10.006711385377765"><ele>108.0</ele><time>2026-05-02T15:59:33Z</time></trkpt><trkpt lat="45.477068454041294" lon="10.006544934612025"><ele>108.0</ele><time>2026-05-02T15:59:34Z</time></trkpt><trkpt lat="45.47708459927289" lon="10.00639829091896"><ele>108.0</ele><time>2026-05-02T15:59:35Z</time></trkpt><trkpt lat="45.477097782494795" lon="10.006275624252224"><ele>108.0</ele><time>2026-05-02T15:59:36Z</time></trkpt><trkpt lat="45.47712123742363" lon="10.00617588840174"><ele>108.0</ele><time>2026-05-02T15:59:37Z</time></trkpt><trkpt lat="45.47717342391835" lon="10.006099788232666"><ele>108.0</ele><time>2026-05-02T15:59:38Z</time></trkpt><trkpt lat="45.47719646266008" lon="10.006000112862157"><ele>108.0</ele><time>2026-05-02T15:59:39Z</time></trkpt><trkpt lat="45.47716576295654" lon="10.005869274373488"><ele>108.0</ele><time>2026-05-02T15:59:40Z</time></trkpt><trkpt lat="45.477117600826375" lon="10.005718220692295"><ele>108.0</ele><time>2026-05-02T15:59:41Z</time></trkpt><trkpt lat="45.477099984395004" lon="10.005533833423168"><ele>108.0</ele><time>2026-05-02T15:59:42Z</time></trkpt><trkpt lat="45.477101582448505" lon="10.005358151738506"><ele>108.0</ele><time>2026-05-02T15:59:43Z</time></trkpt><trkpt lat="45.47710075199026" lon="10.005193766024565"><ele>108.0</ele><time>2026-05-02T15:59:44Z</time></trkpt><trkpt lat="45.477097368075164" lon="10.005037340349135"><ele>108.0</ele><time>2026-05-02T15:59:45Z</time></trkpt><trkpt lat="45.47709193216512" lon="10.004883153601758"><ele>108.0</ele><time>2026-05-02T15:59:46Z</time></trkpt><trkpt lat="45.47707579410129" lon="10.004715366017553"><ele>108.0</ele><time>2026-05-02T15:59:47Z</time></trkpt><trkpt lat="45.47705383330327" lon="10.004546867196376"><ele>108.0</ele><time>2026-05-02T15:59:48Z</time></trkpt><trkpt lat="45.47702292808138" lon="10.004368002175129"><ele>108.0</ele><time>2026-05-02T15:59:49Z</time></trkpt><trkpt lat="45.476987499751395" lon="10.004183908895563"><ele>108.0</ele><time>2026-05-02T15:59:50Z</time></trkpt><trkpt lat="45.4769541060664" lon="10.003988619403623"><ele>108.0</ele><time>2026-05-02T15:59:51Z</time></trkpt><trkpt lat="45.47692036941485" lon="10.003782511898796"><ele>107.66666666666666</ele><time>2026-05-02T15:59:52Z</time></trkpt><trkpt lat="45.47688407124927" lon="10.003570921397843"><ele>107.33333333333333</ele><time>2026-05-02T15:59:53Z</time></trkpt><trkpt lat="45.47684392328446" lon="10.0033470975583"><ele>107.0</ele><time>2026-05-02T15:59:54.001Z</time></trkpt><trkpt lat="45.47680591666346" lon="10.003124317014526"><ele>106.66666666666666</ele><time>2026-05-02T15:59:55.001Z</time></trkpt><trkpt lat="45.47677323836839" lon="10.002913032820395"><ele>106.33333333333334</ele><time>2026-05-02T15:59:56.001Z</time></trkpt><trkpt lat="45.47674091293776" lon="10.00269782468662"><ele>106.0</ele><time>2026-05-02T15:59:57.001Z</time></trkpt><trkpt lat="45.47670693685444" lon="10.002485907574021"><ele>106.0</ele><time>2026-05-02T15:59:58.001Z</time></trkpt><trkpt lat="45.47667166364409" lon="10.002266400022947"><ele>106.0</ele><time>2026-05-02T15:59:59.001Z</time></trkpt><trkpt lat="45.476638630900794" lon="10.002045925768508"><ele>106.0</ele><time>2026-05-02T16:00:00.001Z</time></trkpt><trkpt lat="45.47660501278379" lon="10.001819660632911"><ele>106.33333333333334</ele><time>2026-05-02T16:00:01.001Z</time></trkpt><trkpt lat="45.476567070767146" lon="10.001586027075168"><ele>106.66666666666666</ele><time>2026-05-02T16:00:02.001Z</time></trkpt><trkpt lat="45.476531235341454" lon="10.001361000270995"><ele>107.0</ele><time>2026-05-02T16:00:03.001Z</time></trkpt><trkpt lat="45.47649175468663" lon="10.001127693503127"><ele>107.0</ele><time>2026-05-02T16:00:04.001Z</time></trkpt><trkpt lat="45.47645180649247" lon="10.000893808843625"><ele>107.0</ele><time>2026-05-02T16:00:05.001Z</time></trkpt><trkpt lat="45.47641368450548" lon="10.000654249094215"><ele>107.0</ele><time>2026-05-02T16:00:06.001Z</time></trkpt><trkpt lat="45.47637548198328" lon="10.00041251910715"><ele>107.0</ele><time>2026-05-02T16:00:07.001Z</time></trkpt><trkpt lat="45.4763379841018" lon="10.000170789692591"><ele>107.0</ele><time>2026-05-02T16:00:08.001Z</time></trkpt><trkpt lat="45.476305455444226" lon="9.999921436313667"><ele>107.0</ele><time>2026-05-02T16:00:09.001Z</time></trkpt><trkpt lat="45.47627978771882" lon="9.999676257705175"><ele>106.66666666666666</ele><time>2026-05-02T16:00:10.001Z</time></trkpt><trkpt lat="45.47625817209928" lon="9.999424589022263"><ele>106.33333333333334</ele><time>2026-05-02T16:00:11.001Z</time></trkpt><trkpt lat="45.476236525250584" lon="9.999169805760575"><ele>106.0</ele><time>2026-05-02T16:00:12.001Z</time></trkpt><trkpt lat="45.47621544302673" lon="9.99891511064916"><ele>105.66666666666667</ele><time>2026-05-02T16:00:13.001Z</time></trkpt><trkpt lat="45.476194119930476" lon="9.998661776527113"><ele>105.33333333333334</ele><time>2026-05-02T16:00:14.001Z</time></trkpt><trkpt lat="45.47617013661048" lon="9.998411891727283"><ele>105.0</ele><time>2026-05-02T16:00:15.001Z</time></trkpt><trkpt lat="45.47614371466985" lon="9.998158123649723"><ele>104.66666666666666</ele><time>2026-05-02T16:00:16.001Z</time></trkpt><trkpt lat="45.47611882273562" lon="9.997901342251978"><ele>104.33333333333333</ele><time>2026-05-02T16:00:17.001Z</time></trkpt><trkpt lat="45.47609558054449" lon="9.99765214891205"><ele>104.0</ele><time>2026-05-02T16:00:18.001Z</time></trkpt><trkpt lat="45.47607279245712" lon="9.997406858625393"><ele>104.66666666666666</ele><time>2026-05-02T16:00:19.001Z</time></trkpt><trkpt lat="45.47604968389147" lon="9.997164822457346"><ele>105.33333333333334</ele><time>2026-05-02T16:00:20.001Z</time></trkpt><trkpt lat="45.4760250552843" lon="9.996925602740221"><ele>106.0</ele><time>2026-05-02T16:00:21.001Z</time></trkpt><trkpt lat="45.4759986927572" lon="9.996694656726751"><ele>105.66666666666667</ele><time>2026-05-02T16:00:22.001Z</time></trkpt><trkpt lat="45.47596732608291" lon="9.996469286584208"><ele>105.33333333333334</ele><time>2026-05-02T16:00:23.001Z</time></trkpt><trkpt lat="45.475926471408116" lon="9.99625954881751"><ele>105.0</ele><time>2026-05-02T16:00:24.001Z</time></trkpt><trkpt lat="45.47588398592377" lon="9.996063982604307"><ele>105.0</ele><time>2026-05-02T16:00:25.001Z</time></trkpt><trkpt lat="45.47583672029889" lon="9.99587190684255"><ele>105.0</ele><time>2026-05-02T16:00:26.001Z</time></trkpt><trkpt lat="45.4757885150068" lon="9.99568185853305"><ele>105.0</ele><time>2026-05-02T16:00:27.001Z</time></trkpt><trkpt lat="45.47574035520467" lon="9.99548717678254"><ele>105.0</ele><time>2026-05-02T16:00:28.001Z</time></trkpt><trkpt lat="45.475693177949424" lon="9.995286378548222"><ele>105.0</ele><time>2026-05-02T16:00:29.001Z</time></trkpt><trkpt lat="45.47564609661709" lon="9.995081517647911"><ele>105.0</ele><time>2026-05-02T16:00:30.001Z</time></trkpt><trkpt lat="45.475598161342795" lon="9.9948707493039"><ele>105.0</ele><time>2026-05-02T16:00:31.001Z</time></trkpt><trkpt lat="45.47554830677251" lon="9.994660482640933"><ele>105.0</ele><time>2026-05-02T16:00:32.001Z</time></trkpt><trkpt lat="45.475495286363014" lon="9.994450635682899"><ele>105.0</ele><time>2026-05-02T16:00:33.001Z</time></trkpt><trkpt lat="45.47544106130653" lon="9.994236505685107"><ele>105.0</ele><time>2026-05-02T16:00:34.001Z</time></trkpt><trkpt lat="45.47538786374004" lon="9.994012279693912"><ele>105.0</ele><time>2026-05-02T16:00:35.001Z</time></trkpt><trkpt lat="45.47533942329131" lon="9.993793628997702"><ele>105.0</ele><time>2026-05-02T16:00:36.001Z</time></trkpt><trkpt lat="45.4752890866153" lon="9.993580124506764"><ele>105.0</ele><time>2026-05-02T16:00:37.002Z</time></trkpt><trkpt lat="45.47525019314327" lon="9.993384278477736"><ele>105.0</ele><time>2026-05-02T16:00:38.002Z</time></trkpt><trkpt lat="45.4752185134836" lon="9.993186850290328"><ele>105.0</ele><time>2026-05-02T16:00:39.002Z</time></trkpt><trkpt lat="45.475192934592634" lon="9.992990478805059"><ele>105.0</ele><time>2026-05-02T16:00:40.002Z</time></trkpt><trkpt lat="45.47516709885829" lon="9.99280324341651"><ele>105.0</ele><time>2026-05-02T16:00:41.002Z</time></trkpt><trkpt lat="45.47514337588131" lon="9.992625043390507"><ele>105.0</ele><time>2026-05-02T16:00:42.002Z</time></trkpt><trkpt lat="45.47512046944067" lon="9.992457027224951"><ele>105.0</ele><time>2026-05-02T16:00:43.002Z</time></trkpt><trkpt lat="45.47509658711578" lon="9.99228848268408"><ele>105.0</ele><time>2026-05-02T16:00:44.002Z</time></trkpt><trkpt lat="45.47507087966812" lon="9.992109420482658"><ele>105.0</ele><time>2026-05-02T16:00:45.002Z</time></trkpt><trkpt lat="45.475044242590144" lon="9.991931846597081"><ele>105.0</ele><time>2026-05-02T16:00:46.002Z</time></trkpt><trkpt lat="45.4750156568902" lon="9.991751781937245"><ele>105.0</ele><time>2026-05-02T16:00:47.002Z</time></trkpt><trkpt lat="45.474986663499394" lon="9.991564306385051"><ele>105.0</ele><time>2026-05-02T16:00:48.002Z</time></trkpt><trkpt lat="45.474962078456954" lon="9.991377445792839"><ele>105.0</ele><time>2026-05-02T16:00:49.002Z</time></trkpt><trkpt lat="45.474939053780304" lon="9.991207873163773"><ele>104.75</ele><time>2026-05-02T16:00:50.002Z</time></trkpt><trkpt lat="45.47491757820855" lon="9.991044468228765"><ele>104.5</ele><time>2026-05-02T16:00:51.002Z</time></trkpt><trkpt lat="45.47489893129765" lon="9.990890565628215"><ele>104.25</ele><time>2026-05-02T16:00:52.002Z</time></trkpt><trkpt lat="45.47487626431914" lon="9.990730456227602"><ele>104.0</ele><time>2026-05-02T16:00:53.002Z</time></trkpt><trkpt lat="45.47485262507261" lon="9.990571354543404"><ele>104.4</ele><time>2026-05-02T16:00:54.002Z</time></trkpt><trkpt lat="45.47482880854894" lon="9.990410553312513"><ele>104.80000000000001</ele><time>2026-05-02T16:00:55.002Z</time></trkpt><trkpt lat="45.474804553595256" lon="9.99025205816268"><ele>105.19999999999999</ele><time>2026-05-02T16:00:56.002Z</time></trkpt><trkpt lat="45.47478047991531" lon="9.990100385018065"><ele>105.6</ele><time>2026-05-02T16:00:57.002Z</time></trkpt><trkpt lat="45.47475689383754" lon="9.989946159793426"><ele>106.0</ele><time>2026-05-02T16:00:58.002Z</time></trkpt><trkpt lat="45.47473215604406" lon="9.989781626666936"><ele>106.0</ele><time>2026-05-02T16:00:59.002Z</time></trkpt><trkpt lat="45.47470684097689" lon="9.989609692000702"><ele>106.0</ele><time>2026-05-02T16:01:00.002Z</time></trkpt><trkpt lat="45.47468039711358" lon="9.98943727027911"><ele>106.0</ele><time>2026-05-02T16:01:01.002Z</time></trkpt><trkpt lat="45.47465326285789" lon="9.989265263069269"><ele>106.0</ele><time>2026-05-02T16:01:02.002Z</time></trkpt><trkpt lat="45.47462680368162" lon="9.989092071238167"><ele>105.75</ele><time>2026-05-02T16:01:03.002Z</time></trkpt><trkpt lat="45.47460151016165" lon="9.988924417915692"><ele>105.5</ele><time>2026-05-02T16:01:04.002Z</time></trkpt><trkpt lat="45.47457908747554" lon="9.988763863583262"><ele>105.25</ele><time>2026-05-02T16:01:05.002Z</time></trkpt><trkpt lat="45.47455594146172" lon="9.988596162632259"><ele>105.0</ele><time>2026-05-02T16:01:06.002Z</time></trkpt><trkpt lat="45.47453507866058" lon="9.988436646121457"><ele>105.25</ele><time>2026-05-02T16:01:07.002Z</time></trkpt><trkpt lat="45.474517600168554" lon="9.9882771915591"><ele>105.5</ele><time>2026-05-02T16:01:08.002Z</time></trkpt><trkpt lat="45.47450288751205" lon="9.98811307332137"><ele>105.75</ele><time>2026-05-02T16:01:09.002Z</time></trkpt><trkpt lat="45.47449013831177" lon="9.98795312203173"><ele>106.0</ele><time>2026-05-02T16:01:10.002Z</time></trkpt><trkpt lat="45.47447926059941" lon="9.987796147877571"><ele>106.00000000000001</ele><time>2026-05-02T16:01:11.002Z</time></trkpt><trkpt lat="45.47446786879373" lon="9.987657195204747"><ele>106.0</ele><time>2026-05-02T16:01:12.002Z</time></trkpt><trkpt lat="45.47445471380873" lon="9.987521167480809"><ele>106.0</ele><time>2026-05-02T16:01:13.002Z</time></trkpt><trkpt lat="45.47444149554207" lon="9.987395097976568"><ele>106.0</ele><time>2026-05-02T16:01:14.002Z</time></trkpt><trkpt lat="45.47443090725606" lon="9.98728502494668"><ele>106.00000000000001</ele><time>2026-05-02T16:01:15.002Z</time></trkpt><trkpt lat="45.47441613660604" lon="9.987173546264362"><ele>106.0</ele><time>2026-05-02T16:01:16.002Z</time></trkpt><trkpt lat="45.474403015064624" lon="9.987055306739256"><ele>106.16666666666667</ele><time>2026-05-02T16:01:17.002Z</time></trkpt><trkpt lat="45.47439715362524" lon="9.986933122987827"><ele>106.33333333333334</ele><time>2026-05-02T16:01:18.002Z</time></trkpt><trkpt lat="45.47438663922954" lon="9.986823535994283"><ele>106.5</ele><time>2026-05-02T16:01:19.002Z</time></trkpt><trkpt lat="45.47437843532438" lon="9.986715672647074"><ele>106.66666666666666</ele><time>2026-05-02T16:01:20.002Z</time></trkpt><trkpt lat="45.4743681860284" lon="9.986597774530702"><ele>106.83333333333333</ele><time>2026-05-02T16:01:21.003Z</time></trkpt><trkpt lat="45.474356433160274" lon="9.98646556890366"><ele>107.0</ele><time>2026-05-02T16:01:22.003Z</time></trkpt><trkpt lat="45.474340463750394" lon="9.98632266779813"><ele>107.0</ele><time>2026-05-02T16:01:23.003Z</time></trkpt><trkpt lat="45.47432287152859" lon="9.986168188633998"><ele>106.99999999999999</ele><time>2026-05-02T16:01:24.003Z</time></trkpt><trkpt lat="45.47431142019515" lon="9.986017538496062"><ele>106.99999999999999</ele><time>2026-05-02T16:01:25Z</time></trkpt><trkpt lat="45.47430425888892" lon="9.98587035497715"><ele>107.0</ele><time>2026-05-02T16:01:26Z</time></trkpt><trkpt lat="45.474297417448" lon="9.985717528637332"><ele>107.0</ele><time>2026-05-02T16:01:27Z</time></trkpt><trkpt lat="45.47429439697844" lon="9.98556622015056"><ele>107.0</ele><time>2026-05-02T16:01:28Z</time></trkpt><trkpt lat="45.474292920882654" lon="9.985421192941983"><ele>106.99999999999999</ele><time>2026-05-02T16:01:29Z</time></trkpt><trkpt lat="45.47429245724749" lon="9.985257850588356"><ele>106.99999999999999</ele><time>2026-05-02T16:01:30Z</time></trkpt><trkpt lat="45.47429757910423" lon="9.985096531772164"><ele>107.0</ele><time>2026-05-02T16:01:31Z</time></trkpt><trkpt lat="45.47430709492689" lon="9.984930039790505"><ele>107.0</ele><time>2026-05-02T16:01:32Z</time></trkpt><trkpt lat="45.47431888861796" lon="9.984769250764154"><ele>107.0</ele><time>2026-05-02T16:01:33Z</time></trkpt><trkpt lat="45.47432684754421" lon="9.984631784540419"><ele>106.99999999999999</ele><time>2026-05-02T16:01:34Z</time></trkpt><trkpt lat="45.474341821137045" lon="9.984484884064326"><ele>106.99999999999999</ele><time>2026-05-02T16:01:35Z</time></trkpt><trkpt lat="45.474358237093696" lon="9.984330872638449"><ele>107.0</ele><time>2026-05-02T16:01:36Z</time></trkpt><trkpt lat="45.47437191570443" lon="9.984158427041628"><ele>107.0</ele><time>2026-05-02T16:01:37Z</time></trkpt><trkpt lat="45.4743882613549" lon="9.983974497224487"><ele>106.8</ele><time>2026-05-02T16:01:38Z</time></trkpt><trkpt lat="45.474401211919336" lon="9.983804592573408"><ele>106.6</ele><time>2026-05-02T16:01:39Z</time></trkpt><trkpt lat="45.47441322047962" lon="9.983654075435927"><ele>106.39999999999999</ele><time>2026-05-02T16:01:40Z</time></trkpt><trkpt lat="45.4744259985347" lon="9.983507416394195"><ele>106.19999999999999</ele><time>2026-05-02T16:01:41Z</time></trkpt><trkpt lat="45.47443860575768" lon="9.983351706262866"><ele>106.0</ele><time>2026-05-02T16:01:42Z</time></trkpt><trkpt lat="45.47444963926941" lon="9.983196236450079"><ele>106.0</ele><time>2026-05-02T16:01:43Z</time></trkpt><trkpt lat="45.47446322294952" lon="9.983047465002631"><ele>106.0</ele><time>2026-05-02T16:01:44Z</time></trkpt><trkpt lat="45.47447603531379" lon="9.982903882311145"><ele>106.0</ele><time>2026-05-02T16:01:45Z</time></trkpt><trkpt lat="45.474483374524986" lon="9.982748801976031"><ele>106.0</ele><time>2026-05-02T16:01:46Z</time></trkpt><trkpt lat="45.474494101830416" lon="9.98261237910146"><ele>106.0</ele><time>2026-05-02T16:01:47Z</time></trkpt><trkpt lat="45.4745055374669" lon="9.982482254433387"><ele>106.0</ele><time>2026-05-02T16:01:48Z</time></trkpt><trkpt lat="45.474519202539234" lon="9.982335793826975"><ele>106.0</ele><time>2026-05-02T16:01:49Z</time></trkpt><trkpt lat="45.474532994368374" lon="9.982177666776398"><ele>106.0</ele><time>2026-05-02T16:01:50Z</time></trkpt><trkpt lat="45.47454755087135" lon="9.982034116437694"><ele>106.0</ele><time>2026-05-02T16:01:51Z</time></trkpt><trkpt lat="45.47455929710255" lon="9.981895957179095"><ele>106.0</ele><time>2026-05-02T16:01:52Z</time></trkpt><trkpt lat="45.47456866977739" lon="9.981773010556358"><ele>106.00000000000001</ele><time>2026-05-02T16:01:53Z</time></trkpt><trkpt lat="45.474577905280874" lon="9.981659176764657"><ele>106.0</ele><time>2026-05-02T16:01:54Z</time></trkpt><trkpt lat="45.474585518172084" lon="9.98154082351657"><ele>106.0</ele><time>2026-05-02T16:01:55.001Z</time></trkpt><trkpt lat="45.47459251547619" lon="9.981410958947565"><ele>106.0</ele><time>2026-05-02T16:01:56.001Z</time></trkpt><trkpt lat="45.47460879421624" lon="9.981285343824068"><ele>106.00000000000001</ele><time>2026-05-02T16:01:57.001Z</time></trkpt><trkpt lat="45.47461846521441" lon="9.981154620099407"><ele>106.0</ele><time>2026-05-02T16:01:58.001Z</time></trkpt><trkpt lat="45.474636998958154" lon="9.981023886352169"><ele>106.00000000000001</ele><time>2026-05-02T16:01:59.001Z</time></trkpt><trkpt lat="45.47465514962605" lon="9.980904223606844"><ele>106.0</ele><time>2026-05-02T16:02:00.001Z</time></trkpt><trkpt lat="45.474660926165136" lon="9.980798795740736"><ele>106.0</ele><time>2026-05-02T16:02:01.001Z</time></trkpt><trkpt lat="45.47467280273893" lon="9.980702352717294"><ele>106.0</ele><time>2026-05-02T16:02:02.001Z</time></trkpt><trkpt lat="45.47468468472505" lon="9.980556834922158"><ele>106.00000000000001</ele><time>2026-05-02T16:02:04.001Z</time></trkpt><trkpt lat="45.47469762383098" lon="9.980451899857329"><ele>106.0</ele><time>2026-05-02T16:02:06.001Z</time></trkpt><trkpt lat="45.474727701506666" lon="9.980363666860278"><ele>106.0</ele><time>2026-05-02T16:02:08.001Z</time></trkpt><trkpt lat="45.4748256380414" lon="9.980437572627313"><ele>106.0</ele><time>2026-05-02T16:02:10.001Z</time></trkpt><trkpt lat="45.47492897022918" lon="9.980515698352285"><ele>106.0</ele><time>2026-05-02T16:02:11.001Z</time></trkpt><trkpt lat="45.475047756844354" lon="9.980604959784474"><ele>106.0</ele><time>2026-05-02T16:02:12.001Z</time></trkpt><trkpt lat="45.47513291092225" lon="9.980668915519773"><ele>106.0</ele><time>2026-05-02T16:02:13.001Z</time></trkpt><trkpt lat="45.47520044981333" lon="9.980720555979513"><ele>106.0</ele><time>2026-05-02T16:02:14.001Z</time></trkpt><trkpt lat="45.475255866918246" lon="9.980763193267805"><ele>106.0</ele><time>2026-05-02T16:02:15.001Z</time></trkpt><trkpt lat="45.4753426377781" lon="9.98083633038336"><ele>106.0</ele><time>2026-05-02T16:02:17.001Z</time></trkpt><trkpt lat="45.47544733326883" lon="9.980561592978496"><ele>106.16666666666667</ele><time>2026-05-02T16:02:20.001Z</time></trkpt><trkpt lat="45.47545575382225" lon="9.980432627330208"><ele>106.33333333333334</ele><time>2026-05-02T16:02:21.001Z</time></trkpt><trkpt lat="45.47546967792031" lon="9.980311247912883"><ele>106.5</ele><time>2026-05-02T16:02:22.001Z</time></trkpt><trkpt lat="45.47548399182838" lon="9.980197271352756"><ele>106.66666666666666</ele><time>2026-05-02T16:02:23.001Z</time></trkpt><trkpt lat="45.47549864788355" lon="9.980091590488472"><ele>106.83333333333333</ele><time>2026-05-02T16:02:24.001Z</time></trkpt><trkpt lat="45.47551295465073" lon="9.979989333251309"><ele>107.0</ele><time>2026-05-02T16:02:25.001Z</time></trkpt><trkpt lat="45.47552638122542" lon="9.979884108052156"><ele>107.0</ele><time>2026-05-02T16:02:26.001Z</time></trkpt><trkpt lat="45.47554489237614" lon="9.979772149951385"><ele>107.0</ele><time>2026-05-02T16:02:27.001Z</time></trkpt><trkpt lat="45.47556146806657" lon="9.97963482044188"><ele>107.0</ele><time>2026-05-02T16:02:28.001Z</time></trkpt><trkpt lat="45.475597532537655" lon="9.979460061843756"><ele>107.0</ele><time>2026-05-02T16:02:29.001Z</time></trkpt><trkpt lat="45.47563136656443" lon="9.979217658902225"><ele>107.33333333333333</ele><time>2026-05-02T16:02:30.001Z</time></trkpt><trkpt lat="45.47567198729166" lon="9.978924589082363"><ele>107.66666666666666</ele><time>2026-05-02T16:02:31.001Z</time></trkpt><trkpt lat="45.47569764634128" lon="9.978651274479832"><ele>108.0</ele><time>2026-05-02T16:02:32.001Z</time></trkpt><trkpt lat="45.47573842413976" lon="9.97842843031368"><ele>107.66666666666666</ele><time>2026-05-02T16:02:33.001Z</time></trkpt><trkpt lat="45.475766026132945" lon="9.978208318087301"><ele>107.33333333333333</ele><time>2026-05-02T16:02:34.001Z</time></trkpt><trkpt lat="45.47579217489669" lon="9.977987190023084"><ele>107.0</ele><time>2026-05-02T16:02:35.001Z</time></trkpt><trkpt lat="45.475819087532855" lon="9.977761290027532"><ele>107.0</ele><time>2026-05-02T16:02:36.001Z</time></trkpt><trkpt lat="45.47584220425782" lon="9.977534348270787"><ele>107.0</ele><time>2026-05-02T16:02:37.001Z</time></trkpt><trkpt lat="45.47586682796226" lon="9.977316356627899"><ele>107.0</ele><time>2026-05-02T16:02:38.001Z</time></trkpt><trkpt lat="45.47589302855603" lon="9.977095372642452"><ele>107.0</ele><time>2026-05-02T16:02:39.001Z</time></trkpt><trkpt lat="45.475921566581476" lon="9.976868930108298"><ele>107.0</ele><time>2026-05-02T16:02:40.001Z</time></trkpt><trkpt lat="45.47594880273546" lon="9.976630019067821"><ele>107.0</ele><time>2026-05-02T16:02:41.001Z</time></trkpt><trkpt lat="45.47597578078739" lon="9.976377729431332"><ele>107.0</ele><time>2026-05-02T16:02:42.002Z</time></trkpt><trkpt lat="45.47600058507211" lon="9.976101237591058"><ele>107.0</ele><time>2026-05-02T16:02:43.002Z</time></trkpt><trkpt lat="45.4760269702654" lon="9.975814254607053"><ele>107.0</ele><time>2026-05-02T16:02:44.002Z</time></trkpt><trkpt lat="45.476046258416446" lon="9.975504484102633"><ele>107.0</ele><time>2026-05-02T16:02:45.002Z</time></trkpt><trkpt lat="45.476062651078" lon="9.975184808246759"><ele>107.0</ele><time>2026-05-02T16:02:46.002Z</time></trkpt><trkpt lat="45.47607897043407" lon="9.974865258441612"><ele>107.0</ele><time>2026-05-02T16:02:47.002Z</time></trkpt><trkpt lat="45.476095116651095" lon="9.97453450662669"><ele>106.5</ele><time>2026-05-02T16:02:48.002Z</time></trkpt><trkpt lat="45.476110506970365" lon="9.974202760332771"><ele>106.0</ele><time>2026-05-02T16:02:49.002Z</time></trkpt><trkpt lat="45.476126980408765" lon="9.97387495806765"><ele>106.0</ele><time>2026-05-02T16:02:50.002Z</time></trkpt><trkpt lat="45.47614378926311" lon="9.973542510867148"><ele>106.0</ele><time>2026-05-02T16:02:51.002Z</time></trkpt><trkpt lat="45.47616045553716" lon="9.973194448528437"><ele>106.0</ele><time>2026-05-02T16:02:52.002Z</time></trkpt><trkpt lat="45.4761789630026" lon="9.972835202144383"><ele>106.0</ele><time>2026-05-02T16:02:53.002Z</time></trkpt><trkpt lat="45.47619899242108" lon="9.972458072791165"><ele>106.0</ele><time>2026-05-02T16:02:54.002Z</time></trkpt><trkpt lat="45.47621858904015" lon="9.972061826298555"><ele>106.0</ele><time>2026-05-02T16:02:55.002Z</time></trkpt><trkpt lat="45.47623782680731" lon="9.971643414169888"><ele>105.5</ele><time>2026-05-02T16:02:56.002Z</time></trkpt><trkpt lat="45.47626246182935" lon="9.971215953090253"><ele>105.0</ele><time>2026-05-02T16:02:57.002Z</time></trkpt><trkpt lat="45.476296390850834" lon="9.970781899350815"><ele>105.0</ele><time>2026-05-02T16:02:58.002Z</time></trkpt><trkpt lat="45.47633345026814" lon="9.970366407243537"><ele>105.0</ele><time>2026-05-02T16:02:59.002Z</time></trkpt><trkpt lat="45.476371488271475" lon="9.969994426706824"><ele>105.0</ele><time>2026-05-02T16:03:00.002Z</time></trkpt><trkpt lat="45.47640893196671" lon="9.96964640202464"><ele>105.0</ele><time>2026-05-02T16:03:01.002Z</time></trkpt><trkpt lat="45.47644556684387" lon="9.969310879561636"><ele>105.0</ele><time>2026-05-02T16:03:02.002Z</time></trkpt><trkpt lat="45.47647829272653" lon="9.96898312719012"><ele>105.0</ele><time>2026-05-02T16:03:03.002Z</time></trkpt><trkpt lat="45.47650320615023" lon="9.968669196963035"><ele>105.0</ele><time>2026-05-02T16:03:04.002Z</time></trkpt><trkpt lat="45.476497296963814" lon="9.968372914246904"><ele>105.0</ele><time>2026-05-02T16:03:05.002Z</time></trkpt><trkpt lat="45.4764412915143" lon="9.968071730574385"><ele>105.0</ele><time>2026-05-02T16:03:06.002Z</time></trkpt><trkpt lat="45.476324997446106" lon="9.967789071239455"><ele>104.0</ele><time>2026-05-02T16:03:07.002Z</time></trkpt><trkpt lat="45.476193081974245" lon="9.967488189448494"><ele>103.0</ele><time>2026-05-02T16:03:08.002Z</time></trkpt><trkpt lat="45.476085274912904" lon="9.967225601939221"><ele>103.0</ele><time>2026-05-02T16:03:09.002Z</time></trkpt><trkpt lat="45.47599100785337" lon="9.966979855121165"><ele>103.0</ele><time>2026-05-02T16:03:10.002Z</time></trkpt><trkpt lat="45.47590619662567" lon="9.96675383545034"><ele>103.0</ele><time>2026-05-02T16:03:11.002Z</time></trkpt><trkpt lat="45.47583305736015" lon="9.966560418200475"><ele>103.25</ele><time>2026-05-02T16:03:12.002Z</time></trkpt><trkpt lat="45.475760040890755" lon="9.966373643922097"><ele>103.5</ele><time>2026-05-02T16:03:13.002Z</time></trkpt><trkpt lat="45.47568844624146" lon="9.96619416252873"><ele>103.75</ele><time>2026-05-02T16:03:14.002Z</time></trkpt><trkpt lat="45.47561755274546" lon="9.966019726396814"><ele>104.0</ele><time>2026-05-02T16:03:15.002Z</time></trkpt><trkpt lat="45.47555167036769" lon="9.96584917803058"><ele>104.0</ele><time>2026-05-02T16:03:16.002Z</time></trkpt><trkpt lat="45.47549373231626" lon="9.965694729649972"><ele>104.0</ele><time>2026-05-02T16:03:17.002Z</time></trkpt><trkpt lat="45.47543406094327" lon="9.965541461316976"><ele>104.0</ele><time>2026-05-02T16:03:18.002Z</time></trkpt><trkpt lat="45.475391154524594" lon="9.965404776445121"><ele>104.0</ele><time>2026-05-02T16:03:19.002Z</time></trkpt><trkpt lat="45.47534251586862" lon="9.965238535184087"><ele>104.0</ele><time>2026-05-02T16:03:20.002Z</time></trkpt><trkpt lat="45.47530186771999" lon="9.965069697616748"><ele>104.0</ele><time>2026-05-02T16:03:21.002Z</time></trkpt><trkpt lat="45.47526550089354" lon="9.964892189259093"><ele>104.0</ele><time>2026-05-02T16:03:22.002Z</time></trkpt><trkpt lat="45.47523593233015" lon="9.964706818967226"><ele>104.0</ele><time>2026-05-02T16:03:23.002Z</time></trkpt><trkpt lat="45.475212770831476" lon="9.964519098127226"><ele>104.25</ele><time>2026-05-02T16:03:24.002Z</time></trkpt><trkpt lat="45.4751901596929" lon="9.964322652339302"><ele>104.5</ele><time>2026-05-02T16:03:25.002Z</time></trkpt><trkpt lat="45.47516600545778" lon="9.964124189270393"><ele>104.75</ele><time>2026-05-02T16:03:26.002Z</time></trkpt><trkpt lat="45.475146041580416" lon="9.963928364106756"><ele>105.0</ele><time>2026-05-02T16:03:27.003Z</time></trkpt><trkpt lat="45.47512639169353" lon="9.963732118665886"><ele>105.0</ele><time>2026-05-02T16:03:28.003Z</time></trkpt><trkpt lat="45.47509932556267" lon="9.963505929603823"><ele>105.0</ele><time>2026-05-02T16:03:29.003Z</time></trkpt><trkpt lat="45.47506867652114" lon="9.963245738052269"><ele>105.0</ele><time>2026-05-02T16:03:30.003Z</time></trkpt><trkpt lat="45.47504361123029" lon="9.962950865591445"><ele>104.66666666666666</ele><time>2026-05-02T16:03:31.001Z</time></trkpt><trkpt lat="45.47502259305365" lon="9.962644056749346"><ele>104.33333333333333</ele><time>2026-05-02T16:03:32.001Z</time></trkpt><trkpt lat="45.474998834439994" lon="9.962320940407224"><ele>104.0</ele><time>2026-05-02T16:03:33.001Z</time></trkpt><trkpt lat="45.47496623865512" lon="9.96199590227738"><ele>104.0</ele><time>2026-05-02T16:03:34.001Z</time></trkpt><trkpt lat="45.47492862795801" lon="9.96167439854294"><ele>104.0</ele><time>2026-05-02T16:03:35.001Z</time></trkpt><trkpt lat="45.474893135269575" lon="9.961348581717685"><ele>104.0</ele><time>2026-05-02T16:03:36.001Z</time></trkpt><trkpt lat="45.474859462042794" lon="9.961024488876218"><ele>104.0</ele><time>2026-05-02T16:03:37.001Z</time></trkpt><trkpt lat="45.47482452458196" lon="9.960693271906697"><ele>104.5</ele><time>2026-05-02T16:03:38Z</time></trkpt><trkpt lat="45.47478356847057" lon="9.960367801589838"><ele>105.0</ele><time>2026-05-02T16:03:39.001Z</time></trkpt><trkpt lat="45.47472784581522" lon="9.96004897001563"><ele>104.66666666666666</ele><time>2026-05-02T16:03:40Z</time></trkpt><trkpt lat="45.474659216084135" lon="9.959737358133223"><ele>104.33333333333333</ele><time>2026-05-02T16:03:41Z</time></trkpt><trkpt lat="45.47458886044519" lon="9.959442066458548"><ele>104.0</ele><time>2026-05-02T16:03:42Z</time></trkpt><trkpt lat="45.474518223893284" lon="9.959151241972759"><ele>103.66666666666666</ele><time>2026-05-02T16:03:43Z</time></trkpt><trkpt lat="45.47445458523879" lon="9.958878110358508"><ele>103.33333333333334</ele><time>2026-05-02T16:03:44Z</time></trkpt><trkpt lat="45.47440063716459" lon="9.958623037883244"><ele>103.0</ele><time>2026-05-02T16:03:45Z</time></trkpt><trkpt lat="45.4743522554896" lon="9.958398745124574"><ele>103.0</ele><time>2026-05-02T16:03:46Z</time></trkpt><trkpt lat="45.47430819311654" lon="9.958200701696972"><ele>103.0</ele><time>2026-05-02T16:03:47Z</time></trkpt><trkpt lat="45.47427418994344" lon="9.958018869306951"><ele>103.0</ele><time>2026-05-02T16:03:48Z</time></trkpt><trkpt lat="45.474261442719744" lon="9.957839020200714"><ele>103.0</ele><time>2026-05-02T16:03:49.001Z</time></trkpt><trkpt lat="45.47427934347215" lon="9.957666255146405"><ele>103.0</ele><time>2026-05-02T16:03:50.001Z</time></trkpt><trkpt lat="45.47425467629539" lon="9.957496520177703"><ele>103.0</ele><time>2026-05-02T16:03:51.001Z</time></trkpt><trkpt lat="45.47417865250344" lon="9.957307974051105"><ele>103.0</ele><time>2026-05-02T16:03:52.001Z</time></trkpt><trkpt lat="45.47411625351056" lon="9.957086299473891"><ele>103.0</ele><time>2026-05-02T16:03:53.001Z</time></trkpt><trkpt lat="45.47411758760119" lon="9.956818322083633"><ele>103.0</ele><time>2026-05-02T16:03:54.001Z</time></trkpt><trkpt lat="45.474137947989576" lon="9.956530749693359"><ele>103.0</ele><time>2026-05-02T16:03:55.001Z</time></trkpt><trkpt lat="45.47420131688294" lon="9.956227157210712"><ele>103.0</ele><time>2026-05-02T16:03:56.001Z</time></trkpt><trkpt lat="45.47424430709784" lon="9.955932748443796"><ele>103.33333333333334</ele><time>2026-05-02T16:03:57.001Z</time></trkpt><trkpt lat="45.47428751888271" lon="9.95564257132419"><ele>103.66666666666666</ele><time>2026-05-02T16:03:58.001Z</time></trkpt><trkpt lat="45.474332711734746" lon="9.955353767227564"><ele>104.0</ele><time>2026-05-02T16:03:59.001Z</time></trkpt><trkpt lat="45.47437501721123" lon="9.955068904339615"><ele>103.66666666666666</ele><time>2026-05-02T16:04:00.001Z</time></trkpt><trkpt lat="45.47441654059158" lon="9.954793931849627"><ele>103.33333333333334</ele><time>2026-05-02T16:04:01.001Z</time></trkpt><trkpt lat="45.474450871878396" lon="9.954529083836261"><ele>103.0</ele><time>2026-05-02T16:04:02.001Z</time></trkpt><trkpt lat="45.47448403410454" lon="9.954284492274256"><ele>103.33333333333334</ele><time>2026-05-02T16:04:03.001Z</time></trkpt><trkpt lat="45.4745173697393" lon="9.954053875337557"><ele>103.66666666666666</ele><time>2026-05-02T16:04:04.001Z</time></trkpt><trkpt lat="45.474549415937375" lon="9.953841958513559"><ele>104.0</ele><time>2026-05-02T16:04:05.001Z</time></trkpt><trkpt lat="45.47457882287458" lon="9.953647450462968"><ele>104.2</ele><time>2026-05-02T16:04:06.001Z</time></trkpt><trkpt lat="45.474605855298385" lon="9.95348277052176"><ele>104.4</ele><time>2026-05-02T16:04:07.001Z</time></trkpt><trkpt lat="45.47464166124623" lon="9.953333025676464"><ele>104.6</ele><time>2026-05-02T16:04:08.001Z</time></trkpt><trkpt lat="45.47470613436467" lon="9.953205365534977"><ele>104.8</ele><time>2026-05-02T16:04:09.001Z</time></trkpt><trkpt lat="45.47479159895688" lon="9.95311937978256"><ele>105.0</ele><time>2026-05-02T16:04:10.001Z</time></trkpt><trkpt lat="45.474846288208084" lon="9.95302489245214"><ele>105.0</ele><time>2026-05-02T16:04:11.001Z</time></trkpt><trkpt lat="45.47486674010887" lon="9.952932181299966"><ele>105.0</ele><time>2026-05-02T16:04:12.001Z</time></trkpt><trkpt lat="45.474767401473784" lon="9.95281281465324"><ele>105.0</ele><time>2026-05-02T16:04:13.001Z</time></trkpt><trkpt lat="45.47467370409602" lon="9.952789706341022"><ele>105.0</ele><time>2026-05-02T16:04:14.001Z</time></trkpt><trkpt lat="45.474569087711494" lon="9.952829414131843"><ele>105.0</ele><time>2026-05-02T16:04:15.001Z</time></trkpt><trkpt lat="45.47448986307761" lon="9.95295702868639"><ele>105.0</ele><time>2026-05-02T16:04:16.001Z</time></trkpt><trkpt lat="45.47417389310422" lon="9.95283520461401"><ele>105.0</ele><time>2026-05-02T16:04:18.001Z</time></trkpt><trkpt lat="45.47403546553793" lon="9.952813781054985"><ele>105.0</ele><time>2026-05-02T16:04:19.001Z</time></trkpt><trkpt lat="45.473910035012416" lon="9.952785018284864"><ele>105.0</ele><time>2026-05-02T16:04:20.001Z</time></trkpt><trkpt lat="45.47379489286598" lon="9.952757907129547"><ele>105.0</ele><time>2026-05-02T16:04:21.001Z</time></trkpt><trkpt lat="45.473689335840156" lon="9.952727782804654"><ele>105.0</ele><time>2026-05-02T16:04:22.001Z</time></trkpt><trkpt lat="45.47358694819821" lon="9.952701661335155"><ele>105.0</ele><time>2026-05-02T16:04:23.001Z</time></trkpt><trkpt lat="45.47348696810983" lon="9.952678605545826"><ele>105.0</ele><time>2026-05-02T16:04:24.001Z</time></trkpt><trkpt lat="45.47338791840131" lon="9.952653706442538"><ele>105.0</ele><time>2026-05-02T16:04:25.001Z</time></trkpt><trkpt lat="45.47328799276346" lon="9.952632280672029"><ele>105.0</ele><time>2026-05-02T16:04:26.001Z</time></trkpt><trkpt lat="45.47318072912173" lon="9.95260695528422"><ele>105.0</ele><time>2026-05-02T16:04:27.001Z</time></trkpt><trkpt lat="45.47306000042473" lon="9.952577712558051"><ele>105.0</ele><time>2026-05-02T16:04:28.001Z</time></trkpt><trkpt lat="45.472956286236716" lon="9.952557223858303"><ele>105.0</ele><time>2026-05-02T16:04:29.001Z</time></trkpt><trkpt lat="45.47287050873689" lon="9.952538934029464"><ele>105.0</ele><time>2026-05-02T16:04:30.001Z</time></trkpt><trkpt lat="45.47279838501028" lon="9.952526452144495"><ele>105.0</ele><time>2026-05-02T16:04:31.001Z</time></trkpt><trkpt lat="45.47270311733903" lon="9.952452613660652"><ele>105.0</ele><time>2026-05-02T16:04:33.001Z</time></trkpt><trkpt lat="45.472730622654275" lon="9.952256889623271"><ele>105.0</ele><time>2026-05-02T16:04:35.001Z</time></trkpt><trkpt lat="45.472739256502265" lon="9.95214540727043"><ele>105.0</ele><time>2026-05-02T16:04:36.001Z</time></trkpt><trkpt lat="45.47276415750855" lon="9.95201752471781"><ele>105.0</ele><time>2026-05-02T16:04:37.001Z</time></trkpt><trkpt lat="45.472780997788114" lon="9.951882879866321"><ele>105.0</ele><time>2026-05-02T16:04:38.001Z</time></trkpt><trkpt lat="45.47279365781347" lon="9.951735794940463"><ele>105.0</ele><time>2026-05-02T16:04:39.001Z</time></trkpt><trkpt lat="45.472808210843006" lon="9.951584340060565"><ele>105.0</ele><time>2026-05-02T16:04:40.001Z</time></trkpt><trkpt lat="45.4728254596554" lon="9.951426484578814"><ele>105.0</ele><time>2026-05-02T16:04:41.001Z</time></trkpt><trkpt lat="45.47284317883866" lon="9.951272304374722"><ele>105.0</ele><time>2026-05-02T16:04:42.001Z</time></trkpt><trkpt lat="45.472861404439655" lon="9.951117879079451"><ele>105.0</ele><time>2026-05-02T16:04:43.001Z</time></trkpt><trkpt lat="45.47287985013602" lon="9.950957578539901"><ele>105.0</ele><time>2026-05-02T16:04:44.002Z</time></trkpt><trkpt lat="45.47289897900723" lon="9.950797057430494"><ele>105.0</ele><time>2026-05-02T16:04:45.002Z</time></trkpt><trkpt lat="45.47291820606211" lon="9.950642303742761"><ele>105.0</ele><time>2026-05-02T16:04:46.002Z</time></trkpt><trkpt lat="45.47293073585183" lon="9.950481857802393"><ele>105.0</ele><time>2026-05-02T16:04:47.002Z</time></trkpt><trkpt lat="45.472944855972536" lon="9.95031714228867"><ele>105.0</ele><time>2026-05-02T16:04:48.002Z</time></trkpt><trkpt lat="45.47295883896355" lon="9.95015447196206"><ele>105.4</ele><time>2026-05-02T16:04:49.002Z</time></trkpt><trkpt lat="45.47297405306663" lon="9.949996487228397"><ele>105.8</ele><time>2026-05-02T16:04:50.002Z</time></trkpt><trkpt lat="45.472992270381184" lon="9.949837808466523"><ele>106.19999999999999</ele><time>2026-05-02T16:04:51.002Z</time></trkpt><trkpt lat="45.47301160664848" lon="9.949688080905979"><ele>106.6</ele><time>2026-05-02T16:04:52.002Z</time></trkpt><trkpt lat="45.473030222901244" lon="9.949542539329588"><ele>107.0</ele><time>2026-05-02T16:04:53.002Z</time></trkpt><trkpt lat="45.473034094076304" lon="9.949395217001978"><ele>107.0</ele><time>2026-05-02T16:04:54.002Z</time></trkpt><trkpt lat="45.47302896852786" lon="9.94925513989607"><ele>106.99999999999999</ele><time>2026-05-02T16:04:55.002Z</time></trkpt><trkpt lat="45.473049525094765" lon="9.949113642848578"><ele>106.99999999999999</ele><time>2026-05-02T16:04:56.002Z</time></trkpt><trkpt lat="45.47304797923966" lon="9.94898151492782"><ele>107.0</ele><time>2026-05-02T16:04:57.002Z</time></trkpt><trkpt lat="45.47306663467683" lon="9.948866975096854"><ele>107.0</ele><time>2026-05-02T16:04:58.002Z</time></trkpt><trkpt lat="45.473084451409306" lon="9.948740955686826"><ele>106.99999999999999</ele><time>2026-05-02T16:05:00.002Z</time></trkpt><trkpt lat="45.47309757826685" lon="9.948600727521779"><ele>107.0</ele><time>2026-05-02T16:05:03.002Z</time></trkpt><trkpt lat="45.47310444214728" lon="9.94849652862639"><ele>107.0</ele><time>2026-05-02T16:05:04.002Z</time></trkpt><trkpt lat="45.47310953624519" lon="9.94839676697124"><ele>107.0</ele><time>2026-05-02T16:05:05.002Z</time></trkpt><trkpt lat="45.47312180171631" lon="9.948302591037395"><ele>106.99999999999999</ele><time>2026-05-02T16:05:06.002Z</time></trkpt><trkpt lat="45.473133269918726" lon="9.948201503844105"><ele>107.0</ele><time>2026-05-02T16:05:07.002Z</time></trkpt><trkpt lat="45.47316534282241" lon="9.948111464384802"><ele>106.83333333333333</ele><time>2026-05-02T16:05:08.002Z</time></trkpt><trkpt lat="45.47317030907048" lon="9.94800354865949"><ele>106.66666666666666</ele><time>2026-05-02T16:05:09.002Z</time></trkpt><trkpt lat="45.473200152915844" lon="9.947910756675629"><ele>106.5</ele><time>2026-05-02T16:05:10.002Z</time></trkpt><trkpt lat="45.47321666183009" lon="9.94781838732713"><ele>106.33333333333334</ele><time>2026-05-02T16:05:11.002Z</time></trkpt><trkpt lat="45.47322285043349" lon="9.947708694939402"><ele>106.16666666666667</ele><time>2026-05-02T16:05:12.002Z</time></trkpt><trkpt lat="45.473230734011885" lon="9.947543794692887"><ele>106.0</ele><time>2026-05-02T16:05:14.002Z</time></trkpt><trkpt lat="45.473099271507905" lon="9.947509697782287"><ele>106.0</ele><time>2026-05-02T16:05:17.002Z</time></trkpt><trkpt lat="45.47297601830411" lon="9.947525723868676"><ele>106.0</ele><time>2026-05-02T16:05:19.002Z</time></trkpt><trkpt lat="45.4729099265571" lon="9.94752541438736"><ele>106.0</ele><time>2026-05-02T16:05:20.002Z</time></trkpt><trkpt lat="45.47279381527341" lon="9.947521376074702"><ele>106.0</ele><time>2026-05-02T16:05:22.002Z</time></trkpt><trkpt lat="45.472674716203485" lon="9.947468825254278"><ele>106.0</ele><time>2026-05-02T16:05:24.002Z</time></trkpt><trkpt lat="45.47260890115654" lon="9.947450908808463"><ele>106.28571428571429</ele><time>2026-05-02T16:05:25.002Z</time></trkpt><trkpt lat="45.47253809552241" lon="9.94742635681249"><ele>106.57142857142857</ele><time>2026-05-02T16:05:26.002Z</time></trkpt><trkpt lat="45.47247038208648" lon="9.947397642637956"><ele>106.85714285714286</ele><time>2026-05-02T16:05:27.002Z</time></trkpt><trkpt lat="45.47240392603986" lon="9.947362611114059"><ele>107.14285714285714</ele><time>2026-05-02T16:05:28.002Z</time></trkpt><trkpt lat="45.472334144719156" lon="9.947332652933579"><ele>107.42857142857142</ele><time>2026-05-02T16:05:29.002Z</time></trkpt><trkpt lat="45.47227317752121" lon="9.947279188982609"><ele>107.71428571428571</ele><time>2026-05-02T16:05:30.002Z</time></trkpt><trkpt lat="45.472202855721115" lon="9.947247728562214"><ele>108.0</ele><time>2026-05-02T16:05:31.002Z</time></trkpt><trkpt lat="45.47212991574882" lon="9.94722969328034"><ele>107.5</ele><time>2026-05-02T16:05:32.003Z</time></trkpt><trkpt lat="45.47205085592963" lon="9.94724404057518"><ele>107.0</ele><time>2026-05-02T16:05:33.003Z</time></trkpt><trkpt lat="45.47197404076524" lon="9.947244040577445"><ele>106.5</ele><time>2026-05-02T16:05:34.003Z</time></trkpt><trkpt lat="45.47189939572045" lon="9.947244040578758"><ele>106.0</ele><time>2026-05-02T16:05:35.003Z</time></trkpt><trkpt lat="45.47182389441636" lon="9.94725739382552"><ele>105.5</ele><time>2026-05-02T16:05:36.003Z</time></trkpt><trkpt lat="45.47175604705145" lon="9.947309172534737"><ele>105.0</ele><time>2026-05-02T16:05:37.001Z</time></trkpt><trkpt lat="45.471712311857" lon="9.947404173995748"><ele>105.0</ele><time>2026-05-02T16:05:38.001Z</time></trkpt><trkpt lat="45.471653614907" lon="9.947449412933574"><ele>105.0</ele><time>2026-05-02T16:05:39.001Z</time></trkpt><trkpt lat="45.47166326956052" lon="9.947594591812903"><ele>105.0</ele><time>2026-05-02T16:05:40.001Z</time></trkpt><trkpt lat="45.4716570579924" lon="9.947703816238747"><ele>105.0</ele><time>2026-05-02T16:05:41.001Z</time></trkpt><trkpt lat="45.47165770502266" lon="9.947816265093083"><ele>105.0</ele><time>2026-05-02T16:05:42.001Z</time></trkpt><trkpt lat="45.47165715083316" lon="9.94792398850364"><ele>105.0</ele><time>2026-05-02T16:05:43.001Z</time></trkpt><trkpt lat="45.47165410285556" lon="9.948028341041752"><ele>104.8</ele><time>2026-05-02T16:05:44.001Z</time></trkpt><trkpt lat="45.47164988790464" lon="9.948126541627001"><ele>104.6</ele><time>2026-05-02T16:05:45.001Z</time></trkpt><trkpt lat="45.471646882700206" lon="9.948279173285886"><ele>104.4</ele><time>2026-05-02T16:05:47.001Z</time></trkpt><trkpt lat="45.471632741924324" lon="9.948439407092218"><ele>104.2</ele><time>2026-05-02T16:05:54.001Z</time></trkpt><trkpt lat="45.47162958453131" lon="9.948532161273166"><ele>104.0</ele><time>2026-05-02T16:05:55.001Z</time></trkpt><trkpt lat="45.47163198825962" lon="9.948725376069397"><ele>103.99999999999999</ele><time>2026-05-02T16:05:57.001Z</time></trkpt><trkpt lat="45.47163002264653" lon="9.948829907030506"><ele>104.0</ele><time>2026-05-02T16:05:58.001Z</time></trkpt><trkpt lat="45.47162647355099" lon="9.948951717796133"><ele>104.0</ele><time>2026-05-02T16:05:59.001Z</time></trkpt><trkpt lat="45.471625551830286" lon="9.949076400849567"><ele>104.0</ele><time>2026-05-02T16:06:00.001Z</time></trkpt><trkpt lat="45.471606461085855" lon="9.949206158915331"><ele>103.99999999999999</ele><time>2026-05-02T16:06:01.001Z</time></trkpt><trkpt lat="45.471601591623624" lon="9.949348092906488"><ele>104.0</ele><time>2026-05-02T16:06:02.001Z</time></trkpt><trkpt lat="45.47159687047036" lon="9.949485704286946"><ele>103.83333333333333</ele><time>2026-05-02T16:06:03.001Z</time></trkpt><trkpt lat="45.47160676686545" lon="9.949612424425101"><ele>103.66666666666666</ele><time>2026-05-02T16:06:04.001Z</time></trkpt><trkpt lat="45.471601397085436" lon="9.949726353331481"><ele>103.5</ele><time>2026-05-02T16:06:05.001Z</time></trkpt><trkpt lat="45.47159500129327" lon="9.949830124300684"><ele>103.33333333333334</ele><time>2026-05-02T16:06:06.001Z</time></trkpt><trkpt lat="45.471589106659245" lon="9.94996394578729"><ele>103.16666666666667</ele><time>2026-05-02T16:06:08.001Z</time></trkpt><trkpt lat="45.471598738681415" lon="9.950078651838682"><ele>103.0</ele><time>2026-05-02T16:06:12.001Z</time></trkpt><trkpt lat="45.47165101476985" lon="9.950236069391613"><ele>103.00000000000001</ele><time>2026-05-02T16:06:14.001Z</time></trkpt><trkpt lat="45.47161483405992" lon="9.95033405094873"><ele>103.0</ele><time>2026-05-02T16:06:15.001Z</time></trkpt><trkpt lat="45.47160199005181" lon="9.950442402858751"><ele>103.0</ele><time>2026-05-02T16:06:16.001Z</time></trkpt><trkpt lat="45.471589456402214" lon="9.95054813735068"><ele>103.0</ele><time>2026-05-02T16:06:17.001Z</time></trkpt><trkpt lat="45.471578471324314" lon="9.950640807587526"><ele>103.00000000000001</ele><time>2026-05-02T16:06:18.001Z</time></trkpt><trkpt lat="45.47156159541841" lon="9.950783173168858"><ele>103.0</ele><time>2026-05-02T16:06:20.001Z</time></trkpt><trkpt lat="45.471550004502" lon="9.950880954345024"><ele>103.0</ele><time>2026-05-02T16:06:23.001Z</time></trkpt><trkpt lat="45.47153818628122" lon="9.950980653205534"><ele>103.0</ele><time>2026-05-02T16:11:51.002Z</time></trkpt><trkpt lat="45.47151186668267" lon="9.951065557470805"><ele>103.0</ele><time>2026-05-02T16:11:55.001Z</time></trkpt><trkpt lat="45.47154235315925" lon="9.95115839743913"><ele>103.0</ele><time>2026-05-02T16:12:00.001Z</time></trkpt><trkpt lat="45.47156710811869" lon="9.950891181626842"><ele>103.0</ele><time>2026-05-02T16:12:06Z</time></trkpt><trkpt lat="45.471581133226586" lon="9.950759883549383"><ele>103.0</ele><time>2026-05-02T16:12:08Z</time></trkpt><trkpt lat="45.47159899595417" lon="9.950592680320643"><ele>103.0</ele><time>2026-05-02T16:12:10Z</time></trkpt><trkpt lat="45.47161794369579" lon="9.950413219252427"><ele>103.0</ele><time>2026-05-02T16:12:12Z</time></trkpt><trkpt lat="45.47163512826979" lon="9.950246633602156"><ele>103.0</ele><time>2026-05-02T16:12:14Z</time></trkpt><trkpt lat="45.47163614158995" lon="9.950116769250407"><ele>103.0</ele><time>2026-05-02T16:12:16Z</time></trkpt><trkpt lat="45.471601222599304" lon="9.950009889486832"><ele>103.0</ele><time>2026-05-02T16:12:18Z</time></trkpt><trkpt lat="45.471617672923315" lon="9.949876686662671"><ele>103.0</ele><time>2026-05-02T16:12:20Z</time></trkpt><trkpt lat="45.471622984653344" lon="9.94969486821604"><ele>103.0</ele><time>2026-05-02T16:12:22Z</time></trkpt><trkpt lat="45.47162646436557" lon="9.949594652740402"><ele>103.0</ele><time>2026-05-02T16:12:23Z</time></trkpt><trkpt lat="45.471618686582964" lon="9.949485515805822"><ele>103.00000000000001</ele><time>2026-05-02T16:12:24Z</time></trkpt><trkpt lat="45.47162828188392" lon="9.949366561509455"><ele>103.0</ele><time>2026-05-02T16:12:25Z</time></trkpt><trkpt lat="45.471636453247214" lon="9.949229961743145"><ele>103.0</ele><time>2026-05-02T16:12:26Z</time></trkpt><trkpt lat="45.47164373972756" lon="9.949100925358174"><ele>103.0</ele><time>2026-05-02T16:12:27.001Z</time></trkpt><trkpt lat="45.47164366847989" lon="9.948976004331566"><ele>103.00000000000001</ele><time>2026-05-02T16:12:28.001Z</time></trkpt><trkpt lat="45.471643162484185" lon="9.948854562835681"><ele>103.0</ele><time>2026-05-02T16:12:29.001Z</time></trkpt><trkpt lat="45.471644031639244" lon="9.948741245796656"><ele>103.2</ele><time>2026-05-02T16:12:30.001Z</time></trkpt><trkpt lat="45.47165050602371" lon="9.948633882035756"><ele>103.4</ele><time>2026-05-02T16:12:31.001Z</time></trkpt><trkpt lat="45.471652739125695" lon="9.94854062055578"><ele>103.60000000000001</ele><time>2026-05-02T16:12:32.001Z</time></trkpt><trkpt lat="45.471656933381496" lon="9.948408420321641"><ele>103.80000000000001</ele><time>2026-05-02T16:12:34.001Z</time></trkpt><trkpt lat="45.47168688886318" lon="9.94831911212979"><ele>104.0</ele><time>2026-05-02T16:12:39.001Z</time></trkpt><trkpt lat="45.4718630877614" lon="9.948369022651706"><ele>103.99999999999999</ele><time>2026-05-02T16:12:41.001Z</time></trkpt><trkpt lat="45.47193896483375" lon="9.948370384280217"><ele>104.0</ele><time>2026-05-02T16:12:42.001Z</time></trkpt><trkpt lat="45.47201428790604" lon="9.948371735973337"><ele>104.0</ele><time>2026-05-02T16:12:43.001Z</time></trkpt><trkpt lat="45.47209317589135" lon="9.948350546288705"><ele>104.0</ele><time>2026-05-02T16:12:44.001Z</time></trkpt><trkpt lat="45.47217282333138" lon="9.948350383826812"><ele>103.99999999999999</ele><time>2026-05-02T16:12:45.001Z</time></trkpt><trkpt lat="45.47225120747359" lon="9.948355775535143"><ele>104.0</ele><time>2026-05-02T16:12:46.001Z</time></trkpt><trkpt lat="45.472332306219585" lon="9.94835434485673"><ele>104.33333333333333</ele><time>2026-05-02T16:12:47.001Z</time></trkpt><trkpt lat="45.47240860537701" lon="9.948353274296586"><ele>104.66666666666666</ele><time>2026-05-02T16:12:48.001Z</time></trkpt><trkpt lat="45.47248133652245" lon="9.948343041181966"><ele>105.0</ele><time>2026-05-02T16:12:49.001Z</time></trkpt><trkpt lat="45.472550642709365" lon="9.948341477456331"><ele>105.33333333333334</ele><time>2026-05-02T16:12:50.001Z</time></trkpt><trkpt lat="45.47261529522725" lon="9.948360357497204"><ele>105.66666666666667</ele><time>2026-05-02T16:12:51.001Z</time></trkpt><trkpt lat="45.47268232180515" lon="9.948338926850012"><ele>106.0</ele><time>2026-05-02T16:12:52.001Z</time></trkpt><trkpt lat="45.4727903695546" lon="9.948365191274068"><ele>106.0</ele><time>2026-05-02T16:12:54.001Z</time></trkpt><trkpt lat="45.47286901440905" lon="9.948353796192801"><ele>106.0</ele><time>2026-05-02T16:12:57.001Z</time></trkpt><trkpt lat="45.47280910282416" lon="9.94839032145426"><ele>105.0</ele><time>2026-05-02T16:13:07.001Z</time></trkpt></trkseg></trk></gpx>